<?xml version='1.0' encoding='UTF-8'?><gpx version="1.1" creator="JPX - https://github.com/jenetics/jpx" xmlns="http://www.topografix.com/GPX/1/1"><trk><trkseg><trkpt lat="43.9752225" lon="12.4817084"><ele>120.0</ele><time>2026-04-30T13:52:00.185Z</time></trkpt><trkpt lat="43.9751602" lon="12.4817765"><ele>120.0</ele><time>2026-04-30T13:52:15.187Z</time></trkpt><trkpt lat="43.9750559" lon="12.481799"><ele>120.0</ele><time>2026-04-30T13:52:17.144Z</time></trkpt><trkpt lat="43.9749468" lon="12.4818548"><ele>120.0</ele><time>2026-04-30T13:52:19.174Z</time></trkpt><trkpt lat="43.9748306" lon="12.481903"><ele>120.0</ele><time>2026-04-30T13:52:21.171Z</time></trkpt><trkpt lat="43.9747637" lon="12.4819281"><ele>119.6</ele><time>2026-04-30T13:52:22.195Z</time></trkpt><trkpt lat="43.9746924" lon="12.4819347"><ele>119.2</ele><time>2026-04-30T13:52:23.175Z</time></trkpt><trkpt lat="43.974601" lon="12.4819046"><ele>118.80000000000001</ele><time>2026-04-30T13:52:24.198Z</time></trkpt><trkpt lat="43.9745075" lon="12.4818617"><ele>118.4</ele><time>2026-04-30T13:52:25.175Z</time></trkpt><trkpt lat="43.9744152" lon="12.4818161"><ele>118.0</ele><time>2026-04-30T13:52:26.183Z</time></trkpt><trkpt lat="43.9743156" lon="12.4817679"><ele>118.00000000000001</ele><time>2026-04-30T13:52:27.195Z</time></trkpt><trkpt lat="43.9742242" lon="12.4817353"><ele>118.0</ele><time>2026-04-30T13:52:28.15Z</time></trkpt><trkpt lat="43.9741397" lon="12.4817111"><ele>118.0</ele><time>2026-04-30T13:52:29.202Z</time></trkpt><trkpt lat="43.974078" lon="12.4816906"><ele>118.0</ele><time>2026-04-30T13:52:30.171Z</time></trkpt><trkpt lat="43.9740077" lon="12.4817147"><ele>118.00000000000001</ele><time>2026-04-30T13:52:32.18Z</time></trkpt><trkpt lat="43.9739712" lon="12.481851"><ele>118.0</ele><time>2026-04-30T13:52:34.216Z</time></trkpt><trkpt lat="43.9739632" lon="12.4820038"><ele>114.83333333333334</ele><time>2026-04-30T13:52:36.188Z</time></trkpt><trkpt lat="43.9739594" lon="12.4821657"><ele>111.66666666666667</ele><time>2026-04-30T13:52:38.197Z</time></trkpt><trkpt lat="43.9739653" lon="12.4822649"><ele>108.5</ele><time>2026-04-30T13:52:39.195Z</time></trkpt><trkpt lat="43.973973" lon="12.4823725"><ele>105.33333333333334</ele><time>2026-04-30T13:52:40.22Z</time></trkpt><trkpt lat="43.9739815" lon="12.4824608"><ele>102.16666666666667</ele><time>2026-04-30T13:52:41.19Z</time></trkpt><trkpt lat="43.9739505" lon="12.4825413"><ele>99.0</ele><time>2026-04-30T13:52:44.155Z</time></trkpt><trkpt lat="43.9738903" lon="12.4824403"><ele>99.0</ele><time>2026-04-30T13:52:47.17Z</time></trkpt><trkpt lat="43.9738098" lon="12.4823188"><ele>99.0</ele><time>2026-04-30T13:52:49.164Z</time></trkpt><trkpt lat="43.9737522" lon="12.4822559"><ele>99.0</ele><time>2026-04-30T13:52:50.195Z</time></trkpt><trkpt lat="43.973691" lon="12.4821787"><ele>99.0</ele><time>2026-04-30T13:52:51.199Z</time></trkpt><trkpt lat="43.9736299" lon="12.4821042"><ele>99.0</ele><time>2026-04-30T13:52:52.179Z</time></trkpt><trkpt lat="43.9735653" lon="12.4820164"><ele>99.0</ele><time>2026-04-30T13:52:53.202Z</time></trkpt><trkpt lat="43.9735034" lon="12.4819267"><ele>100.4</ele><time>2026-04-30T13:52:54.188Z</time></trkpt><trkpt lat="43.9734354" lon="12.4818549"><ele>101.80000000000001</ele><time>2026-04-30T13:52:55.195Z</time></trkpt><trkpt lat="43.9733525" lon="12.4818024"><ele>103.19999999999999</ele><time>2026-04-30T13:52:56.205Z</time></trkpt><trkpt lat="43.9732598" lon="12.481774"><ele>104.6</ele><time>2026-04-30T13:52:57.158Z</time></trkpt><trkpt lat="43.9731689" lon="12.4817616"><ele>106.0</ele><time>2026-04-30T13:52:58.2Z</time></trkpt><trkpt lat="43.9730675" lon="12.4817692"><ele>103.33333333333334</ele><time>2026-04-30T13:52:59.164Z</time></trkpt><trkpt lat="43.972974" lon="12.4817843"><ele>100.66666666666667</ele><time>2026-04-30T13:53:00.204Z</time></trkpt><trkpt lat="43.9728883" lon="12.4817979"><ele>98.0</ele><time>2026-04-30T13:53:01.18Z</time></trkpt><trkpt lat="43.9728147" lon="12.481812"><ele>95.33333333333334</ele><time>2026-04-30T13:53:02.195Z</time></trkpt><trkpt lat="43.9727178" lon="12.4818187"><ele>92.66666666666667</ele><time>2026-04-30T13:53:04.19Z</time></trkpt><trkpt lat="43.9726587" lon="12.4818552"><ele>90.0</ele><time>2026-04-30T13:53:07.202Z</time></trkpt><trkpt lat="43.972614" lon="12.4819439"><ele>90.0</ele><time>2026-04-30T13:53:10.209Z</time></trkpt><trkpt lat="43.9726151" lon="12.4820384"><ele>90.0</ele><time>2026-04-30T13:53:13.212Z</time></trkpt><trkpt lat="43.9726249" lon="12.482129"><ele>90.0</ele><time>2026-04-30T13:53:18.202Z</time></trkpt><trkpt lat="43.9725824" lon="12.482247"><ele>90.0</ele><time>2026-04-30T13:53:23.16Z</time></trkpt><trkpt lat="43.9725243" lon="12.4823203"><ele>90.0</ele><time>2026-04-30T13:53:25.182Z</time></trkpt><trkpt lat="43.9724441" lon="12.4823886"><ele>90.0</ele><time>2026-04-30T13:53:27.209Z</time></trkpt><trkpt lat="43.9723478" lon="12.4824154"><ele>90.2</ele><time>2026-04-30T13:53:29.18Z</time></trkpt><trkpt lat="43.9722316" lon="12.4824697"><ele>90.4</ele><time>2026-04-30T13:53:31.163Z</time></trkpt><trkpt lat="43.9721702" lon="12.4825107"><ele>90.6</ele><time>2026-04-30T13:53:32.188Z</time></trkpt><trkpt lat="43.9721047" lon="12.4825523"><ele>90.8</ele><time>2026-04-30T13:53:33.195Z</time></trkpt><trkpt lat="43.9720421" lon="12.4825916"><ele>91.0</ele><time>2026-04-30T13:53:34.192Z</time></trkpt><trkpt lat="43.9716031" lon="12.4830981"><ele>91.0</ele><time>2026-04-30T13:53:42.177Z</time></trkpt><trkpt lat="43.9715097" lon="12.4831343"><ele>91.0</ele><time>2026-04-30T13:53:45.186Z</time></trkpt><trkpt lat="43.9714131" lon="12.4831702"><ele>91.0</ele><time>2026-04-30T13:53:48.205Z</time></trkpt><trkpt lat="43.971333" lon="12.4831565"><ele>91.0</ele><time>2026-04-30T13:53:50.195Z</time></trkpt><trkpt lat="43.9712587" lon="12.483176"><ele>91.0</ele><time>2026-04-30T13:53:52.191Z</time></trkpt><trkpt lat="43.971185" lon="12.4831933"><ele>91.0</ele><time>2026-04-30T13:53:54.195Z</time></trkpt><trkpt lat="43.971086" lon="12.4831999"><ele>91.0</ele><time>2026-04-30T13:53:57.228Z</time></trkpt><trkpt lat="43.971015" lon="12.483209"><ele>91.0</ele><time>2026-04-30T13:53:59.156Z</time></trkpt><trkpt lat="43.9709364" lon="12.4832076"><ele>91.0</ele><time>2026-04-30T13:54:01.21Z</time></trkpt><trkpt lat="43.9708448" lon="12.4832107"><ele>91.0</ele><time>2026-04-30T13:54:03.211Z</time></trkpt><trkpt lat="43.9707524" lon="12.4831958"><ele>91.0</ele><time>2026-04-30T13:54:05.209Z</time></trkpt><trkpt lat="43.9706804" lon="12.4831759"><ele>91.0</ele><time>2026-04-30T13:54:07.201Z</time></trkpt><trkpt lat="43.9706032" lon="12.4831583"><ele>91.16666666666666</ele><time>2026-04-30T13:54:09.185Z</time></trkpt><trkpt lat="43.970529" lon="12.4831288"><ele>91.33333333333333</ele><time>2026-04-30T13:54:11.185Z</time></trkpt><trkpt lat="43.9704331" lon="12.483112"><ele>91.5</ele><time>2026-04-30T13:54:13.179Z</time></trkpt><trkpt lat="43.9703462" lon="12.4830973"><ele>91.66666666666667</ele><time>2026-04-30T13:54:15.187Z</time></trkpt><trkpt lat="43.9702668" lon="12.4830663"><ele>91.83333333333334</ele><time>2026-04-30T13:54:17.207Z</time></trkpt><trkpt lat="43.9702079" lon="12.4830117"><ele>92.0</ele><time>2026-04-30T13:54:19.188Z</time></trkpt><trkpt lat="43.9701477" lon="12.4829612"><ele>92.0</ele><time>2026-04-30T13:54:21.19Z</time></trkpt><trkpt lat="43.9700517" lon="12.4830056"><ele>92.0</ele><time>2026-04-30T13:54:23.192Z</time></trkpt><trkpt lat="43.9699587" lon="12.4830022"><ele>92.0</ele><time>2026-04-30T13:54:25.213Z</time></trkpt><trkpt lat="43.9698763" lon="12.4829816"><ele>92.0</ele><time>2026-04-30T13:54:27.203Z</time></trkpt><trkpt lat="43.969803" lon="12.4829718"><ele>92.0</ele><time>2026-04-30T13:54:29.193Z</time></trkpt><trkpt lat="43.9697258" lon="12.482923"><ele>92.0</ele><time>2026-04-30T13:54:31.203Z</time></trkpt><trkpt lat="43.9696357" lon="12.4829306"><ele>91.39999999999999</ele><time>2026-04-30T13:54:33.21Z</time></trkpt><trkpt lat="43.9695359" lon="12.4829161"><ele>90.8</ele><time>2026-04-30T13:54:35.191Z</time></trkpt><trkpt lat="43.9694241" lon="12.4828899"><ele>90.2</ele><time>2026-04-30T13:54:37.173Z</time></trkpt><trkpt lat="43.9693186" lon="12.4829018"><ele>89.6</ele><time>2026-04-30T13:54:39.204Z</time></trkpt><trkpt lat="43.9692331" lon="12.4829267"><ele>89.0</ele><time>2026-04-30T13:54:41.211Z</time></trkpt><trkpt lat="43.9691598" lon="12.4829412"><ele>89.0</ele><time>2026-04-30T13:54:43.198Z</time></trkpt><trkpt lat="43.9690673" lon="12.4829531"><ele>89.0</ele><time>2026-04-30T13:54:45.204Z</time></trkpt><trkpt lat="43.9689887" lon="12.4829561"><ele>89.0</ele><time>2026-04-30T13:54:47.196Z</time></trkpt><trkpt lat="43.9689091" lon="12.4829717"><ele>89.0</ele><time>2026-04-30T13:54:49.201Z</time></trkpt><trkpt lat="43.9688079" lon="12.4829716"><ele>89.0</ele><time>2026-04-30T13:54:51.215Z</time></trkpt><trkpt lat="43.9687191" lon="12.4829478"><ele>89.0</ele><time>2026-04-30T13:54:53.192Z</time></trkpt><trkpt lat="43.9686193" lon="12.4829285"><ele>91.16666666666667</ele><time>2026-04-30T13:54:55.217Z</time></trkpt><trkpt lat="43.9685304" lon="12.4829239"><ele>93.33333333333334</ele><time>2026-04-30T13:54:57.234Z</time></trkpt><trkpt lat="43.9684585" lon="12.4828897"><ele>95.5</ele><time>2026-04-30T13:54:59.203Z</time></trkpt><trkpt lat="43.9683839" lon="12.4828392"><ele>97.66666666666667</ele><time>2026-04-30T13:55:01.211Z</time></trkpt><trkpt lat="43.9683025" lon="12.4827709"><ele>99.83333333333333</ele><time>2026-04-30T13:55:03.222Z</time></trkpt><trkpt lat="43.9682257" lon="12.4827096"><ele>102.0</ele><time>2026-04-30T13:55:05.205Z</time></trkpt><trkpt lat="43.9681567" lon="12.4826522"><ele>102.0</ele><time>2026-04-30T13:55:07.173Z</time></trkpt><trkpt lat="43.9680941" lon="12.4825826"><ele>102.0</ele><time>2026-04-30T13:55:09.21Z</time></trkpt><trkpt lat="43.9680308" lon="12.4824967"><ele>102.0</ele><time>2026-04-30T13:55:11.182Z</time></trkpt><trkpt lat="43.9679699" lon="12.4824141"><ele>102.0</ele><time>2026-04-30T13:55:13.198Z</time></trkpt><trkpt lat="43.9679278" lon="12.4823185"><ele>102.0</ele><time>2026-04-30T13:55:15.206Z</time></trkpt><trkpt lat="43.9678835" lon="12.4822206"><ele>102.0</ele><time>2026-04-30T13:55:17.197Z</time></trkpt><trkpt lat="43.9678418" lon="12.4821165"><ele>104.39999999999999</ele><time>2026-04-30T13:55:19.204Z</time></trkpt><trkpt lat="43.9678127" lon="12.4820051"><ele>106.8</ele><time>2026-04-30T13:55:21.196Z</time></trkpt><trkpt lat="43.9677715" lon="12.4818925"><ele>109.2</ele><time>2026-04-30T13:55:23.198Z</time></trkpt><trkpt lat="43.9677454" lon="12.4817559"><ele>111.6</ele><time>2026-04-30T13:55:25.2Z</time></trkpt><trkpt lat="43.9677258" lon="12.4816343"><ele>114.0</ele><time>2026-04-30T13:55:27.2Z</time></trkpt><trkpt lat="43.9677211" lon="12.4814965"><ele>114.0</ele><time>2026-04-30T13:55:29.221Z</time></trkpt><trkpt lat="43.9677139" lon="12.4813858"><ele>114.0</ele><time>2026-04-30T13:55:31.207Z</time></trkpt><trkpt lat="43.967713" lon="12.4812556"><ele>114.0</ele><time>2026-04-30T13:55:33.216Z</time></trkpt><trkpt lat="43.9677214" lon="12.4811396"><ele>114.0</ele><time>2026-04-30T13:55:35.203Z</time></trkpt><trkpt lat="43.9677404" lon="12.4810137"><ele>114.0</ele><time>2026-04-30T13:55:37.231Z</time></trkpt><trkpt lat="43.967757" lon="12.4808955"><ele>114.0</ele><time>2026-04-30T13:55:39.165Z</time></trkpt><trkpt lat="43.9677688" lon="12.4807777"><ele>115.0</ele><time>2026-04-30T13:55:41.207Z</time></trkpt><trkpt lat="43.9677177" lon="12.4806946"><ele>116.0</ele><time>2026-04-30T13:55:43.174Z</time></trkpt><trkpt lat="43.9676153" lon="12.4806252"><ele>117.0</ele><time>2026-04-30T13:55:45.202Z</time></trkpt><trkpt lat="43.9675337" lon="12.4805119"><ele>118.0</ele><time>2026-04-30T13:55:47.203Z</time></trkpt><trkpt lat="43.967487" lon="12.480376"><ele>119.0</ele><time>2026-04-30T13:55:49.206Z</time></trkpt><trkpt lat="43.9674027" lon="12.4802801"><ele>116.83333333333333</ele><time>2026-04-30T13:55:51.204Z</time></trkpt><trkpt lat="43.9673144" lon="12.4802278"><ele>114.66666666666666</ele><time>2026-04-30T13:55:53.202Z</time></trkpt><trkpt lat="43.96724" lon="12.4802624"><ele>112.5</ele><time>2026-04-30T13:55:57.19Z</time></trkpt><trkpt lat="43.9672005" lon="12.4803543"><ele>110.33333333333334</ele><time>2026-04-30T13:56:00.201Z</time></trkpt><trkpt lat="43.9671753" lon="12.4804639"><ele>108.16666666666667</ele><time>2026-04-30T13:56:03.202Z</time></trkpt><trkpt lat="43.9671374" lon="12.4805568"><ele>106.0</ele><time>2026-04-30T13:56:06.18Z</time></trkpt><trkpt lat="43.9671334" lon="12.4804595"><ele>106.00000000000001</ele><time>2026-04-30T13:56:13.201Z</time></trkpt><trkpt lat="43.9671385" lon="12.4803441"><ele>106.0</ele><time>2026-04-30T13:56:17.206Z</time></trkpt><trkpt lat="43.967104" lon="12.4802477"><ele>106.0</ele><time>2026-04-30T13:56:20.212Z</time></trkpt><trkpt lat="43.9670709" lon="12.4801455"><ele>106.0</ele><time>2026-04-30T13:56:24.208Z</time></trkpt><trkpt lat="43.9670508" lon="12.4800589"><ele>106.00000000000001</ele><time>2026-04-30T13:56:27.189Z</time></trkpt><trkpt lat="43.9670339" lon="12.4799601"><ele>106.0</ele><time>2026-04-30T13:56:31.178Z</time></trkpt><trkpt lat="43.9670045" lon="12.4798684"><ele>106.0</ele><time>2026-04-30T13:56:34.189Z</time></trkpt><trkpt lat="43.9669866" lon="12.479772"><ele>106.0</ele><time>2026-04-30T13:56:37.208Z</time></trkpt><trkpt lat="43.966961" lon="12.4796784"><ele>106.0</ele><time>2026-04-30T13:56:41.213Z</time></trkpt><trkpt lat="43.9668934" lon="12.4796512"><ele>106.0</ele><time>2026-04-30T13:56:45.204Z</time></trkpt><trkpt lat="43.9668523" lon="12.4797408"><ele>106.0</ele><time>2026-04-30T13:56:50.204Z</time></trkpt><trkpt lat="43.9668297" lon="12.4798427"><ele>106.0</ele><time>2026-04-30T13:56:54.232Z</time></trkpt><trkpt lat="43.9668207" lon="12.479941"><ele>106.0</ele><time>2026-04-30T13:56:58.202Z</time></trkpt><trkpt lat="43.9667958" lon="12.4800246"><ele>106.0</ele><time>2026-04-30T13:57:02.21Z</time></trkpt><trkpt lat="43.9667712" lon="12.4799373"><ele>106.0</ele><time>2026-04-30T13:57:10.188Z</time></trkpt><trkpt lat="43.9667474" lon="12.4798431"><ele>106.0</ele><time>2026-04-30T13:57:15.219Z</time></trkpt><trkpt lat="43.9667289" lon="12.4797483"><ele>106.0</ele><time>2026-04-30T13:57:19.194Z</time></trkpt><trkpt lat="43.9666932" lon="12.4796746"><ele>106.0</ele><time>2026-04-30T13:57:24.211Z</time></trkpt><trkpt lat="43.9666622" lon="12.4795887"><ele>106.0</ele><time>2026-04-30T13:57:29.22Z</time></trkpt><trkpt lat="43.966627" lon="12.4794974"><ele>106.0</ele><time>2026-04-30T13:57:34.203Z</time></trkpt><trkpt lat="43.9665939" lon="12.4794121"><ele>108.14285714285714</ele><time>2026-04-30T13:57:39.207Z</time></trkpt><trkpt lat="43.9665305" lon="12.4793752"><ele>110.28571428571428</ele><time>2026-04-30T13:57:43.206Z</time></trkpt><trkpt lat="43.966494" lon="12.4793037"><ele>112.42857142857142</ele><time>2026-04-30T13:57:51.221Z</time></trkpt><trkpt lat="43.9664939" lon="12.4792141"><ele>114.57142857142857</ele><time>2026-04-30T13:57:56.22Z</time></trkpt><trkpt lat="43.9664624" lon="12.479137"><ele>116.7142857142857</ele><time>2026-04-30T13:58:02.228Z</time></trkpt><trkpt lat="43.9664079" lon="12.4790849"><ele>118.85714285714285</ele><time>2026-04-30T13:58:06.227Z</time></trkpt><trkpt lat="43.9663346" lon="12.4790528"><ele>121.0</ele><time>2026-04-30T13:58:10.212Z</time></trkpt><trkpt lat="43.9662581" lon="12.4790623"><ele>121.0</ele><time>2026-04-30T13:58:14.232Z</time></trkpt><trkpt lat="43.9661872" lon="12.4791043"><ele>120.99999999999999</ele><time>2026-04-30T13:58:18.224Z</time></trkpt><trkpt lat="43.9661303" lon="12.4791652"><ele>121.0</ele><time>2026-04-30T13:58:22.218Z</time></trkpt><trkpt lat="43.966082" lon="12.479227"><ele>121.0</ele><time>2026-04-30T13:58:26.231Z</time></trkpt><trkpt lat="43.9660277" lon="12.4793068"><ele>120.99999999999999</ele><time>2026-04-30T13:58:30.159Z</time></trkpt><trkpt lat="43.9660133" lon="12.4792141"><ele>121.0</ele><time>2026-04-30T13:58:39.172Z</time></trkpt><trkpt lat="43.9659798" lon="12.4791337"><ele>121.0</ele><time>2026-04-30T13:58:43.222Z</time></trkpt><trkpt lat="43.9659383" lon="12.479052"><ele>121.0</ele><time>2026-04-30T13:58:48.213Z</time></trkpt><trkpt lat="43.9658834" lon="12.4789981"><ele>120.99999999999999</ele><time>2026-04-30T13:58:53.218Z</time></trkpt><trkpt lat="43.965825" lon="12.4789266"><ele>121.0</ele><time>2026-04-30T13:58:59.208Z</time></trkpt><trkpt lat="43.9657736" lon="12.4788756"><ele>121.0</ele><time>2026-04-30T13:59:03.22Z</time></trkpt><trkpt lat="43.9657138" lon="12.4788166"><ele>120.99999999999999</ele><time>2026-04-30T13:59:07.215Z</time></trkpt><trkpt lat="43.9656493" lon="12.4787484"><ele>121.0</ele><time>2026-04-30T13:59:11.207Z</time></trkpt><trkpt lat="43.9655939" lon="12.4786693"><ele>121.0</ele><time>2026-04-30T13:59:15.196Z</time></trkpt><trkpt lat="43.9655437" lon="12.4786127"><ele>124.16666666666667</ele><time>2026-04-30T13:59:18.183Z</time></trkpt><trkpt lat="43.9654934" lon="12.4785473"><ele>127.33333333333334</ele><time>2026-04-30T13:59:21.22Z</time></trkpt><trkpt lat="43.9654305" lon="12.4784758"><ele>130.5</ele><time>2026-04-30T13:59:24.2Z</time></trkpt><trkpt lat="43.9653528" lon="12.4784109"><ele>133.66666666666666</ele><time>2026-04-30T13:59:27.225Z</time></trkpt><trkpt lat="43.9652823" lon="12.4783293"><ele>136.83333333333331</ele><time>2026-04-30T13:59:30.205Z</time></trkpt><trkpt lat="43.965233" lon="12.4782566"><ele>140.0</ele><time>2026-04-30T13:59:32.208Z</time></trkpt><trkpt lat="43.9651658" lon="12.4781591"><ele>140.0</ele><time>2026-04-30T13:59:34.219Z</time></trkpt><trkpt lat="43.9651134" lon="12.4780559"><ele>140.0</ele><time>2026-04-30T13:59:36.226Z</time></trkpt><trkpt lat="43.9650698" lon="12.4779329"><ele>140.0</ele><time>2026-04-30T13:59:38.213Z</time></trkpt><trkpt lat="43.9650301" lon="12.4778307"><ele>140.0</ele><time>2026-04-30T13:59:40.222Z</time></trkpt><trkpt lat="43.9649927" lon="12.4777352"><ele>140.0</ele><time>2026-04-30T13:59:42.221Z</time></trkpt><trkpt lat="43.9649529" lon="12.4776526"><ele>140.0</ele><time>2026-04-30T13:59:44.169Z</time></trkpt><trkpt lat="43.964897" lon="12.4775582"><ele>141.0</ele><time>2026-04-30T13:59:47.22Z</time></trkpt><trkpt lat="43.9648573" lon="12.4774753"><ele>142.0</ele><time>2026-04-30T13:59:50.225Z</time></trkpt><trkpt lat="43.9648186" lon="12.4773956"><ele>143.0</ele><time>2026-04-30T13:59:53.239Z</time></trkpt><trkpt lat="43.9647736" lon="12.4773289"><ele>144.0</ele><time>2026-04-30T13:59:56.216Z</time></trkpt><trkpt lat="43.9647207" lon="12.4772549"><ele>145.0</ele><time>2026-04-30T13:59:59.191Z</time></trkpt><trkpt lat="43.9646625" lon="12.4771804"><ele>146.0</ele><time>2026-04-30T14:00:02.225Z</time></trkpt><trkpt lat="43.9645897" lon="12.4771038"><ele>145.16666666666666</ele><time>2026-04-30T14:00:05.18Z</time></trkpt><trkpt lat="43.9645199" lon="12.4770247"><ele>144.33333333333331</ele><time>2026-04-30T14:00:08.211Z</time></trkpt><trkpt lat="43.9644687" lon="12.4769647"><ele>143.5</ele><time>2026-04-30T14:00:10.179Z</time></trkpt><trkpt lat="43.9644135" lon="12.4769224"><ele>142.66666666666666</ele><time>2026-04-30T14:00:12.222Z</time></trkpt><trkpt lat="43.9643309" lon="12.4768551"><ele>141.83333333333334</ele><time>2026-04-30T14:00:15.215Z</time></trkpt><trkpt lat="43.9642747" lon="12.476811"><ele>141.0</ele><time>2026-04-30T14:00:17.152Z</time></trkpt><trkpt lat="43.9642121" lon="12.4767629"><ele>142.42857142857144</ele><time>2026-04-30T14:00:19.174Z</time></trkpt><trkpt lat="43.9641505" lon="12.4767184"><ele>143.85714285714286</ele><time>2026-04-30T14:00:21.217Z</time></trkpt><trkpt lat="43.9640967" lon="12.4766684"><ele>145.28571428571428</ele><time>2026-04-30T14:00:23.219Z</time></trkpt><trkpt lat="43.9640365" lon="12.4766272"><ele>146.71428571428572</ele><time>2026-04-30T14:00:25.225Z</time></trkpt><trkpt lat="43.9639651" lon="12.476559"><ele>148.14285714285714</ele><time>2026-04-30T14:00:28.225Z</time></trkpt><trkpt lat="43.9639011" lon="12.4764945"><ele>149.57142857142858</ele><time>2026-04-30T14:00:31.222Z</time></trkpt><trkpt lat="43.9638471" lon="12.476429"><ele>151.0</ele><time>2026-04-30T14:00:34.22Z</time></trkpt><trkpt lat="43.9638008" lon="12.4763617"><ele>151.00000000000003</ele><time>2026-04-30T14:00:37.201Z</time></trkpt><trkpt lat="43.963755" lon="12.4762891"><ele>151.0</ele><time>2026-04-30T14:00:40.196Z</time></trkpt><trkpt lat="43.9637038" lon="12.4762082"><ele>151.0</ele><time>2026-04-30T14:00:43.236Z</time></trkpt><trkpt lat="43.9636408" lon="12.4761384"><ele>151.0</ele><time>2026-04-30T14:00:46.214Z</time></trkpt><trkpt lat="43.9636016" lon="12.4760591"><ele>151.0</ele><time>2026-04-30T14:00:49.206Z</time></trkpt><trkpt lat="43.9635448" lon="12.4760005"><ele>151.00000000000003</ele><time>2026-04-30T14:00:52.201Z</time></trkpt><trkpt lat="43.9634873" lon="12.4759363"><ele>151.0</ele><time>2026-04-30T14:00:55.207Z</time></trkpt><trkpt lat="43.9634369" lon="12.4758632"><ele>151.33333333333334</ele><time>2026-04-30T14:00:58.219Z</time></trkpt><trkpt lat="43.9633925" lon="12.4757883"><ele>151.66666666666669</ele><time>2026-04-30T14:01:01.179Z</time></trkpt><trkpt lat="43.9633735" lon="12.4756731"><ele>152.0</ele><time>2026-04-30T14:01:04.226Z</time></trkpt><trkpt lat="43.9633682" lon="12.4755456"><ele>152.33333333333334</ele><time>2026-04-30T14:01:07.22Z</time></trkpt><trkpt lat="43.9633572" lon="12.4754331"><ele>152.66666666666666</ele><time>2026-04-30T14:01:09.184Z</time></trkpt><trkpt lat="43.9632963" lon="12.4753456"><ele>153.0</ele><time>2026-04-30T14:01:11.202Z</time></trkpt><trkpt lat="43.9632199" lon="12.4753647"><ele>154.4</ele><time>2026-04-30T14:01:13.221Z</time></trkpt><trkpt lat="43.9631467" lon="12.4753704"><ele>155.8</ele><time>2026-04-30T14:01:16.183Z</time></trkpt><trkpt lat="43.9630688" lon="12.4753972"><ele>157.2</ele><time>2026-04-30T14:01:19.213Z</time></trkpt><trkpt lat="43.9629948" lon="12.4754409"><ele>158.6</ele><time>2026-04-30T14:01:22.226Z</time></trkpt><trkpt lat="43.9629137" lon="12.475513"><ele>160.0</ele><time>2026-04-30T14:01:25.206Z</time></trkpt><trkpt lat="43.9628172" lon="12.4756147"><ele>160.0</ele><time>2026-04-30T14:01:27.176Z</time></trkpt><trkpt lat="43.9627217" lon="12.4757039"><ele>160.0</ele><time>2026-04-30T14:01:29.21Z</time></trkpt><trkpt lat="43.9626351" lon="12.4757533"><ele>160.0</ele><time>2026-04-30T14:01:31.212Z</time></trkpt><trkpt lat="43.9625451" lon="12.4757817"><ele>160.0</ele><time>2026-04-30T14:01:33.191Z</time></trkpt><trkpt lat="43.9624675" lon="12.475773"><ele>160.0</ele><time>2026-04-30T14:01:35.213Z</time></trkpt><trkpt lat="43.9623908" lon="12.4757189"><ele>160.85714285714286</ele><time>2026-04-30T14:01:38.228Z</time></trkpt><trkpt lat="43.9623363" lon="12.4756615"><ele>161.71428571428572</ele><time>2026-04-30T14:01:41.198Z</time></trkpt><trkpt lat="43.9622831" lon="12.4755969"><ele>162.57142857142856</ele><time>2026-04-30T14:01:44.231Z</time></trkpt><trkpt lat="43.962232" lon="12.4755194"><ele>163.42857142857144</ele><time>2026-04-30T14:01:48.226Z</time></trkpt><trkpt lat="43.9621742" lon="12.4754611"><ele>164.2857142857143</ele><time>2026-04-30T14:01:52.23Z</time></trkpt><trkpt lat="43.9621072" lon="12.4754019"><ele>165.14285714285714</ele><time>2026-04-30T14:01:56.204Z</time></trkpt><trkpt lat="43.96205" lon="12.4753547"><ele>166.0</ele><time>2026-04-30T14:01:59.25Z</time></trkpt><trkpt lat="43.9619746" lon="12.4753235"><ele>166.0</ele><time>2026-04-30T14:02:03.21Z</time></trkpt><trkpt lat="43.9619229" lon="12.4753929"><ele>166.0</ele><time>2026-04-30T14:02:06.215Z</time></trkpt><trkpt lat="43.9618746" lon="12.4754615"><ele>166.0</ele><time>2026-04-30T14:02:08.234Z</time></trkpt><trkpt lat="43.9618089" lon="12.4755421"><ele>166.0</ele><time>2026-04-30T14:02:10.209Z</time></trkpt><trkpt lat="43.9617355" lon="12.4756353"><ele>166.0</ele><time>2026-04-30T14:02:12.239Z</time></trkpt><trkpt lat="43.9616549" lon="12.4757331"><ele>166.0</ele><time>2026-04-30T14:02:14.188Z</time></trkpt><trkpt lat="43.9615784" lon="12.4758495"><ele>166.16666666666669</ele><time>2026-04-30T14:02:16.227Z</time></trkpt><trkpt lat="43.9615008" lon="12.4759665"><ele>166.33333333333334</ele><time>2026-04-30T14:02:18.222Z</time></trkpt><trkpt lat="43.9614306" lon="12.4761082"><ele>166.5</ele><time>2026-04-30T14:02:20.226Z</time></trkpt><trkpt lat="43.9614097" lon="12.4761958"><ele>166.66666666666666</ele><time>2026-04-30T14:02:21.219Z</time></trkpt><trkpt lat="43.9614039" lon="12.4762951"><ele>166.83333333333331</ele><time>2026-04-30T14:02:22.215Z</time></trkpt><trkpt lat="43.9614228" lon="12.4763917"><ele>167.0</ele><time>2026-04-30T14:02:23.225Z</time></trkpt><trkpt lat="43.9614676" lon="12.4764826"><ele>167.0</ele><time>2026-04-30T14:02:24.221Z</time></trkpt><trkpt lat="43.96154" lon="12.4765499"><ele>167.0</ele><time>2026-04-30T14:02:25.227Z</time></trkpt><trkpt lat="43.9616208" lon="12.4766165"><ele>167.0</ele><time>2026-04-30T14:02:26.225Z</time></trkpt><trkpt lat="43.9616895" lon="12.4766902"><ele>167.0</ele><time>2026-04-30T14:02:27.184Z</time></trkpt><trkpt lat="43.9617267" lon="12.4767816"><ele>167.0</ele><time>2026-04-30T14:02:28.205Z</time></trkpt><trkpt lat="43.9617519" lon="12.4768768"><ele>167.0</ele><time>2026-04-30T14:02:29.216Z</time></trkpt><trkpt lat="43.9617631" lon="12.4769758"><ele>164.79999999999998</ele><time>2026-04-30T14:02:30.222Z</time></trkpt><trkpt lat="43.9617722" lon="12.4770755"><ele>162.6</ele><time>2026-04-30T14:02:31.221Z</time></trkpt><trkpt lat="43.9617883" lon="12.4771709"><ele>160.39999999999998</ele><time>2026-04-30T14:02:32.161Z</time></trkpt><trkpt lat="43.9617945" lon="12.4772607"><ele>158.2</ele><time>2026-04-30T14:02:33.216Z</time></trkpt><trkpt lat="43.9618067" lon="12.477428"><ele>156.0</ele><time>2026-04-30T14:02:35.225Z</time></trkpt><trkpt lat="43.961818" lon="12.4776014"><ele>156.0</ele><time>2026-04-30T14:02:37.204Z</time></trkpt><trkpt lat="43.9618163" lon="12.4776896"><ele>156.0</ele><time>2026-04-30T14:02:38.221Z</time></trkpt><trkpt lat="43.9618101" lon="12.4778554"><ele>156.0</ele><time>2026-04-30T14:02:40.196Z</time></trkpt><trkpt lat="43.9618034" lon="12.4780172"><ele>156.0</ele><time>2026-04-30T14:02:42.208Z</time></trkpt><trkpt lat="43.9617922" lon="12.4781726"><ele>156.0</ele><time>2026-04-30T14:02:44.215Z</time></trkpt><trkpt lat="43.9617716" lon="12.4783117"><ele>156.57142857142858</ele><time>2026-04-30T14:02:46.212Z</time></trkpt><trkpt lat="43.9617521" lon="12.478436"><ele>157.14285714285714</ele><time>2026-04-30T14:02:48.209Z</time></trkpt><trkpt lat="43.9617343" lon="12.4785343"><ele>157.71428571428572</ele><time>2026-04-30T14:02:50.21Z</time></trkpt><trkpt lat="43.9617269" lon="12.478633"><ele>158.28571428571428</ele><time>2026-04-30T14:02:52.206Z</time></trkpt><trkpt lat="43.9617149" lon="12.4787202"><ele>158.85714285714286</ele><time>2026-04-30T14:02:54.204Z</time></trkpt><trkpt lat="43.9617055" lon="12.478813"><ele>159.42857142857142</ele><time>2026-04-30T14:02:56.209Z</time></trkpt><trkpt lat="43.9616899" lon="12.478915"><ele>160.0</ele><time>2026-04-30T14:02:58.2Z</time></trkpt><trkpt lat="43.9616731" lon="12.4790116"><ele>162.33333333333334</ele><time>2026-04-30T14:03:00.22Z</time></trkpt><trkpt lat="43.9616622" lon="12.4791109"><ele>164.66666666666669</ele><time>2026-04-30T14:03:02.231Z</time></trkpt><trkpt lat="43.9616508" lon="12.479225"><ele>167.0</ele><time>2026-04-30T14:03:04.221Z</time></trkpt><trkpt lat="43.9616359" lon="12.4793466"><ele>169.33333333333334</ele><time>2026-04-30T14:03:06.221Z</time></trkpt><trkpt lat="43.961628" lon="12.4794598"><ele>171.66666666666666</ele><time>2026-04-30T14:03:08.158Z</time></trkpt><trkpt lat="43.9616154" lon="12.4795747"><ele>174.0</ele><time>2026-04-30T14:03:10.204Z</time></trkpt><trkpt lat="43.9615987" lon="12.4796904"><ele>174.33333333333334</ele><time>2026-04-30T14:03:12.21Z</time></trkpt><trkpt lat="43.9615868" lon="12.4798113"><ele>174.66666666666666</ele><time>2026-04-30T14:03:14.223Z</time></trkpt><trkpt lat="43.9615734" lon="12.4799261"><ele>175.0</ele><time>2026-04-30T14:03:16.2Z</time></trkpt><trkpt lat="43.9615601" lon="12.4800448"><ele>175.33333333333331</ele><time>2026-04-30T14:03:18.163Z</time></trkpt><trkpt lat="43.9615472" lon="12.4801605"><ele>175.66666666666666</ele><time>2026-04-30T14:03:20.238Z</time></trkpt><trkpt lat="43.9615316" lon="12.4802787"><ele>176.0</ele><time>2026-04-30T14:03:22.214Z</time></trkpt><trkpt lat="43.9615122" lon="12.4804024"><ele>176.16666666666666</ele><time>2026-04-30T14:03:24.228Z</time></trkpt><trkpt lat="43.9615027" lon="12.4805189"><ele>176.33333333333331</ele><time>2026-04-30T14:03:26.205Z</time></trkpt><trkpt lat="43.9614937" lon="12.4806443"><ele>176.5</ele><time>2026-04-30T14:03:28.201Z</time></trkpt><trkpt lat="43.9614754" lon="12.4807728"><ele>176.66666666666666</ele><time>2026-04-30T14:03:30.218Z</time></trkpt><trkpt lat="43.9614649" lon="12.4809054"><ele>176.83333333333334</ele><time>2026-04-30T14:03:32.215Z</time></trkpt><trkpt lat="43.96145" lon="12.4810199"><ele>177.0</ele><time>2026-04-30T14:03:34.178Z</time></trkpt><trkpt lat="43.9614291" lon="12.481144"><ele>177.0</ele><time>2026-04-30T14:03:36.253Z</time></trkpt><trkpt lat="43.9614016" lon="12.4812505"><ele>177.0</ele><time>2026-04-30T14:03:38.198Z</time></trkpt><trkpt lat="43.9613788" lon="12.4813689"><ele>177.0</ele><time>2026-04-30T14:03:40.218Z</time></trkpt><trkpt lat="43.9613495" lon="12.4814641"><ele>177.0</ele><time>2026-04-30T14:03:42.229Z</time></trkpt><trkpt lat="43.9613168" lon="12.4815607"><ele>177.0</ele><time>2026-04-30T14:03:44.212Z</time></trkpt><trkpt lat="43.9612774" lon="12.4816708"><ele>177.0</ele><time>2026-04-30T14:03:46.153Z</time></trkpt><trkpt lat="43.9612297" lon="12.481772"><ele>176.83333333333334</ele><time>2026-04-30T14:03:48.156Z</time></trkpt><trkpt lat="43.9611837" lon="12.4818663"><ele>176.66666666666666</ele><time>2026-04-30T14:03:50.161Z</time></trkpt><trkpt lat="43.9611315" lon="12.4819491"><ele>176.5</ele><time>2026-04-30T14:03:52.149Z</time></trkpt><trkpt lat="43.9610686" lon="12.482033"><ele>176.33333333333331</ele><time>2026-04-30T14:03:54.15Z</time></trkpt><trkpt lat="43.9610007" lon="12.4821263"><ele>176.16666666666666</ele><time>2026-04-30T14:03:56.153Z</time></trkpt><trkpt lat="43.960921" lon="12.4822093"><ele>176.0</ele><time>2026-04-30T14:03:58.205Z</time></trkpt><trkpt lat="43.9608398" lon="12.4822796"><ele>177.0</ele><time>2026-04-30T14:04:00.229Z</time></trkpt><trkpt lat="43.9607666" lon="12.4823545"><ele>178.0</ele><time>2026-04-30T14:04:02.167Z</time></trkpt><trkpt lat="43.9606859" lon="12.4824158"><ele>179.0</ele><time>2026-04-30T14:04:04.22Z</time></trkpt><trkpt lat="43.9606075" lon="12.4824657"><ele>180.0</ele><time>2026-04-30T14:04:06.215Z</time></trkpt><trkpt lat="43.9605425" lon="12.4824942"><ele>181.0</ele><time>2026-04-30T14:04:08.226Z</time></trkpt><trkpt lat="43.9604661" lon="12.4825201"><ele>182.0</ele><time>2026-04-30T14:04:10.226Z</time></trkpt><trkpt lat="43.9603836" lon="12.4825284"><ele>182.0</ele><time>2026-04-30T14:04:12.214Z</time></trkpt><trkpt lat="43.9603071" lon="12.4825376"><ele>182.0</ele><time>2026-04-30T14:04:14.223Z</time></trkpt><trkpt lat="43.96023" lon="12.4825457"><ele>182.0</ele><time>2026-04-30T14:04:16.194Z</time></trkpt><trkpt lat="43.9601475" lon="12.4825553"><ele>182.0</ele><time>2026-04-30T14:04:18.204Z</time></trkpt><trkpt lat="43.9600758" lon="12.4825701"><ele>182.0</ele><time>2026-04-30T14:04:20.196Z</time></trkpt><trkpt lat="43.9600031" lon="12.4825749"><ele>182.0</ele><time>2026-04-30T14:04:23.175Z</time></trkpt><trkpt lat="43.9599169" lon="12.4825546"><ele>183.16666666666666</ele><time>2026-04-30T14:04:26.21Z</time></trkpt><trkpt lat="43.9598447" lon="12.4825405"><ele>184.33333333333331</ele><time>2026-04-30T14:04:28.215Z</time></trkpt><trkpt lat="43.9597505" lon="12.4825238"><ele>185.5</ele><time>2026-04-30T14:04:30.211Z</time></trkpt><trkpt lat="43.9596647" lon="12.4825058"><ele>186.66666666666666</ele><time>2026-04-30T14:04:32.21Z</time></trkpt><trkpt lat="43.9595697" lon="12.4824683"><ele>187.83333333333334</ele><time>2026-04-30T14:04:34.229Z</time></trkpt><trkpt lat="43.9594812" lon="12.482426"><ele>189.0</ele><time>2026-04-30T14:04:36.225Z</time></trkpt><trkpt lat="43.9593969" lon="12.4823887"><ele>189.0</ele><time>2026-04-30T14:04:38.224Z</time></trkpt><trkpt lat="43.9593155" lon="12.4823523"><ele>189.0</ele><time>2026-04-30T14:04:40.221Z</time></trkpt><trkpt lat="43.9592305" lon="12.4823187"><ele>189.0</ele><time>2026-04-30T14:04:42.22Z</time></trkpt><trkpt lat="43.9591471" lon="12.4822812"><ele>189.0</ele><time>2026-04-30T14:04:44.18Z</time></trkpt><trkpt lat="43.9590655" lon="12.482243"><ele>189.0</ele><time>2026-04-30T14:04:46.217Z</time></trkpt><trkpt lat="43.9589874" lon="12.4821956"><ele>189.0</ele><time>2026-04-30T14:04:48.2Z</time></trkpt><trkpt lat="43.9589089" lon="12.4821678"><ele>188.83333333333334</ele><time>2026-04-30T14:04:50.204Z</time></trkpt><trkpt lat="43.9588289" lon="12.4821348"><ele>188.66666666666666</ele><time>2026-04-30T14:04:52.207Z</time></trkpt><trkpt lat="43.9587513" lon="12.4820947"><ele>188.5</ele><time>2026-04-30T14:04:54.214Z</time></trkpt><trkpt lat="43.9586629" lon="12.4820524"><ele>188.33333333333331</ele><time>2026-04-30T14:04:56.212Z</time></trkpt><trkpt lat="43.9585744" lon="12.4820154"><ele>188.16666666666666</ele><time>2026-04-30T14:04:58.206Z</time></trkpt><trkpt lat="43.9584839" lon="12.4819871"><ele>188.0</ele><time>2026-04-30T14:05:00.216Z</time></trkpt><trkpt lat="43.9583937" lon="12.4819532"><ele>189.5</ele><time>2026-04-30T14:05:02.223Z</time></trkpt><trkpt lat="43.9583077" lon="12.4819093"><ele>191.0</ele><time>2026-04-30T14:05:04.212Z</time></trkpt><trkpt lat="43.9582296" lon="12.4818717"><ele>192.5</ele><time>2026-04-30T14:05:06.222Z</time></trkpt><trkpt lat="43.9581628" lon="12.4818393"><ele>194.0</ele><time>2026-04-30T14:05:08.213Z</time></trkpt><trkpt lat="43.9580797" lon="12.4817904"><ele>195.50000000000003</ele><time>2026-04-30T14:05:11.214Z</time></trkpt><trkpt lat="43.9579978" lon="12.4817555"><ele>197.0</ele><time>2026-04-30T14:05:14.189Z</time></trkpt><trkpt lat="43.9579371" lon="12.4817248"><ele>197.00000000000003</ele><time>2026-04-30T14:05:16.206Z</time></trkpt><trkpt lat="43.9578768" lon="12.4816918"><ele>197.0</ele><time>2026-04-30T14:05:18.191Z</time></trkpt><trkpt lat="43.9578092" lon="12.4816664"><ele>197.0</ele><time>2026-04-30T14:05:20.197Z</time></trkpt><trkpt lat="43.9577391" lon="12.4816187"><ele>197.0</ele><time>2026-04-30T14:05:22.202Z</time></trkpt><trkpt lat="43.9576393" lon="12.4815901"><ele>197.00000000000003</ele><time>2026-04-30T14:05:24.224Z</time></trkpt><trkpt lat="43.9575496" lon="12.481555"><ele>197.0</ele><time>2026-04-30T14:05:26.225Z</time></trkpt><trkpt lat="43.9574653" lon="12.4815324"><ele>197.42857142857144</ele><time>2026-04-30T14:05:28.223Z</time></trkpt><trkpt lat="43.9573892" lon="12.4814946"><ele>197.85714285714286</ele><time>2026-04-30T14:05:30.218Z</time></trkpt><trkpt lat="43.9573124" lon="12.4814557"><ele>198.28571428571428</ele><time>2026-04-30T14:05:32.213Z</time></trkpt><trkpt lat="43.9572467" lon="12.4814216"><ele>198.71428571428572</ele><time>2026-04-30T14:05:34.207Z</time></trkpt><trkpt lat="43.9571782" lon="12.4813797"><ele>199.14285714285714</ele><time>2026-04-30T14:05:36.222Z</time></trkpt><trkpt lat="43.9571163" lon="12.4813437"><ele>199.57142857142858</ele><time>2026-04-30T14:05:38.236Z</time></trkpt><trkpt lat="43.9570513" lon="12.4813115"><ele>200.0</ele><time>2026-04-30T14:05:40.192Z</time></trkpt><trkpt lat="43.9569877" lon="12.4812832"><ele>201.16666666666669</ele><time>2026-04-30T14:05:42.219Z</time></trkpt><trkpt lat="43.9569149" lon="12.4812513"><ele>202.33333333333334</ele><time>2026-04-30T14:05:44.213Z</time></trkpt><trkpt lat="43.9568437" lon="12.4812204"><ele>203.5</ele><time>2026-04-30T14:05:46.211Z</time></trkpt><trkpt lat="43.9567566" lon="12.4812064"><ele>204.66666666666669</ele><time>2026-04-30T14:05:48.21Z</time></trkpt><trkpt lat="43.9566639" lon="12.4811713"><ele>205.83333333333334</ele><time>2026-04-30T14:05:50.23Z</time></trkpt><trkpt lat="43.956571" lon="12.4811236"><ele>207.0</ele><time>2026-04-30T14:05:52.209Z</time></trkpt><trkpt lat="43.9564774" lon="12.4810851"><ele>207.0</ele><time>2026-04-30T14:05:54.225Z</time></trkpt><trkpt lat="43.9563768" lon="12.4810588"><ele>207.0</ele><time>2026-04-30T14:05:56.172Z</time></trkpt><trkpt lat="43.9562754" lon="12.4810366"><ele>207.0</ele><time>2026-04-30T14:05:58.223Z</time></trkpt><trkpt lat="43.9561839" lon="12.4810415"><ele>207.0</ele><time>2026-04-30T14:06:00.241Z</time></trkpt><trkpt lat="43.9560973" lon="12.4810688"><ele>207.0</ele><time>2026-04-30T14:06:02.229Z</time></trkpt><trkpt lat="43.955997" lon="12.4811002"><ele>207.0</ele><time>2026-04-30T14:06:04.216Z</time></trkpt><trkpt lat="43.9559125" lon="12.4811075"><ele>207.0</ele><time>2026-04-30T14:06:06.216Z</time></trkpt><trkpt lat="43.9558447" lon="12.4811116"><ele>207.0</ele><time>2026-04-30T14:06:08.206Z</time></trkpt><trkpt lat="43.9557738" lon="12.4811201"><ele>207.0</ele><time>2026-04-30T14:06:11.18Z</time></trkpt><trkpt lat="43.9556969" lon="12.4811255"><ele>207.0</ele><time>2026-04-30T14:06:14.145Z</time></trkpt><trkpt lat="43.9556114" lon="12.4811499"><ele>207.0</ele><time>2026-04-30T14:06:17.206Z</time></trkpt><trkpt lat="43.9555317" lon="12.4811502"><ele>207.16666666666666</ele><time>2026-04-30T14:06:19.205Z</time></trkpt><trkpt lat="43.9554448" lon="12.4811618"><ele>207.33333333333331</ele><time>2026-04-30T14:06:21.224Z</time></trkpt><trkpt lat="43.9553681" lon="12.4811804"><ele>207.5</ele><time>2026-04-30T14:06:23.19Z</time></trkpt><trkpt lat="43.9552845" lon="12.4812164"><ele>207.66666666666666</ele><time>2026-04-30T14:06:25.218Z</time></trkpt><trkpt lat="43.9552086" lon="12.4812474"><ele>207.83333333333331</ele><time>2026-04-30T14:06:27.202Z</time></trkpt><trkpt lat="43.9551286" lon="12.4812932"><ele>208.0</ele><time>2026-04-30T14:06:29.217Z</time></trkpt><trkpt lat="43.9550523" lon="12.4813302"><ele>207.83333333333331</ele><time>2026-04-30T14:06:31.226Z</time></trkpt><trkpt lat="43.9549805" lon="12.4813597"><ele>207.66666666666666</ele><time>2026-04-30T14:06:33.199Z</time></trkpt><trkpt lat="43.9549026" lon="12.4813955"><ele>207.5</ele><time>2026-04-30T14:06:35.201Z</time></trkpt><trkpt lat="43.9548165" lon="12.4814404"><ele>207.33333333333331</ele><time>2026-04-30T14:06:37.164Z</time></trkpt><trkpt lat="43.9547206" lon="12.4814525"><ele>207.16666666666666</ele><time>2026-04-30T14:06:39.228Z</time></trkpt><trkpt lat="43.9546184" lon="12.4814607"><ele>207.0</ele><time>2026-04-30T14:06:41.216Z</time></trkpt><trkpt lat="43.9545237" lon="12.4814654"><ele>207.0</ele><time>2026-04-30T14:06:43.226Z</time></trkpt><trkpt lat="43.9544347" lon="12.4814737"><ele>207.0</ele><time>2026-04-30T14:06:45.191Z</time></trkpt><trkpt lat="43.9543391" lon="12.4814674"><ele>207.0</ele><time>2026-04-30T14:06:47.22Z</time></trkpt><trkpt lat="43.9542453" lon="12.4814644"><ele>207.0</ele><time>2026-04-30T14:06:49.196Z</time></trkpt><trkpt lat="43.954148" lon="12.4814527"><ele>207.0</ele><time>2026-04-30T14:06:51.208Z</time></trkpt><trkpt lat="43.9540542" lon="12.4814433"><ele>207.5</ele><time>2026-04-30T14:06:53.186Z</time></trkpt><trkpt lat="43.9539525" lon="12.4814315"><ele>208.0</ele><time>2026-04-30T14:06:55.215Z</time></trkpt><trkpt lat="43.9538564" lon="12.4814365"><ele>208.5</ele><time>2026-04-30T14:06:57.249Z</time></trkpt><trkpt lat="43.9537611" lon="12.4814422"><ele>209.0</ele><time>2026-04-30T14:06:59.204Z</time></trkpt><trkpt lat="43.9536799" lon="12.4814414"><ele>209.5</ele><time>2026-04-30T14:07:01.21Z</time></trkpt><trkpt lat="43.9536058" lon="12.4814384"><ele>210.0</ele><time>2026-04-30T14:07:03.219Z</time></trkpt><trkpt lat="43.953534" lon="12.481465"><ele>210.0</ele><time>2026-04-30T14:07:06.216Z</time></trkpt><trkpt lat="43.9534546" lon="12.481512"><ele>210.0</ele><time>2026-04-30T14:07:09.179Z</time></trkpt><trkpt lat="43.9533786" lon="12.4815607"><ele>210.0</ele><time>2026-04-30T14:07:11.175Z</time></trkpt><trkpt lat="43.953304" lon="12.4816099"><ele>210.0</ele><time>2026-04-30T14:07:13.222Z</time></trkpt><trkpt lat="43.9532245" lon="12.4816655"><ele>210.0</ele><time>2026-04-30T14:07:15.172Z</time></trkpt><trkpt lat="43.9531521" lon="12.4817515"><ele>210.0</ele><time>2026-04-30T14:07:17.232Z</time></trkpt><trkpt lat="43.9530865" lon="12.4818566"><ele>210.6</ele><time>2026-04-30T14:07:19.224Z</time></trkpt><trkpt lat="43.9530207" lon="12.4819567"><ele>211.2</ele><time>2026-04-30T14:07:21.231Z</time></trkpt><trkpt lat="43.9529688" lon="12.4820559"><ele>211.8</ele><time>2026-04-30T14:07:23.202Z</time></trkpt><trkpt lat="43.9529146" lon="12.4821602"><ele>212.4</ele><time>2026-04-30T14:07:25.228Z</time></trkpt><trkpt lat="43.9528753" lon="12.4822625"><ele>213.0</ele><time>2026-04-30T14:07:27.169Z</time></trkpt><trkpt lat="43.9528659" lon="12.4823859"><ele>213.0</ele><time>2026-04-30T14:07:29.212Z</time></trkpt><trkpt lat="43.9528421" lon="12.4825003"><ele>213.0</ele><time>2026-04-30T14:07:31.216Z</time></trkpt><trkpt lat="43.9528045" lon="12.4825934"><ele>213.0</ele><time>2026-04-30T14:07:33.186Z</time></trkpt><trkpt lat="43.95277" lon="12.4827029"><ele>213.0</ele><time>2026-04-30T14:07:35.233Z</time></trkpt><trkpt lat="43.9527543" lon="12.4828065"><ele>213.0</ele><time>2026-04-30T14:07:37.217Z</time></trkpt><trkpt lat="43.9527465" lon="12.4829151"><ele>213.0</ele><time>2026-04-30T14:07:39.243Z</time></trkpt><trkpt lat="43.9527394" lon="12.4830427"><ele>212.4</ele><time>2026-04-30T14:07:41.234Z</time></trkpt><trkpt lat="43.952732" lon="12.4831743"><ele>211.8</ele><time>2026-04-30T14:07:43.221Z</time></trkpt><trkpt lat="43.9527122" lon="12.4833145"><ele>211.2</ele><time>2026-04-30T14:07:45.222Z</time></trkpt><trkpt lat="43.9527055" lon="12.4834494"><ele>210.6</ele><time>2026-04-30T14:07:47.212Z</time></trkpt><trkpt lat="43.9527053" lon="12.483582"><ele>210.0</ele><time>2026-04-30T14:07:49.217Z</time></trkpt><trkpt lat="43.9526965" lon="12.483723"><ele>210.4</ele><time>2026-04-30T14:07:51.204Z</time></trkpt><trkpt lat="43.9526876" lon="12.483866"><ele>210.8</ele><time>2026-04-30T14:07:53.216Z</time></trkpt><trkpt lat="43.9526779" lon="12.4839886"><ele>211.2</ele><time>2026-04-30T14:07:55.216Z</time></trkpt><trkpt lat="43.9526721" lon="12.4841046"><ele>211.6</ele><time>2026-04-30T14:07:57.228Z</time></trkpt><trkpt lat="43.9526695" lon="12.4842337"><ele>212.0</ele><time>2026-04-30T14:07:59.203Z</time></trkpt><trkpt lat="43.9526631" lon="12.4843522"><ele>212.00000000000003</ele><time>2026-04-30T14:08:01.215Z</time></trkpt><trkpt lat="43.9526551" lon="12.4844664"><ele>212.0</ele><time>2026-04-30T14:08:03.218Z</time></trkpt><trkpt lat="43.9526474" lon="12.4845806"><ele>212.0</ele><time>2026-04-30T14:08:05.214Z</time></trkpt><trkpt lat="43.9526267" lon="12.4847045"><ele>212.0</ele><time>2026-04-30T14:08:07.187Z</time></trkpt><trkpt lat="43.9525916" lon="12.4848128"><ele>212.00000000000003</ele><time>2026-04-30T14:08:09.215Z</time></trkpt><trkpt lat="43.9525595" lon="12.4849215"><ele>212.0</ele><time>2026-04-30T14:08:11.206Z</time></trkpt><trkpt lat="43.9525132" lon="12.4850211"><ele>212.66666666666669</ele><time>2026-04-30T14:08:13.224Z</time></trkpt><trkpt lat="43.9524643" lon="12.4851226"><ele>213.33333333333334</ele><time>2026-04-30T14:08:15.222Z</time></trkpt><trkpt lat="43.9524109" lon="12.4852123"><ele>214.0</ele><time>2026-04-30T14:08:17.217Z</time></trkpt><trkpt lat="43.9523438" lon="12.4852899"><ele>214.66666666666669</ele><time>2026-04-30T14:08:19.212Z</time></trkpt><trkpt lat="43.95228" lon="12.4853592"><ele>215.33333333333334</ele><time>2026-04-30T14:08:21.205Z</time></trkpt><trkpt lat="43.9522174" lon="12.4854343"><ele>216.0</ele><time>2026-04-30T14:08:23.232Z</time></trkpt><trkpt lat="43.9521414" lon="12.4854982"><ele>216.0</ele><time>2026-04-30T14:08:25.222Z</time></trkpt><trkpt lat="43.9520593" lon="12.485537"><ele>216.0</ele><time>2026-04-30T14:08:27.217Z</time></trkpt><trkpt lat="43.9519825" lon="12.4855637"><ele>216.0</ele><time>2026-04-30T14:08:29.202Z</time></trkpt><trkpt lat="43.9519146" lon="12.48558"><ele>216.0</ele><time>2026-04-30T14:08:31.218Z</time></trkpt><trkpt lat="43.9518502" lon="12.485599"><ele>216.0</ele><time>2026-04-30T14:08:33.186Z</time></trkpt><trkpt lat="43.9517845" lon="12.4856167"><ele>216.0</ele><time>2026-04-30T14:08:35.186Z</time></trkpt><trkpt lat="43.951685" lon="12.4856093"><ele>217.5</ele><time>2026-04-30T14:08:38.196Z</time></trkpt><trkpt lat="43.951607" lon="12.4856007"><ele>219.0</ele><time>2026-04-30T14:08:40.225Z</time></trkpt><trkpt lat="43.9515298" lon="12.4855769"><ele>220.5</ele><time>2026-04-30T14:08:42.211Z</time></trkpt><trkpt lat="43.9514602" lon="12.4855291"><ele>222.0</ele><time>2026-04-30T14:08:44.209Z</time></trkpt><trkpt lat="43.9513856" lon="12.4854762"><ele>223.5</ele><time>2026-04-30T14:08:46.216Z</time></trkpt><trkpt lat="43.9513199" lon="12.4854327"><ele>225.0</ele><time>2026-04-30T14:08:48.211Z</time></trkpt><trkpt lat="43.9512535" lon="12.4853634"><ele>225.33333333333334</ele><time>2026-04-30T14:08:50.206Z</time></trkpt><trkpt lat="43.9511895" lon="12.4852934"><ele>225.66666666666669</ele><time>2026-04-30T14:08:52.222Z</time></trkpt><trkpt lat="43.9511348" lon="12.485207"><ele>226.0</ele><time>2026-04-30T14:08:54.222Z</time></trkpt><trkpt lat="43.9510894" lon="12.4851172"><ele>226.33333333333334</ele><time>2026-04-30T14:08:56.162Z</time></trkpt><trkpt lat="43.9510482" lon="12.4850124"><ele>226.66666666666669</ele><time>2026-04-30T14:08:58.209Z</time></trkpt><trkpt lat="43.9510058" lon="12.4848942"><ele>227.0</ele><time>2026-04-30T14:09:00.165Z</time></trkpt><trkpt lat="43.9509689" lon="12.4847865"><ele>227.00000000000003</ele><time>2026-04-30T14:09:02.181Z</time></trkpt><trkpt lat="43.950935" lon="12.4846643"><ele>227.0</ele><time>2026-04-30T14:09:04.223Z</time></trkpt><trkpt lat="43.950908" lon="12.4845497"><ele>227.0</ele><time>2026-04-30T14:09:06.222Z</time></trkpt><trkpt lat="43.9508962" lon="12.4844465"><ele>227.0</ele><time>2026-04-30T14:09:08.178Z</time></trkpt><trkpt lat="43.9508968" lon="12.4843222"><ele>227.00000000000003</ele><time>2026-04-30T14:09:10.221Z</time></trkpt><trkpt lat="43.9509004" lon="12.4841932"><ele>227.0</ele><time>2026-04-30T14:09:12.205Z</time></trkpt><trkpt lat="43.9509117" lon="12.4840677"><ele>227.66666666666669</ele><time>2026-04-30T14:09:14.188Z</time></trkpt><trkpt lat="43.9509362" lon="12.4839698"><ele>228.33333333333334</ele><time>2026-04-30T14:09:16.211Z</time></trkpt><trkpt lat="43.9509663" lon="12.4838657"><ele>229.0</ele><time>2026-04-30T14:09:18.226Z</time></trkpt><trkpt lat="43.9510002" lon="12.4837668"><ele>229.66666666666669</ele><time>2026-04-30T14:09:20.206Z</time></trkpt><trkpt lat="43.9510555" lon="12.4836539"><ele>230.33333333333334</ele><time>2026-04-30T14:09:22.216Z</time></trkpt><trkpt lat="43.9511117" lon="12.4835529"><ele>231.0</ele><time>2026-04-30T14:09:24.226Z</time></trkpt><trkpt lat="43.9511595" lon="12.4834592"><ele>231.33333333333334</ele><time>2026-04-30T14:09:26.21Z</time></trkpt><trkpt lat="43.9512173" lon="12.4833624"><ele>231.66666666666669</ele><time>2026-04-30T14:09:28.212Z</time></trkpt><trkpt lat="43.9512684" lon="12.4832695"><ele>232.0</ele><time>2026-04-30T14:09:30.21Z</time></trkpt><trkpt lat="43.9513224" lon="12.4831795"><ele>232.33333333333334</ele><time>2026-04-30T14:09:32.188Z</time></trkpt><trkpt lat="43.9513836" lon="12.4830811"><ele>232.66666666666669</ele><time>2026-04-30T14:09:34.215Z</time></trkpt><trkpt lat="43.9514344" lon="12.4829854"><ele>233.0</ele><time>2026-04-30T14:09:36.214Z</time></trkpt><trkpt lat="43.9514805" lon="12.482871"><ele>233.8</ele><time>2026-04-30T14:09:38.168Z</time></trkpt><trkpt lat="43.951528" lon="12.4827587"><ele>234.60000000000002</ele><time>2026-04-30T14:09:40.197Z</time></trkpt><trkpt lat="43.9515748" lon="12.482649"><ele>235.39999999999998</ele><time>2026-04-30T14:09:42.208Z</time></trkpt><trkpt lat="43.951602" lon="12.4825334"><ele>236.2</ele><time>2026-04-30T14:09:44.223Z</time></trkpt><trkpt lat="43.9516281" lon="12.4824118"><ele>237.0</ele><time>2026-04-30T14:09:46.196Z</time></trkpt><trkpt lat="43.9516296" lon="12.4822761"><ele>237.0</ele><time>2026-04-30T14:09:48.199Z</time></trkpt><trkpt lat="43.9516305" lon="12.4821365"><ele>237.0</ele><time>2026-04-30T14:09:50.208Z</time></trkpt><trkpt lat="43.9516373" lon="12.4820027"><ele>237.0</ele><time>2026-04-30T14:09:52.217Z</time></trkpt><trkpt lat="43.9516399" lon="12.481882"><ele>237.0</ele><time>2026-04-30T14:09:54.216Z</time></trkpt><trkpt lat="43.9516327" lon="12.4817552"><ele>237.0</ele><time>2026-04-30T14:09:56.21Z</time></trkpt><trkpt lat="43.9516407" lon="12.4816446"><ele>237.66666666666666</ele><time>2026-04-30T14:09:58.183Z</time></trkpt><trkpt lat="43.9516394" lon="12.4815244"><ele>238.33333333333331</ele><time>2026-04-30T14:10:00.179Z</time></trkpt><trkpt lat="43.9516392" lon="12.4814013"><ele>239.0</ele><time>2026-04-30T14:10:02.227Z</time></trkpt><trkpt lat="43.9516418" lon="12.4812735"><ele>239.66666666666666</ele><time>2026-04-30T14:10:04.163Z</time></trkpt><trkpt lat="43.9516469" lon="12.4811624"><ele>240.33333333333331</ele><time>2026-04-30T14:10:06.215Z</time></trkpt><trkpt lat="43.9516378" lon="12.4810522"><ele>241.0</ele><time>2026-04-30T14:10:08.192Z</time></trkpt><trkpt lat="43.951639" lon="12.4809285"><ele>241.33333333333331</ele><time>2026-04-30T14:10:10.22Z</time></trkpt><trkpt lat="43.9516445" lon="12.4808034"><ele>241.66666666666666</ele><time>2026-04-30T14:10:12.212Z</time></trkpt><trkpt lat="43.9516493" lon="12.4806795"><ele>242.0</ele><time>2026-04-30T14:10:14.224Z</time></trkpt><trkpt lat="43.9516397" lon="12.4805599"><ele>242.33333333333331</ele><time>2026-04-30T14:10:16.224Z</time></trkpt><trkpt lat="43.9516316" lon="12.4804391"><ele>242.66666666666666</ele><time>2026-04-30T14:10:18.18Z</time></trkpt><trkpt lat="43.9516349" lon="12.4803274"><ele>243.0</ele><time>2026-04-30T14:10:20.198Z</time></trkpt><trkpt lat="43.9516336" lon="12.4802126"><ele>243.66666666666666</ele><time>2026-04-30T14:10:22.212Z</time></trkpt><trkpt lat="43.951637" lon="12.4800966"><ele>244.33333333333331</ele><time>2026-04-30T14:10:24.201Z</time></trkpt><trkpt lat="43.9516396" lon="12.4800004"><ele>245.0</ele><time>2026-04-30T14:10:26.214Z</time></trkpt><trkpt lat="43.9516423" lon="12.4799054"><ele>245.66666666666666</ele><time>2026-04-30T14:10:28.209Z</time></trkpt><trkpt lat="43.9516429" lon="12.479804"><ele>246.33333333333331</ele><time>2026-04-30T14:10:30.222Z</time></trkpt><trkpt lat="43.9516499" lon="12.4796923"><ele>247.0</ele><time>2026-04-30T14:10:32.201Z</time></trkpt><trkpt lat="43.9516475" lon="12.4795885"><ele>247.85714285714286</ele><time>2026-04-30T14:10:34.211Z</time></trkpt><trkpt lat="43.9516512" lon="12.4795005"><ele>248.71428571428572</ele><time>2026-04-30T14:10:36.223Z</time></trkpt><trkpt lat="43.9516557" lon="12.4794015"><ele>249.57142857142858</ele><time>2026-04-30T14:10:38.176Z</time></trkpt><trkpt lat="43.951658" lon="12.4792983"><ele>250.42857142857144</ele><time>2026-04-30T14:10:40.216Z</time></trkpt><trkpt lat="43.9516555" lon="12.4792005"><ele>251.28571428571428</ele><time>2026-04-30T14:10:42.167Z</time></trkpt><trkpt lat="43.9516554" lon="12.4791113"><ele>252.14285714285717</ele><time>2026-04-30T14:10:44.22Z</time></trkpt><trkpt lat="43.9516591" lon="12.4789888"><ele>253.00000000000003</ele><time>2026-04-30T14:10:47.216Z</time></trkpt><trkpt lat="43.9516571" lon="12.4788881"><ele>253.0</ele><time>2026-04-30T14:10:49.21Z</time></trkpt><trkpt lat="43.95165" lon="12.4787763"><ele>253.0</ele><time>2026-04-30T14:10:51.239Z</time></trkpt><trkpt lat="43.9516501" lon="12.4786535"><ele>253.0</ele><time>2026-04-30T14:10:53.215Z</time></trkpt><trkpt lat="43.9516683" lon="12.4785197"><ele>253.0</ele><time>2026-04-30T14:10:55.221Z</time></trkpt><trkpt lat="43.9516616" lon="12.4783714"><ele>253.0</ele><time>2026-04-30T14:10:57.182Z</time></trkpt><trkpt lat="43.9516511" lon="12.4782232"><ele>252.66666666666666</ele><time>2026-04-30T14:10:59.225Z</time></trkpt><trkpt lat="43.9516508" lon="12.478102"><ele>252.33333333333331</ele><time>2026-04-30T14:11:01.201Z</time></trkpt><trkpt lat="43.9516621" lon="12.4779624"><ele>252.0</ele><time>2026-04-30T14:11:03.218Z</time></trkpt><trkpt lat="43.9516801" lon="12.4778426"><ele>251.66666666666669</ele><time>2026-04-30T14:11:05.21Z</time></trkpt><trkpt lat="43.951707" lon="12.4777373"><ele>251.33333333333334</ele><time>2026-04-30T14:11:07.149Z</time></trkpt><trkpt lat="43.9517398" lon="12.4776254"><ele>251.0</ele><time>2026-04-30T14:11:09.211Z</time></trkpt><trkpt lat="43.9518014" lon="12.4775535"><ele>250.4</ele><time>2026-04-30T14:11:11.202Z</time></trkpt><trkpt lat="43.9518701" lon="12.4775491"><ele>249.8</ele><time>2026-04-30T14:11:12.19Z</time></trkpt><trkpt lat="43.9519803" lon="12.4775211"><ele>249.20000000000002</ele><time>2026-04-30T14:11:14.228Z</time></trkpt><trkpt lat="43.9520652" lon="12.4774426"><ele>248.60000000000002</ele><time>2026-04-30T14:11:16.216Z</time></trkpt><trkpt lat="43.9521433" lon="12.4773627"><ele>248.0</ele><time>2026-04-30T14:11:18.208Z</time></trkpt><trkpt lat="43.9522202" lon="12.4772568"><ele>248.0</ele><time>2026-04-30T14:11:20.194Z</time></trkpt><trkpt lat="43.9522915" lon="12.4771462"><ele>248.0</ele><time>2026-04-30T14:11:22.211Z</time></trkpt><trkpt lat="43.9523422" lon="12.477049"><ele>248.0</ele><time>2026-04-30T14:11:24.226Z</time></trkpt><trkpt lat="43.9523978" lon="12.4769632"><ele>248.0</ele><time>2026-04-30T14:11:26.206Z</time></trkpt><trkpt lat="43.9524551" lon="12.4768682"><ele>248.0</ele><time>2026-04-30T14:11:28.223Z</time></trkpt><trkpt lat="43.9525157" lon="12.4767742"><ele>248.85714285714286</ele><time>2026-04-30T14:11:30.156Z</time></trkpt><trkpt lat="43.9525717" lon="12.4766947"><ele>249.71428571428572</ele><time>2026-04-30T14:11:32.169Z</time></trkpt><trkpt lat="43.9526193" lon="12.476616"><ele>250.57142857142858</ele><time>2026-04-30T14:11:34.15Z</time></trkpt><trkpt lat="43.9526748" lon="12.4765623"><ele>251.42857142857144</ele><time>2026-04-30T14:11:37.147Z</time></trkpt><trkpt lat="43.9527349" lon="12.4765111"><ele>252.28571428571428</ele><time>2026-04-30T14:11:40.14Z</time></trkpt><trkpt lat="43.9528169" lon="12.4764527"><ele>253.14285714285717</ele><time>2026-04-30T14:11:43.145Z</time></trkpt><trkpt lat="43.9528752" lon="12.4764129"><ele>254.0</ele><time>2026-04-30T14:11:45.148Z</time></trkpt><trkpt lat="43.9529629" lon="12.4763616"><ele>254.0</ele><time>2026-04-30T14:11:48.186Z</time></trkpt><trkpt lat="43.953021" lon="12.4763228"><ele>254.0</ele><time>2026-04-30T14:11:50.203Z</time></trkpt><trkpt lat="43.9530856" lon="12.4762853"><ele>254.0</ele><time>2026-04-30T14:11:52.21Z</time></trkpt><trkpt lat="43.9531502" lon="12.4762635"><ele>254.0</ele><time>2026-04-30T14:11:54.211Z</time></trkpt><trkpt lat="43.9532316" lon="12.4762251"><ele>254.0</ele><time>2026-04-30T14:11:56.165Z</time></trkpt><trkpt lat="43.9533072" lon="12.4761936"><ele>254.0</ele><time>2026-04-30T14:11:58.205Z</time></trkpt><trkpt lat="43.9533876" lon="12.4761719"><ele>254.0</ele><time>2026-04-30T14:12:00.216Z</time></trkpt><trkpt lat="43.9534603" lon="12.476148"><ele>255.16666666666669</ele><time>2026-04-30T14:12:02.218Z</time></trkpt><trkpt lat="43.9535337" lon="12.4761056"><ele>256.33333333333337</ele><time>2026-04-30T14:12:04.203Z</time></trkpt><trkpt lat="43.9536083" lon="12.4760216"><ele>257.5</ele><time>2026-04-30T14:12:06.21Z</time></trkpt><trkpt lat="43.9536831" lon="12.475959"><ele>258.6666666666667</ele><time>2026-04-30T14:12:08.187Z</time></trkpt><trkpt lat="43.9537562" lon="12.4759166"><ele>259.8333333333333</ele><time>2026-04-30T14:12:10.173Z</time></trkpt><trkpt lat="43.9538213" lon="12.4758763"><ele>261.0</ele><time>2026-04-30T14:12:12.19Z</time></trkpt><trkpt lat="43.953888" lon="12.4758221"><ele>261.0</ele><time>2026-04-30T14:12:14.211Z</time></trkpt><trkpt lat="43.9539558" lon="12.4757653"><ele>261.0</ele><time>2026-04-30T14:12:16.192Z</time></trkpt><trkpt lat="43.9540169" lon="12.475709"><ele>261.0</ele><time>2026-04-30T14:12:18.208Z</time></trkpt><trkpt lat="43.9540751" lon="12.475648"><ele>261.0</ele><time>2026-04-30T14:12:20.233Z</time></trkpt><trkpt lat="43.9541363" lon="12.4755846"><ele>261.0</ele><time>2026-04-30T14:12:22.234Z</time></trkpt><trkpt lat="43.9541904" lon="12.4755172"><ele>261.0</ele><time>2026-04-30T14:12:24.175Z</time></trkpt><trkpt lat="43.9542469" lon="12.4754169"><ele>260.6666666666667</ele><time>2026-04-30T14:12:26.224Z</time></trkpt><trkpt lat="43.9542928" lon="12.4753153"><ele>260.3333333333333</ele><time>2026-04-30T14:12:28.162Z</time></trkpt><trkpt lat="43.9543328" lon="12.4752296"><ele>260.0</ele><time>2026-04-30T14:12:30.198Z</time></trkpt><trkpt lat="43.9543813" lon="12.4751392"><ele>259.66666666666663</ele><time>2026-04-30T14:12:32.216Z</time></trkpt><trkpt lat="43.954407" lon="12.4750361"><ele>259.3333333333333</ele><time>2026-04-30T14:12:34.233Z</time></trkpt><trkpt lat="43.9544377" lon="12.4749284"><ele>259.0</ele><time>2026-04-30T14:12:36.231Z</time></trkpt><trkpt lat="43.9544565" lon="12.4748311"><ele>259.0</ele><time>2026-04-30T14:12:38.227Z</time></trkpt><trkpt lat="43.9544733" lon="12.4747398"><ele>259.0</ele><time>2026-04-30T14:12:40.214Z</time></trkpt><trkpt lat="43.9544654" lon="12.4746371"><ele>259.0</ele><time>2026-04-30T14:12:42.216Z</time></trkpt><trkpt lat="43.9544471" lon="12.4745237"><ele>259.0</ele><time>2026-04-30T14:12:44.232Z</time></trkpt><trkpt lat="43.9544413" lon="12.4744274"><ele>259.0</ele><time>2026-04-30T14:12:46.216Z</time></trkpt><trkpt lat="43.9544417" lon="12.474316"><ele>259.0</ele><time>2026-04-30T14:12:48.217Z</time></trkpt><trkpt lat="43.9544431" lon="12.4742086"><ele>259.8333333333333</ele><time>2026-04-30T14:12:50.165Z</time></trkpt><trkpt lat="43.9544467" lon="12.4741023"><ele>260.66666666666663</ele><time>2026-04-30T14:12:52.212Z</time></trkpt><trkpt lat="43.9544499" lon="12.473983"><ele>261.5</ele><time>2026-04-30T14:12:54.215Z</time></trkpt><trkpt lat="43.9544477" lon="12.4738634"><ele>262.3333333333333</ele><time>2026-04-30T14:12:56.22Z</time></trkpt><trkpt lat="43.9544488" lon="12.4737362"><ele>263.1666666666667</ele><time>2026-04-30T14:12:58.21Z</time></trkpt><trkpt lat="43.9544476" lon="12.4736146"><ele>264.0</ele><time>2026-04-30T14:13:00.225Z</time></trkpt><trkpt lat="43.9544484" lon="12.4734921"><ele>264.0</ele><time>2026-04-30T14:13:02.203Z</time></trkpt><trkpt lat="43.9544449" lon="12.4733811"><ele>264.0</ele><time>2026-04-30T14:13:04.219Z</time></trkpt><trkpt lat="43.9544479" lon="12.4732586"><ele>264.0</ele><time>2026-04-30T14:13:06.179Z</time></trkpt><trkpt lat="43.9544447" lon="12.4731369"><ele>264.0</ele><time>2026-04-30T14:13:08.217Z</time></trkpt><trkpt lat="43.9544513" lon="12.4730084"><ele>264.0</ele><time>2026-04-30T14:13:10.205Z</time></trkpt><trkpt lat="43.9544499" lon="12.4728751"><ele>264.0</ele><time>2026-04-30T14:13:12.209Z</time></trkpt><trkpt lat="43.9544499" lon="12.472751"><ele>264.4</ele><time>2026-04-30T14:13:14.208Z</time></trkpt><trkpt lat="43.9544558" lon="12.4726193"><ele>264.79999999999995</ele><time>2026-04-30T14:13:16.167Z</time></trkpt><trkpt lat="43.9544596" lon="12.4724776"><ele>265.20000000000005</ele><time>2026-04-30T14:13:18.202Z</time></trkpt><trkpt lat="43.9544625" lon="12.4723432"><ele>265.6</ele><time>2026-04-30T14:13:20.177Z</time></trkpt><trkpt lat="43.9544553" lon="12.4722129"><ele>266.0</ele><time>2026-04-30T14:13:22.195Z</time></trkpt><trkpt lat="43.9544469" lon="12.4721014"><ele>266.83333333333337</ele><time>2026-04-30T14:13:24.2Z</time></trkpt><trkpt lat="43.9544561" lon="12.4719943"><ele>267.6666666666667</ele><time>2026-04-30T14:13:26.234Z</time></trkpt><trkpt lat="43.9544531" lon="12.4718936"><ele>268.5</ele><time>2026-04-30T14:13:28.222Z</time></trkpt><trkpt lat="43.9544556" lon="12.471789"><ele>269.3333333333333</ele><time>2026-04-30T14:13:30.194Z</time></trkpt><trkpt lat="43.9544704" lon="12.4716963"><ele>270.16666666666663</ele><time>2026-04-30T14:13:32.207Z</time></trkpt><trkpt lat="43.954489" lon="12.4716059"><ele>271.0</ele><time>2026-04-30T14:13:34.208Z</time></trkpt><trkpt lat="43.9545116" lon="12.4714823"><ele>271.0</ele><time>2026-04-30T14:13:37.212Z</time></trkpt><trkpt lat="43.9545368" lon="12.4713906"><ele>271.0</ele><time>2026-04-30T14:13:39.225Z</time></trkpt><trkpt lat="43.9545529" lon="12.4713044"><ele>271.0</ele><time>2026-04-30T14:13:41.178Z</time></trkpt><trkpt lat="43.9545727" lon="12.4711775"><ele>271.0</ele><time>2026-04-30T14:13:44.217Z</time></trkpt><trkpt lat="43.9545908" lon="12.4710878"><ele>271.0</ele><time>2026-04-30T14:13:46.222Z</time></trkpt><trkpt lat="43.9546152" lon="12.4710071"><ele>271.0</ele><time>2026-04-30T14:13:48.214Z</time></trkpt><trkpt lat="43.9546287" lon="12.470916"><ele>271.0</ele><time>2026-04-30T14:13:50.223Z</time></trkpt><trkpt lat="43.9546515" lon="12.4708074"><ele>271.5</ele><time>2026-04-30T14:13:52.211Z</time></trkpt><trkpt lat="43.9546834" lon="12.4706966"><ele>272.0</ele><time>2026-04-30T14:13:54.211Z</time></trkpt><trkpt lat="43.9547043" lon="12.4705771"><ele>272.5</ele><time>2026-04-30T14:13:56.23Z</time></trkpt><trkpt lat="43.9547113" lon="12.4704672"><ele>273.0</ele><time>2026-04-30T14:13:58.168Z</time></trkpt><trkpt lat="43.9547114" lon="12.47036"><ele>273.5</ele><time>2026-04-30T14:14:00.217Z</time></trkpt><trkpt lat="43.9547105" lon="12.4702501"><ele>274.0</ele><time>2026-04-30T14:14:02.201Z</time></trkpt><trkpt lat="43.9547078" lon="12.4701321"><ele>274.0</ele><time>2026-04-30T14:14:04.223Z</time></trkpt><trkpt lat="43.9547035" lon="12.4700303"><ele>274.0</ele><time>2026-04-30T14:14:06.208Z</time></trkpt><trkpt lat="43.9546999" lon="12.4699214"><ele>274.0</ele><time>2026-04-30T14:14:08.206Z</time></trkpt><trkpt lat="43.9546943" lon="12.4698153"><ele>274.0</ele><time>2026-04-30T14:14:10.234Z</time></trkpt><trkpt lat="43.9546838" lon="12.4697178"><ele>274.0</ele><time>2026-04-30T14:14:12.214Z</time></trkpt><trkpt lat="43.9546781" lon="12.469616"><ele>274.0</ele><time>2026-04-30T14:14:14.211Z</time></trkpt><trkpt lat="43.9546714" lon="12.4695075"><ele>274.42857142857144</ele><time>2026-04-30T14:14:16.216Z</time></trkpt><trkpt lat="43.9546509" lon="12.4693994"><ele>274.8571428571429</ele><time>2026-04-30T14:14:18.219Z</time></trkpt><trkpt lat="43.9546279" lon="12.4692993"><ele>275.2857142857143</ele><time>2026-04-30T14:14:20.214Z</time></trkpt><trkpt lat="43.9546203" lon="12.4692039"><ele>275.7142857142857</ele><time>2026-04-30T14:14:22.204Z</time></trkpt><trkpt lat="43.9546185" lon="12.4690781"><ele>276.1428571428571</ele><time>2026-04-30T14:14:25.215Z</time></trkpt><trkpt lat="43.9546191" lon="12.4689853"><ele>276.57142857142856</ele><time>2026-04-30T14:14:27.213Z</time></trkpt><trkpt lat="43.9546179" lon="12.4688952"><ele>277.0</ele><time>2026-04-30T14:14:29.164Z</time></trkpt><trkpt lat="43.9546139" lon="12.4688016"><ele>277.7142857142857</ele><time>2026-04-30T14:14:31.221Z</time></trkpt><trkpt lat="43.9546157" lon="12.468696"><ele>278.4285714285714</ele><time>2026-04-30T14:14:33.209Z</time></trkpt><trkpt lat="43.9546002" lon="12.4685846"><ele>279.1428571428571</ele><time>2026-04-30T14:14:36.208Z</time></trkpt><trkpt lat="43.9545301" lon="12.4685888"><ele>279.85714285714283</ele><time>2026-04-30T14:14:40.196Z</time></trkpt><trkpt lat="43.9544642" lon="12.4686239"><ele>280.57142857142856</ele><time>2026-04-30T14:14:43.22Z</time></trkpt><trkpt lat="43.9543967" lon="12.4686421"><ele>281.2857142857143</ele><time>2026-04-30T14:14:46.219Z</time></trkpt><trkpt lat="43.9543321" lon="12.4686608"><ele>282.0</ele><time>2026-04-30T14:14:49.225Z</time></trkpt><trkpt lat="43.9542684" lon="12.4686877"><ele>282.0</ele><time>2026-04-30T14:14:52.206Z</time></trkpt><trkpt lat="43.9542069" lon="12.4687301"><ele>282.0</ele><time>2026-04-30T14:14:55.208Z</time></trkpt><trkpt lat="43.9541502" lon="12.4687788"><ele>282.0</ele><time>2026-04-30T14:14:58.199Z</time></trkpt><trkpt lat="43.954108" lon="12.4688571"><ele>282.0</ele><time>2026-04-30T14:15:01.214Z</time></trkpt><trkpt lat="43.9540418" lon="12.4689464"><ele>282.0</ele><time>2026-04-30T14:15:04.194Z</time></trkpt><trkpt lat="43.9539666" lon="12.4690005"><ele>282.0</ele><time>2026-04-30T14:15:07.191Z</time></trkpt><trkpt lat="43.9538908" lon="12.4690541"><ele>282.8571428571429</ele><time>2026-04-30T14:15:10.19Z</time></trkpt><trkpt lat="43.9538329" lon="12.4691135"><ele>283.7142857142857</ele><time>2026-04-30T14:15:13.183Z</time></trkpt><trkpt lat="43.9537887" lon="12.4691785"><ele>284.57142857142856</ele><time>2026-04-30T14:15:16.222Z</time></trkpt><trkpt lat="43.9537301" lon="12.4692634"><ele>285.42857142857144</ele><time>2026-04-30T14:15:20.207Z</time></trkpt><trkpt lat="43.9536885" lon="12.4693462"><ele>286.2857142857143</ele><time>2026-04-30T14:15:23.218Z</time></trkpt><trkpt lat="43.9536494" lon="12.4694381"><ele>287.14285714285717</ele><time>2026-04-30T14:15:26.209Z</time></trkpt><trkpt lat="43.953622" lon="12.469537"><ele>288.0</ele><time>2026-04-30T14:15:29.204Z</time></trkpt><trkpt lat="43.953577" lon="12.4696159"><ele>288.00000000000006</ele><time>2026-04-30T14:15:32.216Z</time></trkpt><trkpt lat="43.9535166" lon="12.4697005"><ele>288.0</ele><time>2026-04-30T14:15:36.213Z</time></trkpt><trkpt lat="43.9534644" lon="12.4697555"><ele>288.0</ele><time>2026-04-30T14:15:39.201Z</time></trkpt><trkpt lat="43.9534101" lon="12.4698048"><ele>288.0</ele><time>2026-04-30T14:15:42.231Z</time></trkpt><trkpt lat="43.9533421" lon="12.4698288"><ele>288.0</ele><time>2026-04-30T14:15:45.189Z</time></trkpt><trkpt lat="43.9532805" lon="12.4698514"><ele>288.00000000000006</ele><time>2026-04-30T14:15:48.22Z</time></trkpt><trkpt lat="43.9532093" lon="12.4698384"><ele>288.0</ele><time>2026-04-30T14:15:51.216Z</time></trkpt><trkpt lat="43.9531392" lon="12.4698168"><ele>289.6666666666667</ele><time>2026-04-30T14:15:55.23Z</time></trkpt><trkpt lat="43.9530671" lon="12.4698084"><ele>291.3333333333333</ele><time>2026-04-30T14:15:59.209Z</time></trkpt><trkpt lat="43.9529742" lon="12.4697751"><ele>293.0</ele><time>2026-04-30T14:16:02.206Z</time></trkpt><trkpt lat="43.9529232" lon="12.469696"><ele>294.66666666666663</ele><time>2026-04-30T14:16:05.221Z</time></trkpt><trkpt lat="43.9528678" lon="12.4696287"><ele>296.3333333333333</ele><time>2026-04-30T14:16:10.19Z</time></trkpt><trkpt lat="43.952823" lon="12.4695605"><ele>298.0</ele><time>2026-04-30T14:16:14.2Z</time></trkpt><trkpt lat="43.9528132" lon="12.4694483"><ele>299.0</ele><time>2026-04-30T14:16:17.203Z</time></trkpt><trkpt lat="43.9528228" lon="12.4693393"><ele>300.0</ele><time>2026-04-30T14:16:20.186Z</time></trkpt><trkpt lat="43.9528024" lon="12.4692399"><ele>301.0</ele><time>2026-04-30T14:16:23.211Z</time></trkpt><trkpt lat="43.9527876" lon="12.4691351"><ele>302.0</ele><time>2026-04-30T14:16:27.203Z</time></trkpt><trkpt lat="43.9527504" lon="12.4690388"><ele>303.0</ele><time>2026-04-30T14:16:30.22Z</time></trkpt><trkpt lat="43.9526934" lon="12.4689625"><ele>304.0</ele><time>2026-04-30T14:16:33.18Z</time></trkpt><trkpt lat="43.9526676" lon="12.4688469"><ele>304.16666666666663</ele><time>2026-04-30T14:16:36.206Z</time></trkpt><trkpt lat="43.9526688" lon="12.468754"><ele>304.3333333333333</ele><time>2026-04-30T14:16:38.207Z</time></trkpt><trkpt lat="43.9526991" lon="12.4686384"><ele>304.5</ele><time>2026-04-30T14:16:41.218Z</time></trkpt><trkpt lat="43.9526991" lon="12.46851"><ele>304.6666666666667</ele><time>2026-04-30T14:16:44.215Z</time></trkpt><trkpt lat="43.9526376" lon="12.4685702"><ele>304.83333333333337</ele><time>2026-04-30T14:16:49.182Z</time></trkpt><trkpt lat="43.9526185" lon="12.4686649"><ele>305.0</ele><time>2026-04-30T14:16:51.202Z</time></trkpt><trkpt lat="43.9525941" lon="12.4687626"><ele>304.83333333333337</ele><time>2026-04-30T14:16:53.209Z</time></trkpt><trkpt lat="43.9525543" lon="12.4688667"><ele>304.6666666666667</ele><time>2026-04-30T14:16:55.207Z</time></trkpt><trkpt lat="43.9525121" lon="12.4689914"><ele>304.5</ele><time>2026-04-30T14:16:57.199Z</time></trkpt><trkpt lat="43.9524572" lon="12.4690865"><ele>304.3333333333333</ele><time>2026-04-30T14:16:59.218Z</time></trkpt><trkpt lat="43.9524095" lon="12.4691882"><ele>304.16666666666663</ele><time>2026-04-30T14:17:01.214Z</time></trkpt><trkpt lat="43.9523551" lon="12.4692834"><ele>304.0</ele><time>2026-04-30T14:17:03.222Z</time></trkpt><trkpt lat="43.952296" lon="12.4693662"><ele>304.8</ele><time>2026-04-30T14:17:05.228Z</time></trkpt><trkpt lat="43.9522285" lon="12.4694414"><ele>305.59999999999997</ele><time>2026-04-30T14:17:07.175Z</time></trkpt><trkpt lat="43.9521557" lon="12.4695218"><ele>306.4</ele><time>2026-04-30T14:17:09.207Z</time></trkpt><trkpt lat="43.9520795" lon="12.4695927"><ele>307.2</ele><time>2026-04-30T14:17:11.206Z</time></trkpt><trkpt lat="43.9520264" lon="12.4697026"><ele>308.0</ele><time>2026-04-30T14:17:13.216Z</time></trkpt><trkpt lat="43.9519733" lon="12.4698131"><ele>308.0</ele><time>2026-04-30T14:17:15.223Z</time></trkpt><trkpt lat="43.9519128" lon="12.4699243"><ele>308.0</ele><time>2026-04-30T14:17:17.229Z</time></trkpt><trkpt lat="43.9518447" lon="12.4699225"><ele>308.0</ele><time>2026-04-30T14:17:20.209Z</time></trkpt><trkpt lat="43.9517832" lon="12.4698417"><ele>308.0</ele><time>2026-04-30T14:17:24.163Z</time></trkpt><trkpt lat="43.9517254" lon="12.4697705"><ele>308.0</ele><time>2026-04-30T14:17:27.215Z</time></trkpt><trkpt lat="43.9516734" lon="12.4697084"><ele>308.0</ele><time>2026-04-30T14:17:30.189Z</time></trkpt><trkpt lat="43.9516051" lon="12.4696387"><ele>309.85714285714283</ele><time>2026-04-30T14:17:34.222Z</time></trkpt><trkpt lat="43.95155" lon="12.4695875"><ele>311.7142857142857</ele><time>2026-04-30T14:17:37.202Z</time></trkpt><trkpt lat="43.9514856" lon="12.4695195"><ele>313.57142857142856</ele><time>2026-04-30T14:17:41.208Z</time></trkpt><trkpt lat="43.951433" lon="12.4694668"><ele>315.42857142857144</ele><time>2026-04-30T14:17:44.233Z</time></trkpt><trkpt lat="43.9513651" lon="12.4693906"><ele>317.2857142857143</ele><time>2026-04-30T14:17:48.227Z</time></trkpt><trkpt lat="43.9513328" lon="12.4693134"><ele>319.1428571428571</ele><time>2026-04-30T14:17:52.212Z</time></trkpt><trkpt lat="43.9513622" lon="12.4692219"><ele>321.0</ele><time>2026-04-30T14:17:55.183Z</time></trkpt><trkpt lat="43.951399" lon="12.4691468"><ele>321.0</ele><time>2026-04-30T14:17:57.2Z</time></trkpt><trkpt lat="43.951443" lon="12.4690399"><ele>321.0</ele><time>2026-04-30T14:17:59.18Z</time></trkpt><trkpt lat="43.9514789" lon="12.4689289"><ele>321.0</ele><time>2026-04-30T14:18:01.21Z</time></trkpt><trkpt lat="43.9515084" lon="12.4688032"><ele>321.0</ele><time>2026-04-30T14:18:03.211Z</time></trkpt><trkpt lat="43.9514954" lon="12.4686782"><ele>321.0</ele><time>2026-04-30T14:18:05.198Z</time></trkpt><trkpt lat="43.9514584" lon="12.4686055"><ele>321.0</ele><time>2026-04-30T14:18:07.216Z</time></trkpt><trkpt lat="43.9514114" lon="12.4685447"><ele>321.6666666666667</ele><time>2026-04-30T14:18:09.177Z</time></trkpt><trkpt lat="43.9513474" lon="12.4684696"><ele>322.3333333333333</ele><time>2026-04-30T14:18:12.206Z</time></trkpt><trkpt lat="43.9512544" lon="12.4684743"><ele>323.0</ele><time>2026-04-30T14:18:15.197Z</time></trkpt><trkpt lat="43.9511838" lon="12.4685319"><ele>323.66666666666663</ele><time>2026-04-30T14:18:19.166Z</time></trkpt><trkpt lat="43.9511205" lon="12.4685699"><ele>324.3333333333333</ele><time>2026-04-30T14:18:21.207Z</time></trkpt><trkpt lat="43.9510412" lon="12.4685593"><ele>325.0</ele><time>2026-04-30T14:18:24.171Z</time></trkpt><trkpt lat="43.9509858" lon="12.4684728"><ele>325.0</ele><time>2026-04-30T14:18:27.189Z</time></trkpt><trkpt lat="43.9509233" lon="12.4683951"><ele>325.0</ele><time>2026-04-30T14:18:30.223Z</time></trkpt><trkpt lat="43.950854" lon="12.4683237"><ele>325.0</ele><time>2026-04-30T14:18:33.215Z</time></trkpt><trkpt lat="43.9508009" lon="12.4682519"><ele>325.0</ele><time>2026-04-30T14:18:36.187Z</time></trkpt><trkpt lat="43.9507433" lon="12.4681706"><ele>325.0</ele><time>2026-04-30T14:18:39.194Z</time></trkpt><trkpt lat="43.9506863" lon="12.4680997"><ele>325.0</ele><time>2026-04-30T14:18:42.199Z</time></trkpt><trkpt lat="43.950639" lon="12.46803"><ele>326.0</ele><time>2026-04-30T14:18:45.197Z</time></trkpt><trkpt lat="43.950572" lon="12.4679516"><ele>327.0</ele><time>2026-04-30T14:18:49.197Z</time></trkpt><trkpt lat="43.9505249" lon="12.4678809"><ele>328.0</ele><time>2026-04-30T14:18:52.201Z</time></trkpt><trkpt lat="43.9504426" lon="12.4678702"><ele>329.0</ele><time>2026-04-30T14:18:57.205Z</time></trkpt><trkpt lat="43.950376" lon="12.4679056"><ele>330.0</ele><time>2026-04-30T14:19:00.198Z</time></trkpt><trkpt lat="43.9503113" lon="12.4678459"><ele>331.0</ele><time>2026-04-30T14:19:05.177Z</time></trkpt><trkpt lat="43.9503024" lon="12.4677593"><ele>331.0</ele><time>2026-04-30T14:19:07.216Z</time></trkpt><trkpt lat="43.9503113" lon="12.4676339"><ele>331.0</ele><time>2026-04-30T14:19:10.194Z</time></trkpt><trkpt lat="43.9502959" lon="12.4675072"><ele>331.0</ele><time>2026-04-30T14:19:13.212Z</time></trkpt><trkpt lat="43.9502793" lon="12.4674132"><ele>331.0</ele><time>2026-04-30T14:19:15.219Z</time></trkpt><trkpt lat="43.9502577" lon="12.4673185"><ele>331.0</ele><time>2026-04-30T14:19:17.186Z</time></trkpt><trkpt lat="43.9502429" lon="12.4672288"><ele>331.0</ele><time>2026-04-30T14:19:19.22Z</time></trkpt><trkpt lat="43.9502394" lon="12.4671276"><ele>330.5</ele><time>2026-04-30T14:19:21.185Z</time></trkpt><trkpt lat="43.9502126" lon="12.4670461"><ele>330.0</ele><time>2026-04-30T14:19:23.202Z</time></trkpt><trkpt lat="43.9501782" lon="12.4669311"><ele>329.5</ele><time>2026-04-30T14:19:25.221Z</time></trkpt><trkpt lat="43.9501434" lon="12.4668386"><ele>329.0</ele><time>2026-04-30T14:19:27.19Z</time></trkpt><trkpt lat="43.9501124" lon="12.4667468"><ele>328.5</ele><time>2026-04-30T14:19:29.209Z</time></trkpt><trkpt lat="43.9500633" lon="12.4666384"><ele>328.0</ele><time>2026-04-30T14:19:31.204Z</time></trkpt><trkpt lat="43.9500132" lon="12.4665438"><ele>329.2857142857143</ele><time>2026-04-30T14:19:33.204Z</time></trkpt><trkpt lat="43.9499626" lon="12.4664778"><ele>330.57142857142856</ele><time>2026-04-30T14:19:35.214Z</time></trkpt><trkpt lat="43.9499131" lon="12.4664177"><ele>331.8571428571429</ele><time>2026-04-30T14:19:37.192Z</time></trkpt><trkpt lat="43.9498408" lon="12.4663405"><ele>333.1428571428571</ele><time>2026-04-30T14:19:40.212Z</time></trkpt><trkpt lat="43.9497836" lon="12.4662902"><ele>334.42857142857144</ele><time>2026-04-30T14:19:42.222Z</time></trkpt><trkpt lat="43.949727" lon="12.466242"><ele>335.7142857142857</ele><time>2026-04-30T14:19:44.208Z</time></trkpt><trkpt lat="43.9496696" lon="12.4661948"><ele>337.0</ele><time>2026-04-30T14:19:46.225Z</time></trkpt><trkpt lat="43.9495856" lon="12.4661397"><ele>337.0</ele><time>2026-04-30T14:19:49.217Z</time></trkpt><trkpt lat="43.9494958" lon="12.466104"><ele>337.0</ele><time>2026-04-30T14:19:52.184Z</time></trkpt><trkpt lat="43.9494069" lon="12.4660823"><ele>337.0</ele><time>2026-04-30T14:19:55.224Z</time></trkpt><trkpt lat="43.949317" lon="12.4660626"><ele>337.0</ele><time>2026-04-30T14:19:58.222Z</time></trkpt><trkpt lat="43.949254" lon="12.4660535"><ele>337.0</ele><time>2026-04-30T14:20:01.211Z</time></trkpt><trkpt lat="43.9491661" lon="12.4660199"><ele>337.0</ele><time>2026-04-30T14:20:04.22Z</time></trkpt><trkpt lat="43.949087" lon="12.4660364"><ele>338.00000000000006</ele><time>2026-04-30T14:20:06.179Z</time></trkpt><trkpt lat="43.9490182" lon="12.4660499"><ele>339.0</ele><time>2026-04-30T14:20:08.219Z</time></trkpt><trkpt lat="43.9489491" lon="12.4660578"><ele>340.0</ele><time>2026-04-30T14:20:10.22Z</time></trkpt><trkpt lat="43.9488815" lon="12.4660651"><ele>341.0</ele><time>2026-04-30T14:20:12.209Z</time></trkpt><trkpt lat="43.9488067" lon="12.466067"><ele>342.0</ele><time>2026-04-30T14:20:14.201Z</time></trkpt><trkpt lat="43.9487365" lon="12.4660732"><ele>343.00000000000006</ele><time>2026-04-30T14:20:16.209Z</time></trkpt><trkpt lat="43.9486618" lon="12.4660856"><ele>344.0</ele><time>2026-04-30T14:20:18.202Z</time></trkpt><trkpt lat="43.948591" lon="12.4660914"><ele>344.0</ele><time>2026-04-30T14:20:20.204Z</time></trkpt><trkpt lat="43.9485209" lon="12.4660958"><ele>344.0</ele><time>2026-04-30T14:20:22.173Z</time></trkpt><trkpt lat="43.9484537" lon="12.4660905"><ele>344.0</ele><time>2026-04-30T14:20:24.179Z</time></trkpt><trkpt lat="43.9483855" lon="12.4660937"><ele>344.0</ele><time>2026-04-30T14:20:27.177Z</time></trkpt><trkpt lat="43.9482923" lon="12.4660996"><ele>344.0</ele><time>2026-04-30T14:20:30.217Z</time></trkpt><trkpt lat="43.9482243" lon="12.4661141"><ele>344.0</ele><time>2026-04-30T14:20:32.187Z</time></trkpt><trkpt lat="43.9478856" lon="12.465668"><ele>345.5</ele><time>2026-04-30T14:20:44.165Z</time></trkpt><trkpt lat="43.9478361" lon="12.4655917"><ele>347.0</ele><time>2026-04-30T14:20:46.202Z</time></trkpt><trkpt lat="43.947768" lon="12.4655909"><ele>348.5</ele><time>2026-04-30T14:20:48.203Z</time></trkpt><trkpt lat="43.9478083" lon="12.465673"><ele>350.0</ele><time>2026-04-30T14:21:01.201Z</time></trkpt><trkpt lat="43.9478145" lon="12.4657824"><ele>351.5</ele><time>2026-04-30T14:21:07.203Z</time></trkpt><trkpt lat="43.9477882" lon="12.4659016"><ele>353.0</ele><time>2026-04-30T14:21:11.205Z</time></trkpt><trkpt lat="43.9477475" lon="12.4660297"><ele>353.0</ele><time>2026-04-30T14:21:14.208Z</time></trkpt><trkpt lat="43.9477259" lon="12.4661274"><ele>353.0</ele><time>2026-04-30T14:21:16.226Z</time></trkpt><trkpt lat="43.947705" lon="12.466245"><ele>353.0</ele><time>2026-04-30T14:21:18.213Z</time></trkpt><trkpt lat="43.9476814" lon="12.4663723"><ele>353.0</ele><time>2026-04-30T14:21:20.214Z</time></trkpt><trkpt lat="43.9476476" lon="12.4664795"><ele>353.0</ele><time>2026-04-30T14:21:22.2Z</time></trkpt><trkpt lat="43.9476272" lon="12.4665968"><ele>353.0</ele><time>2026-04-30T14:21:24.222Z</time></trkpt><trkpt lat="43.947605" lon="12.4667124"><ele>353.33333333333337</ele><time>2026-04-30T14:21:26.219Z</time></trkpt><trkpt lat="43.9475957" lon="12.4668336"><ele>353.6666666666667</ele><time>2026-04-30T14:21:28.211Z</time></trkpt><trkpt lat="43.9475754" lon="12.466961"><ele>354.0</ele><time>2026-04-30T14:21:30.204Z</time></trkpt><trkpt lat="43.9475591" lon="12.4670803"><ele>354.3333333333333</ele><time>2026-04-30T14:21:32.208Z</time></trkpt><trkpt lat="43.9475362" lon="12.4671869"><ele>354.66666666666663</ele><time>2026-04-30T14:21:34.188Z</time></trkpt><trkpt lat="43.9475236" lon="12.4673053"><ele>355.0</ele><time>2026-04-30T14:21:36.23Z</time></trkpt><trkpt lat="43.9475124" lon="12.4674296"><ele>355.5</ele><time>2026-04-30T14:21:38.208Z</time></trkpt><trkpt lat="43.9475028" lon="12.4675615"><ele>356.0</ele><time>2026-04-30T14:21:40.22Z</time></trkpt><trkpt lat="43.9474903" lon="12.4676849"><ele>356.5</ele><time>2026-04-30T14:21:42.226Z</time></trkpt><trkpt lat="43.9474752" lon="12.4677856"><ele>357.0</ele><time>2026-04-30T14:21:44.229Z</time></trkpt><trkpt lat="43.9474532" lon="12.4679022"><ele>357.5</ele><time>2026-04-30T14:21:47.236Z</time></trkpt><trkpt lat="43.9473869" lon="12.4679443"><ele>358.0</ele><time>2026-04-30T14:21:49.204Z</time></trkpt><trkpt lat="43.9472708" lon="12.4679878"><ele>358.0</ele><time>2026-04-30T14:21:51.212Z</time></trkpt><trkpt lat="43.9472007" lon="12.4680075"><ele>358.0</ele><time>2026-04-30T14:21:52.198Z</time></trkpt><trkpt lat="43.9471083" lon="12.4680313"><ele>358.0</ele><time>2026-04-30T14:21:54.194Z</time></trkpt><trkpt lat="43.9470112" lon="12.4680557"><ele>358.0</ele><time>2026-04-30T14:21:57.188Z</time></trkpt><trkpt lat="43.9469557" lon="12.4680976"><ele>358.0</ele><time>2026-04-30T14:21:58.198Z</time></trkpt><trkpt lat="43.9468984" lon="12.4681413"><ele>358.0</ele><time>2026-04-30T14:21:59.183Z</time></trkpt><trkpt lat="43.946828" lon="12.4681825"><ele>358.0</ele><time>2026-04-30T14:22:01.202Z</time></trkpt><trkpt lat="43.9468" lon="12.4681037"><ele>358.0</ele><time>2026-04-30T14:22:04.223Z</time></trkpt><trkpt lat="43.9467623" lon="12.4679965"><ele>358.0</ele><time>2026-04-30T14:22:06.226Z</time></trkpt><trkpt lat="43.9467028" lon="12.4678625"><ele>358.0</ele><time>2026-04-30T14:22:08.206Z</time></trkpt><trkpt lat="43.9466506" lon="12.4677978"><ele>358.0</ele><time>2026-04-30T14:22:09.197Z</time></trkpt><trkpt lat="43.9465874" lon="12.4677264"><ele>358.0</ele><time>2026-04-30T14:22:10.202Z</time></trkpt><trkpt lat="43.9465265" lon="12.4676388"><ele>355.4</ele><time>2026-04-30T14:22:11.195Z</time></trkpt><trkpt lat="43.9464587" lon="12.4675397"><ele>352.79999999999995</ele><time>2026-04-30T14:22:12.205Z</time></trkpt><trkpt lat="43.9463867" lon="12.4674351"><ele>350.2</ele><time>2026-04-30T14:22:13.206Z</time></trkpt><trkpt lat="43.9463264" lon="12.4673222"><ele>347.6</ele><time>2026-04-30T14:22:14.182Z</time></trkpt><trkpt lat="43.9462899" lon="12.4672197"><ele>345.0</ele><time>2026-04-30T14:22:15.166Z</time></trkpt><trkpt lat="43.9462626" lon="12.4671383"><ele>344.3333333333333</ele><time>2026-04-30T14:22:16.207Z</time></trkpt><trkpt lat="43.9462626" lon="12.4669941"><ele>343.6666666666667</ele><time>2026-04-30T14:22:18.194Z</time></trkpt><trkpt lat="43.9462991" lon="12.4668589"><ele>343.0</ele><time>2026-04-30T14:22:20.197Z</time></trkpt><trkpt lat="43.9463339" lon="12.4667558"><ele>342.33333333333337</ele><time>2026-04-30T14:22:22.198Z</time></trkpt><trkpt lat="43.9463602" lon="12.4666451"><ele>341.6666666666667</ele><time>2026-04-30T14:22:25.195Z</time></trkpt><trkpt lat="43.9464013" lon="12.4665757"><ele>341.0</ele><time>2026-04-30T14:22:27.208Z</time></trkpt><trkpt lat="43.9464044" lon="12.4664866"><ele>341.0</ele><time>2026-04-30T14:22:29.189Z</time></trkpt><trkpt lat="43.9463532" lon="12.4663932"><ele>341.0</ele><time>2026-04-30T14:22:31.196Z</time></trkpt><trkpt lat="43.9462495" lon="12.466286"><ele>341.0</ele><time>2026-04-30T14:22:33.2Z</time></trkpt><trkpt lat="43.9461897" lon="12.4662278"><ele>341.0</ele><time>2026-04-30T14:22:34.2Z</time></trkpt><trkpt lat="43.9461231" lon="12.4661786"><ele>341.0</ele><time>2026-04-30T14:22:35.186Z</time></trkpt><trkpt lat="43.9460612" lon="12.4661277"><ele>341.0</ele><time>2026-04-30T14:22:36.205Z</time></trkpt><trkpt lat="43.9460009" lon="12.466068"><ele>340.42857142857144</ele><time>2026-04-30T14:22:37.211Z</time></trkpt><trkpt lat="43.9459469" lon="12.4660147"><ele>339.8571428571429</ele><time>2026-04-30T14:22:38.214Z</time></trkpt><trkpt lat="43.9458862" lon="12.4659615"><ele>339.28571428571433</ele><time>2026-04-30T14:22:39.154Z</time></trkpt><trkpt lat="43.9458258" lon="12.4659081"><ele>338.7142857142857</ele><time>2026-04-30T14:22:40.212Z</time></trkpt><trkpt lat="43.9457728" lon="12.4658517"><ele>338.14285714285717</ele><time>2026-04-30T14:22:41.165Z</time></trkpt><trkpt lat="43.945715" lon="12.4657887"><ele>337.5714285714286</ele><time>2026-04-30T14:22:42.207Z</time></trkpt><trkpt lat="43.9456612" lon="12.4657298"><ele>337.0</ele><time>2026-04-30T14:22:43.233Z</time></trkpt><trkpt lat="43.9455657" lon="12.465633"><ele>335.8</ele><time>2026-04-30T14:22:45.211Z</time></trkpt><trkpt lat="43.9454599" lon="12.4655404"><ele>334.6</ele><time>2026-04-30T14:22:47.222Z</time></trkpt><trkpt lat="43.9453515" lon="12.4654639"><ele>333.40000000000003</ele><time>2026-04-30T14:22:49.204Z</time></trkpt><trkpt lat="43.9452802" lon="12.4653969"><ele>332.20000000000005</ele><time>2026-04-30T14:22:51.204Z</time></trkpt><trkpt lat="43.94525" lon="12.4652775"><ele>331.0</ele><time>2026-04-30T14:22:53.205Z</time></trkpt><trkpt lat="43.9451933" lon="12.4651766"><ele>331.0</ele><time>2026-04-30T14:22:55.18Z</time></trkpt><trkpt lat="43.9450938" lon="12.4650565"><ele>331.0</ele><time>2026-04-30T14:22:57.218Z</time></trkpt><trkpt lat="43.9450367" lon="12.4649986"><ele>331.0</ele><time>2026-04-30T14:22:58.209Z</time></trkpt><trkpt lat="43.9449839" lon="12.4649362"><ele>331.0</ele><time>2026-04-30T14:22:59.22Z</time></trkpt><trkpt lat="43.9449124" lon="12.4648414"><ele>331.0</ele><time>2026-04-30T14:23:01.203Z</time></trkpt><trkpt lat="43.9448349" lon="12.4647819"><ele>329.42857142857144</ele><time>2026-04-30T14:23:04.208Z</time></trkpt><trkpt lat="43.9447926" lon="12.4646895"><ele>327.85714285714283</ele><time>2026-04-30T14:23:07.215Z</time></trkpt><trkpt lat="43.9447857" lon="12.4645985"><ele>326.2857142857143</ele><time>2026-04-30T14:23:09.202Z</time></trkpt><trkpt lat="43.9447717" lon="12.4645106"><ele>324.7142857142857</ele><time>2026-04-30T14:23:11.171Z</time></trkpt><trkpt lat="43.9447115" lon="12.4644773"><ele>323.14285714285717</ele><time>2026-04-30T14:23:14.146Z</time></trkpt><trkpt lat="43.9446339" lon="12.4644608"><ele>321.57142857142856</ele><time>2026-04-30T14:23:18.18Z</time></trkpt><trkpt lat="43.9445597" lon="12.4644617"><ele>320.0</ele><time>2026-04-30T14:23:21.164Z</time></trkpt><trkpt lat="43.9444959" lon="12.4644575"><ele>320.0</ele><time>2026-04-30T14:24:50.224Z</time></trkpt><trkpt lat="43.9444316" lon="12.4644309"><ele>320.0</ele><time>2026-04-30T14:24:54.194Z</time></trkpt><trkpt lat="43.9443711" lon="12.4644007"><ele>320.0</ele><time>2026-04-30T14:24:57.214Z</time></trkpt><trkpt lat="43.9443084" lon="12.4643788"><ele>320.0</ele><time>2026-04-30T14:25:02.231Z</time></trkpt><trkpt lat="43.9442549" lon="12.4643268"><ele>320.0</ele><time>2026-04-30T14:25:10.163Z</time></trkpt><trkpt lat="43.9442257" lon="12.4642414"><ele>320.0</ele><time>2026-04-30T14:25:16.187Z</time></trkpt><trkpt lat="43.9442363" lon="12.4641546"><ele>320.0</ele><time>2026-04-30T14:25:21.196Z</time></trkpt><trkpt lat="43.9442448" lon="12.4640494"><ele>320.0</ele><time>2026-04-30T14:25:26.196Z</time></trkpt><trkpt lat="43.9442578" lon="12.4639544"><ele>320.0</ele><time>2026-04-30T14:25:29.205Z</time></trkpt><trkpt lat="43.9442669" lon="12.4638449"><ele>320.0</ele><time>2026-04-30T14:25:32.211Z</time></trkpt><trkpt lat="43.944269" lon="12.4637239"><ele>320.0</ele><time>2026-04-30T14:25:35.217Z</time></trkpt><trkpt lat="43.9442829" lon="12.4636089"><ele>320.0</ele><time>2026-04-30T14:25:38.211Z</time></trkpt><trkpt lat="43.9442888" lon="12.463504"><ele>320.0</ele><time>2026-04-30T14:25:41.207Z</time></trkpt><trkpt lat="43.9443081" lon="12.4633703"><ele>321.0</ele><time>2026-04-30T14:25:44.204Z</time></trkpt><trkpt lat="43.9443244" lon="12.4632717"><ele>322.0</ele><time>2026-04-30T14:25:46.207Z</time></trkpt><trkpt lat="43.9443372" lon="12.4631798"><ele>323.0</ele><time>2026-04-30T14:25:48.185Z</time></trkpt><trkpt lat="43.9443544" lon="12.4630906"><ele>324.0</ele><time>2026-04-30T14:25:51.205Z</time></trkpt><trkpt lat="43.9443411" lon="12.4629997"><ele>325.0</ele><time>2026-04-30T14:25:54.18Z</time></trkpt><trkpt lat="43.9443332" lon="12.4629051"><ele>326.0</ele><time>2026-04-30T14:25:57.218Z</time></trkpt><trkpt lat="43.9443505" lon="12.4627922"><ele>327.0</ele><time>2026-04-30T14:26:01.226Z</time></trkpt><trkpt lat="43.9443469" lon="12.4626976"><ele>327.42857142857144</ele><time>2026-04-30T14:26:04.22Z</time></trkpt><trkpt lat="43.944318" lon="12.4625973"><ele>327.8571428571429</ele><time>2026-04-30T14:26:07.164Z</time></trkpt><trkpt lat="43.9442892" lon="12.4625096"><ele>328.28571428571433</ele><time>2026-04-30T14:26:10.208Z</time></trkpt><trkpt lat="43.9442599" lon="12.4624199"><ele>328.7142857142857</ele><time>2026-04-30T14:26:13.188Z</time></trkpt><trkpt lat="43.9442268" lon="12.4623198"><ele>329.14285714285717</ele><time>2026-04-30T14:26:17.218Z</time></trkpt><trkpt lat="43.9442057" lon="12.4622373"><ele>329.5714285714286</ele><time>2026-04-30T14:26:20.216Z</time></trkpt><trkpt lat="43.9441988" lon="12.4621477"><ele>330.0</ele><time>2026-04-30T14:26:24.214Z</time></trkpt><trkpt lat="43.9441825" lon="12.4620423"><ele>332.28571428571433</ele><time>2026-04-30T14:26:29.219Z</time></trkpt><trkpt lat="43.9441629" lon="12.4619497"><ele>334.57142857142856</ele><time>2026-04-30T14:26:34.236Z</time></trkpt><trkpt lat="43.9441532" lon="12.4618614"><ele>336.8571428571429</ele><time>2026-04-30T14:26:38.204Z</time></trkpt><trkpt lat="43.9441369" lon="12.4617695"><ele>339.14285714285717</ele><time>2026-04-30T14:26:42.215Z</time></trkpt><trkpt lat="43.9441122" lon="12.4616622"><ele>341.42857142857144</ele><time>2026-04-30T14:26:47.214Z</time></trkpt><trkpt lat="43.9440981" lon="12.4615614"><ele>343.7142857142857</ele><time>2026-04-30T14:26:51.206Z</time></trkpt><trkpt lat="43.944077" lon="12.4614604"><ele>346.0</ele><time>2026-04-30T14:26:54.22Z</time></trkpt><trkpt lat="43.9440585" lon="12.4613576"><ele>346.1428571428571</ele><time>2026-04-30T14:26:57.213Z</time></trkpt><trkpt lat="43.9440401" lon="12.4612554"><ele>346.28571428571433</ele><time>2026-04-30T14:27:00.174Z</time></trkpt><trkpt lat="43.944019" lon="12.4611568"><ele>346.42857142857144</ele><time>2026-04-30T14:27:03.169Z</time></trkpt><trkpt lat="43.943993" lon="12.4610743"><ele>346.57142857142856</ele><time>2026-04-30T14:27:06.243Z</time></trkpt><trkpt lat="43.9439481" lon="12.4609767"><ele>346.71428571428567</ele><time>2026-04-30T14:27:10.215Z</time></trkpt><trkpt lat="43.9439165" lon="12.4608917"><ele>346.8571428571429</ele><time>2026-04-30T14:27:13.224Z</time></trkpt><trkpt lat="43.9438826" lon="12.4607917"><ele>347.0</ele><time>2026-04-30T14:27:17.217Z</time></trkpt><trkpt lat="43.9438569" lon="12.4606961"><ele>347.0</ele><time>2026-04-30T14:27:21.203Z</time></trkpt><trkpt lat="43.9438254" lon="12.4605958"><ele>347.0</ele><time>2026-04-30T14:27:26.221Z</time></trkpt><trkpt lat="43.9437934" lon="12.4605119"><ele>347.0</ele><time>2026-04-30T14:27:30.214Z</time></trkpt><trkpt lat="43.9437557" lon="12.4604216"><ele>347.0</ele><time>2026-04-30T14:27:34.21Z</time></trkpt><trkpt lat="43.9437237" lon="12.4603383"><ele>347.0</ele><time>2026-04-30T14:27:37.237Z</time></trkpt><trkpt lat="43.9437025" lon="12.4602489"><ele>347.0</ele><time>2026-04-30T14:27:42.214Z</time></trkpt><trkpt lat="43.9436712" lon="12.4601652"><ele>347.0</ele><time>2026-04-30T14:27:46.167Z</time></trkpt><trkpt lat="43.9436053" lon="12.4601051"><ele>347.7142857142857</ele><time>2026-04-30T14:27:50.178Z</time></trkpt><trkpt lat="43.9435559" lon="12.4600191"><ele>348.4285714285714</ele><time>2026-04-30T14:27:54.146Z</time></trkpt><trkpt lat="43.9435166" lon="12.4599348"><ele>349.1428571428571</ele><time>2026-04-30T14:27:58.146Z</time></trkpt><trkpt lat="43.9434757" lon="12.4598378"><ele>349.8571428571429</ele><time>2026-04-30T14:28:02.18Z</time></trkpt><trkpt lat="43.9434435" lon="12.4597538"><ele>350.57142857142856</ele><time>2026-04-30T14:28:06.211Z</time></trkpt><trkpt lat="43.9434187" lon="12.459659"><ele>351.2857142857143</ele><time>2026-04-30T14:28:11.213Z</time></trkpt><trkpt lat="43.9433852" lon="12.4595759"><ele>352.0</ele><time>2026-04-30T14:28:20.202Z</time></trkpt><trkpt lat="43.9433537" lon="12.4594909"><ele>354.7142857142857</ele><time>2026-04-30T14:28:23.199Z</time></trkpt><trkpt lat="43.9433189" lon="12.4594137"><ele>357.42857142857144</ele><time>2026-04-30T14:28:26.195Z</time></trkpt><trkpt lat="43.9432768" lon="12.4593288"><ele>360.1428571428571</ele><time>2026-04-30T14:28:30.207Z</time></trkpt><trkpt lat="43.9432078" lon="12.4592766"><ele>362.8571428571429</ele><time>2026-04-30T14:28:34.199Z</time></trkpt><trkpt lat="43.9431483" lon="12.4592246"><ele>365.57142857142856</ele><time>2026-04-30T14:28:38.211Z</time></trkpt><trkpt lat="43.9430916" lon="12.4591853"><ele>368.2857142857143</ele><time>2026-04-30T14:28:41.184Z</time></trkpt><trkpt lat="43.9430388" lon="12.4591374"><ele>371.0</ele><time>2026-04-30T14:28:45.211Z</time></trkpt><trkpt lat="43.9429798" lon="12.4590716"><ele>371.0</ele><time>2026-04-30T14:28:50.208Z</time></trkpt><trkpt lat="43.9429284" lon="12.45901"><ele>371.0</ele><time>2026-04-30T14:28:54.195Z</time></trkpt><trkpt lat="43.942882" lon="12.4589435"><ele>371.0</ele><time>2026-04-30T14:29:00.172Z</time></trkpt><trkpt lat="43.9428389" lon="12.4588697"><ele>371.0</ele><time>2026-04-30T14:29:04.216Z</time></trkpt><trkpt lat="43.9428026" lon="12.4587834"><ele>371.0</ele><time>2026-04-30T14:29:08.221Z</time></trkpt><trkpt lat="43.942761" lon="12.4587113"><ele>371.0</ele><time>2026-04-30T14:29:12.204Z</time></trkpt><trkpt lat="43.9427052" lon="12.4586418"><ele>371.0</ele><time>2026-04-30T14:29:16.152Z</time></trkpt><trkpt lat="43.9426269" lon="12.4586525"><ele>372.20000000000005</ele><time>2026-04-30T14:29:19.193Z</time></trkpt><trkpt lat="43.9425479" lon="12.4586866"><ele>373.40000000000003</ele><time>2026-04-30T14:29:21.217Z</time></trkpt><trkpt lat="43.942452" lon="12.4587289"><ele>374.6</ele><time>2026-04-30T14:29:23.204Z</time></trkpt><trkpt lat="43.942361" lon="12.4587883"><ele>375.8</ele><time>2026-04-30T14:29:25.186Z</time></trkpt><trkpt lat="43.942278" lon="12.4588806"><ele>377.0</ele><time>2026-04-30T14:29:27.195Z</time></trkpt><trkpt lat="43.9421827" lon="12.4589679"><ele>377.20000000000005</ele><time>2026-04-30T14:29:29.209Z</time></trkpt><trkpt lat="43.9420852" lon="12.4590653"><ele>377.4</ele><time>2026-04-30T14:29:31.229Z</time></trkpt><trkpt lat="43.9419967" lon="12.4591604"><ele>377.6</ele><time>2026-04-30T14:29:33.195Z</time></trkpt><trkpt lat="43.9419027" lon="12.4592666"><ele>377.79999999999995</ele><time>2026-04-30T14:29:35.223Z</time></trkpt><trkpt lat="43.9418492" lon="12.4593175"><ele>378.0</ele><time>2026-04-30T14:29:36.237Z</time></trkpt><trkpt lat="43.9417283" lon="12.4593454"><ele>378.5</ele><time>2026-04-30T14:29:38.194Z</time></trkpt><trkpt lat="43.9416253" lon="12.4593598"><ele>379.0</ele><time>2026-04-30T14:29:40.21Z</time></trkpt><trkpt lat="43.9415376" lon="12.4593737"><ele>379.5</ele><time>2026-04-30T14:29:42.198Z</time></trkpt><trkpt lat="43.9414696" lon="12.4594009"><ele>380.0</ele><time>2026-04-30T14:29:44.221Z</time></trkpt><trkpt lat="43.9413958" lon="12.4594222"><ele>380.5</ele><time>2026-04-30T14:29:46.17Z</time></trkpt><trkpt lat="43.9413252" lon="12.4594393"><ele>381.0</ele><time>2026-04-30T14:29:48.204Z</time></trkpt><trkpt lat="43.9412694" lon="12.4593985"><ele>381.0</ele><time>2026-04-30T14:29:51.219Z</time></trkpt><trkpt lat="43.941251" lon="12.4593101"><ele>381.0</ele><time>2026-04-30T14:29:54.208Z</time></trkpt><trkpt lat="43.9412172" lon="12.4592288"><ele>381.0</ele><time>2026-04-30T14:29:57.204Z</time></trkpt><trkpt lat="43.9411792" lon="12.4591391"><ele>381.0</ele><time>2026-04-30T14:30:00.216Z</time></trkpt><trkpt lat="43.941127" lon="12.4590594"><ele>381.0</ele><time>2026-04-30T14:30:03.217Z</time></trkpt><trkpt lat="43.9410655" lon="12.459004"><ele>381.0</ele><time>2026-04-30T14:30:06.234Z</time></trkpt><trkpt lat="43.9409983" lon="12.4589416"><ele>381.0</ele><time>2026-04-30T14:30:10.21Z</time></trkpt><trkpt lat="43.9409393" lon="12.4588765"><ele>381.8333333333333</ele><time>2026-04-30T14:30:14.221Z</time></trkpt><trkpt lat="43.940875" lon="12.4587994"><ele>382.66666666666663</ele><time>2026-04-30T14:30:18.191Z</time></trkpt><trkpt lat="43.9408276" lon="12.4587163"><ele>383.5</ele><time>2026-04-30T14:30:22.189Z</time></trkpt><trkpt lat="43.9408077" lon="12.4586263"><ele>384.3333333333333</ele><time>2026-04-30T14:30:26.213Z</time></trkpt><trkpt lat="43.9408508" lon="12.458525"><ele>385.16666666666663</ele><time>2026-04-30T14:30:30.202Z</time></trkpt><trkpt lat="43.9408991" lon="12.4584354"><ele>386.0</ele><time>2026-04-30T14:30:33.216Z</time></trkpt><trkpt lat="43.940899" lon="12.4583104"><ele>387.16666666666663</ele><time>2026-04-30T14:30:36.217Z</time></trkpt><trkpt lat="43.940827" lon="12.4583096"><ele>388.3333333333333</ele><time>2026-04-30T14:30:39.217Z</time></trkpt><trkpt lat="43.9407404" lon="12.4583539"><ele>389.5</ele><time>2026-04-30T14:30:42.228Z</time></trkpt><trkpt lat="43.9406763" lon="12.4583928"><ele>390.66666666666663</ele><time>2026-04-30T14:30:44.222Z</time></trkpt><trkpt lat="43.9406049" lon="12.4584549"><ele>391.8333333333333</ele><time>2026-04-30T14:30:47.183Z</time></trkpt><trkpt lat="43.9405357" lon="12.4585077"><ele>393.0</ele><time>2026-04-30T14:30:50.206Z</time></trkpt><trkpt lat="43.9404694" lon="12.4585644"><ele>393.0</ele><time>2026-04-30T14:30:53.192Z</time></trkpt><trkpt lat="43.9404007" lon="12.4586183"><ele>393.0</ele><time>2026-04-30T14:30:56.204Z</time></trkpt><trkpt lat="43.9403256" lon="12.4586491"><ele>393.0</ele><time>2026-04-30T14:31:00.192Z</time></trkpt><trkpt lat="43.940262" lon="12.4586535"><ele>393.0</ele><time>2026-04-30T14:31:04.195Z</time></trkpt><trkpt lat="43.9401886" lon="12.4586451"><ele>393.0</ele><time>2026-04-30T14:31:21.234Z</time></trkpt><trkpt lat="43.9400998" lon="12.4586446"><ele>393.0</ele><time>2026-04-30T14:31:24.214Z</time></trkpt><trkpt lat="43.9400193" lon="12.4586901"><ele>393.8333333333333</ele><time>2026-04-30T14:31:27.241Z</time></trkpt><trkpt lat="43.9399643" lon="12.4587383"><ele>394.66666666666663</ele><time>2026-04-30T14:31:29.209Z</time></trkpt><trkpt lat="43.9398965" lon="12.4588196"><ele>395.5</ele><time>2026-04-30T14:31:32.184Z</time></trkpt><trkpt lat="43.9398365" lon="12.4588995"><ele>396.3333333333333</ele><time>2026-04-30T14:31:35.205Z</time></trkpt><trkpt lat="43.9397841" lon="12.4589673"><ele>397.16666666666663</ele><time>2026-04-30T14:31:38.197Z</time></trkpt><trkpt lat="43.9397203" lon="12.4590332"><ele>398.0</ele><time>2026-04-30T14:31:42.226Z</time></trkpt><trkpt lat="43.9396739" lon="12.4591052"><ele>397.99999999999994</ele><time>2026-04-30T14:31:45.223Z</time></trkpt><trkpt lat="43.9396271" lon="12.4591655"><ele>398.0</ele><time>2026-04-30T14:31:48.189Z</time></trkpt><trkpt lat="43.9395725" lon="12.4592094"><ele>398.0</ele><time>2026-04-30T14:31:51.217Z</time></trkpt><trkpt lat="43.9395201" lon="12.4592664"><ele>398.0</ele><time>2026-04-30T14:31:55.232Z</time></trkpt><trkpt lat="43.9394349" lon="12.4593008"><ele>398.0</ele><time>2026-04-30T14:31:59.216Z</time></trkpt><trkpt lat="43.9393653" lon="12.4593024"><ele>397.99999999999994</ele><time>2026-04-30T14:32:02.238Z</time></trkpt><trkpt lat="43.939302" lon="12.4592764"><ele>398.0</ele><time>2026-04-30T14:32:05.231Z</time></trkpt><trkpt lat="43.939238" lon="12.459224"><ele>399.66666666666663</ele><time>2026-04-30T14:32:08.205Z</time></trkpt><trkpt lat="43.9391833" lon="12.4591651"><ele>401.3333333333333</ele><time>2026-04-30T14:32:11.21Z</time></trkpt><trkpt lat="43.9391219" lon="12.4591153"><ele>403.0</ele><time>2026-04-30T14:32:14.212Z</time></trkpt><trkpt lat="43.9390697" lon="12.4590542"><ele>404.66666666666663</ele><time>2026-04-30T14:32:17.213Z</time></trkpt><trkpt lat="43.9390075" lon="12.4589829"><ele>406.3333333333333</ele><time>2026-04-30T14:32:20.219Z</time></trkpt><trkpt lat="43.9389464" lon="12.4589159"><ele>408.0</ele><time>2026-04-30T14:32:23.174Z</time></trkpt><trkpt lat="43.9388945" lon="12.4588221"><ele>408.6666666666667</ele><time>2026-04-30T14:32:26.227Z</time></trkpt><trkpt lat="43.9388418" lon="12.4587401"><ele>409.33333333333337</ele><time>2026-04-30T14:32:29.232Z</time></trkpt><trkpt lat="43.9387963" lon="12.4586782"><ele>410.0</ele><time>2026-04-30T14:32:31.228Z</time></trkpt><trkpt lat="43.9387354" lon="12.45861"><ele>410.6666666666667</ele><time>2026-04-30T14:32:34.223Z</time></trkpt><trkpt lat="43.9386667" lon="12.4585455"><ele>411.33333333333337</ele><time>2026-04-30T14:32:37.214Z</time></trkpt><trkpt lat="43.9386011" lon="12.4584728"><ele>412.0</ele><time>2026-04-30T14:32:40.19Z</time></trkpt><trkpt lat="43.9385633" lon="12.4583779"><ele>411.99999999999994</ele><time>2026-04-30T14:32:43.235Z</time></trkpt><trkpt lat="43.9385677" lon="12.4582744"><ele>412.0</ele><time>2026-04-30T14:32:46.214Z</time></trkpt><trkpt lat="43.9386216" lon="12.4581999"><ele>412.0</ele><time>2026-04-30T14:32:49.213Z</time></trkpt><trkpt lat="43.9386645" lon="12.4581119"><ele>412.0</ele><time>2026-04-30T14:32:52.215Z</time></trkpt><trkpt lat="43.9386823" lon="12.4580239"><ele>412.0</ele><time>2026-04-30T14:32:55.193Z</time></trkpt><trkpt lat="43.9386649" lon="12.4579313"><ele>411.99999999999994</ele><time>2026-04-30T14:32:58.2Z</time></trkpt><trkpt lat="43.9386323" lon="12.4578285"><ele>412.0</ele><time>2026-04-30T14:33:02.208Z</time></trkpt><trkpt lat="43.9385828" lon="12.4577293"><ele>412.99999999999994</ele><time>2026-04-30T14:33:06.22Z</time></trkpt><trkpt lat="43.9385569" lon="12.4576419"><ele>414.0</ele><time>2026-04-30T14:33:09.202Z</time></trkpt><trkpt lat="43.9385442" lon="12.4575337"><ele>415.0</ele><time>2026-04-30T14:33:13.212Z</time></trkpt><trkpt lat="43.9385518" lon="12.4574232"><ele>416.0</ele><time>2026-04-30T14:33:17.176Z</time></trkpt><trkpt lat="43.9385645" lon="12.4573316"><ele>417.0</ele><time>2026-04-30T14:33:21.217Z</time></trkpt><trkpt lat="43.9385746" lon="12.4572404"><ele>417.99999999999994</ele><time>2026-04-30T14:33:25.211Z</time></trkpt><trkpt lat="43.9385635" lon="12.4571507"><ele>419.0</ele><time>2026-04-30T14:33:29.224Z</time></trkpt><trkpt lat="43.9385442" lon="12.4570552"><ele>419.99999999999994</ele><time>2026-04-30T14:33:34.176Z</time></trkpt><trkpt lat="43.9384845" lon="12.456986"><ele>421.0</ele><time>2026-04-30T14:33:38.223Z</time></trkpt><trkpt lat="43.9384374" lon="12.4569218"><ele>422.0</ele><time>2026-04-30T14:33:43.199Z</time></trkpt><trkpt lat="43.9383873" lon="12.4568603"><ele>423.0</ele><time>2026-04-30T14:33:48.221Z</time></trkpt><trkpt lat="43.938337" lon="12.456791"><ele>424.0</ele><time>2026-04-30T14:33:53.219Z</time></trkpt><trkpt lat="43.9382839" lon="12.4567407"><ele>424.99999999999994</ele><time>2026-04-30T14:33:57.218Z</time></trkpt><trkpt lat="43.9382173" lon="12.456706"><ele>426.0</ele><time>2026-04-30T14:34:01.183Z</time></trkpt><trkpt lat="43.9381667" lon="12.4566408"><ele>427.4285714285714</ele><time>2026-04-30T14:34:06.222Z</time></trkpt><trkpt lat="43.9381255" lon="12.4565717"><ele>428.85714285714283</ele><time>2026-04-30T14:34:11.205Z</time></trkpt><trkpt lat="43.9380891" lon="12.4564869"><ele>430.2857142857143</ele><time>2026-04-30T14:34:18.21Z</time></trkpt><trkpt lat="43.9380725" lon="12.4563929"><ele>431.71428571428567</ele><time>2026-04-30T14:34:23.21Z</time></trkpt><trkpt lat="43.9380929" lon="12.4563082"><ele>433.14285714285717</ele><time>2026-04-30T14:34:28.179Z</time></trkpt><trkpt lat="43.9381156" lon="12.4562218"><ele>434.57142857142856</ele><time>2026-04-30T14:34:32.202Z</time></trkpt><trkpt lat="43.938138" lon="12.4561366"><ele>436.0</ele><time>2026-04-30T14:34:36.215Z</time></trkpt><trkpt lat="43.9381621" lon="12.4560538"><ele>435.33333333333337</ele><time>2026-04-30T14:34:40.21Z</time></trkpt><trkpt lat="43.9381966" lon="12.455972"><ele>434.6666666666667</ele><time>2026-04-30T14:34:44.203Z</time></trkpt><trkpt lat="43.9382437" lon="12.4559001"><ele>434.0</ele><time>2026-04-30T14:34:47.232Z</time></trkpt><trkpt lat="43.9383031" lon="12.455823"><ele>433.33333333333337</ele><time>2026-04-30T14:34:50.215Z</time></trkpt><trkpt lat="43.9383619" lon="12.4557326"><ele>432.6666666666667</ele><time>2026-04-30T14:34:53.215Z</time></trkpt><trkpt lat="43.938412" lon="12.455658"><ele>432.0</ele><time>2026-04-30T14:34:55.212Z</time></trkpt><trkpt lat="43.9384558" lon="12.455568"><ele>432.0</ele><time>2026-04-30T14:34:57.196Z</time></trkpt><trkpt lat="43.938482" lon="12.4554676"><ele>432.0</ele><time>2026-04-30T14:34:59.216Z</time></trkpt><trkpt lat="43.9384585" lon="12.4553748"><ele>432.0</ele><time>2026-04-30T14:35:01.207Z</time></trkpt><trkpt lat="43.9383998" lon="12.4553113"><ele>432.0</ele><time>2026-04-30T14:35:05.206Z</time></trkpt><trkpt lat="43.9383384" lon="12.4552769"><ele>432.0</ele><time>2026-04-30T14:35:09.2Z</time></trkpt><trkpt lat="43.9382627" lon="12.4552542"><ele>432.0</ele><time>2026-04-30T14:35:14.211Z</time></trkpt><trkpt lat="43.9382018" lon="12.4552287"><ele>432.0</ele><time>2026-04-30T14:35:19.187Z</time></trkpt><trkpt lat="43.9381364" lon="12.455205"><ele>434.85714285714283</ele><time>2026-04-30T14:35:24.194Z</time></trkpt><trkpt lat="43.9380595" lon="12.4551813"><ele>437.71428571428567</ele><time>2026-04-30T14:35:29.201Z</time></trkpt><trkpt lat="43.9380012" lon="12.4551474"><ele>440.57142857142856</ele><time>2026-04-30T14:35:34.213Z</time></trkpt><trkpt lat="43.937937" lon="12.4551059"><ele>443.42857142857144</ele><time>2026-04-30T14:35:39.186Z</time></trkpt><trkpt lat="43.9378789" lon="12.4550635"><ele>446.2857142857143</ele><time>2026-04-30T14:35:43.214Z</time></trkpt><trkpt lat="43.9378405" lon="12.4549904"><ele>449.14285714285717</ele><time>2026-04-30T14:35:47.144Z</time></trkpt><trkpt lat="43.937805" lon="12.4549164"><ele>452.0</ele><time>2026-04-30T14:35:51.222Z</time></trkpt><trkpt lat="43.9377629" lon="12.4548304"><ele>451.99999999999994</ele><time>2026-04-30T14:35:55.203Z</time></trkpt><trkpt lat="43.9377299" lon="12.4547531"><ele>452.0</ele><time>2026-04-30T14:35:59.207Z</time></trkpt><trkpt lat="43.9376957" lon="12.4546599"><ele>452.0</ele><time>2026-04-30T14:36:03.21Z</time></trkpt><trkpt lat="43.9376666" lon="12.4545693"><ele>452.0</ele><time>2026-04-30T14:36:07.208Z</time></trkpt><trkpt lat="43.9376664" lon="12.4544437"><ele>451.99999999999994</ele><time>2026-04-30T14:36:11.209Z</time></trkpt><trkpt lat="43.9376482" lon="12.4543319"><ele>452.0</ele><time>2026-04-30T14:36:14.216Z</time></trkpt><trkpt lat="43.9375995" lon="12.4542613"><ele>453.99999999999994</ele><time>2026-04-30T14:36:17.214Z</time></trkpt><trkpt lat="43.9375734" lon="12.4541704"><ele>456.0</ele><time>2026-04-30T14:36:20.197Z</time></trkpt><trkpt lat="43.9375595" lon="12.4540652"><ele>458.0</ele><time>2026-04-30T14:36:24.236Z</time></trkpt><trkpt lat="43.9375763" lon="12.4539532"><ele>460.0</ele><time>2026-04-30T14:36:28.224Z</time></trkpt><trkpt lat="43.9376039" lon="12.45384"><ele>461.99999999999994</ele><time>2026-04-30T14:36:32.231Z</time></trkpt><trkpt lat="43.9376381" lon="12.4537576"><ele>464.0</ele><time>2026-04-30T14:36:35.215Z</time></trkpt><trkpt lat="43.93768" lon="12.4536766"><ele>464.66666666666663</ele><time>2026-04-30T14:36:38.214Z</time></trkpt><trkpt lat="43.9377176" lon="12.4535945"><ele>465.3333333333333</ele><time>2026-04-30T14:36:41.205Z</time></trkpt><trkpt lat="43.937755" lon="12.453508"><ele>466.0</ele><time>2026-04-30T14:36:44.203Z</time></trkpt><trkpt lat="43.9377857" lon="12.4534001"><ele>466.66666666666663</ele><time>2026-04-30T14:36:47.178Z</time></trkpt><trkpt lat="43.9378102" lon="12.4533076"><ele>467.3333333333333</ele><time>2026-04-30T14:36:50.215Z</time></trkpt><trkpt lat="43.9378404" lon="12.453208"><ele>468.0</ele><time>2026-04-30T14:36:53.212Z</time></trkpt><trkpt lat="43.9378628" lon="12.453093"><ele>468.0</ele><time>2026-04-30T14:36:56.192Z</time></trkpt><trkpt lat="43.9378856" lon="12.4529847"><ele>468.0</ele><time>2026-04-30T14:36:59.206Z</time></trkpt><trkpt lat="43.9379041" lon="12.4528723"><ele>468.0</ele><time>2026-04-30T14:37:02.171Z</time></trkpt><trkpt lat="43.9379171" lon="12.4527561"><ele>468.0</ele><time>2026-04-30T14:37:05.203Z</time></trkpt><trkpt lat="43.9379265" lon="12.4526393"><ele>468.0</ele><time>2026-04-30T14:37:08.179Z</time></trkpt><trkpt lat="43.9379387" lon="12.4525262"><ele>468.0</ele><time>2026-04-30T14:37:11.205Z</time></trkpt><trkpt lat="43.9379534" lon="12.4524073"><ele>468.6666666666667</ele><time>2026-04-30T14:37:14.218Z</time></trkpt><trkpt lat="43.9379681" lon="12.4522795"><ele>469.33333333333337</ele><time>2026-04-30T14:37:17.211Z</time></trkpt><trkpt lat="43.9379802" lon="12.4521882"><ele>470.0</ele><time>2026-04-30T14:37:19.199Z</time></trkpt><trkpt lat="43.9379917" lon="12.4520955"><ele>470.6666666666667</ele><time>2026-04-30T14:37:21.216Z</time></trkpt><trkpt lat="43.9380077" lon="12.4519813"><ele>471.33333333333337</ele><time>2026-04-30T14:37:23.213Z</time></trkpt><trkpt lat="43.9380206" lon="12.4518497"><ele>472.0</ele><time>2026-04-30T14:37:25.213Z</time></trkpt><trkpt lat="43.9380343" lon="12.4517253"><ele>472.40000000000003</ele><time>2026-04-30T14:37:27.181Z</time></trkpt><trkpt lat="43.9380461" lon="12.4515953"><ele>472.80000000000007</ele><time>2026-04-30T14:37:29.234Z</time></trkpt><trkpt lat="43.9380846" lon="12.4514576"><ele>473.2</ele><time>2026-04-30T14:37:31.218Z</time></trkpt><trkpt lat="43.9380994" lon="12.4513122"><ele>473.6</ele><time>2026-04-30T14:37:33.208Z</time></trkpt><trkpt lat="43.9381324" lon="12.4511735"><ele>474.0</ele><time>2026-04-30T14:37:35.195Z</time></trkpt><trkpt lat="43.9381658" lon="12.4510409"><ele>474.0</ele><time>2026-04-30T14:37:37.207Z</time></trkpt><trkpt lat="43.9382082" lon="12.4509197"><ele>474.0</ele><time>2026-04-30T14:37:39.197Z</time></trkpt><trkpt lat="43.9382576" lon="12.4508251"><ele>474.0</ele><time>2026-04-30T14:37:41.208Z</time></trkpt><trkpt lat="43.9383135" lon="12.4507274"><ele>474.0</ele><time>2026-04-30T14:37:43.209Z</time></trkpt><trkpt lat="43.9383693" lon="12.4506648"><ele>474.0</ele><time>2026-04-30T14:37:45.208Z</time></trkpt><trkpt lat="43.938428" lon="12.4506163"><ele>474.0</ele><time>2026-04-30T14:37:47.205Z</time></trkpt><trkpt lat="43.9384838" lon="12.4505687"><ele>473.99999999999994</ele><time>2026-04-30T14:37:49.211Z</time></trkpt><trkpt lat="43.9385551" lon="12.4505103"><ele>474.0</ele><time>2026-04-30T14:37:52.166Z</time></trkpt><trkpt lat="43.9386157" lon="12.4504848"><ele>473.99999999999994</ele><time>2026-04-30T14:37:55.207Z</time></trkpt><trkpt lat="43.9386763" lon="12.4504594"><ele>473.99999999999994</ele><time>2026-04-30T14:37:59.225Z</time></trkpt><trkpt lat="43.9386285" lon="12.4503848"><ele>474.0</ele><time>2026-04-30T14:38:16.222Z</time></trkpt><trkpt lat="43.93856" lon="12.450371"><ele>473.99999999999994</ele><time>2026-04-30T14:38:18.166Z</time></trkpt><trkpt lat="43.9384876" lon="12.4503653"><ele>473.99999999999994</ele><time>2026-04-30T14:38:20.171Z</time></trkpt><trkpt lat="43.9384114" lon="12.4503842"><ele>475.0</ele><time>2026-04-30T14:38:22.197Z</time></trkpt><trkpt lat="43.9383458" lon="12.4504048"><ele>476.0</ele><time>2026-04-30T14:38:24.2Z</time></trkpt><trkpt lat="43.938261" lon="12.4504344"><ele>477.0</ele><time>2026-04-30T14:38:26.191Z</time></trkpt><trkpt lat="43.938187" lon="12.4504459"><ele>478.0</ele><time>2026-04-30T14:38:28.204Z</time></trkpt><trkpt lat="43.9381111" lon="12.4504569"><ele>479.0</ele><time>2026-04-30T14:38:30.217Z</time></trkpt><trkpt lat="43.9380355" lon="12.4504732"><ele>480.0</ele><time>2026-04-30T14:38:32.202Z</time></trkpt><trkpt lat="43.9379594" lon="12.4504816"><ele>480.0</ele><time>2026-04-30T14:38:34.205Z</time></trkpt><trkpt lat="43.9378857" lon="12.4504755"><ele>480.0</ele><time>2026-04-30T14:38:36.206Z</time></trkpt><trkpt lat="43.9378168" lon="12.4504952"><ele>480.0</ele><time>2026-04-30T14:38:38.154Z</time></trkpt><trkpt lat="43.9377485" lon="12.4505454"><ele>480.0</ele><time>2026-04-30T14:38:40.182Z</time></trkpt><trkpt lat="43.9376966" lon="12.4505952"><ele>480.0</ele><time>2026-04-30T14:38:42.199Z</time></trkpt><trkpt lat="43.9376412" lon="12.4506628"><ele>480.0</ele><time>2026-04-30T14:38:45.194Z</time></trkpt><trkpt lat="43.9375804" lon="12.4507165"><ele>480.0</ele><time>2026-04-30T14:38:49.204Z</time></trkpt><trkpt lat="43.9375078" lon="12.4506676"><ele>481.8333333333333</ele><time>2026-04-30T14:38:54.204Z</time></trkpt><trkpt lat="43.9374598" lon="12.4505979"><ele>483.66666666666663</ele><time>2026-04-30T14:38:57.196Z</time></trkpt><trkpt lat="43.9374488" lon="12.45049"><ele>485.5</ele><time>2026-04-30T14:39:01.191Z</time></trkpt><trkpt lat="43.9374562" lon="12.450397"><ele>487.3333333333333</ele><time>2026-04-30T14:39:04.201Z</time></trkpt><trkpt lat="43.9374871" lon="12.4502933"><ele>489.16666666666663</ele><time>2026-04-30T14:39:07.152Z</time></trkpt><trkpt lat="43.9375415" lon="12.4501745"><ele>491.0</ele><time>2026-04-30T14:39:10.174Z</time></trkpt><trkpt lat="43.937583" lon="12.4500998"><ele>491.0</ele><time>2026-04-30T14:39:12.2Z</time></trkpt><trkpt lat="43.9376359" lon="12.4500362"><ele>490.99999999999994</ele><time>2026-04-30T14:39:14.198Z</time></trkpt><trkpt lat="43.9376863" lon="12.4499623"><ele>491.0</ele><time>2026-04-30T14:39:16.192Z</time></trkpt><trkpt lat="43.9376589" lon="12.4498532"><ele>491.0</ele><time>2026-04-30T14:39:19.194Z</time></trkpt><trkpt lat="43.9375889" lon="12.4498529"><ele>490.99999999999994</ele><time>2026-04-30T14:39:23.211Z</time></trkpt><trkpt lat="43.9375172" lon="12.4498524"><ele>491.0</ele><time>2026-04-30T14:39:27.167Z</time></trkpt><trkpt lat="43.9374643" lon="12.4498021"><ele>491.0</ele><time>2026-04-30T14:39:31.203Z</time></trkpt><trkpt lat="43.937505" lon="12.4497311"><ele>492.4285714285714</ele><time>2026-04-30T14:39:36.21Z</time></trkpt><trkpt lat="43.9375504" lon="12.4496593"><ele>493.8571428571428</ele><time>2026-04-30T14:39:40.176Z</time></trkpt><trkpt lat="43.9376067" lon="12.4495958"><ele>495.2857142857143</ele><time>2026-04-30T14:39:44.193Z</time></trkpt><trkpt lat="43.9376794" lon="12.4495469"><ele>496.71428571428567</ele><time>2026-04-30T14:39:49.2Z</time></trkpt><trkpt lat="43.9377396" lon="12.4495069"><ele>498.1428571428571</ele><time>2026-04-30T14:39:52.174Z</time></trkpt><trkpt lat="43.9377906" lon="12.4494545"><ele>499.57142857142856</ele><time>2026-04-30T14:39:55.182Z</time></trkpt><trkpt lat="43.9378551" lon="12.4494063"><ele>501.0</ele><time>2026-04-30T14:39:58.195Z</time></trkpt><trkpt lat="43.9379211" lon="12.4493429"><ele>502.14285714285717</ele><time>2026-04-30T14:40:01.204Z</time></trkpt><trkpt lat="43.9379878" lon="12.4492918"><ele>503.2857142857142</ele><time>2026-04-30T14:40:04.206Z</time></trkpt><trkpt lat="43.9380551" lon="12.4492441"><ele>504.4285714285714</ele><time>2026-04-30T14:40:08.204Z</time></trkpt><trkpt lat="43.9381303" lon="12.4492299"><ele>505.57142857142856</ele><time>2026-04-30T14:40:12.199Z</time></trkpt><trkpt lat="43.9381795" lon="12.449158"><ele>506.71428571428567</ele><time>2026-04-30T14:40:17.188Z</time></trkpt><trkpt lat="43.9382388" lon="12.4491183"><ele>507.8571428571428</ele><time>2026-04-30T14:40:26.213Z</time></trkpt><trkpt lat="43.9382896" lon="12.4490652"><ele>508.99999999999994</ele><time>2026-04-30T14:40:31.209Z</time></trkpt><trkpt lat="43.9383174" lon="12.4489709"><ele>508.99999999999994</ele><time>2026-04-30T14:40:38.197Z</time></trkpt><trkpt lat="43.9383356" lon="12.4488707"><ele>509.0</ele><time>2026-04-30T14:40:44.201Z</time></trkpt><trkpt lat="43.9384118" lon="12.4488852"><ele>508.99999999999994</ele><time>2026-04-30T14:40:49.168Z</time></trkpt><trkpt lat="43.9384825" lon="12.4488807"><ele>508.99999999999994</ele><time>2026-04-30T14:40:52.192Z</time></trkpt><trkpt lat="43.9385529" lon="12.4488502"><ele>509.0</ele><time>2026-04-30T14:40:56.206Z</time></trkpt><trkpt lat="43.9386162" lon="12.4488294"><ele>508.99999999999994</ele><time>2026-04-30T14:41:00.203Z</time></trkpt><trkpt lat="43.9386831" lon="12.4487842"><ele>508.99999999999994</ele><time>2026-04-30T14:41:05.18Z</time></trkpt><trkpt lat="43.9387485" lon="12.4487774"><ele>509.16666666666663</ele><time>2026-04-30T14:41:10.208Z</time></trkpt><trkpt lat="43.9388218" lon="12.4487537"><ele>509.3333333333333</ele><time>2026-04-30T14:41:27.188Z</time></trkpt><trkpt lat="43.938905" lon="12.4487218"><ele>509.5</ele><time>2026-04-30T14:41:30.211Z</time></trkpt><trkpt lat="43.9389744" lon="12.448698"><ele>509.66666666666663</ele><time>2026-04-30T14:41:32.216Z</time></trkpt><trkpt lat="43.9390738" lon="12.4486859"><ele>509.8333333333333</ele><time>2026-04-30T14:41:34.211Z</time></trkpt><trkpt lat="43.9391837" lon="12.4486888"><ele>510.0</ele><time>2026-04-30T14:41:36.221Z</time></trkpt><trkpt lat="43.9392776" lon="12.448561"><ele>510.0</ele><time>2026-04-30T14:41:38.202Z</time></trkpt><trkpt lat="43.9392924" lon="12.4484573"><ele>510.0</ele><time>2026-04-30T14:41:39.202Z</time></trkpt><trkpt lat="43.9392787" lon="12.4483058"><ele>510.0</ele><time>2026-04-30T14:41:41.206Z</time></trkpt><trkpt lat="43.9392618" lon="12.448193"><ele>510.0</ele><time>2026-04-30T14:41:43.183Z</time></trkpt><trkpt lat="43.9392749" lon="12.4480674"><ele>510.0</ele><time>2026-04-30T14:41:45.211Z</time></trkpt><trkpt lat="43.9393267" lon="12.4479606"><ele>510.6666666666667</ele><time>2026-04-30T14:41:47.2Z</time></trkpt><trkpt lat="43.9393905" lon="12.4478779"><ele>511.33333333333337</ele><time>2026-04-30T14:41:49.217Z</time></trkpt><trkpt lat="43.9394593" lon="12.4477937"><ele>512.0</ele><time>2026-04-30T14:41:51.199Z</time></trkpt><trkpt lat="43.939528" lon="12.4477512"><ele>512.6666666666667</ele><time>2026-04-30T14:41:53.208Z</time></trkpt><trkpt lat="43.9395939" lon="12.4478144"><ele>513.3333333333334</ele><time>2026-04-30T14:41:55.203Z</time></trkpt><trkpt lat="43.9396511" lon="12.4479023"><ele>514.0</ele><time>2026-04-30T14:41:57.177Z</time></trkpt><trkpt lat="43.9397492" lon="12.4478364"><ele>514.0</ele><time>2026-04-30T14:42:01.215Z</time></trkpt><trkpt lat="43.9398285" lon="12.447733"><ele>514.0</ele><time>2026-04-30T14:42:03.193Z</time></trkpt><trkpt lat="43.9399176" lon="12.4476179"><ele>514.0</ele><time>2026-04-30T14:42:05.202Z</time></trkpt><trkpt lat="43.93997" lon="12.4474612"><ele>514.0</ele><time>2026-04-30T14:42:07.195Z</time></trkpt><trkpt lat="43.9399899" lon="12.4473768"><ele>514.0</ele><time>2026-04-30T14:42:08.169Z</time></trkpt><trkpt lat="43.9400135" lon="12.4472957"><ele>511.79999999999995</ele><time>2026-04-30T14:42:09.202Z</time></trkpt><trkpt lat="43.9400594" lon="12.4471213"><ele>509.59999999999997</ele><time>2026-04-30T14:42:11.201Z</time></trkpt><trkpt lat="43.9401012" lon="12.4470339"><ele>507.4</ele><time>2026-04-30T14:42:12.199Z</time></trkpt><trkpt lat="43.9401512" lon="12.4469381"><ele>505.2</ele><time>2026-04-30T14:42:13.222Z</time></trkpt><trkpt lat="43.9402022" lon="12.4468334"><ele>503.0</ele><time>2026-04-30T14:42:14.205Z</time></trkpt><trkpt lat="43.9402666" lon="12.4467387"><ele>503.0</ele><time>2026-04-30T14:42:15.176Z</time></trkpt><trkpt lat="43.9403445" lon="12.446653"><ele>502.99999999999994</ele><time>2026-04-30T14:42:16.178Z</time></trkpt><trkpt lat="43.9404291" lon="12.4465686"><ele>502.99999999999994</ele><time>2026-04-30T14:42:17.196Z</time></trkpt><trkpt lat="43.9404979" lon="12.446479"><ele>503.0</ele><time>2026-04-30T14:42:18.207Z</time></trkpt><trkpt lat="43.9405356" lon="12.4463725"><ele>503.0</ele><time>2026-04-30T14:42:19.2Z</time></trkpt><trkpt lat="43.9405636" lon="12.4462694"><ele>502.8333333333333</ele><time>2026-04-30T14:42:20.194Z</time></trkpt><trkpt lat="43.9405803" lon="12.4461582"><ele>502.66666666666663</ele><time>2026-04-30T14:42:21.175Z</time></trkpt><trkpt lat="43.9405838" lon="12.4460463"><ele>502.5</ele><time>2026-04-30T14:42:22.202Z</time></trkpt><trkpt lat="43.9405731" lon="12.44596"><ele>502.33333333333337</ele><time>2026-04-30T14:42:23.199Z</time></trkpt><trkpt lat="43.9406188" lon="12.4458363"><ele>502.1666666666667</ele><time>2026-04-30T14:42:25.198Z</time></trkpt><trkpt lat="43.9406365" lon="12.4456859"><ele>502.0</ele><time>2026-04-30T14:42:27.211Z</time></trkpt><trkpt lat="43.940663" lon="12.4455254"><ele>501.2857142857142</ele><time>2026-04-30T14:42:29.214Z</time></trkpt><trkpt lat="43.9406722" lon="12.4454312"><ele>500.57142857142856</ele><time>2026-04-30T14:42:30.213Z</time></trkpt><trkpt lat="43.9406766" lon="12.445334"><ele>499.85714285714283</ele><time>2026-04-30T14:42:31.221Z</time></trkpt><trkpt lat="43.9406679" lon="12.4452373"><ele>499.1428571428571</ele><time>2026-04-30T14:42:32.218Z</time></trkpt><trkpt lat="43.9406563" lon="12.4451424"><ele>498.42857142857144</ele><time>2026-04-30T14:42:33.217Z</time></trkpt><trkpt lat="43.9406306" lon="12.4450389"><ele>497.7142857142857</ele><time>2026-04-30T14:42:34.195Z</time></trkpt><trkpt lat="43.9406065" lon="12.4449481"><ele>497.0</ele><time>2026-04-30T14:42:35.162Z</time></trkpt><trkpt lat="43.9405484" lon="12.4447942"><ele>496.99999999999994</ele><time>2026-04-30T14:42:37.194Z</time></trkpt><trkpt lat="43.9404967" lon="12.444655"><ele>497.0</ele><time>2026-04-30T14:42:39.163Z</time></trkpt><trkpt lat="43.9404692" lon="12.4445528"><ele>497.0</ele><time>2026-04-30T14:42:41.193Z</time></trkpt><trkpt lat="43.9404563" lon="12.4443982"><ele>497.0</ele><time>2026-04-30T14:42:43.198Z</time></trkpt><trkpt lat="43.9404534" lon="12.4443081"><ele>496.99999999999994</ele><time>2026-04-30T14:42:44.172Z</time></trkpt><trkpt lat="43.9404344" lon="12.444223"><ele>497.0</ele><time>2026-04-30T14:42:45.199Z</time></trkpt><trkpt lat="43.9404093" lon="12.44414"><ele>495.0</ele><time>2026-04-30T14:42:46.207Z</time></trkpt><trkpt lat="43.9403857" lon="12.444057"><ele>493.0</ele><time>2026-04-30T14:42:47.198Z</time></trkpt><trkpt lat="43.9403548" lon="12.4439702"><ele>491.0</ele><time>2026-04-30T14:42:48.188Z</time></trkpt><trkpt lat="43.9398315" lon="12.4417866"><ele>493.8333333333333</ele><time>2026-04-30T14:43:21.151Z</time></trkpt><trkpt lat="43.9398086" lon="12.4416932"><ele>496.66666666666663</ele><time>2026-04-30T14:43:23.138Z</time></trkpt><trkpt lat="43.9397888" lon="12.4416089"><ele>499.5</ele><time>2026-04-30T14:43:25.171Z</time></trkpt><trkpt lat="43.9397625" lon="12.441497"><ele>502.33333333333337</ele><time>2026-04-30T14:43:27.19Z</time></trkpt><trkpt lat="43.9397287" lon="12.4413911"><ele>505.1666666666667</ele><time>2026-04-30T14:43:29.187Z</time></trkpt><trkpt lat="43.9396963" lon="12.4413118"><ele>508.0</ele><time>2026-04-30T14:43:31.172Z</time></trkpt><trkpt lat="43.9396333" lon="12.4412336"><ele>510.6666666666667</ele><time>2026-04-30T14:43:33.157Z</time></trkpt><trkpt lat="43.939597" lon="12.4411143"><ele>513.3333333333334</ele><time>2026-04-30T14:43:36.131Z</time></trkpt><trkpt lat="43.9395258" lon="12.440959"><ele>516.0</ele><time>2026-04-30T14:43:39.137Z</time></trkpt><trkpt lat="43.9381294" lon="12.4397824"><ele>518.8333333333334</ele><time>2026-04-30T14:44:23.176Z</time></trkpt><trkpt lat="43.938052" lon="12.4397841"><ele>521.6666666666666</ele><time>2026-04-30T14:44:24.186Z</time></trkpt><trkpt lat="43.9379526" lon="12.4397516"><ele>524.5</ele><time>2026-04-30T14:44:26.2Z</time></trkpt><trkpt lat="43.9378749" lon="12.4397508"><ele>527.3333333333333</ele><time>2026-04-30T14:44:28.169Z</time></trkpt><trkpt lat="43.9378131" lon="12.4397301"><ele>530.1666666666666</ele><time>2026-04-30T14:44:30.199Z</time></trkpt><trkpt lat="43.9377259" lon="12.4397389"><ele>533.0</ele><time>2026-04-30T14:44:33.203Z</time></trkpt><trkpt lat="43.9376533" lon="12.4397675"><ele>533.0</ele><time>2026-04-30T14:44:35.203Z</time></trkpt><trkpt lat="43.9375542" lon="12.439821"><ele>533.0</ele><time>2026-04-30T14:44:37.217Z</time></trkpt><trkpt lat="43.9374677" lon="12.4397922"><ele>533.0</ele><time>2026-04-30T14:44:39.217Z</time></trkpt><trkpt lat="43.9373994" lon="12.4397413"><ele>533.0</ele><time>2026-04-30T14:44:41.154Z</time></trkpt><trkpt lat="43.9373219" lon="12.4398189"><ele>533.0</ele><time>2026-04-30T14:44:43.203Z</time></trkpt><trkpt lat="43.9372496" lon="12.4398982"><ele>531.8333333333333</ele><time>2026-04-30T14:44:45.191Z</time></trkpt><trkpt lat="43.9371733" lon="12.439951"><ele>530.6666666666666</ele><time>2026-04-30T14:44:47.204Z</time></trkpt><trkpt lat="43.9371036" lon="12.4400096"><ele>529.5</ele><time>2026-04-30T14:44:49.183Z</time></trkpt><trkpt lat="43.9370415" lon="12.4400609"><ele>528.3333333333334</ele><time>2026-04-30T14:44:51.199Z</time></trkpt><trkpt lat="43.9369904" lon="12.4401158"><ele>527.1666666666667</ele><time>2026-04-30T14:44:53.208Z</time></trkpt><trkpt lat="43.9369348" lon="12.4401939"><ele>526.0</ele><time>2026-04-30T14:44:56.217Z</time></trkpt><trkpt lat="43.936876" lon="12.4402771"><ele>526.0</ele><time>2026-04-30T14:44:59.198Z</time></trkpt><trkpt lat="43.9368046" lon="12.4403494"><ele>526.0</ele><time>2026-04-30T14:45:02.199Z</time></trkpt><trkpt lat="43.9367376" lon="12.4404178"><ele>526.0</ele><time>2026-04-30T14:45:05.168Z</time></trkpt><trkpt lat="43.9366865" lon="12.4404727"><ele>526.0</ele><time>2026-04-30T14:45:07.196Z</time></trkpt><trkpt lat="43.9366292" lon="12.4405502"><ele>526.0</ele><time>2026-04-30T14:45:10.203Z</time></trkpt><trkpt lat="43.9365711" lon="12.4406587"><ele>526.0</ele><time>2026-04-30T14:45:13.165Z</time></trkpt><trkpt lat="43.9365079" lon="12.4407116"><ele>526.4</ele><time>2026-04-30T14:45:15.213Z</time></trkpt><trkpt lat="43.9363915" lon="12.4407475"><ele>526.8</ele><time>2026-04-30T14:45:17.193Z</time></trkpt><trkpt lat="43.9362601" lon="12.4407734"><ele>527.1999999999999</ele><time>2026-04-30T14:45:19.203Z</time></trkpt><trkpt lat="43.93619" lon="12.4407921"><ele>527.6</ele><time>2026-04-30T14:45:20.192Z</time></trkpt><trkpt lat="43.9361127" lon="12.4408021"><ele>528.0</ele><time>2026-04-30T14:45:21.2Z</time></trkpt><trkpt lat="43.9360347" lon="12.4408131"><ele>528.0</ele><time>2026-04-30T14:45:22.201Z</time></trkpt><trkpt lat="43.9359659" lon="12.4408418"><ele>528.0</ele><time>2026-04-30T14:45:23.204Z</time></trkpt><trkpt lat="43.9358964" lon="12.4408705"><ele>528.0</ele><time>2026-04-30T14:45:24.205Z</time></trkpt><trkpt lat="43.9358145" lon="12.4408907"><ele>528.0</ele><time>2026-04-30T14:45:26.191Z</time></trkpt><trkpt lat="43.9357766" lon="12.4408037"><ele>528.0</ele><time>2026-04-30T14:45:28.192Z</time></trkpt><trkpt lat="43.9356957" lon="12.4407107"><ele>528.0</ele><time>2026-04-30T14:45:30.203Z</time></trkpt><trkpt lat="43.9356002" lon="12.4406205"><ele>526.3333333333334</ele><time>2026-04-30T14:45:32.205Z</time></trkpt><trkpt lat="43.9355473" lon="12.4405594"><ele>524.6666666666666</ele><time>2026-04-30T14:45:33.175Z</time></trkpt><trkpt lat="43.935437" lon="12.4404735"><ele>523.0</ele><time>2026-04-30T14:45:35.208Z</time></trkpt><trkpt lat="43.9353709" lon="12.4404431"><ele>521.3333333333333</ele><time>2026-04-30T14:45:36.144Z</time></trkpt><trkpt lat="43.9352972" lon="12.4404059"><ele>519.6666666666666</ele><time>2026-04-30T14:45:37.193Z</time></trkpt><trkpt lat="43.9352268" lon="12.4403612"><ele>518.0</ele><time>2026-04-30T14:45:38.213Z</time></trkpt><trkpt lat="43.9351447" lon="12.4403088"><ele>516.8333333333333</ele><time>2026-04-30T14:45:39.199Z</time></trkpt><trkpt lat="43.9350645" lon="12.4402556"><ele>515.6666666666666</ele><time>2026-04-30T14:45:40.204Z</time></trkpt><trkpt lat="43.9349903" lon="12.4401978"><ele>514.5</ele><time>2026-04-30T14:45:41.206Z</time></trkpt><trkpt lat="43.934915" lon="12.4401517"><ele>513.3333333333334</ele><time>2026-04-30T14:45:42.218Z</time></trkpt><trkpt lat="43.9348431" lon="12.4401181"><ele>512.1666666666667</ele><time>2026-04-30T14:45:43.183Z</time></trkpt><trkpt lat="43.9347669" lon="12.4400875"><ele>511.0</ele><time>2026-04-30T14:45:44.164Z</time></trkpt><trkpt lat="43.9346942" lon="12.4400567"><ele>510.6666666666667</ele><time>2026-04-30T14:45:45.184Z</time></trkpt><trkpt lat="43.9346219" lon="12.4400197"><ele>510.33333333333337</ele><time>2026-04-30T14:45:46.223Z</time></trkpt><trkpt lat="43.9345486" lon="12.439983"><ele>510.0</ele><time>2026-04-30T14:45:47.206Z</time></trkpt><trkpt lat="43.9344652" lon="12.43993"><ele>509.66666666666663</ele><time>2026-04-30T14:45:48.207Z</time></trkpt><trkpt lat="43.93439" lon="12.4398796"><ele>509.3333333333333</ele><time>2026-04-30T14:45:49.207Z</time></trkpt><trkpt lat="43.9343074" lon="12.4398339"><ele>509.0</ele><time>2026-04-30T14:45:50.209Z</time></trkpt><trkpt lat="43.934217" lon="12.4397842"><ele>508.99999999999994</ele><time>2026-04-30T14:45:51.194Z</time></trkpt><trkpt lat="43.9341312" lon="12.4397373"><ele>509.0</ele><time>2026-04-30T14:45:52.204Z</time></trkpt><trkpt lat="43.9340488" lon="12.4396833"><ele>509.0</ele><time>2026-04-30T14:45:53.183Z</time></trkpt><trkpt lat="43.9339708" lon="12.4396259"><ele>509.0</ele><time>2026-04-30T14:45:54.199Z</time></trkpt><trkpt lat="43.933897" lon="12.439573"><ele>508.99999999999994</ele><time>2026-04-30T14:45:55.196Z</time></trkpt><trkpt lat="43.9338193" lon="12.4395537"><ele>509.0</ele><time>2026-04-30T14:45:56.21Z</time></trkpt><trkpt lat="43.9337393" lon="12.4395401"><ele>502.5</ele><time>2026-04-30T14:45:57.208Z</time></trkpt><trkpt lat="43.9336367" lon="12.4394921"><ele>496.0</ele><time>2026-04-30T14:45:59.144Z</time></trkpt><trkpt lat="43.9336272" lon="12.4393653"><ele>489.5</ele><time>2026-04-30T14:46:02.201Z</time></trkpt><trkpt lat="43.9336395" lon="12.4392008"><ele>483.0</ele><time>2026-04-30T14:46:04.219Z</time></trkpt><trkpt lat="43.9336513" lon="12.439"><ele>483.0</ele><time>2026-04-30T14:46:06.214Z</time></trkpt><trkpt lat="43.9336633" lon="12.4388791"><ele>482.99999999999994</ele><time>2026-04-30T14:46:07.205Z</time></trkpt><trkpt lat="43.9336825" lon="12.4387424"><ele>482.99999999999994</ele><time>2026-04-30T14:46:08.205Z</time></trkpt><trkpt lat="43.9336955" lon="12.438586"><ele>483.0</ele><time>2026-04-30T14:46:09.209Z</time></trkpt><trkpt lat="43.933713" lon="12.4384386"><ele>483.0</ele><time>2026-04-30T14:46:10.224Z</time></trkpt><trkpt lat="43.9337324" lon="12.4382922"><ele>480.79999999999995</ele><time>2026-04-30T14:46:11.211Z</time></trkpt><trkpt lat="43.9337579" lon="12.4381586"><ele>478.59999999999997</ele><time>2026-04-30T14:46:12.178Z</time></trkpt><trkpt lat="43.9337854" lon="12.4380194"><ele>476.40000000000003</ele><time>2026-04-30T14:46:13.183Z</time></trkpt><trkpt lat="43.9338234" lon="12.4378919"><ele>474.20000000000005</ele><time>2026-04-30T14:46:14.182Z</time></trkpt><trkpt lat="43.9338665" lon="12.4377982"><ele>472.0</ele><time>2026-04-30T14:46:15.171Z</time></trkpt><trkpt lat="43.9339167" lon="12.4377161"><ele>470.6</ele><time>2026-04-30T14:46:16.172Z</time></trkpt><trkpt lat="43.9339711" lon="12.4376498"><ele>469.20000000000005</ele><time>2026-04-30T14:46:17.171Z</time></trkpt><trkpt lat="43.934065" lon="12.4375493"><ele>467.8</ele><time>2026-04-30T14:46:19.196Z</time></trkpt><trkpt lat="43.9341557" lon="12.4374631"><ele>466.4</ele><time>2026-04-30T14:46:21.206Z</time></trkpt><trkpt lat="43.9342416" lon="12.4373957"><ele>465.0</ele><time>2026-04-30T14:46:23.176Z</time></trkpt><trkpt lat="43.9343369" lon="12.437318"><ele>466.0</ele><time>2026-04-30T14:46:25.208Z</time></trkpt><trkpt lat="43.9344201" lon="12.4372025"><ele>467.0</ele><time>2026-04-30T14:46:27.17Z</time></trkpt><trkpt lat="43.9344696" lon="12.4370455"><ele>468.0</ele><time>2026-04-30T14:46:29.208Z</time></trkpt><trkpt lat="43.9344738" lon="12.4368803"><ele>469.0</ele><time>2026-04-30T14:46:31.204Z</time></trkpt><trkpt lat="43.9344614" lon="12.4367321"><ele>469.00000000000006</ele><time>2026-04-30T14:46:33.19Z</time></trkpt><trkpt lat="43.934442" lon="12.4366321"><ele>469.0</ele><time>2026-04-30T14:46:35.205Z</time></trkpt><trkpt lat="43.9344675" lon="12.4365251"><ele>469.0</ele><time>2026-04-30T14:46:45.217Z</time></trkpt><trkpt lat="43.9345171" lon="12.4364427"><ele>469.0</ele><time>2026-04-30T14:46:47.204Z</time></trkpt><trkpt lat="43.9345542" lon="12.4363136"><ele>469.00000000000006</ele><time>2026-04-30T14:46:49.167Z</time></trkpt><trkpt lat="43.9346073" lon="12.4361918"><ele>469.0</ele><time>2026-04-30T14:46:51.199Z</time></trkpt><trkpt lat="43.9347207" lon="12.4360903"><ele>466.50000000000006</ele><time>2026-04-30T14:46:53.207Z</time></trkpt><trkpt lat="43.9347859" lon="12.4360512"><ele>464.0</ele><time>2026-04-30T14:46:54.207Z</time></trkpt><trkpt lat="43.9348538" lon="12.4360066"><ele>461.5</ele><time>2026-04-30T14:46:55.159Z</time></trkpt><trkpt lat="43.9349335" lon="12.4359807"><ele>459.0</ele><time>2026-04-30T14:46:56.222Z</time></trkpt><trkpt lat="43.9350123" lon="12.4359482"><ele>456.50000000000006</ele><time>2026-04-30T14:46:57.208Z</time></trkpt><trkpt lat="43.9350908" lon="12.4359089"><ele>454.0</ele><time>2026-04-30T14:46:58.217Z</time></trkpt><trkpt lat="43.9351713" lon="12.4358728"><ele>454.0</ele><time>2026-04-30T14:46:59.183Z</time></trkpt><trkpt lat="43.9352553" lon="12.4358305"><ele>454.0</ele><time>2026-04-30T14:47:00.214Z</time></trkpt><trkpt lat="43.9353393" lon="12.4357937"><ele>454.0</ele><time>2026-04-30T14:47:01.215Z</time></trkpt><trkpt lat="43.9354344" lon="12.4357556"><ele>454.0</ele><time>2026-04-30T14:47:02.213Z</time></trkpt><trkpt lat="43.9355263" lon="12.4357266"><ele>454.0</ele><time>2026-04-30T14:47:03.206Z</time></trkpt><trkpt lat="43.9356213" lon="12.4356918"><ele>454.0</ele><time>2026-04-30T14:47:04.194Z</time></trkpt><trkpt lat="43.9357179" lon="12.4356532"><ele>454.0</ele><time>2026-04-30T14:47:05.207Z</time></trkpt><trkpt lat="43.9358189" lon="12.4356181"><ele>454.0</ele><time>2026-04-30T14:47:06.214Z</time></trkpt><trkpt lat="43.9359187" lon="12.4355824"><ele>454.0</ele><time>2026-04-30T14:47:07.212Z</time></trkpt><trkpt lat="43.9360153" lon="12.4355462"><ele>454.0</ele><time>2026-04-30T14:47:08.158Z</time></trkpt><trkpt lat="43.9361158" lon="12.4355106"><ele>454.0</ele><time>2026-04-30T14:47:09.216Z</time></trkpt><trkpt lat="43.9362173" lon="12.4354745"><ele>454.0</ele><time>2026-04-30T14:47:10.231Z</time></trkpt><trkpt lat="43.9363197" lon="12.4354413"><ele>454.0</ele><time>2026-04-30T14:47:11.207Z</time></trkpt><trkpt lat="43.9364215" lon="12.43541"><ele>454.0</ele><time>2026-04-30T14:47:12.209Z</time></trkpt><trkpt lat="43.9365221" lon="12.4353842"><ele>454.0</ele><time>2026-04-30T14:47:13.171Z</time></trkpt><trkpt lat="43.9366232" lon="12.4353559"><ele>448.79999999999995</ele><time>2026-04-30T14:47:14.215Z</time></trkpt><trkpt lat="43.9367279" lon="12.4353235"><ele>443.59999999999997</ele><time>2026-04-30T14:47:15.205Z</time></trkpt><trkpt lat="43.9368274" lon="12.4352977"><ele>438.4</ele><time>2026-04-30T14:47:16.203Z</time></trkpt><trkpt lat="43.9369188" lon="12.4352651"><ele>433.2</ele><time>2026-04-30T14:47:17.214Z</time></trkpt><trkpt lat="43.9369862" lon="12.4351931"><ele>428.0</ele><time>2026-04-30T14:47:18.158Z</time></trkpt><trkpt lat="43.9370062" lon="12.4350634"><ele>427.99999999999994</ele><time>2026-04-30T14:47:19.198Z</time></trkpt><trkpt lat="43.936986" lon="12.4349443"><ele>428.0</ele><time>2026-04-30T14:47:20.189Z</time></trkpt><trkpt lat="43.9369379" lon="12.4348497"><ele>428.0</ele><time>2026-04-30T14:47:21.197Z</time></trkpt><trkpt lat="43.9368516" lon="12.4348111"><ele>428.0</ele><time>2026-04-30T14:47:22.221Z</time></trkpt><trkpt lat="43.9367567" lon="12.4347882"><ele>427.99999999999994</ele><time>2026-04-30T14:47:23.209Z</time></trkpt><trkpt lat="43.9366939" lon="12.4347243"><ele>428.0</ele><time>2026-04-30T14:47:24.229Z</time></trkpt><trkpt lat="43.9367121" lon="12.4344886"><ele>426.59999999999997</ele><time>2026-04-30T14:47:26.172Z</time></trkpt><trkpt lat="43.9367808" lon="12.434381"><ele>425.19999999999993</ele><time>2026-04-30T14:47:27.186Z</time></trkpt><trkpt lat="43.9368312" lon="12.4342909"><ele>423.8</ele><time>2026-04-30T14:47:28.206Z</time></trkpt><trkpt lat="43.9369009" lon="12.4342097"><ele>422.4</ele><time>2026-04-30T14:47:29.215Z</time></trkpt><trkpt lat="43.9369588" lon="12.4341317"><ele>421.0</ele><time>2026-04-30T14:47:30.217Z</time></trkpt><trkpt lat="43.937029" lon="12.4340474"><ele>421.0</ele><time>2026-04-30T14:47:31.204Z</time></trkpt><trkpt lat="43.9371009" lon="12.4339514"><ele>421.0</ele><time>2026-04-30T14:47:32.199Z</time></trkpt><trkpt lat="43.9371779" lon="12.4338482"><ele>421.0</ele><time>2026-04-30T14:47:33.205Z</time></trkpt><trkpt lat="43.9372463" lon="12.4337495"><ele>421.0</ele><time>2026-04-30T14:47:34.225Z</time></trkpt><trkpt lat="43.9373139" lon="12.4336471"><ele>421.0</ele><time>2026-04-30T14:47:35.209Z</time></trkpt><trkpt lat="43.9373878" lon="12.4335503"><ele>422.0</ele><time>2026-04-30T14:47:36.206Z</time></trkpt><trkpt lat="43.9374593" lon="12.4334557"><ele>423.0</ele><time>2026-04-30T14:47:37.182Z</time></trkpt><trkpt lat="43.937499" lon="12.4333387"><ele>424.0</ele><time>2026-04-30T14:47:38.201Z</time></trkpt><trkpt lat="43.9375108" lon="12.4332109"><ele>425.0</ele><time>2026-04-30T14:47:39.175Z</time></trkpt><trkpt lat="43.93747" lon="12.433091"><ele>426.0</ele><time>2026-04-30T14:47:40.225Z</time></trkpt><trkpt lat="43.9374114" lon="12.4329707"><ele>426.0</ele><time>2026-04-30T14:47:41.233Z</time></trkpt><trkpt lat="43.9373346" lon="12.4328716"><ele>426.0</ele><time>2026-04-30T14:47:42.203Z</time></trkpt><trkpt lat="43.9372573" lon="12.4327727"><ele>426.0</ele><time>2026-04-30T14:47:43.218Z</time></trkpt><trkpt lat="43.9371931" lon="12.4326599"><ele>426.0</ele><time>2026-04-30T14:47:44.214Z</time></trkpt><trkpt lat="43.9371226" lon="12.4325514"><ele>426.0</ele><time>2026-04-30T14:47:45.207Z</time></trkpt><trkpt lat="43.9370463" lon="12.4324382"><ele>426.0</ele><time>2026-04-30T14:47:46.158Z</time></trkpt><trkpt lat="43.9369741" lon="12.4323277"><ele>426.0</ele><time>2026-04-30T14:47:47.176Z</time></trkpt><trkpt lat="43.9368998" lon="12.4322179"><ele>426.0</ele><time>2026-04-30T14:47:48.191Z</time></trkpt><trkpt lat="43.9368253" lon="12.4321044"><ele>426.0</ele><time>2026-04-30T14:47:49.195Z</time></trkpt><trkpt lat="43.9367471" lon="12.4319873"><ele>426.0</ele><time>2026-04-30T14:47:50.223Z</time></trkpt><trkpt lat="43.9366684" lon="12.431882"><ele>423.75</ele><time>2026-04-30T14:47:51.211Z</time></trkpt><trkpt lat="43.9365922" lon="12.4317668"><ele>421.5</ele><time>2026-04-30T14:47:52.227Z</time></trkpt><trkpt lat="43.9365065" lon="12.4316512"><ele>419.25</ele><time>2026-04-30T14:47:53.196Z</time></trkpt><trkpt lat="43.9364146" lon="12.4315487"><ele>417.0</ele><time>2026-04-30T14:47:54.208Z</time></trkpt><trkpt lat="43.9363187" lon="12.4314528"><ele>417.0</ele><time>2026-04-30T14:47:55.24Z</time></trkpt><trkpt lat="43.9362099" lon="12.4313768"><ele>417.0</ele><time>2026-04-30T14:47:56.215Z</time></trkpt><trkpt lat="43.9361031" lon="12.4313251"><ele>417.0</ele><time>2026-04-30T14:47:57.204Z</time></trkpt><trkpt lat="43.9359879" lon="12.4312705"><ele>417.0</ele><time>2026-04-30T14:47:58.185Z</time></trkpt><trkpt lat="43.9358657" lon="12.431221"><ele>414.0</ele><time>2026-04-30T14:47:59.187Z</time></trkpt><trkpt lat="43.9357528" lon="12.4311646"><ele>411.0</ele><time>2026-04-30T14:48:00.211Z</time></trkpt><trkpt lat="43.9356387" lon="12.4310817"><ele>408.0</ele><time>2026-04-30T14:48:01.21Z</time></trkpt><trkpt lat="43.935566" lon="12.4309649"><ele>405.0</ele><time>2026-04-30T14:48:02.204Z</time></trkpt><trkpt lat="43.9355476" lon="12.4308182"><ele>405.0</ele><time>2026-04-30T14:48:03.199Z</time></trkpt><trkpt lat="43.9355602" lon="12.4306564"><ele>405.0</ele><time>2026-04-30T14:48:04.202Z</time></trkpt><trkpt lat="43.9355993" lon="12.4305067"><ele>405.0</ele><time>2026-04-30T14:48:05.21Z</time></trkpt><trkpt lat="43.9356614" lon="12.430379"><ele>405.0</ele><time>2026-04-30T14:48:06.236Z</time></trkpt><trkpt lat="43.9357457" lon="12.430279"><ele>405.25</ele><time>2026-04-30T14:48:07.214Z</time></trkpt><trkpt lat="43.9358404" lon="12.4301897"><ele>405.5</ele><time>2026-04-30T14:48:08.195Z</time></trkpt><trkpt lat="43.9359331" lon="12.4300861"><ele>405.75</ele><time>2026-04-30T14:48:09.216Z</time></trkpt><trkpt lat="43.9360138" lon="12.4299854"><ele>406.0</ele><time>2026-04-30T14:48:10.167Z</time></trkpt><trkpt lat="43.9360979" lon="12.4298851"><ele>406.0</ele><time>2026-04-30T14:48:11.163Z</time></trkpt><trkpt lat="43.9361835" lon="12.4297707"><ele>406.0</ele><time>2026-04-30T14:48:12.22Z</time></trkpt><trkpt lat="43.936262" lon="12.4296592"><ele>406.0</ele><time>2026-04-30T14:48:13.201Z</time></trkpt><trkpt lat="43.9363371" lon="12.4295551"><ele>406.0</ele><time>2026-04-30T14:48:14.201Z</time></trkpt><trkpt lat="43.9363741" lon="12.4294622"><ele>406.0</ele><time>2026-04-30T14:48:15.182Z</time></trkpt><trkpt lat="43.9363615" lon="12.4293527"><ele>403.0</ele><time>2026-04-30T14:48:16.193Z</time></trkpt><trkpt lat="43.9363101" lon="12.4292453"><ele>400.0</ele><time>2026-04-30T14:48:17.202Z</time></trkpt><trkpt lat="43.936234" lon="12.4291972"><ele>397.0</ele><time>2026-04-30T14:48:18.201Z</time></trkpt><trkpt lat="43.9361368" lon="12.429181"><ele>394.0</ele><time>2026-04-30T14:48:19.181Z</time></trkpt><trkpt lat="43.9360321" lon="12.4291744"><ele>391.0</ele><time>2026-04-30T14:48:20.182Z</time></trkpt><trkpt lat="43.9359253" lon="12.4291599"><ele>389.0</ele><time>2026-04-30T14:48:21.205Z</time></trkpt><trkpt lat="43.9358195" lon="12.4291517"><ele>387.0</ele><time>2026-04-30T14:48:22.224Z</time></trkpt><trkpt lat="43.9357095" lon="12.429134"><ele>385.0</ele><time>2026-04-30T14:48:23.2Z</time></trkpt><trkpt lat="43.9355889" lon="12.4291233"><ele>383.0</ele><time>2026-04-30T14:48:24.233Z</time></trkpt><trkpt lat="43.9354677" lon="12.4291049"><ele>383.0</ele><time>2026-04-30T14:48:25.204Z</time></trkpt><trkpt lat="43.9353429" lon="12.4290828"><ele>383.0</ele><time>2026-04-30T14:48:26.217Z</time></trkpt><trkpt lat="43.9352211" lon="12.4290719"><ele>383.0</ele><time>2026-04-30T14:48:27.206Z</time></trkpt><trkpt lat="43.9350959" lon="12.4290545"><ele>383.0</ele><time>2026-04-30T14:48:28.199Z</time></trkpt><trkpt lat="43.9349632" lon="12.4290218"><ele>380.5</ele><time>2026-04-30T14:48:29.206Z</time></trkpt><trkpt lat="43.9348481" lon="12.4289411"><ele>378.0</ele><time>2026-04-30T14:48:30.206Z</time></trkpt><trkpt lat="43.9347838" lon="12.4287965"><ele>375.5</ele><time>2026-04-30T14:48:31.21Z</time></trkpt><trkpt lat="43.9347524" lon="12.4286015"><ele>373.0</ele><time>2026-04-30T14:48:32.196Z</time></trkpt><trkpt lat="43.9347428" lon="12.4284201"><ele>371.0</ele><time>2026-04-30T14:48:33.222Z</time></trkpt><trkpt lat="43.9347295" lon="12.4282279"><ele>369.0</ele><time>2026-04-30T14:48:34.167Z</time></trkpt><trkpt lat="43.9347145" lon="12.4280551"><ele>367.0</ele><time>2026-04-30T14:48:35.186Z</time></trkpt><trkpt lat="43.9346984" lon="12.4278787"><ele>365.0</ele><time>2026-04-30T14:48:36.218Z</time></trkpt><trkpt lat="43.9346771" lon="12.4277222"><ele>362.8</ele><time>2026-04-30T14:48:37.203Z</time></trkpt><trkpt lat="43.9346401" lon="12.4275738"><ele>360.6</ele><time>2026-04-30T14:48:38.212Z</time></trkpt><trkpt lat="43.934584" lon="12.4274623"><ele>358.4</ele><time>2026-04-30T14:48:39.153Z</time></trkpt><trkpt lat="43.9344993" lon="12.4273885"><ele>356.2</ele><time>2026-04-30T14:48:40.203Z</time></trkpt><trkpt lat="43.9343959" lon="12.4273333"><ele>354.0</ele><time>2026-04-30T14:48:41.208Z</time></trkpt><trkpt lat="43.9343024" lon="12.4272944"><ele>355.2</ele><time>2026-04-30T14:48:42.206Z</time></trkpt><trkpt lat="43.9341934" lon="12.4272441"><ele>356.4</ele><time>2026-04-30T14:48:43.196Z</time></trkpt><trkpt lat="43.9340937" lon="12.4271917"><ele>357.6</ele><time>2026-04-30T14:48:44.209Z</time></trkpt><trkpt lat="43.9339934" lon="12.4271354"><ele>358.8</ele><time>2026-04-30T14:48:45.187Z</time></trkpt><trkpt lat="43.9338834" lon="12.427095"><ele>360.0</ele><time>2026-04-30T14:48:46.204Z</time></trkpt><trkpt lat="43.9337784" lon="12.4270671"><ele>357.6</ele><time>2026-04-30T14:48:47.212Z</time></trkpt><trkpt lat="43.9336785" lon="12.4270588"><ele>355.2</ele><time>2026-04-30T14:48:48.18Z</time></trkpt><trkpt lat="43.9335763" lon="12.4270569"><ele>352.79999999999995</ele><time>2026-04-30T14:48:49.199Z</time></trkpt><trkpt lat="43.9334748" lon="12.4270697"><ele>350.4</ele><time>2026-04-30T14:48:50.202Z</time></trkpt><trkpt lat="43.9333669" lon="12.427091"><ele>348.0</ele><time>2026-04-30T14:48:51.215Z</time></trkpt><trkpt lat="43.9332633" lon="12.4271112"><ele>348.0</ele><time>2026-04-30T14:48:52.214Z</time></trkpt><trkpt lat="43.9331695" lon="12.4271344"><ele>348.0</ele><time>2026-04-30T14:48:53.19Z</time></trkpt><trkpt lat="43.933072" lon="12.4271417"><ele>348.0</ele><time>2026-04-30T14:48:54.219Z</time></trkpt><trkpt lat="43.9329779" lon="12.4271508"><ele>348.0</ele><time>2026-04-30T14:48:55.216Z</time></trkpt><trkpt lat="43.932888" lon="12.4271476"><ele>348.0</ele><time>2026-04-30T14:48:56.199Z</time></trkpt><trkpt lat="43.9328014" lon="12.4271328"><ele>348.0</ele><time>2026-04-30T14:48:57.201Z</time></trkpt><trkpt lat="43.9327238" lon="12.4271163"><ele>348.0</ele><time>2026-04-30T14:48:58.218Z</time></trkpt><trkpt lat="43.9326475" lon="12.427097"><ele>348.0</ele><time>2026-04-30T14:48:59.154Z</time></trkpt><trkpt lat="43.9325685" lon="12.4270736"><ele>348.0</ele><time>2026-04-30T14:49:00.199Z</time></trkpt><trkpt lat="43.9324853" lon="12.427044"><ele>348.0</ele><time>2026-04-30T14:49:01.218Z</time></trkpt><trkpt lat="43.9324078" lon="12.4270173"><ele>348.0</ele><time>2026-04-30T14:49:02.199Z</time></trkpt><trkpt lat="43.9323389" lon="12.4269853"><ele>349.8333333333333</ele><time>2026-04-30T14:49:03.22Z</time></trkpt><trkpt lat="43.932269" lon="12.4269526"><ele>351.6666666666667</ele><time>2026-04-30T14:49:04.199Z</time></trkpt><trkpt lat="43.9321947" lon="12.4269149"><ele>353.5</ele><time>2026-04-30T14:49:05.191Z</time></trkpt><trkpt lat="43.9321307" lon="12.4268841"><ele>355.33333333333337</ele><time>2026-04-30T14:49:06.195Z</time></trkpt><trkpt lat="43.9320738" lon="12.4268421"><ele>357.1666666666667</ele><time>2026-04-30T14:49:07.174Z</time></trkpt><trkpt lat="43.932002" lon="12.4267088"><ele>359.0</ele><time>2026-04-30T14:49:09.241Z</time></trkpt><trkpt lat="43.9319777" lon="12.42661"><ele>359.0</ele><time>2026-04-30T14:49:10.225Z</time></trkpt><trkpt lat="43.9319626" lon="12.4265068"><ele>359.0</ele><time>2026-04-30T14:49:11.221Z</time></trkpt><trkpt lat="43.9319484" lon="12.4264077"><ele>359.0</ele><time>2026-04-30T14:49:12.228Z</time></trkpt><trkpt lat="43.93193" lon="12.4263041"><ele>359.0</ele><time>2026-04-30T14:49:13.216Z</time></trkpt><trkpt lat="43.931901" lon="12.4261999"><ele>359.0</ele><time>2026-04-30T14:49:14.208Z</time></trkpt><trkpt lat="43.9318696" lon="12.4261109"><ele>359.0</ele><time>2026-04-30T14:49:15.24Z</time></trkpt><trkpt lat="43.9318323" lon="12.4260186"><ele>358.83333333333337</ele><time>2026-04-30T14:49:16.228Z</time></trkpt><trkpt lat="43.9317764" lon="12.4259371"><ele>358.6666666666667</ele><time>2026-04-30T14:49:17.223Z</time></trkpt><trkpt lat="43.9317296" lon="12.425865"><ele>358.5</ele><time>2026-04-30T14:49:18.189Z</time></trkpt><trkpt lat="43.9316877" lon="12.4257992"><ele>358.3333333333333</ele><time>2026-04-30T14:49:19.211Z</time></trkpt><trkpt lat="43.9316377" lon="12.425729"><ele>358.16666666666663</ele><time>2026-04-30T14:49:20.208Z</time></trkpt><trkpt lat="43.931594" lon="12.4256626"><ele>358.0</ele><time>2026-04-30T14:49:21.209Z</time></trkpt><trkpt lat="43.9315241" lon="12.425555"><ele>358.0</ele><time>2026-04-30T14:49:23.21Z</time></trkpt><trkpt lat="43.9314503" lon="12.425497"><ele>358.0</ele><time>2026-04-30T14:49:25.203Z</time></trkpt><trkpt lat="43.9313774" lon="12.4254524"><ele>358.0</ele><time>2026-04-30T14:49:27.19Z</time></trkpt><trkpt lat="43.9312844" lon="12.4254331"><ele>358.0</ele><time>2026-04-30T14:49:29.206Z</time></trkpt><trkpt lat="43.9311593" lon="12.4254592"><ele>358.0</ele><time>2026-04-30T14:49:31.185Z</time></trkpt><trkpt lat="43.9310841" lon="12.425492"><ele>358.0</ele><time>2026-04-30T14:49:32.219Z</time></trkpt><trkpt lat="43.9310028" lon="12.4255322"><ele>358.0</ele><time>2026-04-30T14:49:33.205Z</time></trkpt><trkpt lat="43.9309214" lon="12.4255797"><ele>358.0</ele><time>2026-04-30T14:49:34.2Z</time></trkpt><trkpt lat="43.9308309" lon="12.4256225"><ele>358.0</ele><time>2026-04-30T14:49:35.208Z</time></trkpt><trkpt lat="43.9307384" lon="12.4256506"><ele>358.0</ele><time>2026-04-30T14:49:36.214Z</time></trkpt><trkpt lat="43.9306395" lon="12.4256853"><ele>356.5</ele><time>2026-04-30T14:49:37.192Z</time></trkpt><trkpt lat="43.9305306" lon="12.4257242"><ele>355.0</ele><time>2026-04-30T14:49:38.205Z</time></trkpt><trkpt lat="43.9304106" lon="12.4257755"><ele>353.5</ele><time>2026-04-30T14:49:39.183Z</time></trkpt><trkpt lat="43.9302837" lon="12.4258384"><ele>352.0</ele><time>2026-04-30T14:49:40.223Z</time></trkpt><trkpt lat="43.9301566" lon="12.4259032"><ele>349.75</ele><time>2026-04-30T14:49:41.193Z</time></trkpt><trkpt lat="43.930032" lon="12.4259664"><ele>347.5</ele><time>2026-04-30T14:49:42.204Z</time></trkpt><trkpt lat="43.9299067" lon="12.4260238"><ele>345.25</ele><time>2026-04-30T14:49:43.198Z</time></trkpt><trkpt lat="43.9297904" lon="12.4260449"><ele>343.0</ele><time>2026-04-30T14:49:44.208Z</time></trkpt><trkpt lat="43.9296839" lon="12.4260955"><ele>343.0</ele><time>2026-04-30T14:49:45.218Z</time></trkpt><trkpt lat="43.9295916" lon="12.4261332"><ele>343.0</ele><time>2026-04-30T14:49:46.213Z</time></trkpt><trkpt lat="43.9295076" lon="12.4261874"><ele>343.0</ele><time>2026-04-30T14:49:47.213Z</time></trkpt><trkpt lat="43.9294368" lon="12.4262472"><ele>343.0</ele><time>2026-04-30T14:49:48.228Z</time></trkpt><trkpt lat="43.9293716" lon="12.4262805"><ele>343.0</ele><time>2026-04-30T14:49:49.178Z</time></trkpt><trkpt lat="43.9292946" lon="12.4262947"><ele>343.0</ele><time>2026-04-30T14:49:50.21Z</time></trkpt><trkpt lat="43.9292132" lon="12.4262988"><ele>340.8333333333333</ele><time>2026-04-30T14:49:51.225Z</time></trkpt><trkpt lat="43.9291332" lon="12.4262886"><ele>338.66666666666663</ele><time>2026-04-30T14:49:52.214Z</time></trkpt><trkpt lat="43.9290556" lon="12.4262901"><ele>336.5</ele><time>2026-04-30T14:49:53.21Z</time></trkpt><trkpt lat="43.9289856" lon="12.4262902"><ele>334.3333333333333</ele><time>2026-04-30T14:49:54.212Z</time></trkpt><trkpt lat="43.9288955" lon="12.4262241"><ele>332.1666666666667</ele><time>2026-04-30T14:49:56.215Z</time></trkpt><trkpt lat="43.9288592" lon="12.4261505"><ele>330.0</ele><time>2026-04-30T14:49:57.199Z</time></trkpt><trkpt lat="43.928828" lon="12.4260673"><ele>330.0</ele><time>2026-04-30T14:49:58.211Z</time></trkpt><trkpt lat="43.9287836" lon="12.4259501"><ele>330.0</ele><time>2026-04-30T14:49:59.178Z</time></trkpt><trkpt lat="43.9287289" lon="12.4258408"><ele>330.0</ele><time>2026-04-30T14:50:00.181Z</time></trkpt><trkpt lat="43.928671" lon="12.4257683"><ele>330.0</ele><time>2026-04-30T14:50:01.214Z</time></trkpt><trkpt lat="43.9285625" lon="12.4257253"><ele>330.0</ele><time>2026-04-30T14:50:03.221Z</time></trkpt><trkpt lat="43.9284875" lon="12.4257363"><ele>330.0</ele><time>2026-04-30T14:50:04.205Z</time></trkpt><trkpt lat="43.9284229" lon="12.4257809"><ele>330.0</ele><time>2026-04-30T14:50:05.218Z</time></trkpt><trkpt lat="43.9283534" lon="12.4258342"><ele>330.0</ele><time>2026-04-30T14:50:06.199Z</time></trkpt><trkpt lat="43.9282891" lon="12.4258837"><ele>330.0</ele><time>2026-04-30T14:50:07.206Z</time></trkpt><trkpt lat="43.9281901" lon="12.4259563"><ele>330.0</ele><time>2026-04-30T14:50:09.213Z</time></trkpt><trkpt lat="43.9280655" lon="12.4259656"><ele>326.4</ele><time>2026-04-30T14:50:11.214Z</time></trkpt><trkpt lat="43.9279343" lon="12.4259482"><ele>322.8</ele><time>2026-04-30T14:50:13.224Z</time></trkpt><trkpt lat="43.9278572" lon="12.4259535"><ele>319.2</ele><time>2026-04-30T14:50:14.221Z</time></trkpt><trkpt lat="43.9277725" lon="12.4259477"><ele>315.6</ele><time>2026-04-30T14:50:15.18Z</time></trkpt><trkpt lat="43.927681" lon="12.4259221"><ele>312.0</ele><time>2026-04-30T14:50:16.216Z</time></trkpt><trkpt lat="43.927573" lon="12.4258928"><ele>308.8</ele><time>2026-04-30T14:50:17.225Z</time></trkpt><trkpt lat="43.9274709" lon="12.425865"><ele>305.6</ele><time>2026-04-30T14:50:18.197Z</time></trkpt><trkpt lat="43.9273703" lon="12.4258439"><ele>302.40000000000003</ele><time>2026-04-30T14:50:19.21Z</time></trkpt><trkpt lat="43.9272849" lon="12.4258322"><ele>299.2</ele><time>2026-04-30T14:50:20.185Z</time></trkpt><trkpt lat="43.9272105" lon="12.4258112"><ele>296.0</ele><time>2026-04-30T14:50:21.231Z</time></trkpt><trkpt lat="43.927098" lon="12.4257536"><ele>296.0</ele><time>2026-04-30T14:50:23.217Z</time></trkpt><trkpt lat="43.9270363" lon="12.425715"><ele>296.0</ele><time>2026-04-30T14:50:24.213Z</time></trkpt><trkpt lat="43.9269571" lon="12.4256689"><ele>296.0</ele><time>2026-04-30T14:50:25.187Z</time></trkpt><trkpt lat="43.9268716" lon="12.4256185"><ele>296.0</ele><time>2026-04-30T14:50:26.214Z</time></trkpt><trkpt lat="43.9267789" lon="12.4255825"><ele>296.0</ele><time>2026-04-30T14:50:27.204Z</time></trkpt><trkpt lat="43.9266997" lon="12.4255383"><ele>296.0</ele><time>2026-04-30T14:50:28.219Z</time></trkpt><trkpt lat="43.926637" lon="12.425509"><ele>292.83333333333337</ele><time>2026-04-30T14:50:29.208Z</time></trkpt><trkpt lat="43.9265702" lon="12.4254437"><ele>289.6666666666667</ele><time>2026-04-30T14:50:31.212Z</time></trkpt><trkpt lat="43.9266612" lon="12.4253538"><ele>286.5</ele><time>2026-04-30T14:50:33.217Z</time></trkpt><trkpt lat="43.9267344" lon="12.4253367"><ele>283.3333333333333</ele><time>2026-04-30T14:50:34.217Z</time></trkpt><trkpt lat="43.9268116" lon="12.425317"><ele>280.16666666666663</ele><time>2026-04-30T14:50:35.205Z</time></trkpt><trkpt lat="43.9268985" lon="12.4252953"><ele>277.0</ele><time>2026-04-30T14:50:36.202Z</time></trkpt><trkpt lat="43.9269651" lon="12.4252609"><ele>277.0</ele><time>2026-04-30T14:50:37.212Z</time></trkpt><trkpt lat="43.9270273" lon="12.425174"><ele>277.0</ele><time>2026-04-30T14:50:38.205Z</time></trkpt><trkpt lat="43.9270877" lon="12.4250434"><ele>277.0</ele><time>2026-04-30T14:50:39.196Z</time></trkpt><trkpt lat="43.9271449" lon="12.4248934"><ele>277.0</ele><time>2026-04-30T14:50:40.203Z</time></trkpt><trkpt lat="43.9271814" lon="12.424741"><ele>277.0</ele><time>2026-04-30T14:50:41.211Z</time></trkpt><trkpt lat="43.9272154" lon="12.4245716"><ele>276.3333333333333</ele><time>2026-04-30T14:50:42.213Z</time></trkpt><trkpt lat="43.9272453" lon="12.424432"><ele>275.66666666666663</ele><time>2026-04-30T14:50:43.215Z</time></trkpt><trkpt lat="43.9272797" lon="12.4243199"><ele>275.0</ele><time>2026-04-30T14:50:44.217Z</time></trkpt><trkpt lat="43.9273302" lon="12.4242522"><ele>274.3333333333333</ele><time>2026-04-30T14:50:45.225Z</time></trkpt><trkpt lat="43.9274028" lon="12.4242046"><ele>273.6666666666667</ele><time>2026-04-30T14:50:46.203Z</time></trkpt><trkpt lat="43.9274959" lon="12.4241768"><ele>273.0</ele><time>2026-04-30T14:50:47.188Z</time></trkpt><trkpt lat="43.927589" lon="12.4241527"><ele>273.0</ele><time>2026-04-30T14:50:48.185Z</time></trkpt><trkpt lat="43.9276724" lon="12.4240987"><ele>273.0</ele><time>2026-04-30T14:50:49.206Z</time></trkpt><trkpt lat="43.9277184" lon="12.423991"><ele>273.0</ele><time>2026-04-30T14:50:50.205Z</time></trkpt><trkpt lat="43.927744" lon="12.4238627"><ele>273.0</ele><time>2026-04-30T14:50:51.201Z</time></trkpt><trkpt lat="43.9277401" lon="12.4237304"><ele>273.0</ele><time>2026-04-30T14:50:52.196Z</time></trkpt><trkpt lat="43.927718" lon="12.4236079"><ele>272.3333333333333</ele><time>2026-04-30T14:50:53.21Z</time></trkpt><trkpt lat="43.9276932" lon="12.4234943"><ele>271.6666666666667</ele><time>2026-04-30T14:50:54.2Z</time></trkpt><trkpt lat="43.9276757" lon="12.4233811"><ele>271.0</ele><time>2026-04-30T14:50:55.208Z</time></trkpt><trkpt lat="43.927673" lon="12.4232713"><ele>270.33333333333337</ele><time>2026-04-30T14:50:56.211Z</time></trkpt><trkpt lat="43.9276742" lon="12.4231611"><ele>269.6666666666667</ele><time>2026-04-30T14:50:57.21Z</time></trkpt><trkpt lat="43.9276757" lon="12.4230671"><ele>269.0</ele><time>2026-04-30T14:50:58.212Z</time></trkpt><trkpt lat="43.9276776" lon="12.4229775"><ele>267.8</ele><time>2026-04-30T14:50:59.188Z</time></trkpt><trkpt lat="43.9277159" lon="12.422843"><ele>266.59999999999997</ele><time>2026-04-30T14:51:01.205Z</time></trkpt><trkpt lat="43.9277936" lon="12.422738"><ele>265.4</ele><time>2026-04-30T14:51:03.199Z</time></trkpt><trkpt lat="43.9279057" lon="12.4226722"><ele>264.2</ele><time>2026-04-30T14:51:05.194Z</time></trkpt><trkpt lat="43.9279717" lon="12.4226446"><ele>263.0</ele><time>2026-04-30T14:51:06.197Z</time></trkpt><trkpt lat="43.928073" lon="12.4225434"><ele>263.0</ele><time>2026-04-30T14:51:08.213Z</time></trkpt><trkpt lat="43.9281294" lon="12.4224387"><ele>263.0</ele><time>2026-04-30T14:51:10.205Z</time></trkpt><trkpt lat="43.9280673" lon="12.4223697"><ele>263.0</ele><time>2026-04-30T14:51:13.211Z</time></trkpt><trkpt lat="43.9279729" lon="12.4224153"><ele>263.0</ele><time>2026-04-30T14:51:15.16Z</time></trkpt><trkpt lat="43.9278565" lon="12.4223929"><ele>263.0</ele><time>2026-04-30T14:51:17.16Z</time></trkpt><trkpt lat="43.9277905" lon="12.4223265"><ele>263.0</ele><time>2026-04-30T14:51:18.22Z</time></trkpt><trkpt lat="43.9277439" lon="12.4222234"><ele>263.0</ele><time>2026-04-30T14:51:19.203Z</time></trkpt><trkpt lat="43.9277227" lon="12.4221066"><ele>263.0</ele><time>2026-04-30T14:51:20.21Z</time></trkpt><trkpt lat="43.9276993" lon="12.4219896"><ele>263.0</ele><time>2026-04-30T14:51:21.218Z</time></trkpt><trkpt lat="43.9276761" lon="12.4218727"><ele>263.0</ele><time>2026-04-30T14:51:22.215Z</time></trkpt><trkpt lat="43.9276475" lon="12.4217564"><ele>263.0</ele><time>2026-04-30T14:51:23.176Z</time></trkpt><trkpt lat="43.9276091" lon="12.42164"><ele>260.4</ele><time>2026-04-30T14:51:24.209Z</time></trkpt><trkpt lat="43.9275528" lon="12.4215336"><ele>257.8</ele><time>2026-04-30T14:51:25.184Z</time></trkpt><trkpt lat="43.9274788" lon="12.4214365"><ele>255.2</ele><time>2026-04-30T14:51:26.199Z</time></trkpt><trkpt lat="43.9273953" lon="12.4213628"><ele>252.6</ele><time>2026-04-30T14:51:27.178Z</time></trkpt><trkpt lat="43.9272964" lon="12.4213145"><ele>250.0</ele><time>2026-04-30T14:51:28.183Z</time></trkpt><trkpt lat="43.9271894" lon="12.4212765"><ele>250.0</ele><time>2026-04-30T14:51:29.195Z</time></trkpt><trkpt lat="43.9270894" lon="12.4212418"><ele>250.0</ele><time>2026-04-30T14:51:30.213Z</time></trkpt><trkpt lat="43.9269884" lon="12.4212416"><ele>250.0</ele><time>2026-04-30T14:51:31.225Z</time></trkpt><trkpt lat="43.9269018" lon="12.4212874"><ele>250.0</ele><time>2026-04-30T14:51:32.214Z</time></trkpt><trkpt lat="43.9268274" lon="12.4213807"><ele>250.0</ele><time>2026-04-30T14:51:33.212Z</time></trkpt><trkpt lat="43.9267842" lon="12.4214971"><ele>249.16666666666666</ele><time>2026-04-30T14:51:34.204Z</time></trkpt><trkpt lat="43.926762" lon="12.4216319"><ele>248.33333333333331</ele><time>2026-04-30T14:51:35.205Z</time></trkpt><trkpt lat="43.9267428" lon="12.4217672"><ele>247.5</ele><time>2026-04-30T14:51:36.157Z</time></trkpt><trkpt lat="43.9267063" lon="12.4218854"><ele>246.66666666666669</ele><time>2026-04-30T14:51:37.2Z</time></trkpt><trkpt lat="43.9266481" lon="12.421956"><ele>245.83333333333334</ele><time>2026-04-30T14:51:38.199Z</time></trkpt><trkpt lat="43.9265703" lon="12.4219617"><ele>245.0</ele><time>2026-04-30T14:51:39.218Z</time></trkpt><trkpt lat="43.9264843" lon="12.4219143"><ele>243.4</ele><time>2026-04-30T14:51:40.175Z</time></trkpt><trkpt lat="43.926395" lon="12.4218809"><ele>241.8</ele><time>2026-04-30T14:51:41.205Z</time></trkpt><trkpt lat="43.926308" lon="12.421843"><ele>240.2</ele><time>2026-04-30T14:51:42.204Z</time></trkpt><trkpt lat="43.9262198" lon="12.4218075"><ele>238.6</ele><time>2026-04-30T14:51:43.215Z</time></trkpt><trkpt lat="43.9261247" lon="12.4217647"><ele>237.0</ele><time>2026-04-30T14:51:44.204Z</time></trkpt><trkpt lat="43.9260235" lon="12.4217027"><ele>237.0</ele><time>2026-04-30T14:51:45.196Z</time></trkpt><trkpt lat="43.9259192" lon="12.421658"><ele>237.0</ele><time>2026-04-30T14:51:46.198Z</time></trkpt><trkpt lat="43.9258123" lon="12.4216197"><ele>237.0</ele><time>2026-04-30T14:51:47.201Z</time></trkpt><trkpt lat="43.9257026" lon="12.4215815"><ele>237.0</ele><time>2026-04-30T14:51:48.18Z</time></trkpt><trkpt lat="43.9255986" lon="12.4215373"><ele>237.0</ele><time>2026-04-30T14:51:49.2Z</time></trkpt><trkpt lat="43.9255058" lon="12.4214968"><ele>235.0</ele><time>2026-04-30T14:51:50.208Z</time></trkpt><trkpt lat="43.9254103" lon="12.4214499"><ele>233.0</ele><time>2026-04-30T14:51:51.203Z</time></trkpt><trkpt lat="43.9253227" lon="12.4214124"><ele>231.0</ele><time>2026-04-30T14:51:52.207Z</time></trkpt><trkpt lat="43.9252537" lon="12.421385"><ele>229.0</ele><time>2026-04-30T14:51:53.217Z</time></trkpt><trkpt lat="43.9251712" lon="12.4213196"><ele>227.0</ele><time>2026-04-30T14:51:55.187Z</time></trkpt><trkpt lat="43.925091" lon="12.4213286"><ele>225.0</ele><time>2026-04-30T14:51:59.151Z</time></trkpt><trkpt lat="43.9250227" lon="12.4214042"><ele>223.66666666666666</ele><time>2026-04-30T14:52:02.203Z</time></trkpt><trkpt lat="43.9249894" lon="12.4214872"><ele>222.33333333333331</ele><time>2026-04-30T14:52:04.199Z</time></trkpt><trkpt lat="43.9249694" lon="12.4215715"><ele>221.0</ele><time>2026-04-30T14:52:06.213Z</time></trkpt><trkpt lat="43.9249434" lon="12.4216784"><ele>219.66666666666666</ele><time>2026-04-30T14:52:08.199Z</time></trkpt><trkpt lat="43.9249077" lon="12.4218129"><ele>218.33333333333331</ele><time>2026-04-30T14:52:10.181Z</time></trkpt><trkpt lat="43.9248655" lon="12.4219429"><ele>217.0</ele><time>2026-04-30T14:52:12.197Z</time></trkpt><trkpt lat="43.9248164" lon="12.4220773"><ele>217.2</ele><time>2026-04-30T14:52:14.224Z</time></trkpt><trkpt lat="43.9247414" lon="12.4221999"><ele>217.39999999999998</ele><time>2026-04-30T14:52:16.194Z</time></trkpt><trkpt lat="43.9246407" lon="12.4223006"><ele>217.60000000000002</ele><time>2026-04-30T14:52:18.185Z</time></trkpt><trkpt lat="43.9245808" lon="12.4223485"><ele>217.8</ele><time>2026-04-30T14:52:19.214Z</time></trkpt><trkpt lat="43.9244751" lon="12.4224111"><ele>218.0</ele><time>2026-04-30T14:52:21.209Z</time></trkpt><trkpt lat="43.9243591" lon="12.4224643"><ele>218.0</ele><time>2026-04-30T14:52:23.191Z</time></trkpt><trkpt lat="43.924241" lon="12.4225195"><ele>218.0</ele><time>2026-04-30T14:52:25.196Z</time></trkpt><trkpt lat="43.9241327" lon="12.4225317"><ele>218.0</ele><time>2026-04-30T14:52:27.214Z</time></trkpt><trkpt lat="43.9240754" lon="12.4223902"><ele>218.0</ele><time>2026-04-30T14:52:29.217Z</time></trkpt><trkpt lat="43.9240496" lon="12.4223009"><ele>218.0</ele><time>2026-04-30T14:52:30.215Z</time></trkpt><trkpt lat="43.9240336" lon="12.4222055"><ele>217.33333333333334</ele><time>2026-04-30T14:52:31.204Z</time></trkpt><trkpt lat="43.9240176" lon="12.4221164"><ele>216.66666666666669</ele><time>2026-04-30T14:52:32.217Z</time></trkpt><trkpt lat="43.9239735" lon="12.4219456"><ele>216.0</ele><time>2026-04-30T14:52:34.203Z</time></trkpt><trkpt lat="43.9239529" lon="12.4218451"><ele>215.33333333333331</ele><time>2026-04-30T14:52:35.22Z</time></trkpt><trkpt lat="43.9239284" lon="12.4217487"><ele>214.66666666666666</ele><time>2026-04-30T14:52:36.211Z</time></trkpt><trkpt lat="43.9239053" lon="12.4216456"><ele>214.0</ele><time>2026-04-30T14:52:37.217Z</time></trkpt><trkpt lat="43.923886" lon="12.4215426"><ele>213.99999999999997</ele><time>2026-04-30T14:52:38.22Z</time></trkpt><trkpt lat="43.9238617" lon="12.4214404"><ele>214.0</ele><time>2026-04-30T14:52:39.212Z</time></trkpt><trkpt lat="43.9238395" lon="12.4213323"><ele>214.0</ele><time>2026-04-30T14:52:40.189Z</time></trkpt><trkpt lat="43.923814" lon="12.4212208"><ele>214.0</ele><time>2026-04-30T14:52:41.208Z</time></trkpt><trkpt lat="43.9237888" lon="12.421113"><ele>213.99999999999997</ele><time>2026-04-30T14:52:42.2Z</time></trkpt><trkpt lat="43.9237656" lon="12.4210009"><ele>214.0</ele><time>2026-04-30T14:52:43.207Z</time></trkpt><trkpt lat="43.9237429" lon="12.4208894"><ele>213.33333333333331</ele><time>2026-04-30T14:52:44.219Z</time></trkpt><trkpt lat="43.9237161" lon="12.4207754"><ele>212.66666666666666</ele><time>2026-04-30T14:52:45.218Z</time></trkpt><trkpt lat="43.9236834" lon="12.4206619"><ele>212.0</ele><time>2026-04-30T14:52:46.203Z</time></trkpt><trkpt lat="43.923652" lon="12.4205555"><ele>211.33333333333331</ele><time>2026-04-30T14:52:47.179Z</time></trkpt><trkpt lat="43.9236267" lon="12.420447"><ele>210.66666666666666</ele><time>2026-04-30T14:52:48.206Z</time></trkpt><trkpt lat="43.9236081" lon="12.4203383"><ele>210.0</ele><time>2026-04-30T14:52:49.202Z</time></trkpt><trkpt lat="43.9235898" lon="12.4202313"><ele>209.85714285714286</ele><time>2026-04-30T14:52:50.198Z</time></trkpt><trkpt lat="43.9235789" lon="12.4201256"><ele>209.71428571428572</ele><time>2026-04-30T14:52:51.195Z</time></trkpt><trkpt lat="43.9235793" lon="12.4200262"><ele>209.57142857142856</ele><time>2026-04-30T14:52:52.185Z</time></trkpt><trkpt lat="43.9235876" lon="12.4199176"><ele>209.42857142857144</ele><time>2026-04-30T14:52:53.205Z</time></trkpt><trkpt lat="43.9235998" lon="12.4198146"><ele>209.28571428571428</ele><time>2026-04-30T14:52:54.209Z</time></trkpt><trkpt lat="43.9236149" lon="12.4197207"><ele>209.14285714285714</ele><time>2026-04-30T14:52:55.202Z</time></trkpt><trkpt lat="43.9236255" lon="12.419629"><ele>209.0</ele><time>2026-04-30T14:52:56.202Z</time></trkpt><trkpt lat="43.9236354" lon="12.4195352"><ele>209.0</ele><time>2026-04-30T14:52:57.22Z</time></trkpt><trkpt lat="43.9236498" lon="12.4194453"><ele>209.0</ele><time>2026-04-30T14:52:58.21Z</time></trkpt><trkpt lat="43.9236635" lon="12.419357"><ele>209.0</ele><time>2026-04-30T14:52:59.227Z</time></trkpt><trkpt lat="43.9236791" lon="12.4192645"><ele>209.0</ele><time>2026-04-30T14:53:00.204Z</time></trkpt><trkpt lat="43.9236882" lon="12.4191766"><ele>209.0</ele><time>2026-04-30T14:53:01.208Z</time></trkpt><trkpt lat="43.923692" lon="12.4190881"><ele>209.0</ele><time>2026-04-30T14:53:02.213Z</time></trkpt><trkpt lat="43.9237216" lon="12.4189258"><ele>209.0</ele><time>2026-04-30T14:53:04.179Z</time></trkpt><trkpt lat="43.923748" lon="12.418764"><ele>209.0</ele><time>2026-04-30T14:53:06.21Z</time></trkpt><trkpt lat="43.9237792" lon="12.4186062"><ele>209.0</ele><time>2026-04-30T14:53:08.211Z</time></trkpt><trkpt lat="43.9238251" lon="12.4184602"><ele>209.0</ele><time>2026-04-30T14:53:10.188Z</time></trkpt><trkpt lat="43.9238841" lon="12.4183459"><ele>209.0</ele><time>2026-04-30T14:53:12.21Z</time></trkpt><trkpt lat="43.9239213" lon="12.4182739"><ele>209.0</ele><time>2026-04-30T14:53:14.188Z</time></trkpt><trkpt lat="43.9239477" lon="12.4181846"><ele>209.0</ele><time>2026-04-30T14:53:17.22Z</time></trkpt><trkpt lat="43.9239371" lon="12.4180888"><ele>209.0</ele><time>2026-04-30T14:53:20.21Z</time></trkpt><trkpt lat="43.9238894" lon="12.4180135"><ele>209.0</ele><time>2026-04-30T14:53:24.202Z</time></trkpt><trkpt lat="43.9238207" lon="12.4180053"><ele>209.0</ele><time>2026-04-30T14:53:27.179Z</time></trkpt><trkpt lat="43.923755" lon="12.418019"><ele>209.0</ele><time>2026-04-30T14:53:30.206Z</time></trkpt><trkpt lat="43.9236826" lon="12.4180395"><ele>209.0</ele><time>2026-04-30T14:53:34.21Z</time></trkpt><trkpt lat="43.9236134" lon="12.4180262"><ele>209.0</ele><time>2026-04-30T14:53:38.171Z</time></trkpt><trkpt lat="43.923539" lon="12.4179962"><ele>209.50000000000003</ele><time>2026-04-30T14:53:42.191Z</time></trkpt><trkpt lat="43.9234666" lon="12.41796"><ele>210.0</ele><time>2026-04-30T14:53:46.196Z</time></trkpt><trkpt lat="43.9234002" lon="12.4179145"><ele>210.5</ele><time>2026-04-30T14:53:50.213Z</time></trkpt><trkpt lat="43.9233218" lon="12.4178667"><ele>211.0</ele><time>2026-04-30T14:53:54.219Z</time></trkpt><trkpt lat="43.923252" lon="12.4178222"><ele>211.50000000000003</ele><time>2026-04-30T14:53:58.215Z</time></trkpt><trkpt lat="43.9231766" lon="12.4177823"><ele>212.0</ele><time>2026-04-30T14:54:03.224Z</time></trkpt><trkpt lat="43.9231116" lon="12.4177463"><ele>214.14285714285717</ele><time>2026-04-30T14:54:07.174Z</time></trkpt><trkpt lat="43.9230568" lon="12.4176994"><ele>216.28571428571428</ele><time>2026-04-30T14:54:11.193Z</time></trkpt><trkpt lat="43.922979" lon="12.4176631"><ele>218.42857142857144</ele><time>2026-04-30T14:54:15.193Z</time></trkpt><trkpt lat="43.9229069" lon="12.4176311"><ele>220.57142857142858</ele><time>2026-04-30T14:54:19.172Z</time></trkpt><trkpt lat="43.9228331" lon="12.4175976"><ele>222.71428571428572</ele><time>2026-04-30T14:54:23.195Z</time></trkpt><trkpt lat="43.9227833" lon="12.4175425"><ele>224.85714285714286</ele><time>2026-04-30T14:54:27.189Z</time></trkpt><trkpt lat="43.9227534" lon="12.4174654"><ele>227.0</ele><time>2026-04-30T14:54:31.197Z</time></trkpt><trkpt lat="43.9228013" lon="12.417382"><ele>227.0</ele><time>2026-04-30T14:54:37.215Z</time></trkpt><trkpt lat="43.9228551" lon="12.4173297"><ele>227.00000000000003</ele><time>2026-04-30T14:54:41.222Z</time></trkpt><trkpt lat="43.9229176" lon="12.4172883"><ele>227.0</ele><time>2026-04-30T14:54:45.218Z</time></trkpt><trkpt lat="43.9229869" lon="12.4172589"><ele>227.0</ele><time>2026-04-30T14:54:49.219Z</time></trkpt><trkpt lat="43.9230605" lon="12.4172466"><ele>227.00000000000003</ele><time>2026-04-30T14:54:53.204Z</time></trkpt><trkpt lat="43.9231219" lon="12.417224"><ele>227.0</ele><time>2026-04-30T14:54:56.158Z</time></trkpt><trkpt lat="43.9231797" lon="12.4171726"><ele>227.0</ele><time>2026-04-30T14:55:00.198Z</time></trkpt><trkpt lat="43.9232188" lon="12.4170859"><ele>228.71428571428572</ele><time>2026-04-30T14:55:04.223Z</time></trkpt><trkpt lat="43.9232253" lon="12.4169926"><ele>230.42857142857144</ele><time>2026-04-30T14:55:08.218Z</time></trkpt><trkpt lat="43.9231971" lon="12.4169054"><ele>232.14285714285717</ele><time>2026-04-30T14:55:13.214Z</time></trkpt><trkpt lat="43.923155" lon="12.4168394"><ele>233.8571428571429</ele><time>2026-04-30T14:55:17.207Z</time></trkpt><trkpt lat="43.9230982" lon="12.4167732"><ele>235.57142857142858</ele><time>2026-04-30T14:55:21.201Z</time></trkpt><trkpt lat="43.9230449" lon="12.4167074"><ele>237.28571428571433</ele><time>2026-04-30T14:55:25.226Z</time></trkpt><trkpt lat="43.922986" lon="12.4166498"><ele>239.00000000000003</ele><time>2026-04-30T14:55:29.198Z</time></trkpt><trkpt lat="43.9229299" lon="12.4165912"><ele>239.00000000000003</ele><time>2026-04-30T14:55:33.219Z</time></trkpt><trkpt lat="43.9228673" lon="12.4165296"><ele>239.0</ele><time>2026-04-30T14:55:37.212Z</time></trkpt><trkpt lat="43.9228187" lon="12.4164486"><ele>239.00000000000003</ele><time>2026-04-30T14:55:41.208Z</time></trkpt><trkpt lat="43.9227677" lon="12.4163681"><ele>239.00000000000003</ele><time>2026-04-30T14:55:46.225Z</time></trkpt><trkpt lat="43.922739" lon="12.4162857"><ele>239.0</ele><time>2026-04-30T14:55:50.22Z</time></trkpt><trkpt lat="43.9227375" lon="12.4161929"><ele>239.00000000000003</ele><time>2026-04-30T14:55:54.235Z</time></trkpt><trkpt lat="43.9227644" lon="12.4161053"><ele>239.00000000000003</ele><time>2026-04-30T14:55:58.219Z</time></trkpt><trkpt lat="43.922801" lon="12.4160323"><ele>241.00000000000003</ele><time>2026-04-30T14:56:02.193Z</time></trkpt><trkpt lat="43.922866" lon="12.4159787"><ele>243.0</ele><time>2026-04-30T14:56:07.221Z</time></trkpt><trkpt lat="43.922924" lon="12.4159357"><ele>245.00000000000003</ele><time>2026-04-30T14:56:11.167Z</time></trkpt><trkpt lat="43.9229911" lon="12.4158854"><ele>247.00000000000003</ele><time>2026-04-30T14:56:15.162Z</time></trkpt><trkpt lat="43.9230293" lon="12.4158072"><ele>249.0</ele><time>2026-04-30T14:56:19.196Z</time></trkpt><trkpt lat="43.9230381" lon="12.4157178"><ele>251.00000000000003</ele><time>2026-04-30T14:56:23.183Z</time></trkpt><trkpt lat="43.9230223" lon="12.4156198"><ele>253.00000000000003</ele><time>2026-04-30T14:56:27.219Z</time></trkpt><trkpt lat="43.9229891" lon="12.4155307"><ele>254.71428571428575</ele><time>2026-04-30T14:56:33.202Z</time></trkpt><trkpt lat="43.9229525" lon="12.4154439"><ele>256.42857142857144</ele><time>2026-04-30T14:56:38.159Z</time></trkpt><trkpt lat="43.9229342" lon="12.4153404"><ele>258.1428571428571</ele><time>2026-04-30T14:56:44.232Z</time></trkpt><trkpt lat="43.9229448" lon="12.4152541"><ele>259.8571428571429</ele><time>2026-04-30T14:56:49.214Z</time></trkpt><trkpt lat="43.9229589" lon="12.4151588"><ele>261.57142857142856</ele><time>2026-04-30T14:56:55.195Z</time></trkpt><trkpt lat="43.9229892" lon="12.415068"><ele>263.2857142857143</ele><time>2026-04-30T14:57:01.153Z</time></trkpt><trkpt lat="43.9230275" lon="12.4149926"><ele>265.0</ele><time>2026-04-30T14:57:06.201Z</time></trkpt><trkpt lat="43.9230659" lon="12.4149207"><ele>264.99999999999994</ele><time>2026-04-30T14:57:10.218Z</time></trkpt><trkpt lat="43.9230985" lon="12.414841"><ele>265.0</ele><time>2026-04-30T14:57:15.221Z</time></trkpt><trkpt lat="43.9231295" lon="12.4147433"><ele>265.0</ele><time>2026-04-30T14:57:21.176Z</time></trkpt><trkpt lat="43.9231218" lon="12.4146421"><ele>265.0</ele><time>2026-04-30T14:57:27.215Z</time></trkpt><trkpt lat="43.9230808" lon="12.4145652"><ele>265.0</ele><time>2026-04-30T14:57:33.211Z</time></trkpt><trkpt lat="43.9230163" lon="12.4145234"><ele>264.99999999999994</ele><time>2026-04-30T14:57:38.195Z</time></trkpt><trkpt lat="43.9229522" lon="12.4145173"><ele>265.0</ele><time>2026-04-30T14:57:42.214Z</time></trkpt><trkpt lat="43.9228787" lon="12.4144988"><ele>266.2857142857143</ele><time>2026-04-30T14:57:47.217Z</time></trkpt><trkpt lat="43.9228155" lon="12.4144755"><ele>267.57142857142856</ele><time>2026-04-30T14:57:51.216Z</time></trkpt><trkpt lat="43.9227537" lon="12.4144538"><ele>268.8571428571429</ele><time>2026-04-30T14:57:55.221Z</time></trkpt><trkpt lat="43.9226884" lon="12.4144254"><ele>270.1428571428571</ele><time>2026-04-30T14:57:59.245Z</time></trkpt><trkpt lat="43.9226181" lon="12.4143987"><ele>271.42857142857144</ele><time>2026-04-30T14:58:03.236Z</time></trkpt><trkpt lat="43.922557" lon="12.414361"><ele>272.7142857142857</ele><time>2026-04-30T14:58:07.211Z</time></trkpt><trkpt lat="43.9224922" lon="12.4143226"><ele>274.0</ele><time>2026-04-30T14:58:11.203Z</time></trkpt><trkpt lat="43.9224166" lon="12.4142787"><ele>275.16666666666663</ele><time>2026-04-30T14:58:15.176Z</time></trkpt><trkpt lat="43.9223443" lon="12.4142459"><ele>276.3333333333333</ele><time>2026-04-30T14:58:19.213Z</time></trkpt><trkpt lat="43.922279" lon="12.41419"><ele>277.5</ele><time>2026-04-30T14:58:23.194Z</time></trkpt><trkpt lat="43.922209" lon="12.4141399"><ele>278.6666666666667</ele><time>2026-04-30T14:58:27.211Z</time></trkpt><trkpt lat="43.9221466" lon="12.4140935"><ele>279.83333333333337</ele><time>2026-04-30T14:58:31.193Z</time></trkpt><trkpt lat="43.9220883" lon="12.4140329"><ele>281.0</ele><time>2026-04-30T14:58:35.227Z</time></trkpt><trkpt lat="43.9220212" lon="12.413977"><ele>281.00000000000006</ele><time>2026-04-30T14:58:39.178Z</time></trkpt><trkpt lat="43.921971" lon="12.4139065"><ele>281.0</ele><time>2026-04-30T14:58:43.213Z</time></trkpt><trkpt lat="43.9219397" lon="12.4138274"><ele>281.0</ele><time>2026-04-30T14:58:48.216Z</time></trkpt><trkpt lat="43.9219414" lon="12.4137244"><ele>281.0</ele><time>2026-04-30T14:58:54.21Z</time></trkpt><trkpt lat="43.9219983" lon="12.4136708"><ele>281.0</ele><time>2026-04-30T14:58:59.161Z</time></trkpt><trkpt lat="43.9220631" lon="12.4136231"><ele>281.00000000000006</ele><time>2026-04-30T14:59:04.21Z</time></trkpt><trkpt lat="43.922129" lon="12.4135906"><ele>281.0</ele><time>2026-04-30T14:59:08.204Z</time></trkpt><trkpt lat="43.922197" lon="12.4135564"><ele>283.00000000000006</ele><time>2026-04-30T14:59:13.19Z</time></trkpt><trkpt lat="43.9222623" lon="12.4135339"><ele>285.0</ele><time>2026-04-30T14:59:17.194Z</time></trkpt><trkpt lat="43.9223354" lon="12.4135009"><ele>287.0</ele><time>2026-04-30T14:59:22.19Z</time></trkpt><trkpt lat="43.9223987" lon="12.4134689"><ele>289.0</ele><time>2026-04-30T14:59:26.178Z</time></trkpt><trkpt lat="43.922463" lon="12.4134084"><ele>291.0</ele><time>2026-04-30T14:59:30.205Z</time></trkpt><trkpt lat="43.9225108" lon="12.4133426"><ele>293.00000000000006</ele><time>2026-04-30T14:59:34.205Z</time></trkpt><trkpt lat="43.9225555" lon="12.4132528"><ele>295.0</ele><time>2026-04-30T14:59:39.217Z</time></trkpt><trkpt lat="43.9225465" lon="12.413151"><ele>295.00000000000006</ele><time>2026-04-30T14:59:44.199Z</time></trkpt><trkpt lat="43.9225073" lon="12.4130761"><ele>295.0</ele><time>2026-04-30T14:59:49.193Z</time></trkpt><trkpt lat="43.9224377" lon="12.4130323"><ele>295.0</ele><time>2026-04-30T14:59:54.209Z</time></trkpt><trkpt lat="43.9223716" lon="12.4129984"><ele>295.0</ele><time>2026-04-30T14:59:58.195Z</time></trkpt><trkpt lat="43.9223066" lon="12.4129549"><ele>295.0</ele><time>2026-04-30T15:00:02.219Z</time></trkpt><trkpt lat="43.9222532" lon="12.4129032"><ele>295.00000000000006</ele><time>2026-04-30T15:00:06.221Z</time></trkpt><trkpt lat="43.9222292" lon="12.4128135"><ele>295.0</ele><time>2026-04-30T15:00:11.227Z</time></trkpt><trkpt lat="43.9222526" lon="12.4127231"><ele>296.28571428571433</ele><time>2026-04-30T15:00:17.216Z</time></trkpt><trkpt lat="43.9222904" lon="12.4126291"><ele>297.57142857142856</ele><time>2026-04-30T15:00:23.205Z</time></trkpt><trkpt lat="43.9223076" lon="12.4125354"><ele>298.8571428571429</ele><time>2026-04-30T15:00:28.229Z</time></trkpt><trkpt lat="43.9222977" lon="12.4124402"><ele>300.14285714285717</ele><time>2026-04-30T15:00:33.205Z</time></trkpt><trkpt lat="43.9222785" lon="12.4123486"><ele>301.42857142857144</ele><time>2026-04-30T15:00:38.25Z</time></trkpt><trkpt lat="43.9222606" lon="12.4122472"><ele>302.7142857142857</ele><time>2026-04-30T15:00:43.201Z</time></trkpt><trkpt lat="43.9222331" lon="12.4121468"><ele>304.0</ele><time>2026-04-30T15:00:48.219Z</time></trkpt><trkpt lat="43.9222067" lon="12.4120599"><ele>304.85714285714283</ele><time>2026-04-30T15:00:53.246Z</time></trkpt><trkpt lat="43.922178" lon="12.4119778"><ele>305.7142857142857</ele><time>2026-04-30T15:00:58.21Z</time></trkpt><trkpt lat="43.9221082" lon="12.4119272"><ele>306.57142857142856</ele><time>2026-04-30T15:01:03.202Z</time></trkpt><trkpt lat="43.9220405" lon="12.4119049"><ele>307.42857142857144</ele><time>2026-04-30T15:01:08.164Z</time></trkpt><trkpt lat="43.9219656" lon="12.411877"><ele>308.2857142857143</ele><time>2026-04-30T15:01:13.211Z</time></trkpt><trkpt lat="43.9218927" lon="12.4118553"><ele>309.14285714285717</ele><time>2026-04-30T15:01:18.181Z</time></trkpt><trkpt lat="43.9218294" lon="12.4118332"><ele>310.0</ele><time>2026-04-30T15:01:22.159Z</time></trkpt><trkpt lat="43.9217546" lon="12.4118229"><ele>312.57142857142856</ele><time>2026-04-30T15:01:27.211Z</time></trkpt><trkpt lat="43.9216808" lon="12.4117925"><ele>315.1428571428571</ele><time>2026-04-30T15:01:32.203Z</time></trkpt><trkpt lat="43.9216086" lon="12.4117782"><ele>317.71428571428567</ele><time>2026-04-30T15:01:37.231Z</time></trkpt><trkpt lat="43.9215421" lon="12.4117625"><ele>320.2857142857143</ele><time>2026-04-30T15:01:41.181Z</time></trkpt><trkpt lat="43.9214745" lon="12.411764"><ele>322.85714285714283</ele><time>2026-04-30T15:01:45.231Z</time></trkpt><trkpt lat="43.9214082" lon="12.4117477"><ele>325.4285714285714</ele><time>2026-04-30T15:01:49.19Z</time></trkpt><trkpt lat="43.9213395" lon="12.4117499"><ele>328.0</ele><time>2026-04-30T15:01:53.192Z</time></trkpt><trkpt lat="43.9212616" lon="12.4117255"><ele>327.99999999999994</ele><time>2026-04-30T15:01:58.211Z</time></trkpt><trkpt lat="43.9211944" lon="12.4116895"><ele>328.0</ele><time>2026-04-30T15:02:02.219Z</time></trkpt><trkpt lat="43.9211416" lon="12.4116252"><ele>328.0</ele><time>2026-04-30T15:02:06.204Z</time></trkpt><trkpt lat="43.9211227" lon="12.411537"><ele>328.0</ele><time>2026-04-30T15:02:10.208Z</time></trkpt><trkpt lat="43.9211661" lon="12.4114581"><ele>328.0</ele><time>2026-04-30T15:02:15.192Z</time></trkpt><trkpt lat="43.9212272" lon="12.4114142"><ele>327.99999999999994</ele><time>2026-04-30T15:02:19.201Z</time></trkpt><trkpt lat="43.9212911" lon="12.4113728"><ele>328.0</ele><time>2026-04-30T15:02:23.199Z</time></trkpt><trkpt lat="43.9213577" lon="12.4113142"><ele>330.66666666666663</ele><time>2026-04-30T15:02:27.204Z</time></trkpt><trkpt lat="43.9214114" lon="12.4112678"><ele>333.3333333333333</ele><time>2026-04-30T15:02:30.168Z</time></trkpt><trkpt lat="43.9214806" lon="12.411213"><ele>336.0</ele><time>2026-04-30T15:02:34.165Z</time></trkpt><trkpt lat="43.9215423" lon="12.4111286"><ele>338.6666666666667</ele><time>2026-04-30T15:02:38.212Z</time></trkpt><trkpt lat="43.9215712" lon="12.4110426"><ele>341.33333333333337</ele><time>2026-04-30T15:02:41.206Z</time></trkpt><trkpt lat="43.9215874" lon="12.4109202"><ele>344.0</ele><time>2026-04-30T15:02:45.23Z</time></trkpt><trkpt lat="43.9215516" lon="12.4108277"><ele>344.00000000000006</ele><time>2026-04-30T15:02:49.2Z</time></trkpt><trkpt lat="43.921487" lon="12.4108166"><ele>344.0</ele><time>2026-04-30T15:02:53.189Z</time></trkpt><trkpt lat="43.9214172" lon="12.4108186"><ele>344.0</ele><time>2026-04-30T15:02:57.206Z</time></trkpt><trkpt lat="43.9213436" lon="12.4108116"><ele>344.0</ele><time>2026-04-30T15:03:01.203Z</time></trkpt><trkpt lat="43.9212786" lon="12.4108082"><ele>344.0</ele><time>2026-04-30T15:03:04.185Z</time></trkpt><trkpt lat="43.9211936" lon="12.4108102"><ele>344.00000000000006</ele><time>2026-04-30T15:03:08.194Z</time></trkpt><trkpt lat="43.9211256" lon="12.4107944"><ele>344.0</ele><time>2026-04-30T15:03:11.209Z</time></trkpt><trkpt lat="43.9210503" lon="12.41078"><ele>344.00000000000006</ele><time>2026-04-30T15:03:14.204Z</time></trkpt><trkpt lat="43.9209856" lon="12.4107653"><ele>344.0</ele><time>2026-04-30T15:03:17.19Z</time></trkpt><trkpt lat="43.9209184" lon="12.4107498"><ele>344.0</ele><time>2026-04-30T15:03:20.215Z</time></trkpt><trkpt lat="43.920844" lon="12.4107164"><ele>344.0</ele><time>2026-04-30T15:03:24.189Z</time></trkpt><trkpt lat="43.920772" lon="12.4106907"><ele>344.0</ele><time>2026-04-30T15:03:28.185Z</time></trkpt><trkpt lat="43.9207127" lon="12.4106493"><ele>344.00000000000006</ele><time>2026-04-30T15:03:32.235Z</time></trkpt><trkpt lat="43.9206401" lon="12.4106436"><ele>344.0</ele><time>2026-04-30T15:03:36.202Z</time></trkpt><trkpt lat="43.9205628" lon="12.4106384"><ele>345.42857142857144</ele><time>2026-04-30T15:03:39.17Z</time></trkpt><trkpt lat="43.9204809" lon="12.4106172"><ele>346.8571428571429</ele><time>2026-04-30T15:03:42.19Z</time></trkpt><trkpt lat="43.9204076" lon="12.4105918"><ele>348.28571428571433</ele><time>2026-04-30T15:03:45.214Z</time></trkpt><trkpt lat="43.9203356" lon="12.4105599"><ele>349.7142857142857</ele><time>2026-04-30T15:03:48.24Z</time></trkpt><trkpt lat="43.9202703" lon="12.410506"><ele>351.1428571428571</ele><time>2026-04-30T15:03:51.181Z</time></trkpt><trkpt lat="43.9202322" lon="12.4104257"><ele>352.5714285714286</ele><time>2026-04-30T15:03:54.23Z</time></trkpt><trkpt lat="43.92024" lon="12.4103303"><ele>354.0</ele><time>2026-04-30T15:03:59.197Z</time></trkpt><trkpt lat="43.9202975" lon="12.4102885"><ele>355.8571428571429</ele><time>2026-04-30T15:04:04.177Z</time></trkpt><trkpt lat="43.9203606" lon="12.410282"><ele>357.71428571428567</ele><time>2026-04-30T15:04:09.182Z</time></trkpt><trkpt lat="43.9204319" lon="12.4102986"><ele>359.57142857142856</ele><time>2026-04-30T15:04:16.196Z</time></trkpt><trkpt lat="43.9205088" lon="12.410311"><ele>361.42857142857144</ele><time>2026-04-30T15:04:21.222Z</time></trkpt><trkpt lat="43.9205757" lon="12.4102991"><ele>363.28571428571433</ele><time>2026-04-30T15:04:25.214Z</time></trkpt><trkpt lat="43.9206326" lon="12.4102381"><ele>365.1428571428571</ele><time>2026-04-30T15:04:29.189Z</time></trkpt><trkpt lat="43.9206658" lon="12.4101563"><ele>367.0</ele><time>2026-04-30T15:04:31.195Z</time></trkpt><trkpt lat="43.9207053" lon="12.410032"><ele>367.0</ele><time>2026-04-30T15:04:33.196Z</time></trkpt><trkpt lat="43.9207421" lon="12.409911"><ele>367.0</ele><time>2026-04-30T15:04:35.215Z</time></trkpt><trkpt lat="43.9207855" lon="12.409802"><ele>367.0</ele><time>2026-04-30T15:04:37.207Z</time></trkpt><trkpt lat="43.9208185" lon="12.4097008"><ele>367.0</ele><time>2026-04-30T15:04:39.215Z</time></trkpt><trkpt lat="43.9208428" lon="12.409619"><ele>367.0</ele><time>2026-04-30T15:04:41.215Z</time></trkpt><trkpt lat="43.9208746" lon="12.4095091"><ele>367.0</ele><time>2026-04-30T15:04:44.206Z</time></trkpt><trkpt lat="43.9209042" lon="12.4094009"><ele>366.0</ele><time>2026-04-30T15:04:47.22Z</time></trkpt><trkpt lat="43.9209331" lon="12.4092966"><ele>365.0</ele><time>2026-04-30T15:04:50.219Z</time></trkpt><trkpt lat="43.920951" lon="12.409195"><ele>364.0</ele><time>2026-04-30T15:04:53.161Z</time></trkpt><trkpt lat="43.9209806" lon="12.4090948"><ele>363.0</ele><time>2026-04-30T15:04:56.221Z</time></trkpt><trkpt lat="43.9210011" lon="12.4090055"><ele>362.0</ele><time>2026-04-30T15:04:59.202Z</time></trkpt><trkpt lat="43.9210299" lon="12.4089119"><ele>361.0</ele><time>2026-04-30T15:05:02.17Z</time></trkpt><trkpt lat="43.9210297" lon="12.4087979"><ele>360.8333333333333</ele><time>2026-04-30T15:05:05.176Z</time></trkpt><trkpt lat="43.9210146" lon="12.4086776"><ele>360.66666666666663</ele><time>2026-04-30T15:05:08.186Z</time></trkpt><trkpt lat="43.920997" lon="12.4085706"><ele>360.5</ele><time>2026-04-30T15:05:11.234Z</time></trkpt><trkpt lat="43.9209671" lon="12.4084613"><ele>360.3333333333333</ele><time>2026-04-30T15:05:14.187Z</time></trkpt><trkpt lat="43.9209334" lon="12.4083748"><ele>360.1666666666667</ele><time>2026-04-30T15:05:17.212Z</time></trkpt><trkpt lat="43.9208994" lon="12.4082907"><ele>360.0</ele><time>2026-04-30T15:05:20.208Z</time></trkpt><trkpt lat="43.9208531" lon="12.4081948"><ele>362.1428571428571</ele><time>2026-04-30T15:05:24.216Z</time></trkpt><trkpt lat="43.9208174" lon="12.4081104"><ele>364.28571428571433</ele><time>2026-04-30T15:05:28.19Z</time></trkpt><trkpt lat="43.9207727" lon="12.4080231"><ele>366.42857142857144</ele><time>2026-04-30T15:05:33.214Z</time></trkpt><trkpt lat="43.9207301" lon="12.4079576"><ele>368.57142857142856</ele><time>2026-04-30T15:05:37.201Z</time></trkpt><trkpt lat="43.9206792" lon="12.407898"><ele>370.71428571428567</ele><time>2026-04-30T15:05:43.224Z</time></trkpt><trkpt lat="43.9206238" lon="12.407846"><ele>372.8571428571429</ele><time>2026-04-30T15:05:48.231Z</time></trkpt><trkpt lat="43.9205584" lon="12.4078113"><ele>375.0</ele><time>2026-04-30T15:05:53.218Z</time></trkpt><trkpt lat="43.9204981" lon="12.407785"><ele>375.7142857142857</ele><time>2026-04-30T15:05:58.211Z</time></trkpt><trkpt lat="43.9204382" lon="12.4077499"><ele>376.4285714285714</ele><time>2026-04-30T15:06:03.226Z</time></trkpt><trkpt lat="43.9203859" lon="12.4076972"><ele>377.1428571428571</ele><time>2026-04-30T15:06:08.218Z</time></trkpt><trkpt lat="43.920323" lon="12.4076585"><ele>377.8571428571429</ele><time>2026-04-30T15:06:13.207Z</time></trkpt><trkpt lat="43.9202578" lon="12.4076219"><ele>378.57142857142856</ele><time>2026-04-30T15:06:18.203Z</time></trkpt><trkpt lat="43.9201936" lon="12.4075747"><ele>379.2857142857143</ele><time>2026-04-30T15:06:23.214Z</time></trkpt><trkpt lat="43.9201253" lon="12.4075571"><ele>380.0</ele><time>2026-04-30T15:06:28.223Z</time></trkpt><trkpt lat="43.9200636" lon="12.4075389"><ele>381.2857142857143</ele><time>2026-04-30T15:06:32.214Z</time></trkpt><trkpt lat="43.9199944" lon="12.4075212"><ele>382.57142857142856</ele><time>2026-04-30T15:06:36.222Z</time></trkpt><trkpt lat="43.9199273" lon="12.4074832"><ele>383.8571428571429</ele><time>2026-04-30T15:06:41.194Z</time></trkpt><trkpt lat="43.9198808" lon="12.4074056"><ele>385.1428571428571</ele><time>2026-04-30T15:06:46.218Z</time></trkpt><trkpt lat="43.9198507" lon="12.407328"><ele>386.4285714285714</ele><time>2026-04-30T15:06:50.184Z</time></trkpt><trkpt lat="43.91982" lon="12.4072496"><ele>387.7142857142857</ele><time>2026-04-30T15:06:54.224Z</time></trkpt><trkpt lat="43.9197875" lon="12.4071675"><ele>389.0</ele><time>2026-04-30T15:06:58.178Z</time></trkpt><trkpt lat="43.9197561" lon="12.4070765"><ele>389.8333333333333</ele><time>2026-04-30T15:07:03.204Z</time></trkpt><trkpt lat="43.9197249" lon="12.4069752"><ele>390.66666666666663</ele><time>2026-04-30T15:07:07.226Z</time></trkpt><trkpt lat="43.9196822" lon="12.4068917"><ele>391.5</ele><time>2026-04-30T15:07:11.206Z</time></trkpt><trkpt lat="43.9196498" lon="12.4068139"><ele>392.33333333333337</ele><time>2026-04-30T15:07:15.181Z</time></trkpt><trkpt lat="43.9196048" lon="12.4067233"><ele>393.1666666666667</ele><time>2026-04-30T15:07:19.219Z</time></trkpt><trkpt lat="43.9195572" lon="12.4066432"><ele>394.0</ele><time>2026-04-30T15:07:23.222Z</time></trkpt><trkpt lat="43.9195138" lon="12.4065527"><ele>394.0</ele><time>2026-04-30T15:07:27.195Z</time></trkpt><trkpt lat="43.9194736" lon="12.4064664"><ele>394.0</ele><time>2026-04-30T15:07:31.193Z</time></trkpt><trkpt lat="43.9194426" lon="12.4063902"><ele>394.0</ele><time>2026-04-30T15:07:34.216Z</time></trkpt><trkpt lat="43.9194084" lon="12.4062961"><ele>394.0</ele><time>2026-04-30T15:07:38.208Z</time></trkpt><trkpt lat="43.9193739" lon="12.4061854"><ele>394.0</ele><time>2026-04-30T15:07:42.205Z</time></trkpt><trkpt lat="43.9193404" lon="12.4061032"><ele>394.0</ele><time>2026-04-30T15:07:45.226Z</time></trkpt><trkpt lat="43.9193055" lon="12.4060086"><ele>394.0</ele><time>2026-04-30T15:07:48.205Z</time></trkpt><trkpt lat="43.9192694" lon="12.4059125"><ele>394.33333333333337</ele><time>2026-04-30T15:07:51.233Z</time></trkpt><trkpt lat="43.9192431" lon="12.405821"><ele>394.6666666666667</ele><time>2026-04-30T15:07:54.225Z</time></trkpt><trkpt lat="43.9192082" lon="12.4057041"><ele>395.0</ele><time>2026-04-30T15:07:57.238Z</time></trkpt><trkpt lat="43.9191791" lon="12.4056094"><ele>395.33333333333337</ele><time>2026-04-30T15:07:59.2Z</time></trkpt><trkpt lat="43.9191437" lon="12.4054924"><ele>395.6666666666667</ele><time>2026-04-30T15:08:01.18Z</time></trkpt><trkpt lat="43.9191043" lon="12.4053852"><ele>396.0</ele><time>2026-04-30T15:08:03.183Z</time></trkpt><trkpt lat="43.9190746" lon="12.4052962"><ele>398.8333333333333</ele><time>2026-04-30T15:08:05.226Z</time></trkpt><trkpt lat="43.9190401" lon="12.4052211"><ele>401.66666666666663</ele><time>2026-04-30T15:08:07.204Z</time></trkpt><trkpt lat="43.9189918" lon="12.4051153"><ele>404.5</ele><time>2026-04-30T15:08:10.211Z</time></trkpt><trkpt lat="43.9189509" lon="12.4050442"><ele>407.3333333333333</ele><time>2026-04-30T15:08:12.24Z</time></trkpt><trkpt lat="43.9189097" lon="12.4049496"><ele>410.16666666666663</ele><time>2026-04-30T15:08:14.214Z</time></trkpt><trkpt lat="43.9188656" lon="12.4048562"><ele>413.0</ele><time>2026-04-30T15:08:16.209Z</time></trkpt><trkpt lat="43.9188207" lon="12.4047692"><ele>412.99999999999994</ele><time>2026-04-30T15:08:18.223Z</time></trkpt><trkpt lat="43.9187842" lon="12.4046891"><ele>413.0</ele><time>2026-04-30T15:08:20.207Z</time></trkpt><trkpt lat="43.9187404" lon="12.4046136"><ele>413.0</ele><time>2026-04-30T15:08:22.184Z</time></trkpt><trkpt lat="43.9187003" lon="12.4045308"><ele>413.0</ele><time>2026-04-30T15:08:24.207Z</time></trkpt><trkpt lat="43.918659" lon="12.4044319"><ele>412.99999999999994</ele><time>2026-04-30T15:08:26.222Z</time></trkpt><trkpt lat="43.91861" lon="12.4043141"><ele>413.0</ele><time>2026-04-30T15:08:28.217Z</time></trkpt><trkpt lat="43.9185692" lon="12.4041769"><ele>412.66666666666663</ele><time>2026-04-30T15:08:30.224Z</time></trkpt><trkpt lat="43.9185236" lon="12.4040358"><ele>412.3333333333333</ele><time>2026-04-30T15:08:32.236Z</time></trkpt><trkpt lat="43.9184887" lon="12.4039178"><ele>412.0</ele><time>2026-04-30T15:08:34.226Z</time></trkpt><trkpt lat="43.9184616" lon="12.4038236"><ele>411.66666666666663</ele><time>2026-04-30T15:08:36.221Z</time></trkpt><trkpt lat="43.9184307" lon="12.4037255"><ele>411.3333333333333</ele><time>2026-04-30T15:08:40.24Z</time></trkpt><trkpt lat="43.9183687" lon="12.4036776"><ele>411.0</ele><time>2026-04-30T15:08:44.219Z</time></trkpt><trkpt lat="43.9183056" lon="12.4036333"><ele>411.0</ele><time>2026-04-30T15:08:48.219Z</time></trkpt><trkpt lat="43.9182382" lon="12.4035829"><ele>411.0</ele><time>2026-04-30T15:08:52.227Z</time></trkpt><trkpt lat="43.9181728" lon="12.4035485"><ele>411.0</ele><time>2026-04-30T15:08:55.216Z</time></trkpt><trkpt lat="43.9180985" lon="12.4035152"><ele>411.0</ele><time>2026-04-30T15:08:59.186Z</time></trkpt><trkpt lat="43.9180187" lon="12.4034966"><ele>411.0</ele><time>2026-04-30T15:09:03.17Z</time></trkpt><trkpt lat="43.9179561" lon="12.4034699"><ele>411.0</ele><time>2026-04-30T15:09:06.235Z</time></trkpt><trkpt lat="43.917874" lon="12.4034463"><ele>411.0</ele><time>2026-04-30T15:09:10.219Z</time></trkpt><trkpt lat="43.9178063" lon="12.4034113"><ele>411.0</ele><time>2026-04-30T15:09:13.212Z</time></trkpt><trkpt lat="43.9177224" lon="12.4033833"><ele>411.0</ele><time>2026-04-30T15:09:16.22Z</time></trkpt><trkpt lat="43.9176597" lon="12.4033593"><ele>411.0</ele><time>2026-04-30T15:09:18.229Z</time></trkpt><trkpt lat="43.917595" lon="12.4033355"><ele>411.0</ele><time>2026-04-30T15:09:20.231Z</time></trkpt><trkpt lat="43.9175205" lon="12.40332"><ele>411.0</ele><time>2026-04-30T15:09:22.217Z</time></trkpt><trkpt lat="43.9174497" lon="12.4032862"><ele>411.0</ele><time>2026-04-30T15:09:24.231Z</time></trkpt><trkpt lat="43.9173781" lon="12.4032566"><ele>412.3333333333333</ele><time>2026-04-30T15:09:26.218Z</time></trkpt><trkpt lat="43.917288" lon="12.4032193"><ele>413.66666666666663</ele><time>2026-04-30T15:09:29.233Z</time></trkpt><trkpt lat="43.9172108" lon="12.4031821"><ele>415.0</ele><time>2026-04-30T15:09:32.2Z</time></trkpt><trkpt lat="43.9171381" lon="12.4031341"><ele>416.3333333333333</ele><time>2026-04-30T15:09:36.203Z</time></trkpt><trkpt lat="43.9170708" lon="12.4030953"><ele>417.66666666666663</ele><time>2026-04-30T15:09:40.218Z</time></trkpt><trkpt lat="43.9170185" lon="12.4030387"><ele>419.0</ele><time>2026-04-30T15:09:43.185Z</time></trkpt><trkpt lat="43.9169727" lon="12.4029717"><ele>418.99999999999994</ele><time>2026-04-30T15:09:46.191Z</time></trkpt><trkpt lat="43.916924" lon="12.4028942"><ele>419.0</ele><time>2026-04-30T15:09:49.227Z</time></trkpt><trkpt lat="43.9168892" lon="12.4028096"><ele>419.0</ele><time>2026-04-30T15:09:52.247Z</time></trkpt><trkpt lat="43.9168637" lon="12.4027204"><ele>419.0</ele><time>2026-04-30T15:09:55.225Z</time></trkpt><trkpt lat="43.9168387" lon="12.4026248"><ele>419.0</ele><time>2026-04-30T15:09:59.234Z</time></trkpt><trkpt lat="43.9168103" lon="12.4025235"><ele>418.99999999999994</ele><time>2026-04-30T15:10:03.183Z</time></trkpt><trkpt lat="43.9167828" lon="12.4024255"><ele>419.0</ele><time>2026-04-30T15:10:07.223Z</time></trkpt><trkpt lat="43.9167545" lon="12.4023346"><ele>420.4285714285714</ele><time>2026-04-30T15:10:11.208Z</time></trkpt><trkpt lat="43.9167251" lon="12.4022376"><ele>421.85714285714283</ele><time>2026-04-30T15:10:15.204Z</time></trkpt><trkpt lat="43.9166905" lon="12.4021389"><ele>423.2857142857143</ele><time>2026-04-30T15:10:19.218Z</time></trkpt><trkpt lat="43.9166567" lon="12.4020376"><ele>424.71428571428567</ele><time>2026-04-30T15:10:23.226Z</time></trkpt><trkpt lat="43.9166219" lon="12.4019384"><ele>426.14285714285717</ele><time>2026-04-30T15:10:27.221Z</time></trkpt><trkpt lat="43.9165951" lon="12.4018584"><ele>427.57142857142856</ele><time>2026-04-30T15:10:30.234Z</time></trkpt><trkpt lat="43.9165653" lon="12.4017742"><ele>429.0</ele><time>2026-04-30T15:10:34.186Z</time></trkpt><trkpt lat="43.916536" lon="12.4016893"><ele>429.6666666666667</ele><time>2026-04-30T15:10:37.219Z</time></trkpt><trkpt lat="43.9164992" lon="12.4016004"><ele>430.33333333333337</ele><time>2026-04-30T15:10:40.214Z</time></trkpt><trkpt lat="43.916455" lon="12.4015075"><ele>431.0</ele><time>2026-04-30T15:10:43.222Z</time></trkpt><trkpt lat="43.9164188" lon="12.401402"><ele>431.6666666666667</ele><time>2026-04-30T15:10:46.207Z</time></trkpt><trkpt lat="43.9163796" lon="12.4013106"><ele>432.33333333333337</ele><time>2026-04-30T15:10:49.206Z</time></trkpt><trkpt lat="43.9163332" lon="12.4012289"><ele>433.0</ele><time>2026-04-30T15:10:53.229Z</time></trkpt><trkpt lat="43.916297" lon="12.401154"><ele>432.99999999999994</ele><time>2026-04-30T15:10:57.2Z</time></trkpt><trkpt lat="43.9162652" lon="12.4010618"><ele>433.0</ele><time>2026-04-30T15:11:01.204Z</time></trkpt><trkpt lat="43.9162324" lon="12.4009809"><ele>433.0</ele><time>2026-04-30T15:11:05.228Z</time></trkpt><trkpt lat="43.9161915" lon="12.4009047"><ele>433.0</ele><time>2026-04-30T15:11:08.241Z</time></trkpt><trkpt lat="43.9161493" lon="12.4008386"><ele>433.0</ele><time>2026-04-30T15:11:10.207Z</time></trkpt><trkpt lat="43.9161066" lon="12.4007697"><ele>432.99999999999994</ele><time>2026-04-30T15:11:12.214Z</time></trkpt><trkpt lat="43.9160612" lon="12.4007084"><ele>433.0</ele><time>2026-04-30T15:11:14.222Z</time></trkpt><trkpt lat="43.9160075" lon="12.4006156"><ele>432.99999999999994</ele><time>2026-04-30T15:11:17.243Z</time></trkpt><trkpt lat="43.9159556" lon="12.4005585"><ele>433.0</ele><time>2026-04-30T15:11:20.247Z</time></trkpt><trkpt lat="43.9158915" lon="12.4005046"><ele>433.0</ele><time>2026-04-30T15:11:24.174Z</time></trkpt><trkpt lat="43.9158207" lon="12.4004635"><ele>433.0</ele><time>2026-04-30T15:11:28.223Z</time></trkpt><trkpt lat="43.9157548" lon="12.400424"><ele>433.0</ele><time>2026-04-30T15:11:32.22Z</time></trkpt><trkpt lat="43.9157042" lon="12.4003714"><ele>432.99999999999994</ele><time>2026-04-30T15:11:35.199Z</time></trkpt><trkpt lat="43.9156525" lon="12.4003136"><ele>433.0</ele><time>2026-04-30T15:11:38.222Z</time></trkpt><trkpt lat="43.9156101" lon="12.4002381"><ele>435.4285714285714</ele><time>2026-04-30T15:11:41.195Z</time></trkpt><trkpt lat="43.9155675" lon="12.4001599"><ele>437.8571428571429</ele><time>2026-04-30T15:11:44.204Z</time></trkpt><trkpt lat="43.9155181" lon="12.4000927"><ele>440.28571428571433</ele><time>2026-04-30T15:11:47.214Z</time></trkpt><trkpt lat="43.9154635" lon="12.4000316"><ele>442.7142857142857</ele><time>2026-04-30T15:11:50.224Z</time></trkpt><trkpt lat="43.9154086" lon="12.3999857"><ele>445.14285714285717</ele><time>2026-04-30T15:11:53.204Z</time></trkpt><trkpt lat="43.9153532" lon="12.3999366"><ele>447.5714285714286</ele><time>2026-04-30T15:11:57.231Z</time></trkpt><trkpt lat="43.9152989" lon="12.3998871"><ele>450.00000000000006</ele><time>2026-04-30T15:12:01.202Z</time></trkpt><trkpt lat="43.9152394" lon="12.3998306"><ele>450.0</ele><time>2026-04-30T15:12:05.195Z</time></trkpt><trkpt lat="43.9151742" lon="12.3997662"><ele>450.0</ele><time>2026-04-30T15:12:09.231Z</time></trkpt><trkpt lat="43.9151122" lon="12.3997154"><ele>450.0</ele><time>2026-04-30T15:12:12.241Z</time></trkpt><trkpt lat="43.9150463" lon="12.3996651"><ele>450.0</ele><time>2026-04-30T15:12:15.183Z</time></trkpt><trkpt lat="43.9149809" lon="12.3996171"><ele>450.0</ele><time>2026-04-30T15:12:18.201Z</time></trkpt><trkpt lat="43.9149135" lon="12.3995493"><ele>450.0</ele><time>2026-04-30T15:12:22.233Z</time></trkpt><trkpt lat="43.9148527" lon="12.3994962"><ele>451.57142857142867</ele><time>2026-04-30T15:12:26.212Z</time></trkpt><trkpt lat="43.9148042" lon="12.3994328"><ele>453.14285714285717</ele><time>2026-04-30T15:12:30.156Z</time></trkpt><trkpt lat="43.9147423" lon="12.3993712"><ele>454.7142857142858</ele><time>2026-04-30T15:12:34.201Z</time></trkpt><trkpt lat="43.9146672" lon="12.3993878"><ele>456.28571428571433</ele><time>2026-04-30T15:12:37.197Z</time></trkpt><trkpt lat="43.9146032" lon="12.3993955"><ele>457.8571428571429</ele><time>2026-04-30T15:12:39.192Z</time></trkpt><trkpt lat="43.914525" lon="12.3994094"><ele>459.42857142857144</ele><time>2026-04-30T15:12:42.216Z</time></trkpt><trkpt lat="43.9144611" lon="12.3993905"><ele>461.0</ele><time>2026-04-30T15:12:44.2Z</time></trkpt><trkpt lat="43.9143806" lon="12.3993727"><ele>460.99999999999994</ele><time>2026-04-30T15:12:47.189Z</time></trkpt><trkpt lat="43.9143073" lon="12.3993554"><ele>461.0</ele><time>2026-04-30T15:12:50.205Z</time></trkpt><trkpt lat="43.9142282" lon="12.3993314"><ele>461.0</ele><time>2026-04-30T15:12:53.163Z</time></trkpt><trkpt lat="43.9141429" lon="12.3992956"><ele>461.0</ele><time>2026-04-30T15:12:56.216Z</time></trkpt><trkpt lat="43.9140636" lon="12.3992712"><ele>460.99999999999994</ele><time>2026-04-30T15:12:59.18Z</time></trkpt><trkpt lat="43.9139926" lon="12.3992727"><ele>461.0</ele><time>2026-04-30T15:13:02.229Z</time></trkpt><trkpt lat="43.9139162" lon="12.3992572"><ele>462.0</ele><time>2026-04-30T15:13:05.23Z</time></trkpt><trkpt lat="43.9138301" lon="12.3992458"><ele>463.0</ele><time>2026-04-30T15:13:08.201Z</time></trkpt><trkpt lat="43.9137469" lon="12.3992209"><ele>464.0</ele><time>2026-04-30T15:13:11.207Z</time></trkpt><trkpt lat="43.9136551" lon="12.3991814"><ele>465.0</ele><time>2026-04-30T15:13:14.182Z</time></trkpt><trkpt lat="43.9135637" lon="12.3991541"><ele>466.0</ele><time>2026-04-30T15:13:17.223Z</time></trkpt><trkpt lat="43.9134719" lon="12.3991294"><ele>467.0</ele><time>2026-04-30T15:13:20.21Z</time></trkpt><trkpt lat="43.9134037" lon="12.3991115"><ele>468.0</ele><time>2026-04-30T15:13:22.235Z</time></trkpt><trkpt lat="43.9133409" lon="12.3990946"><ele>469.0</ele><time>2026-04-30T15:13:24.23Z</time></trkpt><trkpt lat="43.9132762" lon="12.3990847"><ele>470.0</ele><time>2026-04-30T15:13:26.233Z</time></trkpt><trkpt lat="43.9131922" lon="12.3990888"><ele>471.0</ele><time>2026-04-30T15:13:29.208Z</time></trkpt><trkpt lat="43.9131204" lon="12.3991064"><ele>472.0</ele><time>2026-04-30T15:13:32.252Z</time></trkpt><trkpt lat="43.9130454" lon="12.3991334"><ele>473.0</ele><time>2026-04-30T15:13:35.197Z</time></trkpt><trkpt lat="43.9129735" lon="12.3991855"><ele>472.99999999999994</ele><time>2026-04-30T15:13:38.198Z</time></trkpt><trkpt lat="43.9129181" lon="12.3992774"><ele>473.0</ele><time>2026-04-30T15:13:41.238Z</time></trkpt><trkpt lat="43.9128791" lon="12.3993509"><ele>473.0</ele><time>2026-04-30T15:13:43.225Z</time></trkpt><trkpt lat="43.912843" lon="12.3994303"><ele>473.0</ele><time>2026-04-30T15:13:45.236Z</time></trkpt><trkpt lat="43.9128106" lon="12.3995097"><ele>472.99999999999994</ele><time>2026-04-30T15:13:47.207Z</time></trkpt><trkpt lat="43.9127614" lon="12.3996127"><ele>473.0</ele><time>2026-04-30T15:13:50.192Z</time></trkpt><trkpt lat="43.91271" lon="12.3997063"><ele>473.99999999999994</ele><time>2026-04-30T15:13:53.161Z</time></trkpt><trkpt lat="43.9126492" lon="12.3997783"><ele>475.0</ele><time>2026-04-30T15:13:56.183Z</time></trkpt><trkpt lat="43.9125945" lon="12.3998513"><ele>476.0</ele><time>2026-04-30T15:13:59.207Z</time></trkpt><trkpt lat="43.9125346" lon="12.3999203"><ele>477.0</ele><time>2026-04-30T15:14:02.202Z</time></trkpt><trkpt lat="43.9124715" lon="12.4000122"><ele>477.99999999999994</ele><time>2026-04-30T15:14:05.219Z</time></trkpt><trkpt lat="43.9124082" lon="12.4000843"><ele>479.0</ele><time>2026-04-30T15:14:08.227Z</time></trkpt><trkpt lat="43.9123494" lon="12.4001561"><ele>478.99999999999994</ele><time>2026-04-30T15:14:11.222Z</time></trkpt><trkpt lat="43.9122876" lon="12.4002286"><ele>479.0</ele><time>2026-04-30T15:14:14.184Z</time></trkpt><trkpt lat="43.9122193" lon="12.4002977"><ele>479.0</ele><time>2026-04-30T15:14:17.225Z</time></trkpt><trkpt lat="43.9121494" lon="12.4003672"><ele>479.0</ele><time>2026-04-30T15:14:20.186Z</time></trkpt><trkpt lat="43.9120868" lon="12.4004368"><ele>478.99999999999994</ele><time>2026-04-30T15:14:23.17Z</time></trkpt><trkpt lat="43.9120181" lon="12.4005145"><ele>479.0</ele><time>2026-04-30T15:14:26.203Z</time></trkpt><trkpt lat="43.9119455" lon="12.4005833"><ele>477.99999999999994</ele><time>2026-04-30T15:14:29.217Z</time></trkpt><trkpt lat="43.9118755" lon="12.4006476"><ele>477.0</ele><time>2026-04-30T15:14:32.259Z</time></trkpt><trkpt lat="43.9117973" lon="12.4006888"><ele>476.0</ele><time>2026-04-30T15:14:35.205Z</time></trkpt><trkpt lat="43.911709" lon="12.4007352"><ele>475.0</ele><time>2026-04-30T15:14:38.243Z</time></trkpt><trkpt lat="43.9116464" lon="12.4007615"><ele>473.99999999999994</ele><time>2026-04-30T15:14:40.217Z</time></trkpt><trkpt lat="43.9115831" lon="12.4007898"><ele>473.0</ele><time>2026-04-30T15:14:42.206Z</time></trkpt><trkpt lat="43.9114934" lon="12.4008228"><ele>475.16666666666663</ele><time>2026-04-30T15:14:45.198Z</time></trkpt><trkpt lat="43.9114278" lon="12.4008458"><ele>477.3333333333333</ele><time>2026-04-30T15:14:47.202Z</time></trkpt><trkpt lat="43.9113663" lon="12.4008669"><ele>479.5</ele><time>2026-04-30T15:14:49.203Z</time></trkpt><trkpt lat="43.9113041" lon="12.4008935"><ele>481.66666666666663</ele><time>2026-04-30T15:14:51.233Z</time></trkpt><trkpt lat="43.9112179" lon="12.4009351"><ele>483.8333333333333</ele><time>2026-04-30T15:14:54.205Z</time></trkpt><trkpt lat="43.9111255" lon="12.4009664"><ele>486.0</ele><time>2026-04-30T15:14:57.237Z</time></trkpt><trkpt lat="43.9110357" lon="12.4010036"><ele>486.0</ele><time>2026-04-30T15:15:00.226Z</time></trkpt><trkpt lat="43.9109502" lon="12.4010355"><ele>486.0</ele><time>2026-04-30T15:15:03.224Z</time></trkpt><trkpt lat="43.9108581" lon="12.4010625"><ele>486.0</ele><time>2026-04-30T15:15:06.234Z</time></trkpt><trkpt lat="43.9107954" lon="12.4010856"><ele>486.0</ele><time>2026-04-30T15:15:08.202Z</time></trkpt><trkpt lat="43.9107313" lon="12.4010985"><ele>486.0</ele><time>2026-04-30T15:15:10.212Z</time></trkpt><trkpt lat="43.910666" lon="12.4011085"><ele>486.0</ele><time>2026-04-30T15:15:12.228Z</time></trkpt><trkpt lat="43.9106025" lon="12.4011138"><ele>486.0</ele><time>2026-04-30T15:15:14.225Z</time></trkpt><trkpt lat="43.9105144" lon="12.401105"><ele>487.5</ele><time>2026-04-30T15:15:17.227Z</time></trkpt><trkpt lat="43.9104247" lon="12.4011083"><ele>489.0</ele><time>2026-04-30T15:15:20.216Z</time></trkpt><trkpt lat="43.9103611" lon="12.4011094"><ele>490.5</ele><time>2026-04-30T15:15:22.246Z</time></trkpt><trkpt lat="43.9102765" lon="12.4011081"><ele>492.0</ele><time>2026-04-30T15:15:25.218Z</time></trkpt><trkpt lat="43.9101941" lon="12.4011085"><ele>493.5</ele><time>2026-04-30T15:15:28.211Z</time></trkpt><trkpt lat="43.9101109" lon="12.4010997"><ele>495.0</ele><time>2026-04-30T15:15:31.228Z</time></trkpt><trkpt lat="43.9100278" lon="12.4010924"><ele>495.8333333333333</ele><time>2026-04-30T15:15:34.233Z</time></trkpt><trkpt lat="43.909946" lon="12.4010855"><ele>496.66666666666663</ele><time>2026-04-30T15:15:37.228Z</time></trkpt><trkpt lat="43.909869" lon="12.401075"><ele>497.5</ele><time>2026-04-30T15:15:40.194Z</time></trkpt><trkpt lat="43.9097953" lon="12.4010546"><ele>498.3333333333333</ele><time>2026-04-30T15:15:43.22Z</time></trkpt><trkpt lat="43.9097117" lon="12.4010552"><ele>499.16666666666663</ele><time>2026-04-30T15:15:46.223Z</time></trkpt><trkpt lat="43.9096305" lon="12.4010564"><ele>500.0</ele><time>2026-04-30T15:15:49.181Z</time></trkpt><trkpt lat="43.9095422" lon="12.4010673"><ele>499.99999999999994</ele><time>2026-04-30T15:15:52.153Z</time></trkpt><trkpt lat="43.9094482" lon="12.4010628"><ele>500.0</ele><time>2026-04-30T15:15:55.206Z</time></trkpt><trkpt lat="43.9093826" lon="12.4010711"><ele>500.0</ele><time>2026-04-30T15:15:57.162Z</time></trkpt><trkpt lat="43.9092931" lon="12.4010982"><ele>500.0</ele><time>2026-04-30T15:16:00.2Z</time></trkpt><trkpt lat="43.9092067" lon="12.4011257"><ele>499.99999999999994</ele><time>2026-04-30T15:16:03.211Z</time></trkpt><trkpt lat="43.9091311" lon="12.4011697"><ele>500.0</ele><time>2026-04-30T15:16:06.2Z</time></trkpt><trkpt lat="43.909058" lon="12.4012327"><ele>500.66666666666663</ele><time>2026-04-30T15:16:09.169Z</time></trkpt><trkpt lat="43.9089888" lon="12.4012967"><ele>501.3333333333333</ele><time>2026-04-30T15:16:12.22Z</time></trkpt><trkpt lat="43.9089325" lon="12.401368"><ele>502.0</ele><time>2026-04-30T15:16:15.231Z</time></trkpt><trkpt lat="43.9088753" lon="12.4014448"><ele>502.66666666666663</ele><time>2026-04-30T15:16:18.205Z</time></trkpt><trkpt lat="43.9088234" lon="12.4015292"><ele>503.3333333333333</ele><time>2026-04-30T15:16:21.165Z</time></trkpt><trkpt lat="43.9087768" lon="12.4016138"><ele>504.0</ele><time>2026-04-30T15:16:24.187Z</time></trkpt><trkpt lat="43.9087403" lon="12.4017056"><ele>504.0</ele><time>2026-04-30T15:16:27.216Z</time></trkpt><trkpt lat="43.9087054" lon="12.4017991"><ele>504.0</ele><time>2026-04-30T15:16:30.209Z</time></trkpt><trkpt lat="43.9086825" lon="12.4019101"><ele>504.0</ele><time>2026-04-30T15:16:33.215Z</time></trkpt><trkpt lat="43.9086645" lon="12.4020194"><ele>504.0</ele><time>2026-04-30T15:16:36.189Z</time></trkpt><trkpt lat="43.9086499" lon="12.4021179"><ele>504.0</ele><time>2026-04-30T15:16:39.204Z</time></trkpt><trkpt lat="43.9086343" lon="12.4022327"><ele>504.0</ele><time>2026-04-30T15:16:42.195Z</time></trkpt><trkpt lat="43.9086189" lon="12.402335"><ele>503.6666666666667</ele><time>2026-04-30T15:16:45.222Z</time></trkpt><trkpt lat="43.9085975" lon="12.4024434"><ele>503.33333333333337</ele><time>2026-04-30T15:16:48.23Z</time></trkpt><trkpt lat="43.9085689" lon="12.4025567"><ele>503.0</ele><time>2026-04-30T15:16:51.227Z</time></trkpt><trkpt lat="43.9085262" lon="12.4026656"><ele>502.6666666666667</ele><time>2026-04-30T15:16:54.184Z</time></trkpt><trkpt lat="43.9084954" lon="12.4027519"><ele>502.33333333333337</ele><time>2026-04-30T15:16:56.204Z</time></trkpt><trkpt lat="43.9084681" lon="12.402833"><ele>502.0</ele><time>2026-04-30T15:16:58.202Z</time></trkpt><trkpt lat="43.9084385" lon="12.4029581"><ele>502.83333333333337</ele><time>2026-04-30T15:17:01.169Z</time></trkpt><trkpt lat="43.9084183" lon="12.4030434"><ele>503.6666666666667</ele><time>2026-04-30T15:17:03.205Z</time></trkpt><trkpt lat="43.9083907" lon="12.4031599"><ele>504.5</ele><time>2026-04-30T15:17:06.208Z</time></trkpt><trkpt lat="43.9083618" lon="12.4032827"><ele>505.33333333333337</ele><time>2026-04-30T15:17:09.222Z</time></trkpt><trkpt lat="43.9083411" lon="12.4034031"><ele>506.1666666666667</ele><time>2026-04-30T15:17:12.223Z</time></trkpt><trkpt lat="43.9083341" lon="12.4034904"><ele>507.0</ele><time>2026-04-30T15:17:14.239Z</time></trkpt><trkpt lat="43.9083263" lon="12.4035805"><ele>509.5</ele><time>2026-04-30T15:17:16.221Z</time></trkpt><trkpt lat="43.9083276" lon="12.4037094"><ele>512.0</ele><time>2026-04-30T15:17:19.22Z</time></trkpt><trkpt lat="43.9083235" lon="12.4037973"><ele>514.5</ele><time>2026-04-30T15:17:21.202Z</time></trkpt><trkpt lat="43.9083212" lon="12.4039111"><ele>517.0</ele><time>2026-04-30T15:17:24.181Z</time></trkpt><trkpt lat="43.9083276" lon="12.404036"><ele>519.5</ele><time>2026-04-30T15:17:27.219Z</time></trkpt><trkpt lat="43.9083193" lon="12.4041538"><ele>522.0</ele><time>2026-04-30T15:17:30.234Z</time></trkpt><trkpt lat="43.9083067" lon="12.4042434"><ele>522.0</ele><time>2026-04-30T15:17:32.204Z</time></trkpt><trkpt lat="43.9082615" lon="12.4043489"><ele>522.0</ele><time>2026-04-30T15:17:35.211Z</time></trkpt><trkpt lat="43.9082046" lon="12.4044489"><ele>522.0</ele><time>2026-04-30T15:17:38.208Z</time></trkpt><trkpt lat="43.9081549" lon="12.4045072"><ele>522.0</ele><time>2026-04-30T15:17:40.218Z</time></trkpt><trkpt lat="43.9080812" lon="12.4045732"><ele>522.0</ele><time>2026-04-30T15:17:43.186Z</time></trkpt><trkpt lat="43.9080233" lon="12.4046173"><ele>522.0</ele><time>2026-04-30T15:17:45.2Z</time></trkpt><trkpt lat="43.9079381" lon="12.4046746"><ele>521.4285714285714</ele><time>2026-04-30T15:17:48.212Z</time></trkpt><trkpt lat="43.9078693" lon="12.4047122"><ele>520.8571428571429</ele><time>2026-04-30T15:17:50.225Z</time></trkpt><trkpt lat="43.907792" lon="12.4047455"><ele>520.2857142857142</ele><time>2026-04-30T15:17:52.169Z</time></trkpt><trkpt lat="43.9077252" lon="12.4047858"><ele>519.7142857142858</ele><time>2026-04-30T15:17:54.149Z</time></trkpt><trkpt lat="43.9076545" lon="12.4048103"><ele>519.1428571428571</ele><time>2026-04-30T15:17:56.163Z</time></trkpt><trkpt lat="43.9075957" lon="12.4048491"><ele>518.5714285714286</ele><time>2026-04-30T15:17:58.18Z</time></trkpt><trkpt lat="43.9075287" lon="12.4048919"><ele>518.0</ele><time>2026-04-30T15:18:00.164Z</time></trkpt><trkpt lat="43.9074476" lon="12.4048455"><ele>518.0</ele><time>2026-04-30T15:18:02.191Z</time></trkpt><trkpt lat="43.9073434" lon="12.4047908"><ele>518.0</ele><time>2026-04-30T15:18:04.15Z</time></trkpt><trkpt lat="43.9072489" lon="12.4047227"><ele>518.0</ele><time>2026-04-30T15:18:06.164Z</time></trkpt><trkpt lat="43.9071533" lon="12.4046231"><ele>518.0</ele><time>2026-04-30T15:18:08.183Z</time></trkpt><trkpt lat="43.9070541" lon="12.4045147"><ele>517.6</ele><time>2026-04-30T15:18:10.206Z</time></trkpt><trkpt lat="43.9069592" lon="12.4044206"><ele>517.1999999999999</ele><time>2026-04-30T15:18:12.192Z</time></trkpt><trkpt lat="43.9069081" lon="12.4043593"><ele>516.8</ele><time>2026-04-30T15:18:13.173Z</time></trkpt><trkpt lat="43.9068258" lon="12.4042359"><ele>516.4</ele><time>2026-04-30T15:18:15.178Z</time></trkpt><trkpt lat="43.906772" lon="12.4041044"><ele>516.0</ele><time>2026-04-30T15:18:17.194Z</time></trkpt><trkpt lat="43.9067137" lon="12.4039728"><ele>516.0</ele><time>2026-04-30T15:18:19.204Z</time></trkpt><trkpt lat="43.9066182" lon="12.4039375"><ele>516.0</ele><time>2026-04-30T15:18:21.153Z</time></trkpt><trkpt lat="43.9065315" lon="12.4040106"><ele>516.0</ele><time>2026-04-30T15:18:22.167Z</time></trkpt><trkpt lat="43.9064735" lon="12.4041019"><ele>516.0</ele><time>2026-04-30T15:18:23.16Z</time></trkpt><trkpt lat="43.9064323" lon="12.4041939"><ele>516.0</ele><time>2026-04-30T15:18:24.149Z</time></trkpt><trkpt lat="43.9063807" lon="12.4042954"><ele>516.0</ele><time>2026-04-30T15:18:25.178Z</time></trkpt><trkpt lat="43.90636" lon="12.4044083"><ele>516.0</ele><time>2026-04-30T15:18:26.199Z</time></trkpt><trkpt lat="43.906352" lon="12.4045381"><ele>516.0</ele><time>2026-04-30T15:18:27.213Z</time></trkpt><trkpt lat="43.9063458" lon="12.4046598"><ele>516.0</ele><time>2026-04-30T15:18:28.171Z</time></trkpt><trkpt lat="43.9063287" lon="12.4047813"><ele>516.0</ele><time>2026-04-30T15:18:29.198Z</time></trkpt><trkpt lat="43.9063062" lon="12.4049126"><ele>514.2</ele><time>2026-04-30T15:18:30.222Z</time></trkpt><trkpt lat="43.906263" lon="12.4050394"><ele>512.4000000000001</ele><time>2026-04-30T15:18:31.159Z</time></trkpt><trkpt lat="43.9061959" lon="12.4051451"><ele>510.6</ele><time>2026-04-30T15:18:32.23Z</time></trkpt><trkpt lat="43.9061175" lon="12.4052531"><ele>508.8</ele><time>2026-04-30T15:18:33.211Z</time></trkpt><trkpt lat="43.9060421" lon="12.4053444"><ele>507.0</ele><time>2026-04-30T15:18:34.246Z</time></trkpt><trkpt lat="43.9059577" lon="12.405434"><ele>505.0</ele><time>2026-04-30T15:18:35.22Z</time></trkpt><trkpt lat="43.9058807" lon="12.4055136"><ele>503.00000000000006</ele><time>2026-04-30T15:18:36.237Z</time></trkpt><trkpt lat="43.9058031" lon="12.4055817"><ele>501.00000000000006</ele><time>2026-04-30T15:18:37.218Z</time></trkpt><trkpt lat="43.905724" lon="12.4056477"><ele>499.0</ele><time>2026-04-30T15:18:38.209Z</time></trkpt><trkpt lat="43.9056428" lon="12.4057142"><ele>497.0</ele><time>2026-04-30T15:18:39.235Z</time></trkpt><trkpt lat="43.9055579" lon="12.4057739"><ele>496.99999999999994</ele><time>2026-04-30T15:18:40.229Z</time></trkpt><trkpt lat="43.9054698" lon="12.4058175"><ele>497.0</ele><time>2026-04-30T15:18:41.239Z</time></trkpt><trkpt lat="43.9053841" lon="12.4058546"><ele>497.0</ele><time>2026-04-30T15:18:42.227Z</time></trkpt><trkpt lat="43.9052997" lon="12.405888"><ele>497.0</ele><time>2026-04-30T15:18:43.235Z</time></trkpt><trkpt lat="43.9052162" lon="12.4059038"><ele>496.99999999999994</ele><time>2026-04-30T15:18:44.222Z</time></trkpt><trkpt lat="43.9051345" lon="12.4059144"><ele>497.0</ele><time>2026-04-30T15:18:45.238Z</time></trkpt><trkpt lat="43.9050517" lon="12.4059156"><ele>497.3333333333333</ele><time>2026-04-30T15:18:46.156Z</time></trkpt><trkpt lat="43.9049686" lon="12.4059214"><ele>497.66666666666663</ele><time>2026-04-30T15:18:47.216Z</time></trkpt><trkpt lat="43.9048919" lon="12.4059247"><ele>498.0</ele><time>2026-04-30T15:18:48.231Z</time></trkpt><trkpt lat="43.9048149" lon="12.4059277"><ele>498.33333333333337</ele><time>2026-04-30T15:18:49.224Z</time></trkpt><trkpt lat="43.90474" lon="12.4059237"><ele>498.6666666666667</ele><time>2026-04-30T15:18:50.24Z</time></trkpt><trkpt lat="43.904666" lon="12.4059113"><ele>499.0</ele><time>2026-04-30T15:18:51.208Z</time></trkpt><trkpt lat="43.9045961" lon="12.4059017"><ele>499.00000000000006</ele><time>2026-04-30T15:18:52.198Z</time></trkpt><trkpt lat="43.9045279" lon="12.4058836"><ele>499.0</ele><time>2026-04-30T15:18:53.211Z</time></trkpt><trkpt lat="43.9044604" lon="12.4058615"><ele>499.0</ele><time>2026-04-30T15:18:54.189Z</time></trkpt><trkpt lat="43.9043914" lon="12.4058455"><ele>499.0</ele><time>2026-04-30T15:18:55.173Z</time></trkpt><trkpt lat="43.9042619" lon="12.4058188"><ele>499.00000000000006</ele><time>2026-04-30T15:18:57.225Z</time></trkpt><trkpt lat="43.9041988" lon="12.4058019"><ele>499.0</ele><time>2026-04-30T15:18:58.223Z</time></trkpt><trkpt lat="43.9040833" lon="12.4057841"><ele>499.75</ele><time>2026-04-30T15:19:00.193Z</time></trkpt><trkpt lat="43.9039604" lon="12.4057613"><ele>500.5</ele><time>2026-04-30T15:19:02.183Z</time></trkpt><trkpt lat="43.9038414" lon="12.4057471"><ele>501.25</ele><time>2026-04-30T15:19:04.233Z</time></trkpt><trkpt lat="43.9037244" lon="12.4057316"><ele>502.0</ele><time>2026-04-30T15:19:06.213Z</time></trkpt><trkpt lat="43.9035989" lon="12.4057384"><ele>502.00000000000006</ele><time>2026-04-30T15:19:08.237Z</time></trkpt><trkpt lat="43.9034817" lon="12.405777"><ele>502.0</ele><time>2026-04-30T15:19:10.187Z</time></trkpt><trkpt lat="43.9034289" lon="12.4058248"><ele>502.0</ele><time>2026-04-30T15:19:11.199Z</time></trkpt><trkpt lat="43.9033748" lon="12.405881"><ele>502.0</ele><time>2026-04-30T15:19:12.222Z</time></trkpt><trkpt lat="43.903325" lon="12.4059477"><ele>502.00000000000006</ele><time>2026-04-30T15:19:13.205Z</time></trkpt><trkpt lat="43.9032734" lon="12.4060172"><ele>502.0</ele><time>2026-04-30T15:19:14.219Z</time></trkpt><trkpt lat="43.9032227" lon="12.4060908"><ele>501.99999999999994</ele><time>2026-04-30T15:19:15.223Z</time></trkpt><trkpt lat="43.9031676" lon="12.4061635"><ele>502.0</ele><time>2026-04-30T15:19:16.226Z</time></trkpt><trkpt lat="43.9031154" lon="12.4062308"><ele>501.99999999999994</ele><time>2026-04-30T15:19:17.191Z</time></trkpt><trkpt lat="43.9030556" lon="12.4062922"><ele>501.99999999999994</ele><time>2026-04-30T15:19:18.184Z</time></trkpt><trkpt lat="43.902999" lon="12.4063596"><ele>502.0</ele><time>2026-04-30T15:19:19.233Z</time></trkpt><trkpt lat="43.9029288" lon="12.4064137"><ele>501.99999999999994</ele><time>2026-04-30T15:19:20.216Z</time></trkpt><trkpt lat="43.9028707" lon="12.4064636"><ele>501.99999999999994</ele><time>2026-04-30T15:19:21.191Z</time></trkpt><trkpt lat="43.9028105" lon="12.4065085"><ele>503.00000000000006</ele><time>2026-04-30T15:19:22.232Z</time></trkpt><trkpt lat="43.9027535" lon="12.4065637"><ele>504.0</ele><time>2026-04-30T15:19:23.217Z</time></trkpt><trkpt lat="43.9027095" lon="12.406629"><ele>505.0</ele><time>2026-04-30T15:19:24.164Z</time></trkpt><trkpt lat="43.9026365" lon="12.4067671"><ele>506.0</ele><time>2026-04-30T15:19:26.2Z</time></trkpt><trkpt lat="43.9026065" lon="12.4068466"><ele>507.00000000000006</ele><time>2026-04-30T15:19:27.214Z</time></trkpt><trkpt lat="43.9025772" lon="12.4069319"><ele>508.0</ele><time>2026-04-30T15:19:28.204Z</time></trkpt><trkpt lat="43.9025496" lon="12.4070115"><ele>506.00000000000006</ele><time>2026-04-30T15:19:29.219Z</time></trkpt><trkpt lat="43.9024903" lon="12.4071687"><ele>504.0</ele><time>2026-04-30T15:19:31.206Z</time></trkpt><trkpt lat="43.9024629" lon="12.4072552"><ele>502.0</ele><time>2026-04-30T15:19:32.197Z</time></trkpt><trkpt lat="43.9024416" lon="12.4073401"><ele>500.0</ele><time>2026-04-30T15:19:33.216Z</time></trkpt><trkpt lat="43.9024184" lon="12.4074257"><ele>498.00000000000006</ele><time>2026-04-30T15:19:34.208Z</time></trkpt><trkpt lat="43.9023984" lon="12.4075141"><ele>496.0</ele><time>2026-04-30T15:19:35.218Z</time></trkpt><trkpt lat="43.9023756" lon="12.4075993"><ele>496.00000000000006</ele><time>2026-04-30T15:19:36.219Z</time></trkpt><trkpt lat="43.9023355" lon="12.4077618"><ele>496.0</ele><time>2026-04-30T15:19:38.236Z</time></trkpt><trkpt lat="43.9022922" lon="12.4079233"><ele>496.0</ele><time>2026-04-30T15:19:40.253Z</time></trkpt><trkpt lat="43.9022723" lon="12.4080069"><ele>496.0</ele><time>2026-04-30T15:19:41.202Z</time></trkpt><trkpt lat="43.9022462" lon="12.4080914"><ele>496.00000000000006</ele><time>2026-04-30T15:19:42.226Z</time></trkpt><trkpt lat="43.9022229" lon="12.4081768"><ele>496.0</ele><time>2026-04-30T15:19:43.199Z</time></trkpt><trkpt lat="43.902197" lon="12.4082666"><ele>495.8571428571429</ele><time>2026-04-30T15:19:44.233Z</time></trkpt><trkpt lat="43.9021796" lon="12.4083608"><ele>495.7142857142858</ele><time>2026-04-30T15:19:45.23Z</time></trkpt><trkpt lat="43.9021626" lon="12.4084504"><ele>495.57142857142856</ele><time>2026-04-30T15:19:46.213Z</time></trkpt><trkpt lat="43.9021477" lon="12.4085379"><ele>495.42857142857144</ele><time>2026-04-30T15:19:47.231Z</time></trkpt><trkpt lat="43.9021298" lon="12.4086284"><ele>495.2857142857143</ele><time>2026-04-30T15:19:48.214Z</time></trkpt><trkpt lat="43.9021122" lon="12.4087224"><ele>495.1428571428571</ele><time>2026-04-30T15:19:49.177Z</time></trkpt><trkpt lat="43.9020955" lon="12.408814"><ele>494.99999999999994</ele><time>2026-04-30T15:19:50.23Z</time></trkpt><trkpt lat="43.9020768" lon="12.4089129"><ele>494.6666666666667</ele><time>2026-04-30T15:19:51.179Z</time></trkpt><trkpt lat="43.9020591" lon="12.409008"><ele>494.33333333333337</ele><time>2026-04-30T15:19:52.213Z</time></trkpt><trkpt lat="43.9020293" lon="12.4090941"><ele>494.0</ele><time>2026-04-30T15:19:53.225Z</time></trkpt><trkpt lat="43.9020024" lon="12.409175"><ele>493.6666666666667</ele><time>2026-04-30T15:19:54.195Z</time></trkpt><trkpt lat="43.9019556" lon="12.409331"><ele>493.33333333333337</ele><time>2026-04-30T15:19:56.226Z</time></trkpt><trkpt lat="43.9018981" lon="12.4094693"><ele>493.0</ele><time>2026-04-30T15:19:58.213Z</time></trkpt><trkpt lat="43.9018481" lon="12.4096005"><ele>492.4</ele><time>2026-04-30T15:20:00.223Z</time></trkpt><trkpt lat="43.9017908" lon="12.4097189"><ele>491.79999999999995</ele><time>2026-04-30T15:20:02.181Z</time></trkpt><trkpt lat="43.9017376" lon="12.409836"><ele>491.2</ele><time>2026-04-30T15:20:04.215Z</time></trkpt><trkpt lat="43.9016795" lon="12.4099602"><ele>490.6</ele><time>2026-04-30T15:20:06.212Z</time></trkpt><trkpt lat="43.9016166" lon="12.410094"><ele>490.0</ele><time>2026-04-30T15:20:08.22Z</time></trkpt><trkpt lat="43.9015394" lon="12.4102199"><ele>490.0</ele><time>2026-04-30T15:20:10.227Z</time></trkpt><trkpt lat="43.9014505" lon="12.4103362"><ele>490.0</ele><time>2026-04-30T15:20:12.222Z</time></trkpt><trkpt lat="43.9013987" lon="12.4103895"><ele>490.0</ele><time>2026-04-30T15:20:13.211Z</time></trkpt><trkpt lat="43.9013024" lon="12.4105011"><ele>490.0</ele><time>2026-04-30T15:20:15.217Z</time></trkpt><trkpt lat="43.9012011" lon="12.410586"><ele>490.0</ele><time>2026-04-30T15:20:17.22Z</time></trkpt><trkpt lat="43.9010959" lon="12.4106773"><ele>490.75</ele><time>2026-04-30T15:20:19.216Z</time></trkpt><trkpt lat="43.900988" lon="12.410737"><ele>491.5</ele><time>2026-04-30T15:20:21.224Z</time></trkpt><trkpt lat="43.9008786" lon="12.4107979"><ele>492.25</ele><time>2026-04-30T15:20:23.221Z</time></trkpt><trkpt lat="43.9007647" lon="12.4108377"><ele>493.0</ele><time>2026-04-30T15:20:25.181Z</time></trkpt><trkpt lat="43.9006455" lon="12.4108934"><ele>493.0</ele><time>2026-04-30T15:20:27.237Z</time></trkpt><trkpt lat="43.9005349" lon="12.4109585"><ele>492.99999999999994</ele><time>2026-04-30T15:20:29.226Z</time></trkpt><trkpt lat="43.9004768" lon="12.4109969"><ele>492.99999999999994</ele><time>2026-04-30T15:20:30.194Z</time></trkpt><trkpt lat="43.9004212" lon="12.4110434"><ele>493.0</ele><time>2026-04-30T15:20:31.202Z</time></trkpt><trkpt lat="43.9003288" lon="12.411139"><ele>493.0</ele><time>2026-04-30T15:20:33.235Z</time></trkpt><trkpt lat="43.9002451" lon="12.4112588"><ele>493.4</ele><time>2026-04-30T15:20:35.162Z</time></trkpt><trkpt lat="43.9001861" lon="12.4113952"><ele>493.79999999999995</ele><time>2026-04-30T15:20:37.224Z</time></trkpt><trkpt lat="43.9001655" lon="12.4115551"><ele>494.2</ele><time>2026-04-30T15:20:39.198Z</time></trkpt><trkpt lat="43.9001726" lon="12.4117129"><ele>494.6</ele><time>2026-04-30T15:20:41.192Z</time></trkpt><trkpt lat="43.9001827" lon="12.411802"><ele>495.0</ele><time>2026-04-30T15:20:42.163Z</time></trkpt><trkpt lat="43.9002029" lon="12.4118885"><ele>494.99999999999994</ele><time>2026-04-30T15:20:43.165Z</time></trkpt><trkpt lat="43.9002304" lon="12.4119722"><ele>495.0</ele><time>2026-04-30T15:20:44.19Z</time></trkpt><trkpt lat="43.9002645" lon="12.4120592"><ele>494.99999999999994</ele><time>2026-04-30T15:20:45.169Z</time></trkpt><trkpt lat="43.9003038" lon="12.4121516"><ele>494.99999999999994</ele><time>2026-04-30T15:20:46.19Z</time></trkpt><trkpt lat="43.9003357" lon="12.4122319"><ele>495.0</ele><time>2026-04-30T15:20:47.181Z</time></trkpt><trkpt lat="43.9003699" lon="12.412306"><ele>494.99999999999994</ele><time>2026-04-30T15:20:48.189Z</time></trkpt><trkpt lat="43.9004033" lon="12.4123877"><ele>494.99999999999994</ele><time>2026-04-30T15:20:49.227Z</time></trkpt><trkpt lat="43.9004331" lon="12.4124698"><ele>494.6</ele><time>2026-04-30T15:20:50.24Z</time></trkpt><trkpt lat="43.9004575" lon="12.4125526"><ele>494.2</ele><time>2026-04-30T15:20:51.231Z</time></trkpt><trkpt lat="43.9005006" lon="12.4127104"><ele>493.79999999999995</ele><time>2026-04-30T15:20:53.158Z</time></trkpt><trkpt lat="43.9005111" lon="12.4128676"><ele>493.4</ele><time>2026-04-30T15:20:55.184Z</time></trkpt><trkpt lat="43.900495" lon="12.4130166"><ele>493.0</ele><time>2026-04-30T15:20:57.165Z</time></trkpt><trkpt lat="43.9004786" lon="12.4131726"><ele>492.79999999999995</ele><time>2026-04-30T15:20:59.229Z</time></trkpt><trkpt lat="43.9004608" lon="12.4133287"><ele>492.59999999999997</ele><time>2026-04-30T15:21:01.188Z</time></trkpt><trkpt lat="43.9004332" lon="12.4134476"><ele>492.40000000000003</ele><time>2026-04-30T15:21:03.178Z</time></trkpt><trkpt lat="43.9003626" lon="12.4135551"><ele>492.20000000000005</ele><time>2026-04-30T15:21:05.168Z</time></trkpt><trkpt lat="43.9002826" lon="12.4136544"><ele>492.0</ele><time>2026-04-30T15:21:07.189Z</time></trkpt><trkpt lat="43.9002112" lon="12.4137239"><ele>492.00000000000006</ele><time>2026-04-30T15:21:09.221Z</time></trkpt><trkpt lat="43.9001429" lon="12.4137603"><ele>492.0</ele><time>2026-04-30T15:21:11.222Z</time></trkpt><trkpt lat="43.9000721" lon="12.4137927"><ele>492.00000000000006</ele><time>2026-04-30T15:21:13.197Z</time></trkpt><trkpt lat="43.9000126" lon="12.4138268"><ele>492.00000000000006</ele><time>2026-04-30T15:21:15.23Z</time></trkpt><trkpt lat="43.8999462" lon="12.4138615"><ele>492.0</ele><time>2026-04-30T15:21:17.192Z</time></trkpt><trkpt lat="43.8998857" lon="12.413914"><ele>492.00000000000006</ele><time>2026-04-30T15:21:19.228Z</time></trkpt><trkpt lat="43.8998182" lon="12.4140042"><ele>492.00000000000006</ele><time>2026-04-30T15:21:22.224Z</time></trkpt><trkpt lat="43.8997751" lon="12.4140739"><ele>492.5</ele><time>2026-04-30T15:21:24.188Z</time></trkpt><trkpt lat="43.8997642" lon="12.4142063"><ele>493.0</ele><time>2026-04-30T15:21:27.234Z</time></trkpt><trkpt lat="43.8997705" lon="12.4142999"><ele>493.5</ele><time>2026-04-30T15:21:29.222Z</time></trkpt><trkpt lat="43.8997788" lon="12.414395"><ele>494.0</ele><time>2026-04-30T15:21:31.181Z</time></trkpt><trkpt lat="43.8997929" lon="12.4145279"><ele>494.5</ele><time>2026-04-30T15:21:34.231Z</time></trkpt><trkpt lat="43.8998035" lon="12.4146222"><ele>495.0</ele><time>2026-04-30T15:21:36.222Z</time></trkpt><trkpt lat="43.8998163" lon="12.4147155"><ele>495.71428571428567</ele><time>2026-04-30T15:21:38.206Z</time></trkpt><trkpt lat="43.8998315" lon="12.4148109"><ele>496.42857142857144</ele><time>2026-04-30T15:21:40.223Z</time></trkpt><trkpt lat="43.8998406" lon="12.4149043"><ele>497.1428571428571</ele><time>2026-04-30T15:21:42.229Z</time></trkpt><trkpt lat="43.8998522" lon="12.4149941"><ele>497.85714285714283</ele><time>2026-04-30T15:21:44.233Z</time></trkpt><trkpt lat="43.8998637" lon="12.4150863"><ele>498.57142857142856</ele><time>2026-04-30T15:21:46.236Z</time></trkpt><trkpt lat="43.8998714" lon="12.4151767"><ele>499.2857142857143</ele><time>2026-04-30T15:21:48.235Z</time></trkpt><trkpt lat="43.8998795" lon="12.4152667"><ele>500.0</ele><time>2026-04-30T15:21:50.208Z</time></trkpt><trkpt lat="43.8998806" lon="12.4153554"><ele>500.0</ele><time>2026-04-30T15:21:52.231Z</time></trkpt><trkpt lat="43.8998749" lon="12.4154429"><ele>500.0</ele><time>2026-04-30T15:21:54.249Z</time></trkpt><trkpt lat="43.8998683" lon="12.4155341"><ele>500.0</ele><time>2026-04-30T15:21:56.233Z</time></trkpt><trkpt lat="43.8998545" lon="12.415629"><ele>500.0</ele><time>2026-04-30T15:21:58.203Z</time></trkpt><trkpt lat="43.8998367" lon="12.4157233"><ele>500.0</ele><time>2026-04-30T15:22:00.234Z</time></trkpt><trkpt lat="43.8998079" lon="12.4158097"><ele>500.0</ele><time>2026-04-30T15:22:02.234Z</time></trkpt><trkpt lat="43.8997737" lon="12.4158968"><ele>500.0</ele><time>2026-04-30T15:22:04.219Z</time></trkpt><trkpt lat="43.8997362" lon="12.415979"><ele>500.8333333333333</ele><time>2026-04-30T15:22:06.228Z</time></trkpt><trkpt lat="43.8997027" lon="12.4160571"><ele>501.66666666666663</ele><time>2026-04-30T15:22:08.222Z</time></trkpt><trkpt lat="43.899668" lon="12.4161314"><ele>502.5</ele><time>2026-04-30T15:22:10.235Z</time></trkpt><trkpt lat="43.8996121" lon="12.41623"><ele>503.33333333333337</ele><time>2026-04-30T15:22:13.23Z</time></trkpt><trkpt lat="43.899548" lon="12.4163263"><ele>504.1666666666667</ele><time>2026-04-30T15:22:16.219Z</time></trkpt><trkpt lat="43.8994724" lon="12.4164028"><ele>505.0</ele><time>2026-04-30T15:22:19.231Z</time></trkpt><trkpt lat="43.8994237" lon="12.4164623"><ele>505.6666666666667</ele><time>2026-04-30T15:22:21.235Z</time></trkpt><trkpt lat="43.8993658" lon="12.4165103"><ele>506.33333333333337</ele><time>2026-04-30T15:22:23.235Z</time></trkpt><trkpt lat="43.8992939" lon="12.4165827"><ele>507.0</ele><time>2026-04-30T15:22:26.26Z</time></trkpt><trkpt lat="43.8992313" lon="12.4166245"><ele>507.66666666666663</ele><time>2026-04-30T15:22:28.223Z</time></trkpt><trkpt lat="43.8991758" lon="12.4166668"><ele>508.3333333333333</ele><time>2026-04-30T15:22:30.2Z</time></trkpt><trkpt lat="43.8991022" lon="12.416733"><ele>509.0</ele><time>2026-04-30T15:22:33.209Z</time></trkpt><trkpt lat="43.8990274" lon="12.4168076"><ele>508.99999999999994</ele><time>2026-04-30T15:22:36.248Z</time></trkpt><trkpt lat="43.8989654" lon="12.4168783"><ele>509.0</ele><time>2026-04-30T15:22:39.172Z</time></trkpt><trkpt lat="43.8989022" lon="12.4169486"><ele>509.0</ele><time>2026-04-30T15:22:42.185Z</time></trkpt><trkpt lat="43.8988415" lon="12.4170247"><ele>509.0</ele><time>2026-04-30T15:22:45.168Z</time></trkpt><trkpt lat="43.8987732" lon="12.4171077"><ele>508.99999999999994</ele><time>2026-04-30T15:22:48.184Z</time></trkpt><trkpt lat="43.8987258" lon="12.4171669"><ele>509.0</ele><time>2026-04-30T15:22:50.174Z</time></trkpt><trkpt lat="43.8986583" lon="12.4172492"><ele>510.16666666666663</ele><time>2026-04-30T15:22:53.179Z</time></trkpt><trkpt lat="43.8985898" lon="12.4173131"><ele>511.3333333333333</ele><time>2026-04-30T15:22:56.179Z</time></trkpt><trkpt lat="43.8985176" lon="12.4173873"><ele>512.5</ele><time>2026-04-30T15:22:59.161Z</time></trkpt><trkpt lat="43.8984379" lon="12.4174508"><ele>513.6666666666666</ele><time>2026-04-30T15:23:02.181Z</time></trkpt><trkpt lat="43.8983616" lon="12.4175131"><ele>514.8333333333334</ele><time>2026-04-30T15:23:05.187Z</time></trkpt><trkpt lat="43.8983072" lon="12.4175576"><ele>516.0</ele><time>2026-04-30T15:23:07.228Z</time></trkpt><trkpt lat="43.8982254" lon="12.417607"><ele>516.0</ele><time>2026-04-30T15:23:10.165Z</time></trkpt><trkpt lat="43.8981399" lon="12.4176486"><ele>516.0</ele><time>2026-04-30T15:23:13.192Z</time></trkpt><trkpt lat="43.8980595" lon="12.4176844"><ele>516.0</ele><time>2026-04-30T15:23:16.188Z</time></trkpt><trkpt lat="43.8979773" lon="12.417719"><ele>516.0</ele><time>2026-04-30T15:23:19.158Z</time></trkpt><trkpt lat="43.8978895" lon="12.4177503"><ele>516.0</ele><time>2026-04-30T15:23:22.23Z</time></trkpt><trkpt lat="43.897804" lon="12.417784"><ele>516.0</ele><time>2026-04-30T15:23:25.197Z</time></trkpt><trkpt lat="43.8977414" lon="12.4178228"><ele>516.0</ele><time>2026-04-30T15:23:27.225Z</time></trkpt><trkpt lat="43.8976754" lon="12.4178574"><ele>516.0</ele><time>2026-04-30T15:23:29.228Z</time></trkpt><trkpt lat="43.897609" lon="12.4178997"><ele>516.0</ele><time>2026-04-30T15:23:31.23Z</time></trkpt><trkpt lat="43.8975442" lon="12.4179407"><ele>516.0</ele><time>2026-04-30T15:23:33.231Z</time></trkpt><trkpt lat="43.8974598" lon="12.4179927"><ele>516.0</ele><time>2026-04-30T15:23:36.232Z</time></trkpt><trkpt lat="43.8973842" lon="12.4180446"><ele>516.0</ele><time>2026-04-30T15:23:39.222Z</time></trkpt><trkpt lat="43.8973088" lon="12.4181039"><ele>517.1666666666666</ele><time>2026-04-30T15:23:42.181Z</time></trkpt><trkpt lat="43.8972373" lon="12.4181502"><ele>518.3333333333334</ele><time>2026-04-30T15:23:45.179Z</time></trkpt><trkpt lat="43.8971609" lon="12.4181999"><ele>519.5</ele><time>2026-04-30T15:23:48.234Z</time></trkpt><trkpt lat="43.8971043" lon="12.4182392"><ele>520.6666666666667</ele><time>2026-04-30T15:23:50.229Z</time></trkpt><trkpt lat="43.8970382" lon="12.4182713"><ele>521.8333333333334</ele><time>2026-04-30T15:23:52.214Z</time></trkpt><trkpt lat="43.8969697" lon="12.4183145"><ele>523.0</ele><time>2026-04-30T15:23:54.215Z</time></trkpt><trkpt lat="43.8968938" lon="12.4183467"><ele>523.0</ele><time>2026-04-30T15:23:56.194Z</time></trkpt><trkpt lat="43.8968117" lon="12.4183481"><ele>523.0</ele><time>2026-04-30T15:23:58.23Z</time></trkpt><trkpt lat="43.8967246" lon="12.4183381"><ele>523.0</ele><time>2026-04-30T15:24:00.238Z</time></trkpt><trkpt lat="43.8966278" lon="12.4183135"><ele>523.0</ele><time>2026-04-30T15:24:02.239Z</time></trkpt><trkpt lat="43.8965288" lon="12.418264"><ele>523.0</ele><time>2026-04-30T15:24:04.232Z</time></trkpt><trkpt lat="43.8964461" lon="12.4181797"><ele>523.75</ele><time>2026-04-30T15:24:06.207Z</time></trkpt><trkpt lat="43.8963882" lon="12.4180401"><ele>524.5</ele><time>2026-04-30T15:24:08.189Z</time></trkpt><trkpt lat="43.8963404" lon="12.4178972"><ele>525.25</ele><time>2026-04-30T15:24:10.185Z</time></trkpt><trkpt lat="43.8963036" lon="12.4177498"><ele>526.0</ele><time>2026-04-30T15:24:12.197Z</time></trkpt><trkpt lat="43.896269" lon="12.4175978"><ele>525.6666666666667</ele><time>2026-04-30T15:24:14.209Z</time></trkpt><trkpt lat="43.8962447" lon="12.4175126"><ele>525.3333333333334</ele><time>2026-04-30T15:24:15.176Z</time></trkpt><trkpt lat="43.8962072" lon="12.4174351"><ele>525.0</ele><time>2026-04-30T15:24:16.188Z</time></trkpt><trkpt lat="43.8961153" lon="12.417328"><ele>524.6666666666666</ele><time>2026-04-30T15:24:18.208Z</time></trkpt><trkpt lat="43.8959993" lon="12.4172636"><ele>524.3333333333333</ele><time>2026-04-30T15:24:20.231Z</time></trkpt><trkpt lat="43.8959316" lon="12.4172565"><ele>524.0</ele><time>2026-04-30T15:24:21.217Z</time></trkpt><trkpt lat="43.8958675" lon="12.4172554"><ele>524.0</ele><time>2026-04-30T15:24:22.223Z</time></trkpt><trkpt lat="43.8958018" lon="12.41727"><ele>524.0</ele><time>2026-04-30T15:24:23.218Z</time></trkpt><trkpt lat="43.8957373" lon="12.4172824"><ele>524.0</ele><time>2026-04-30T15:24:24.216Z</time></trkpt><trkpt lat="43.8956676" lon="12.417296"><ele>524.0</ele><time>2026-04-30T15:24:25.212Z</time></trkpt><trkpt lat="43.8956001" lon="12.4173103"><ele>524.0</ele><time>2026-04-30T15:24:26.216Z</time></trkpt><trkpt lat="43.8955289" lon="12.4173145"><ele>524.0</ele><time>2026-04-30T15:24:27.224Z</time></trkpt><trkpt lat="43.895463" lon="12.417314"><ele>524.0</ele><time>2026-04-30T15:24:28.228Z</time></trkpt><trkpt lat="43.8953918" lon="12.4173021"><ele>524.0</ele><time>2026-04-30T15:24:29.219Z</time></trkpt><trkpt lat="43.8953151" lon="12.4172835"><ele>524.0</ele><time>2026-04-30T15:24:30.211Z</time></trkpt><trkpt lat="43.8952455" lon="12.4172518"><ele>524.0</ele><time>2026-04-30T15:24:31.218Z</time></trkpt><trkpt lat="43.8951769" lon="12.4172117"><ele>524.0</ele><time>2026-04-30T15:24:32.223Z</time></trkpt><trkpt lat="43.8951046" lon="12.4171646"><ele>524.0</ele><time>2026-04-30T15:24:33.213Z</time></trkpt><trkpt lat="43.8950393" lon="12.4171239"><ele>524.0</ele><time>2026-04-30T15:24:34.223Z</time></trkpt><trkpt lat="43.8949771" lon="12.4170801"><ele>524.0</ele><time>2026-04-30T15:24:35.21Z</time></trkpt><trkpt lat="43.8949125" lon="12.417027"><ele>522.1666666666666</ele><time>2026-04-30T15:24:36.212Z</time></trkpt><trkpt lat="43.8948459" lon="12.4169789"><ele>520.3333333333333</ele><time>2026-04-30T15:24:37.235Z</time></trkpt><trkpt lat="43.8947816" lon="12.4169287"><ele>518.5</ele><time>2026-04-30T15:24:38.203Z</time></trkpt><trkpt lat="43.8947153" lon="12.4168711"><ele>516.6666666666666</ele><time>2026-04-30T15:24:39.227Z</time></trkpt><trkpt lat="43.8946532" lon="12.4168057"><ele>514.8333333333334</ele><time>2026-04-30T15:24:40.239Z</time></trkpt><trkpt lat="43.8945945" lon="12.4167248"><ele>513.0</ele><time>2026-04-30T15:24:41.204Z</time></trkpt><trkpt lat="43.8945424" lon="12.4166277"><ele>513.0</ele><time>2026-04-30T15:24:42.193Z</time></trkpt><trkpt lat="43.8944982" lon="12.4165342"><ele>513.0</ele><time>2026-04-30T15:24:43.169Z</time></trkpt><trkpt lat="43.894444" lon="12.4164495"><ele>513.0</ele><time>2026-04-30T15:24:44.234Z</time></trkpt><trkpt lat="43.8943784" lon="12.4163697"><ele>513.0</ele><time>2026-04-30T15:24:45.204Z</time></trkpt><trkpt lat="43.8943131" lon="12.4162942"><ele>513.0</ele><time>2026-04-30T15:24:46.196Z</time></trkpt><trkpt lat="43.8942471" lon="12.4162193"><ele>513.0</ele><time>2026-04-30T15:24:47.191Z</time></trkpt><trkpt lat="43.894193" lon="12.4161481"><ele>513.1666666666666</ele><time>2026-04-30T15:24:48.229Z</time></trkpt><trkpt lat="43.8941311" lon="12.416069"><ele>513.3333333333334</ele><time>2026-04-30T15:24:49.227Z</time></trkpt><trkpt lat="43.8940748" lon="12.4159961"><ele>513.5</ele><time>2026-04-30T15:24:50.223Z</time></trkpt><trkpt lat="43.8940137" lon="12.41591"><ele>513.6666666666667</ele><time>2026-04-30T15:24:51.226Z</time></trkpt><trkpt lat="43.893954" lon="12.4158263"><ele>513.8333333333334</ele><time>2026-04-30T15:24:52.189Z</time></trkpt><trkpt lat="43.8938972" lon="12.4157371"><ele>514.0</ele><time>2026-04-30T15:24:53.228Z</time></trkpt><trkpt lat="43.8938363" lon="12.4156601"><ele>514.0</ele><time>2026-04-30T15:24:54.223Z</time></trkpt><trkpt lat="43.893773" lon="12.4155795"><ele>514.0</ele><time>2026-04-30T15:24:55.228Z</time></trkpt><trkpt lat="43.8937058" lon="12.4155108"><ele>514.0</ele><time>2026-04-30T15:24:56.206Z</time></trkpt><trkpt lat="43.8936416" lon="12.4154372"><ele>514.0</ele><time>2026-04-30T15:24:57.215Z</time></trkpt><trkpt lat="43.8935685" lon="12.4153679"><ele>514.0</ele><time>2026-04-30T15:24:58.187Z</time></trkpt><trkpt lat="43.8934954" lon="12.4152919"><ele>514.0</ele><time>2026-04-30T15:24:59.204Z</time></trkpt><trkpt lat="43.8934227" lon="12.4152031"><ele>513.8</ele><time>2026-04-30T15:25:00.212Z</time></trkpt><trkpt lat="43.8933602" lon="12.4151057"><ele>513.5999999999999</ele><time>2026-04-30T15:25:01.211Z</time></trkpt><trkpt lat="43.8932989" lon="12.4150119"><ele>513.4</ele><time>2026-04-30T15:25:02.214Z</time></trkpt><trkpt lat="43.893237" lon="12.4149152"><ele>513.1999999999999</ele><time>2026-04-30T15:25:03.216Z</time></trkpt><trkpt lat="43.893179" lon="12.4148175"><ele>513.0</ele><time>2026-04-30T15:25:04.217Z</time></trkpt><trkpt lat="43.8931173" lon="12.4147233"><ele>510.79999999999995</ele><time>2026-04-30T15:25:05.212Z</time></trkpt><trkpt lat="43.8930452" lon="12.4146354"><ele>508.59999999999997</ele><time>2026-04-30T15:25:06.222Z</time></trkpt><trkpt lat="43.8929747" lon="12.414552"><ele>506.40000000000003</ele><time>2026-04-30T15:25:07.22Z</time></trkpt><trkpt lat="43.8929012" lon="12.4144698"><ele>504.20000000000005</ele><time>2026-04-30T15:25:08.225Z</time></trkpt><trkpt lat="43.8928202" lon="12.4143785"><ele>502.0</ele><time>2026-04-30T15:25:09.197Z</time></trkpt><trkpt lat="43.8927469" lon="12.4142744"><ele>502.0</ele><time>2026-04-30T15:25:10.213Z</time></trkpt><trkpt lat="43.8926785" lon="12.4141692"><ele>502.00000000000006</ele><time>2026-04-30T15:25:11.231Z</time></trkpt><trkpt lat="43.8926121" lon="12.4140729"><ele>502.00000000000006</ele><time>2026-04-30T15:25:12.204Z</time></trkpt><trkpt lat="43.8925474" lon="12.4139816"><ele>502.0</ele><time>2026-04-30T15:25:13.218Z</time></trkpt><trkpt lat="43.892485" lon="12.4138844"><ele>502.0</ele><time>2026-04-30T15:25:14.213Z</time></trkpt><trkpt lat="43.8924173" lon="12.4138088"><ele>501.40000000000003</ele><time>2026-04-30T15:25:15.23Z</time></trkpt><trkpt lat="43.8923343" lon="12.4137644"><ele>500.80000000000007</ele><time>2026-04-30T15:25:16.181Z</time></trkpt><trkpt lat="43.8922365" lon="12.4137374"><ele>500.2</ele><time>2026-04-30T15:25:17.218Z</time></trkpt><trkpt lat="43.8921384" lon="12.4137418"><ele>499.6</ele><time>2026-04-30T15:25:18.204Z</time></trkpt><trkpt lat="43.892048" lon="12.413744"><ele>499.0</ele><time>2026-04-30T15:25:19.199Z</time></trkpt><trkpt lat="43.8919585" lon="12.4137568"><ele>499.00000000000006</ele><time>2026-04-30T15:25:20.221Z</time></trkpt><trkpt lat="43.891868" lon="12.4137667"><ele>499.0</ele><time>2026-04-30T15:25:21.184Z</time></trkpt><trkpt lat="43.8917772" lon="12.4137536"><ele>499.0</ele><time>2026-04-30T15:25:22.226Z</time></trkpt><trkpt lat="43.8917058" lon="12.413718"><ele>499.0</ele><time>2026-04-30T15:25:23.208Z</time></trkpt><trkpt lat="43.8916536" lon="12.4136254"><ele>499.00000000000006</ele><time>2026-04-30T15:25:24.203Z</time></trkpt><trkpt lat="43.8916302" lon="12.4134996"><ele>499.0</ele><time>2026-04-30T15:25:25.217Z</time></trkpt><trkpt lat="43.8916366" lon="12.4133839"><ele>499.50000000000006</ele><time>2026-04-30T15:25:26.199Z</time></trkpt><trkpt lat="43.89164" lon="12.4132637"><ele>500.0</ele><time>2026-04-30T15:25:27.173Z</time></trkpt><trkpt lat="43.8916467" lon="12.4131502"><ele>500.5</ele><time>2026-04-30T15:25:28.204Z</time></trkpt><trkpt lat="43.891648" lon="12.4130334"><ele>501.0</ele><time>2026-04-30T15:25:29.198Z</time></trkpt><trkpt lat="43.8916189" lon="12.4129275"><ele>501.50000000000006</ele><time>2026-04-30T15:25:30.222Z</time></trkpt><trkpt lat="43.8915697" lon="12.4128353"><ele>502.0</ele><time>2026-04-30T15:25:31.199Z</time></trkpt><trkpt lat="43.8915146" lon="12.4127461"><ele>502.00000000000006</ele><time>2026-04-30T15:25:32.195Z</time></trkpt><trkpt lat="43.8914546" lon="12.4126492"><ele>502.0</ele><time>2026-04-30T15:25:33.222Z</time></trkpt><trkpt lat="43.8914014" lon="12.4125556"><ele>502.0</ele><time>2026-04-30T15:25:34.217Z</time></trkpt><trkpt lat="43.8913446" lon="12.4124698"><ele>502.0</ele><time>2026-04-30T15:25:35.205Z</time></trkpt><trkpt lat="43.8912853" lon="12.4123823"><ele>502.00000000000006</ele><time>2026-04-30T15:25:36.199Z</time></trkpt><trkpt lat="43.8912297" lon="12.4122935"><ele>502.0</ele><time>2026-04-30T15:25:37.207Z</time></trkpt><trkpt lat="43.8911835" lon="12.4122069"><ele>502.00000000000006</ele><time>2026-04-30T15:25:38.18Z</time></trkpt><trkpt lat="43.8911483" lon="12.4121129"><ele>502.0</ele><time>2026-04-30T15:25:39.203Z</time></trkpt><trkpt lat="43.891109" lon="12.4120184"><ele>502.0</ele><time>2026-04-30T15:25:40.2Z</time></trkpt><trkpt lat="43.8910867" lon="12.4119198"><ele>502.0</ele><time>2026-04-30T15:25:41.211Z</time></trkpt><trkpt lat="43.8910806" lon="12.4118045"><ele>502.00000000000006</ele><time>2026-04-30T15:25:42.17Z</time></trkpt><trkpt lat="43.8910735" lon="12.4116846"><ele>502.0</ele><time>2026-04-30T15:25:43.195Z</time></trkpt><trkpt lat="43.8910701" lon="12.411561"><ele>502.00000000000006</ele><time>2026-04-30T15:25:44.178Z</time></trkpt><trkpt lat="43.8910703" lon="12.4114329"><ele>502.0</ele><time>2026-04-30T15:25:45.197Z</time></trkpt><trkpt lat="43.891077" lon="12.4113113"><ele>502.0</ele><time>2026-04-30T15:25:46.171Z</time></trkpt><trkpt lat="43.8910928" lon="12.4112004"><ele>502.0</ele><time>2026-04-30T15:25:47.19Z</time></trkpt><trkpt lat="43.8911137" lon="12.4110899"><ele>502.00000000000006</ele><time>2026-04-30T15:25:48.192Z</time></trkpt><trkpt lat="43.8911435" lon="12.4109978"><ele>502.0</ele><time>2026-04-30T15:25:49.198Z</time></trkpt><trkpt lat="43.8911893" lon="12.4109375"><ele>500.6666666666667</ele><time>2026-04-30T15:25:50.226Z</time></trkpt><trkpt lat="43.8912566" lon="12.4109006"><ele>499.33333333333337</ele><time>2026-04-30T15:25:51.194Z</time></trkpt><trkpt lat="43.8913265" lon="12.4109021"><ele>498.0</ele><time>2026-04-30T15:25:52.193Z</time></trkpt><trkpt lat="43.8914016" lon="12.4108972"><ele>496.66666666666663</ele><time>2026-04-30T15:25:53.221Z</time></trkpt><trkpt lat="43.891473" lon="12.4108824"><ele>495.3333333333333</ele><time>2026-04-30T15:25:54.211Z</time></trkpt><trkpt lat="43.891547" lon="12.4108456"><ele>494.0</ele><time>2026-04-30T15:25:55.216Z</time></trkpt><trkpt lat="43.8915858" lon="12.4107436"><ele>494.0</ele><time>2026-04-30T15:25:56.219Z</time></trkpt><trkpt lat="43.8916104" lon="12.410599"><ele>494.0</ele><time>2026-04-30T15:25:57.22Z</time></trkpt><trkpt lat="43.8916215" lon="12.4104592"><ele>494.0</ele><time>2026-04-30T15:25:58.225Z</time></trkpt><trkpt lat="43.8916299" lon="12.410311"><ele>494.0</ele><time>2026-04-30T15:25:59.219Z</time></trkpt><trkpt lat="43.8916599" lon="12.4101463"><ele>494.0</ele><time>2026-04-30T15:26:00.226Z</time></trkpt><trkpt lat="43.8916959" lon="12.4099748"><ele>491.5</ele><time>2026-04-30T15:26:01.223Z</time></trkpt><trkpt lat="43.8917338" lon="12.4097894"><ele>489.0</ele><time>2026-04-30T15:26:02.218Z</time></trkpt><trkpt lat="43.8917809" lon="12.4096164"><ele>486.5</ele><time>2026-04-30T15:26:03.226Z</time></trkpt><trkpt lat="43.8918295" lon="12.4094527"><ele>484.0</ele><time>2026-04-30T15:26:04.173Z</time></trkpt><trkpt lat="43.8918889" lon="12.4093012"><ele>476.25</ele><time>2026-04-30T15:26:05.234Z</time></trkpt><trkpt lat="43.8919378" lon="12.4091464"><ele>468.5</ele><time>2026-04-30T15:26:06.227Z</time></trkpt><trkpt lat="43.8919762" lon="12.4089734"><ele>460.75</ele><time>2026-04-30T15:26:07.22Z</time></trkpt><trkpt lat="43.8920006" lon="12.4088102"><ele>453.0</ele><time>2026-04-30T15:26:08.173Z</time></trkpt><trkpt lat="43.8920184" lon="12.408652"><ele>450.79999999999995</ele><time>2026-04-30T15:26:09.214Z</time></trkpt><trkpt lat="43.8920288" lon="12.4084955"><ele>448.59999999999997</ele><time>2026-04-30T15:26:10.172Z</time></trkpt><trkpt lat="43.8920318" lon="12.4083383"><ele>446.40000000000003</ele><time>2026-04-30T15:26:11.224Z</time></trkpt><trkpt lat="43.892018" lon="12.4081977"><ele>444.20000000000005</ele><time>2026-04-30T15:26:12.208Z</time></trkpt><trkpt lat="43.8919812" lon="12.4080609"><ele>442.0</ele><time>2026-04-30T15:26:13.196Z</time></trkpt><trkpt lat="43.8919189" lon="12.4079528"><ele>440.6</ele><time>2026-04-30T15:26:14.223Z</time></trkpt><trkpt lat="43.8918415" lon="12.4078795"><ele>439.20000000000005</ele><time>2026-04-30T15:26:15.215Z</time></trkpt><trkpt lat="43.8917561" lon="12.4078397"><ele>437.8</ele><time>2026-04-30T15:26:16.213Z</time></trkpt><trkpt lat="43.8916595" lon="12.4078372"><ele>436.4</ele><time>2026-04-30T15:26:17.179Z</time></trkpt><trkpt lat="43.8915857" lon="12.4078873"><ele>435.0</ele><time>2026-04-30T15:26:18.177Z</time></trkpt><trkpt lat="43.8915027" lon="12.4079403"><ele>440.0</ele><time>2026-04-30T15:26:19.193Z</time></trkpt><trkpt lat="43.8914171" lon="12.4079999"><ele>445.0</ele><time>2026-04-30T15:26:20.206Z</time></trkpt><trkpt lat="43.8913226" lon="12.4080596"><ele>450.0</ele><time>2026-04-30T15:26:21.22Z</time></trkpt><trkpt lat="43.8912265" lon="12.408117"><ele>455.0</ele><time>2026-04-30T15:26:22.213Z</time></trkpt><trkpt lat="43.8911174" lon="12.4081613"><ele>460.0</ele><time>2026-04-30T15:26:23.221Z</time></trkpt><trkpt lat="43.891004" lon="12.408197"><ele>458.2</ele><time>2026-04-30T15:26:24.185Z</time></trkpt><trkpt lat="43.8909036" lon="12.4082197"><ele>456.4</ele><time>2026-04-30T15:26:25.216Z</time></trkpt><trkpt lat="43.8908064" lon="12.4082196"><ele>454.6</ele><time>2026-04-30T15:26:26.224Z</time></trkpt><trkpt lat="43.8907274" lon="12.4081916"><ele>452.8</ele><time>2026-04-30T15:26:27.205Z</time></trkpt><trkpt lat="43.8906794" lon="12.4081124"><ele>451.0</ele><time>2026-04-30T15:26:28.208Z</time></trkpt><trkpt lat="43.8906734" lon="12.4079538"><ele>448.8</ele><time>2026-04-30T15:26:29.199Z</time></trkpt><trkpt lat="43.8906849" lon="12.4077967"><ele>446.6</ele><time>2026-04-30T15:26:30.196Z</time></trkpt><trkpt lat="43.8907208" lon="12.40766"><ele>444.4</ele><time>2026-04-30T15:26:31.231Z</time></trkpt><trkpt lat="43.8907544" lon="12.407514"><ele>442.2</ele><time>2026-04-30T15:26:32.208Z</time></trkpt><trkpt lat="43.8907852" lon="12.4073626"><ele>440.0</ele><time>2026-04-30T15:26:33.215Z</time></trkpt><trkpt lat="43.8908216" lon="12.4071928"><ele>437.75</ele><time>2026-04-30T15:26:34.209Z</time></trkpt><trkpt lat="43.8908615" lon="12.407023"><ele>435.5</ele><time>2026-04-30T15:26:35.208Z</time></trkpt><trkpt lat="43.8909133" lon="12.4068525"><ele>433.25</ele><time>2026-04-30T15:26:36.207Z</time></trkpt><trkpt lat="43.8909681" lon="12.4066854"><ele>431.0</ele><time>2026-04-30T15:26:37.216Z</time></trkpt><trkpt lat="43.8910245" lon="12.4065355"><ele>430.99999999999994</ele><time>2026-04-30T15:26:38.178Z</time></trkpt><trkpt lat="43.8910818" lon="12.4064184"><ele>431.0</ele><time>2026-04-30T15:26:39.208Z</time></trkpt><trkpt lat="43.8911323" lon="12.4063202"><ele>431.0</ele><time>2026-04-30T15:26:40.209Z</time></trkpt><trkpt lat="43.891132" lon="12.4062204"><ele>431.0</ele><time>2026-04-30T15:26:41.208Z</time></trkpt><trkpt lat="43.891106" lon="12.4061307"><ele>430.99999999999994</ele><time>2026-04-30T15:26:42.198Z</time></trkpt><trkpt lat="43.8910606" lon="12.406063"><ele>431.0</ele><time>2026-04-30T15:26:43.215Z</time></trkpt><trkpt lat="43.8909716" lon="12.4060327"><ele>425.4</ele><time>2026-04-30T15:26:44.215Z</time></trkpt><trkpt lat="43.8908757" lon="12.4060598"><ele>419.8</ele><time>2026-04-30T15:26:45.164Z</time></trkpt><trkpt lat="43.8907774" lon="12.406101"><ele>414.2</ele><time>2026-04-30T15:26:46.197Z</time></trkpt><trkpt lat="43.8907106" lon="12.4061304"><ele>408.59999999999997</ele><time>2026-04-30T15:26:47.203Z</time></trkpt><trkpt lat="43.890607" lon="12.406126"><ele>403.0</ele><time>2026-04-30T15:26:49.203Z</time></trkpt><trkpt lat="43.8905863" lon="12.4059877"><ele>403.00000000000006</ele><time>2026-04-30T15:26:51.195Z</time></trkpt><trkpt lat="43.8906195" lon="12.4058926"><ele>403.0</ele><time>2026-04-30T15:26:52.206Z</time></trkpt><trkpt lat="43.8906626" lon="12.4057997"><ele>403.0</ele><time>2026-04-30T15:26:53.205Z</time></trkpt><trkpt lat="43.8906965" lon="12.4057031"><ele>403.0</ele><time>2026-04-30T15:26:54.21Z</time></trkpt><trkpt lat="43.8907199" lon="12.4055997"><ele>403.00000000000006</ele><time>2026-04-30T15:26:55.211Z</time></trkpt><trkpt lat="43.8906221" lon="12.4054735"><ele>403.0</ele><time>2026-04-30T15:26:57.193Z</time></trkpt><trkpt lat="43.8905355" lon="12.4054583"><ele>403.0</ele><time>2026-04-30T15:26:58.204Z</time></trkpt><trkpt lat="43.89044" lon="12.4054928"><ele>403.0</ele><time>2026-04-30T15:26:59.202Z</time></trkpt><trkpt lat="43.8903441" lon="12.40555"><ele>403.0</ele><time>2026-04-30T15:27:00.213Z</time></trkpt><trkpt lat="43.8902669" lon="12.4056295"><ele>403.0</ele><time>2026-04-30T15:27:01.194Z</time></trkpt><trkpt lat="43.8901868" lon="12.4057233"><ele>403.0</ele><time>2026-04-30T15:27:02.205Z</time></trkpt><trkpt lat="43.8901052" lon="12.4058067"><ele>400.6666666666667</ele><time>2026-04-30T15:27:03.197Z</time></trkpt><trkpt lat="43.8900331" lon="12.4058692"><ele>398.33333333333337</ele><time>2026-04-30T15:27:04.203Z</time></trkpt><trkpt lat="43.8899525" lon="12.4059022"><ele>396.0</ele><time>2026-04-30T15:27:05.146Z</time></trkpt><trkpt lat="43.8898899" lon="12.4058449"><ele>393.66666666666663</ele><time>2026-04-30T15:27:06.205Z</time></trkpt><trkpt lat="43.8898599" lon="12.4057485"><ele>391.3333333333333</ele><time>2026-04-30T15:27:07.184Z</time></trkpt><trkpt lat="43.8898415" lon="12.4056285"><ele>389.0</ele><time>2026-04-30T15:27:08.207Z</time></trkpt><trkpt lat="43.889846" lon="12.4055101"><ele>387.0</ele><time>2026-04-30T15:27:09.201Z</time></trkpt><trkpt lat="43.8898677" lon="12.4053863"><ele>385.0</ele><time>2026-04-30T15:27:10.208Z</time></trkpt><trkpt lat="43.8898984" lon="12.405271"><ele>383.0</ele><time>2026-04-30T15:27:11.201Z</time></trkpt><trkpt lat="43.8899337" lon="12.4051451"><ele>381.0</ele><time>2026-04-30T15:27:12.201Z</time></trkpt><trkpt lat="43.8899613" lon="12.4050056"><ele>379.0</ele><time>2026-04-30T15:27:13.194Z</time></trkpt><trkpt lat="43.8899826" lon="12.4048639"><ele>379.0</ele><time>2026-04-30T15:27:14.21Z</time></trkpt><trkpt lat="43.8899915" lon="12.4047383"><ele>379.0</ele><time>2026-04-30T15:27:15.198Z</time></trkpt><trkpt lat="43.88996" lon="12.4046496"><ele>379.0</ele><time>2026-04-30T15:27:16.207Z</time></trkpt><trkpt lat="43.8899019" lon="12.4046048"><ele>379.0</ele><time>2026-04-30T15:27:17.18Z</time></trkpt><trkpt lat="43.889817" lon="12.4045591"><ele>379.0</ele><time>2026-04-30T15:27:18.155Z</time></trkpt><trkpt lat="43.8897285" lon="12.404551"><ele>379.0</ele><time>2026-04-30T15:27:19.154Z</time></trkpt><trkpt lat="43.8896438" lon="12.4045677"><ele>379.0</ele><time>2026-04-30T15:27:20.2Z</time></trkpt><trkpt lat="43.8895604" lon="12.4045834"><ele>379.0</ele><time>2026-04-30T15:27:21.215Z</time></trkpt><trkpt lat="43.889496" lon="12.4045984"><ele>379.0</ele><time>2026-04-30T15:27:22.21Z</time></trkpt><trkpt lat="43.8893936" lon="12.4046402"><ele>379.0</ele><time>2026-04-30T15:27:24.15Z</time></trkpt><trkpt lat="43.8893011" lon="12.4047034"><ele>379.0</ele><time>2026-04-30T15:27:26.205Z</time></trkpt><trkpt lat="43.8892336" lon="12.4047066"><ele>379.0</ele><time>2026-04-30T15:27:28.2Z</time></trkpt><trkpt lat="43.8891423" lon="12.4046982"><ele>378.79999999999995</ele><time>2026-04-30T15:27:31.212Z</time></trkpt><trkpt lat="43.8890699" lon="12.4047072"><ele>378.59999999999997</ele><time>2026-04-30T15:27:33.194Z</time></trkpt><trkpt lat="43.8889867" lon="12.404732"><ele>378.4</ele><time>2026-04-30T15:27:35.218Z</time></trkpt><trkpt lat="43.8888674" lon="12.4047278"><ele>378.2</ele><time>2026-04-30T15:27:37.221Z</time></trkpt><trkpt lat="43.888788" lon="12.4046953"><ele>378.0</ele><time>2026-04-30T15:27:38.209Z</time></trkpt><trkpt lat="43.8886986" lon="12.4046746"><ele>375.79999999999995</ele><time>2026-04-30T15:27:39.185Z</time></trkpt><trkpt lat="43.8885926" lon="12.4046442"><ele>373.6</ele><time>2026-04-30T15:27:40.207Z</time></trkpt><trkpt lat="43.8884908" lon="12.4046243"><ele>371.4</ele><time>2026-04-30T15:27:41.203Z</time></trkpt><trkpt lat="43.8883976" lon="12.4046066"><ele>369.20000000000005</ele><time>2026-04-30T15:27:42.192Z</time></trkpt><trkpt lat="43.8883138" lon="12.4045814"><ele>367.0</ele><time>2026-04-30T15:27:43.196Z</time></trkpt><trkpt lat="43.8882353" lon="12.4045514"><ele>366.5</ele><time>2026-04-30T15:27:44.201Z</time></trkpt><trkpt lat="43.8881586" lon="12.4045184"><ele>366.0</ele><time>2026-04-30T15:27:45.211Z</time></trkpt><trkpt lat="43.8880887" lon="12.404474"><ele>365.5</ele><time>2026-04-30T15:27:46.202Z</time></trkpt><trkpt lat="43.8880206" lon="12.40442"><ele>365.0</ele><time>2026-04-30T15:27:47.232Z</time></trkpt><trkpt lat="43.8879547" lon="12.4043595"><ele>364.5</ele><time>2026-04-30T15:27:48.191Z</time></trkpt><trkpt lat="43.8878876" lon="12.4043094"><ele>364.0</ele><time>2026-04-30T15:27:49.221Z</time></trkpt><trkpt lat="43.8878159" lon="12.4042643"><ele>364.0</ele><time>2026-04-30T15:27:50.204Z</time></trkpt><trkpt lat="43.8877473" lon="12.4042236"><ele>364.0</ele><time>2026-04-30T15:27:51.209Z</time></trkpt><trkpt lat="43.8876417" lon="12.4041841"><ele>364.0</ele><time>2026-04-30T15:27:53.212Z</time></trkpt><trkpt lat="43.8875404" lon="12.4041515"><ele>364.0</ele><time>2026-04-30T15:27:55.2Z</time></trkpt><trkpt lat="43.8874275" lon="12.4041193"><ele>364.0</ele><time>2026-04-30T15:27:57.179Z</time></trkpt><trkpt lat="43.8873557" lon="12.4041007"><ele>364.3333333333333</ele><time>2026-04-30T15:27:58.199Z</time></trkpt><trkpt lat="43.8872778" lon="12.4040861"><ele>364.66666666666663</ele><time>2026-04-30T15:27:59.199Z</time></trkpt><trkpt lat="43.8872029" lon="12.4040528"><ele>365.0</ele><time>2026-04-30T15:28:00.193Z</time></trkpt><trkpt lat="43.8871424" lon="12.4039835"><ele>365.3333333333333</ele><time>2026-04-30T15:28:01.215Z</time></trkpt><trkpt lat="43.8871153" lon="12.4038716"><ele>365.6666666666667</ele><time>2026-04-30T15:28:02.208Z</time></trkpt><trkpt lat="43.8871314" lon="12.4037551"><ele>366.0</ele><time>2026-04-30T15:28:03.209Z</time></trkpt><trkpt lat="43.887162" lon="12.4036406"><ele>363.6</ele><time>2026-04-30T15:28:04.202Z</time></trkpt><trkpt lat="43.887201" lon="12.4035152"><ele>361.20000000000005</ele><time>2026-04-30T15:28:05.216Z</time></trkpt><trkpt lat="43.8872438" lon="12.4033878"><ele>358.79999999999995</ele><time>2026-04-30T15:28:06.21Z</time></trkpt><trkpt lat="43.8872883" lon="12.403258"><ele>356.4</ele><time>2026-04-30T15:28:07.218Z</time></trkpt><trkpt lat="43.8873296" lon="12.4031365"><ele>354.0</ele><time>2026-04-30T15:28:08.183Z</time></trkpt><trkpt lat="43.8873765" lon="12.4029998"><ele>351.79999999999995</ele><time>2026-04-30T15:28:09.211Z</time></trkpt><trkpt lat="43.8874345" lon="12.4028543"><ele>349.59999999999997</ele><time>2026-04-30T15:28:10.218Z</time></trkpt><trkpt lat="43.8874878" lon="12.4027139"><ele>347.4</ele><time>2026-04-30T15:28:11.175Z</time></trkpt><trkpt lat="43.8875368" lon="12.4025872"><ele>345.2</ele><time>2026-04-30T15:28:12.188Z</time></trkpt><trkpt lat="43.8875664" lon="12.4024735"><ele>343.0</ele><time>2026-04-30T15:28:13.226Z</time></trkpt><trkpt lat="43.8875806" lon="12.4023479"><ele>343.0</ele><time>2026-04-30T15:28:14.205Z</time></trkpt><trkpt lat="43.8875749" lon="12.4022062"><ele>343.0</ele><time>2026-04-30T15:28:15.214Z</time></trkpt><trkpt lat="43.8875392" lon="12.4020583"><ele>343.0</ele><time>2026-04-30T15:28:16.217Z</time></trkpt><trkpt lat="43.8874903" lon="12.4019096"><ele>343.0</ele><time>2026-04-30T15:28:17.205Z</time></trkpt><trkpt lat="43.8874467" lon="12.4017676"><ele>343.0</ele><time>2026-04-30T15:28:18.188Z</time></trkpt><trkpt lat="43.8874054" lon="12.4016363"><ele>341.2</ele><time>2026-04-30T15:28:19.219Z</time></trkpt><trkpt lat="43.8873629" lon="12.4014983"><ele>339.4</ele><time>2026-04-30T15:28:20.214Z</time></trkpt><trkpt lat="43.8873233" lon="12.4013786"><ele>337.59999999999997</ele><time>2026-04-30T15:28:21.218Z</time></trkpt><trkpt lat="43.8872813" lon="12.4012588"><ele>335.79999999999995</ele><time>2026-04-30T15:28:22.159Z</time></trkpt><trkpt lat="43.887237" lon="12.4011486"><ele>334.0</ele><time>2026-04-30T15:28:23.207Z</time></trkpt><trkpt lat="43.8871953" lon="12.4010422"><ele>333.8333333333333</ele><time>2026-04-30T15:28:24.189Z</time></trkpt><trkpt lat="43.8871564" lon="12.4009432"><ele>333.66666666666663</ele><time>2026-04-30T15:28:25.192Z</time></trkpt><trkpt lat="43.887123" lon="12.4008421"><ele>333.5</ele><time>2026-04-30T15:28:26.212Z</time></trkpt><trkpt lat="43.8870954" lon="12.400758"><ele>333.3333333333333</ele><time>2026-04-30T15:28:27.191Z</time></trkpt><trkpt lat="43.8870159" lon="12.4006514"><ele>333.1666666666667</ele><time>2026-04-30T15:28:29.209Z</time></trkpt><trkpt lat="43.8869542" lon="12.4006198"><ele>333.0</ele><time>2026-04-30T15:28:31.207Z</time></trkpt><trkpt lat="43.8868865" lon="12.4006351"><ele>333.0</ele><time>2026-04-30T15:28:39.206Z</time></trkpt><trkpt lat="43.8868079" lon="12.4006436"><ele>333.0</ele><time>2026-04-30T15:29:28.199Z</time></trkpt><trkpt lat="43.8867393" lon="12.4006507"><ele>333.0</ele><time>2026-04-30T15:29:33.181Z</time></trkpt><trkpt lat="43.886669" lon="12.4006522"><ele>333.0</ele><time>2026-04-30T15:29:38.204Z</time></trkpt><trkpt lat="43.8865997" lon="12.4006324"><ele>333.0</ele><time>2026-04-30T15:29:43.213Z</time></trkpt><trkpt lat="43.8865359" lon="12.4005835"><ele>333.0</ele><time>2026-04-30T15:29:48.159Z</time></trkpt><trkpt lat="43.8864983" lon="12.4005115"><ele>333.0</ele><time>2026-04-30T15:29:53.18Z</time></trkpt><trkpt lat="43.8865021" lon="12.4004088"><ele>334.8571428571429</ele><time>2026-04-30T15:29:58.166Z</time></trkpt><trkpt lat="43.8865445" lon="12.4003141"><ele>336.71428571428567</ele><time>2026-04-30T15:30:02.184Z</time></trkpt><trkpt lat="43.8866272" lon="12.4002678"><ele>338.57142857142856</ele><time>2026-04-30T15:30:06.192Z</time></trkpt><trkpt lat="43.8866942" lon="12.4002627"><ele>340.42857142857144</ele><time>2026-04-30T15:30:09.202Z</time></trkpt><trkpt lat="43.8867633" lon="12.4002691"><ele>342.28571428571433</ele><time>2026-04-30T15:30:12.204Z</time></trkpt><trkpt lat="43.8868294" lon="12.4002685"><ele>344.1428571428571</ele><time>2026-04-30T15:30:15.192Z</time></trkpt><trkpt lat="43.8869069" lon="12.4002663"><ele>346.0</ele><time>2026-04-30T15:30:19.176Z</time></trkpt><trkpt lat="43.8869764" lon="12.4002591"><ele>346.0</ele><time>2026-04-30T15:30:23.205Z</time></trkpt><trkpt lat="43.8870532" lon="12.4002365"><ele>346.0</ele><time>2026-04-30T15:30:28.218Z</time></trkpt><trkpt lat="43.8871045" lon="12.4001719"><ele>346.0</ele><time>2026-04-30T15:30:32.212Z</time></trkpt><trkpt lat="43.8871364" lon="12.4000907"><ele>346.0</ele><time>2026-04-30T15:30:36.177Z</time></trkpt><trkpt lat="43.8871496" lon="12.3999816"><ele>346.0</ele><time>2026-04-30T15:30:42.147Z</time></trkpt><trkpt lat="43.8870939" lon="12.3999328"><ele>346.0</ele><time>2026-04-30T15:30:47.16Z</time></trkpt><trkpt lat="43.8870216" lon="12.3998797"><ele>346.0</ele><time>2026-04-30T15:30:51.2Z</time></trkpt><trkpt lat="43.8869566" lon="12.399837"><ele>346.0</ele><time>2026-04-30T15:30:54.194Z</time></trkpt><trkpt lat="43.8868992" lon="12.3997887"><ele>346.0</ele><time>2026-04-30T15:30:57.162Z</time></trkpt><trkpt lat="43.8868298" lon="12.399739"><ele>346.0</ele><time>2026-04-30T15:31:01.207Z</time></trkpt><trkpt lat="43.8867833" lon="12.3996776"><ele>346.0</ele><time>2026-04-30T15:31:05.212Z</time></trkpt><trkpt lat="43.8867603" lon="12.399595"><ele>346.0</ele><time>2026-04-30T15:31:11.213Z</time></trkpt><trkpt lat="43.8867664" lon="12.3994881"><ele>346.0</ele><time>2026-04-30T15:31:17.184Z</time></trkpt><trkpt lat="43.8868042" lon="12.3994007"><ele>346.0</ele><time>2026-04-30T15:31:21.199Z</time></trkpt><trkpt lat="43.8868631" lon="12.3993349"><ele>348.4285714285714</ele><time>2026-04-30T15:31:26.186Z</time></trkpt><trkpt lat="43.8869242" lon="12.3993033"><ele>350.8571428571429</ele><time>2026-04-30T15:31:30.174Z</time></trkpt><trkpt lat="43.8869886" lon="12.3992886"><ele>353.2857142857143</ele><time>2026-04-30T15:31:34.207Z</time></trkpt><trkpt lat="43.8870525" lon="12.3992759"><ele>355.71428571428567</ele><time>2026-04-30T15:31:37.22Z</time></trkpt><trkpt lat="43.8871168" lon="12.3992506"><ele>358.1428571428571</ele><time>2026-04-30T15:31:40.198Z</time></trkpt><trkpt lat="43.8872022" lon="12.3992188"><ele>360.57142857142856</ele><time>2026-04-30T15:31:44.212Z</time></trkpt><trkpt lat="43.8872666" lon="12.3991975"><ele>363.0</ele><time>2026-04-30T15:31:47.192Z</time></trkpt><trkpt lat="43.8873513" lon="12.3991693"><ele>362.99999999999994</ele><time>2026-04-30T15:31:51.212Z</time></trkpt><trkpt lat="43.8874184" lon="12.3991531"><ele>363.0</ele><time>2026-04-30T15:31:54.183Z</time></trkpt><trkpt lat="43.8874807" lon="12.3991015"><ele>363.0</ele><time>2026-04-30T15:31:57.212Z</time></trkpt><trkpt lat="43.8875228" lon="12.3990365"><ele>363.0</ele><time>2026-04-30T15:32:00.192Z</time></trkpt><trkpt lat="43.8875576" lon="12.3989594"><ele>363.0</ele><time>2026-04-30T15:32:03.201Z</time></trkpt><trkpt lat="43.8875803" lon="12.3988729"><ele>362.99999999999994</ele><time>2026-04-30T15:32:06.215Z</time></trkpt><trkpt lat="43.8875843" lon="12.3987784"><ele>363.0</ele><time>2026-04-30T15:32:10.221Z</time></trkpt><trkpt lat="43.8875767" lon="12.3986916"><ele>364.99999999999994</ele><time>2026-04-30T15:32:14.213Z</time></trkpt><trkpt lat="43.8875666" lon="12.3986002"><ele>367.0</ele><time>2026-04-30T15:32:19.209Z</time></trkpt><trkpt lat="43.8875485" lon="12.3985115"><ele>369.0</ele><time>2026-04-30T15:32:24.218Z</time></trkpt><trkpt lat="43.8875344" lon="12.3984172"><ele>371.0</ele><time>2026-04-30T15:32:30.202Z</time></trkpt><trkpt lat="43.8875341" lon="12.3983279"><ele>373.0</ele><time>2026-04-30T15:32:35.215Z</time></trkpt><trkpt lat="43.887513" lon="12.3982281"><ele>374.99999999999994</ele><time>2026-04-30T15:32:41.22Z</time></trkpt><trkpt lat="43.8874916" lon="12.3981362"><ele>377.0</ele><time>2026-04-30T15:32:47.183Z</time></trkpt><trkpt lat="43.8874866" lon="12.3980446"><ele>378.71428571428567</ele><time>2026-04-30T15:32:53.175Z</time></trkpt><trkpt lat="43.8874806" lon="12.3979513"><ele>380.42857142857144</ele><time>2026-04-30T15:32:58.209Z</time></trkpt><trkpt lat="43.8874573" lon="12.397853"><ele>382.1428571428571</ele><time>2026-04-30T15:33:03.206Z</time></trkpt><trkpt lat="43.8874593" lon="12.3977463"><ele>383.85714285714283</ele><time>2026-04-30T15:33:08.207Z</time></trkpt><trkpt lat="43.8874824" lon="12.3976544"><ele>385.57142857142856</ele><time>2026-04-30T15:33:13.219Z</time></trkpt><trkpt lat="43.8874973" lon="12.3975566"><ele>387.2857142857143</ele><time>2026-04-30T15:33:18.2Z</time></trkpt><trkpt lat="43.8875244" lon="12.3974752"><ele>389.0</ele><time>2026-04-30T15:33:23.184Z</time></trkpt><trkpt lat="43.8875255" lon="12.3973864"><ele>389.0</ele><time>2026-04-30T15:33:29.175Z</time></trkpt><trkpt lat="43.8874786" lon="12.3973212"><ele>389.0</ele><time>2026-04-30T15:33:33.144Z</time></trkpt><trkpt lat="43.8874324" lon="12.397252"><ele>389.0</ele><time>2026-04-30T15:33:37.175Z</time></trkpt><trkpt lat="43.8873603" lon="12.3972351"><ele>389.0</ele><time>2026-04-30T15:33:41.143Z</time></trkpt><trkpt lat="43.887284" lon="12.397223"><ele>389.0</ele><time>2026-04-30T15:33:45.161Z</time></trkpt><trkpt lat="43.8872106" lon="12.3971984"><ele>389.0</ele><time>2026-04-30T15:33:50.144Z</time></trkpt><trkpt lat="43.8871475" lon="12.397182"><ele>389.0</ele><time>2026-04-30T15:33:54.156Z</time></trkpt><trkpt lat="43.887074" lon="12.3971526"><ele>390.2857142857143</ele><time>2026-04-30T15:33:59.194Z</time></trkpt><trkpt lat="43.8870058" lon="12.3971386"><ele>391.57142857142856</ele><time>2026-04-30T15:34:04.203Z</time></trkpt><trkpt lat="43.8869371" lon="12.3971189"><ele>392.85714285714283</ele><time>2026-04-30T15:34:09.175Z</time></trkpt><trkpt lat="43.8868719" lon="12.3970928"><ele>394.1428571428571</ele><time>2026-04-30T15:34:13.195Z</time></trkpt><trkpt lat="43.8867989" lon="12.3970736"><ele>395.42857142857144</ele><time>2026-04-30T15:34:18.183Z</time></trkpt><trkpt lat="43.8867186" lon="12.3970487"><ele>396.71428571428567</ele><time>2026-04-30T15:34:22.192Z</time></trkpt><trkpt lat="43.8866354" lon="12.3970407"><ele>398.0</ele><time>2026-04-30T15:34:26.206Z</time></trkpt><trkpt lat="43.8865671" lon="12.3970343"><ele>398.71428571428567</ele><time>2026-04-30T15:34:31.216Z</time></trkpt><trkpt lat="43.8864898" lon="12.3970314"><ele>399.42857142857144</ele><time>2026-04-30T15:34:36.185Z</time></trkpt><trkpt lat="43.8864111" lon="12.397025"><ele>400.1428571428571</ele><time>2026-04-30T15:34:40.193Z</time></trkpt><trkpt lat="43.8863403" lon="12.3970007"><ele>400.85714285714283</ele><time>2026-04-30T15:34:44.202Z</time></trkpt><trkpt lat="43.8862751" lon="12.3970041"><ele>401.57142857142856</ele><time>2026-04-30T15:34:48.19Z</time></trkpt><trkpt lat="43.8862135" lon="12.3969806"><ele>402.2857142857143</ele><time>2026-04-30T15:34:52.219Z</time></trkpt><trkpt lat="43.8861339" lon="12.3969774"><ele>403.0</ele><time>2026-04-30T15:34:57.18Z</time></trkpt><trkpt lat="43.8860588" lon="12.3969696"><ele>403.00000000000006</ele><time>2026-04-30T15:35:02.182Z</time></trkpt><trkpt lat="43.885991" lon="12.3969671"><ele>403.0</ele><time>2026-04-30T15:35:06.204Z</time></trkpt><trkpt lat="43.8859211" lon="12.3969619"><ele>403.0</ele><time>2026-04-30T15:35:10.201Z</time></trkpt><trkpt lat="43.8858509" lon="12.3969557"><ele>403.0</ele><time>2026-04-30T15:35:14.177Z</time></trkpt><trkpt lat="43.88577" lon="12.396946"><ele>403.00000000000006</ele><time>2026-04-30T15:35:18.231Z</time></trkpt><trkpt lat="43.8856925" lon="12.3969302"><ele>403.0</ele><time>2026-04-30T15:35:21.204Z</time></trkpt><trkpt lat="43.8856124" lon="12.396904"><ele>404.33333333333337</ele><time>2026-04-30T15:35:24.2Z</time></trkpt><trkpt lat="43.8855458" lon="12.3968714"><ele>405.6666666666667</ele><time>2026-04-30T15:35:26.209Z</time></trkpt><trkpt lat="43.8854594" lon="12.3968152"><ele>407.0</ele><time>2026-04-30T15:35:28.167Z</time></trkpt><trkpt lat="43.8853794" lon="12.39675"><ele>408.33333333333337</ele><time>2026-04-30T15:35:30.209Z</time></trkpt><trkpt lat="43.8853097" lon="12.396702"><ele>409.6666666666667</ele><time>2026-04-30T15:35:32.207Z</time></trkpt><trkpt lat="43.8852218" lon="12.3966457"><ele>411.0</ele><time>2026-04-30T15:35:34.188Z</time></trkpt><trkpt lat="43.8851351" lon="12.39662"><ele>411.20000000000005</ele><time>2026-04-30T15:35:36.157Z</time></trkpt><trkpt lat="43.8850503" lon="12.3966039"><ele>411.40000000000003</ele><time>2026-04-30T15:35:38.169Z</time></trkpt><trkpt lat="43.8849417" lon="12.3965836"><ele>411.6</ele><time>2026-04-30T15:35:40.171Z</time></trkpt><trkpt lat="43.8848296" lon="12.3965617"><ele>411.8</ele><time>2026-04-30T15:35:42.213Z</time></trkpt><trkpt lat="43.88472" lon="12.3965223"><ele>412.0</ele><time>2026-04-30T15:35:44.211Z</time></trkpt><trkpt lat="43.8846188" lon="12.3964547"><ele>412.00000000000006</ele><time>2026-04-30T15:35:46.22Z</time></trkpt><trkpt lat="43.8845235" lon="12.3963595"><ele>412.0</ele><time>2026-04-30T15:35:48.164Z</time></trkpt><trkpt lat="43.8844495" lon="12.3962796"><ele>412.0</ele><time>2026-04-30T15:35:50.207Z</time></trkpt><trkpt lat="43.8843808" lon="12.3961935"><ele>412.0</ele><time>2026-04-30T15:35:52.165Z</time></trkpt><trkpt lat="43.8843322" lon="12.3961354"><ele>412.00000000000006</ele><time>2026-04-30T15:35:54.201Z</time></trkpt><trkpt lat="43.8842767" lon="12.3960597"><ele>412.0</ele><time>2026-04-30T15:35:57.234Z</time></trkpt><trkpt lat="43.8842212" lon="12.3959896"><ele>412.99999999999994</ele><time>2026-04-30T15:36:01.205Z</time></trkpt><trkpt lat="43.8841681" lon="12.3959384"><ele>414.0</ele><time>2026-04-30T15:36:05.196Z</time></trkpt><trkpt lat="43.8841187" lon="12.3958813"><ele>415.0</ele><time>2026-04-30T15:36:09.231Z</time></trkpt><trkpt lat="43.8840732" lon="12.3958157"><ele>416.0</ele><time>2026-04-30T15:36:13.196Z</time></trkpt><trkpt lat="43.8840164" lon="12.3957449"><ele>417.0</ele><time>2026-04-30T15:36:18.197Z</time></trkpt><trkpt lat="43.8839694" lon="12.3956812"><ele>417.99999999999994</ele><time>2026-04-30T15:36:22.199Z</time></trkpt><trkpt lat="43.8839144" lon="12.3956078"><ele>419.0</ele><time>2026-04-30T15:36:28.202Z</time></trkpt><trkpt lat="43.8838615" lon="12.3955368"><ele>420.71428571428567</ele><time>2026-04-30T15:36:34.161Z</time></trkpt><trkpt lat="43.8838101" lon="12.3954621"><ele>422.42857142857144</ele><time>2026-04-30T15:36:40.202Z</time></trkpt><trkpt lat="43.88376" lon="12.3953894"><ele>424.1428571428571</ele><time>2026-04-30T15:36:46.209Z</time></trkpt><trkpt lat="43.8837048" lon="12.3953269"><ele>425.85714285714283</ele><time>2026-04-30T15:36:51.217Z</time></trkpt><trkpt lat="43.883652" lon="12.3952704"><ele>427.57142857142856</ele><time>2026-04-30T15:36:56.173Z</time></trkpt><trkpt lat="43.8836034" lon="12.395207"><ele>429.2857142857143</ele><time>2026-04-30T15:37:01.194Z</time></trkpt><trkpt lat="43.8835551" lon="12.3951357"><ele>431.0</ele><time>2026-04-30T15:37:07.224Z</time></trkpt><trkpt lat="43.8835034" lon="12.3950759"><ele>431.0</ele><time>2026-04-30T15:37:13.197Z</time></trkpt><trkpt lat="43.8834472" lon="12.3950067"><ele>431.0</ele><time>2026-04-30T15:37:18.203Z</time></trkpt><trkpt lat="43.8833997" lon="12.3949427"><ele>431.0</ele><time>2026-04-30T15:37:24.206Z</time></trkpt><trkpt lat="43.8833414" lon="12.3948888"><ele>431.0</ele><time>2026-04-30T15:37:29.206Z</time></trkpt><trkpt lat="43.8832837" lon="12.3948376"><ele>431.0</ele><time>2026-04-30T15:37:33.214Z</time></trkpt><trkpt lat="43.8832275" lon="12.3947763"><ele>431.0</ele><time>2026-04-30T15:37:39.216Z</time></trkpt><trkpt lat="43.8831707" lon="12.3947096"><ele>431.0</ele><time>2026-04-30T15:37:46.228Z</time></trkpt><trkpt lat="43.883118" lon="12.3946518"><ele>432.7142857142857</ele><time>2026-04-30T15:37:50.209Z</time></trkpt><trkpt lat="43.8830623" lon="12.3945874"><ele>434.4285714285714</ele><time>2026-04-30T15:37:54.212Z</time></trkpt><trkpt lat="43.8830023" lon="12.3945221"><ele>436.1428571428571</ele><time>2026-04-30T15:37:58.217Z</time></trkpt><trkpt lat="43.882947" lon="12.3944492"><ele>437.8571428571429</ele><time>2026-04-30T15:38:02.193Z</time></trkpt><trkpt lat="43.8828831" lon="12.3944112"><ele>439.57142857142856</ele><time>2026-04-30T15:38:06.205Z</time></trkpt><trkpt lat="43.8828117" lon="12.3943703"><ele>441.2857142857143</ele><time>2026-04-30T15:38:10.199Z</time></trkpt><trkpt lat="43.8827504" lon="12.3943247"><ele>443.0</ele><time>2026-04-30T15:38:14.209Z</time></trkpt><trkpt lat="43.8826755" lon="12.3942738"><ele>443.0</ele><time>2026-04-30T15:38:18.22Z</time></trkpt><trkpt lat="43.8826052" lon="12.3942361"><ele>443.0</ele><time>2026-04-30T15:38:22.181Z</time></trkpt><trkpt lat="43.8825497" lon="12.3941947"><ele>443.0</ele><time>2026-04-30T15:38:25.194Z</time></trkpt><trkpt lat="43.8824852" lon="12.394167"><ele>443.0</ele><time>2026-04-30T15:38:28.197Z</time></trkpt><trkpt lat="43.882413" lon="12.3941381"><ele>443.0</ele><time>2026-04-30T15:38:31.199Z</time></trkpt><trkpt lat="43.8823233" lon="12.3941324"><ele>443.0</ele><time>2026-04-30T15:38:34.2Z</time></trkpt><trkpt lat="43.8822475" lon="12.394131"><ele>443.0</ele><time>2026-04-30T15:38:37.208Z</time></trkpt><trkpt lat="43.8821656" lon="12.3941332"><ele>443.99999999999994</ele><time>2026-04-30T15:38:40.161Z</time></trkpt><trkpt lat="43.8820788" lon="12.3941315"><ele>445.0</ele><time>2026-04-30T15:38:43.215Z</time></trkpt><trkpt lat="43.8819979" lon="12.3941539"><ele>446.0</ele><time>2026-04-30T15:38:46.208Z</time></trkpt><trkpt lat="43.8819195" lon="12.3941843"><ele>447.0</ele><time>2026-04-30T15:38:49.206Z</time></trkpt><trkpt lat="43.88186" lon="12.394215"><ele>447.99999999999994</ele><time>2026-04-30T15:38:52.213Z</time></trkpt><trkpt lat="43.8817743" lon="12.3942322"><ele>449.0</ele><time>2026-04-30T15:38:55.211Z</time></trkpt><trkpt lat="43.8816949" lon="12.3942514"><ele>449.99999999999994</ele><time>2026-04-30T15:38:58.23Z</time></trkpt><trkpt lat="43.8816211" lon="12.3942604"><ele>451.0</ele><time>2026-04-30T15:39:01.174Z</time></trkpt><trkpt lat="43.881554" lon="12.3942505"><ele>452.0</ele><time>2026-04-30T15:39:04.198Z</time></trkpt><trkpt lat="43.8814815" lon="12.394222"><ele>453.0</ele><time>2026-04-30T15:39:07.225Z</time></trkpt><trkpt lat="43.8813972" lon="12.3941932"><ele>453.99999999999994</ele><time>2026-04-30T15:39:10.159Z</time></trkpt><trkpt lat="43.8813067" lon="12.3941786"><ele>455.0</ele><time>2026-04-30T15:39:13.21Z</time></trkpt><trkpt lat="43.881211" lon="12.394157"><ele>455.0</ele><time>2026-04-30T15:39:16.19Z</time></trkpt><trkpt lat="43.8811461" lon="12.3941111"><ele>455.0</ele><time>2026-04-30T15:39:18.214Z</time></trkpt><trkpt lat="43.881096" lon="12.3940345"><ele>455.0</ele><time>2026-04-30T15:39:21.222Z</time></trkpt><trkpt lat="43.8810618" lon="12.3939575"><ele>455.0</ele><time>2026-04-30T15:39:25.204Z</time></trkpt><trkpt lat="43.8810389" lon="12.3938533"><ele>455.0</ele><time>2026-04-30T15:39:29.203Z</time></trkpt><trkpt lat="43.8810176" lon="12.3937692"><ele>455.0</ele><time>2026-04-30T15:39:32.19Z</time></trkpt><trkpt lat="43.8810018" lon="12.3936679"><ele>455.0</ele><time>2026-04-30T15:39:36.209Z</time></trkpt><trkpt lat="43.8809746" lon="12.3935749"><ele>455.99999999999994</ele><time>2026-04-30T15:39:40.204Z</time></trkpt><trkpt lat="43.8809507" lon="12.3934698"><ele>457.0</ele><time>2026-04-30T15:39:44.19Z</time></trkpt><trkpt lat="43.8809389" lon="12.3933716"><ele>458.0</ele><time>2026-04-30T15:39:48.208Z</time></trkpt><trkpt lat="43.8809091" lon="12.3932628"><ele>459.0</ele><time>2026-04-30T15:39:53.224Z</time></trkpt><trkpt lat="43.8808891" lon="12.3931728"><ele>459.99999999999994</ele><time>2026-04-30T15:39:57.231Z</time></trkpt><trkpt lat="43.8808736" lon="12.3930633"><ele>461.0</ele><time>2026-04-30T15:40:02.178Z</time></trkpt><trkpt lat="43.8808542" lon="12.3929728"><ele>462.5714285714286</ele><time>2026-04-30T15:40:07.188Z</time></trkpt><trkpt lat="43.8808187" lon="12.3928779"><ele>464.1428571428572</ele><time>2026-04-30T15:40:12.212Z</time></trkpt><trkpt lat="43.8807863" lon="12.3927812"><ele>465.7142857142857</ele><time>2026-04-30T15:40:17.149Z</time></trkpt><trkpt lat="43.880748" lon="12.3926871"><ele>467.28571428571433</ele><time>2026-04-30T15:40:22.212Z</time></trkpt><trkpt lat="43.8807182" lon="12.3925934"><ele>468.8571428571429</ele><time>2026-04-30T15:40:26.207Z</time></trkpt><trkpt lat="43.8806968" lon="12.392511"><ele>470.42857142857144</ele><time>2026-04-30T15:40:30.21Z</time></trkpt><trkpt lat="43.8806685" lon="12.3924297"><ele>472.0</ele><time>2026-04-30T15:40:34.203Z</time></trkpt><trkpt lat="43.8806449" lon="12.3923322"><ele>472.0</ele><time>2026-04-30T15:40:39.177Z</time></trkpt><trkpt lat="43.8806036" lon="12.3922426"><ele>472.0</ele><time>2026-04-30T15:40:44.222Z</time></trkpt><trkpt lat="43.8805506" lon="12.3921815"><ele>472.0</ele><time>2026-04-30T15:40:48.201Z</time></trkpt><trkpt lat="43.8804985" lon="12.3921087"><ele>472.0</ele><time>2026-04-30T15:40:52.208Z</time></trkpt><trkpt lat="43.8804409" lon="12.3920495"><ele>472.0</ele><time>2026-04-30T15:40:56.218Z</time></trkpt><trkpt lat="43.880382" lon="12.3919994"><ele>472.0</ele><time>2026-04-30T15:41:01.192Z</time></trkpt><trkpt lat="43.8803246" lon="12.3919548"><ele>472.0</ele><time>2026-04-30T15:41:05.195Z</time></trkpt><trkpt lat="43.8802665" lon="12.391893"><ele>472.83333333333337</ele><time>2026-04-30T15:41:08.183Z</time></trkpt><trkpt lat="43.880194" lon="12.3918378"><ele>473.6666666666667</ele><time>2026-04-30T15:41:11.181Z</time></trkpt><trkpt lat="43.8801339" lon="12.3917959"><ele>474.5</ele><time>2026-04-30T15:41:13.22Z</time></trkpt><trkpt lat="43.8800679" lon="12.3917544"><ele>475.33333333333337</ele><time>2026-04-30T15:41:15.177Z</time></trkpt><trkpt lat="43.8800028" lon="12.3917167"><ele>476.1666666666667</ele><time>2026-04-30T15:41:17.159Z</time></trkpt><trkpt lat="43.8799378" lon="12.3916921"><ele>477.0</ele><time>2026-04-30T15:41:19.18Z</time></trkpt><trkpt lat="43.8798476" lon="12.3916466"><ele>478.1428571428571</ele><time>2026-04-30T15:41:22.185Z</time></trkpt><trkpt lat="43.8797646" lon="12.3916041"><ele>479.2857142857142</ele><time>2026-04-30T15:41:25.218Z</time></trkpt><trkpt lat="43.8796931" lon="12.3915594"><ele>480.42857142857144</ele><time>2026-04-30T15:41:28.229Z</time></trkpt><trkpt lat="43.8796351" lon="12.3915129"><ele>481.57142857142856</ele><time>2026-04-30T15:41:31.188Z</time></trkpt><trkpt lat="43.8795785" lon="12.3914542"><ele>482.7142857142857</ele><time>2026-04-30T15:41:34.182Z</time></trkpt><trkpt lat="43.8795387" lon="12.3913843"><ele>483.8571428571429</ele><time>2026-04-30T15:41:37.205Z</time></trkpt><trkpt lat="43.8794919" lon="12.3913042"><ele>485.00000000000006</ele><time>2026-04-30T15:41:40.228Z</time></trkpt><trkpt lat="43.8794615" lon="12.3912268"><ele>486.00000000000006</ele><time>2026-04-30T15:41:43.206Z</time></trkpt><trkpt lat="43.8794195" lon="12.3911383"><ele>487.0</ele><time>2026-04-30T15:41:47.199Z</time></trkpt><trkpt lat="43.8793854" lon="12.3910586"><ele>488.00000000000006</ele><time>2026-04-30T15:41:51.172Z</time></trkpt><trkpt lat="43.8793478" lon="12.390983"><ele>489.00000000000006</ele><time>2026-04-30T15:41:55.205Z</time></trkpt><trkpt lat="43.879309" lon="12.3909136"><ele>490.0</ele><time>2026-04-30T15:41:59.2Z</time></trkpt><trkpt lat="43.8792631" lon="12.390839"><ele>491.00000000000006</ele><time>2026-04-30T15:42:04.215Z</time></trkpt><trkpt lat="43.8792257" lon="12.3907563"><ele>492.00000000000006</ele><time>2026-04-30T15:42:10.221Z</time></trkpt><trkpt lat="43.8791959" lon="12.3906581"><ele>492.8333333333333</ele><time>2026-04-30T15:42:16.205Z</time></trkpt><trkpt lat="43.8791766" lon="12.3905705"><ele>493.66666666666663</ele><time>2026-04-30T15:42:21.211Z</time></trkpt><trkpt lat="43.879165" lon="12.3904804"><ele>494.5</ele><time>2026-04-30T15:42:25.216Z</time></trkpt><trkpt lat="43.87915" lon="12.3903718"><ele>495.3333333333333</ele><time>2026-04-30T15:42:29.194Z</time></trkpt><trkpt lat="43.8791343" lon="12.3902647"><ele>496.16666666666663</ele><time>2026-04-30T15:42:33.186Z</time></trkpt><trkpt lat="43.8790954" lon="12.3901676"><ele>497.0</ele><time>2026-04-30T15:42:36.203Z</time></trkpt><trkpt lat="43.8790553" lon="12.3900621"><ele>497.40000000000003</ele><time>2026-04-30T15:42:39.202Z</time></trkpt><trkpt lat="43.8790261" lon="12.3899668"><ele>497.80000000000007</ele><time>2026-04-30T15:42:41.233Z</time></trkpt><trkpt lat="43.8789702" lon="12.3898542"><ele>498.2</ele><time>2026-04-30T15:42:43.232Z</time></trkpt><trkpt lat="43.8789243" lon="12.3897234"><ele>498.6</ele><time>2026-04-30T15:42:45.187Z</time></trkpt><trkpt lat="43.8788715" lon="12.3895844"><ele>499.0</ele><time>2026-04-30T15:42:47.153Z</time></trkpt><trkpt lat="43.8788422" lon="12.3895052"><ele>498.28571428571433</ele><time>2026-04-30T15:42:48.18Z</time></trkpt><trkpt lat="43.8788084" lon="12.3894173"><ele>497.57142857142856</ele><time>2026-04-30T15:42:49.173Z</time></trkpt><trkpt lat="43.8787724" lon="12.3893339"><ele>496.8571428571429</ele><time>2026-04-30T15:42:50.219Z</time></trkpt><trkpt lat="43.8787313" lon="12.3892552"><ele>496.14285714285717</ele><time>2026-04-30T15:42:51.223Z</time></trkpt><trkpt lat="43.8786941" lon="12.3891743"><ele>495.42857142857144</ele><time>2026-04-30T15:42:52.226Z</time></trkpt><trkpt lat="43.8786518" lon="12.3890939"><ele>494.7142857142857</ele><time>2026-04-30T15:42:53.231Z</time></trkpt><trkpt lat="43.8786154" lon="12.3890027"><ele>494.0</ele><time>2026-04-30T15:42:54.22Z</time></trkpt><trkpt lat="43.878576" lon="12.3889227"><ele>494.0</ele><time>2026-04-30T15:42:55.23Z</time></trkpt><trkpt lat="43.8785415" lon="12.3888471"><ele>494.0</ele><time>2026-04-30T15:42:56.156Z</time></trkpt><trkpt lat="43.8784801" lon="12.3887149"><ele>494.0</ele><time>2026-04-30T15:42:58.186Z</time></trkpt><trkpt lat="43.8784312" lon="12.3885983"><ele>494.0</ele><time>2026-04-30T15:43:00.225Z</time></trkpt><trkpt lat="43.8783724" lon="12.3884933"><ele>494.0</ele><time>2026-04-30T15:43:02.156Z</time></trkpt><trkpt lat="43.8782979" lon="12.3883847"><ele>494.79999999999995</ele><time>2026-04-30T15:43:04.161Z</time></trkpt><trkpt lat="43.8782071" lon="12.3883058"><ele>495.59999999999997</ele><time>2026-04-30T15:43:06.18Z</time></trkpt><trkpt lat="43.8781124" lon="12.3882459"><ele>496.4</ele><time>2026-04-30T15:43:08.182Z</time></trkpt><trkpt lat="43.8780295" lon="12.388171"><ele>497.2</ele><time>2026-04-30T15:43:10.219Z</time></trkpt><trkpt lat="43.8779484" lon="12.3880653"><ele>498.0</ele><time>2026-04-30T15:43:12.208Z</time></trkpt><trkpt lat="43.8778594" lon="12.3879744"><ele>498.0</ele><time>2026-04-30T15:43:14.173Z</time></trkpt><trkpt lat="43.8777384" lon="12.3878145"><ele>498.0</ele><time>2026-04-30T15:43:15.065Z</time></trkpt><trkpt lat="43.8776551" lon="12.3877247"><ele>498.0</ele><time>2026-04-30T15:43:17.061Z</time></trkpt><trkpt lat="43.8775844" lon="12.3876429"><ele>498.0</ele><time>2026-04-30T15:43:19.103Z</time></trkpt><trkpt lat="43.8775073" lon="12.3875911"><ele>498.71428571428567</ele><time>2026-04-30T15:43:21.059Z</time></trkpt><trkpt lat="43.8774312" lon="12.3875567"><ele>499.4285714285714</ele><time>2026-04-30T15:43:23.083Z</time></trkpt><trkpt lat="43.8773667" lon="12.3875237"><ele>500.1428571428571</ele><time>2026-04-30T15:43:25.07Z</time></trkpt><trkpt lat="43.8773001" lon="12.3874959"><ele>500.8571428571429</ele><time>2026-04-30T15:43:27.091Z</time></trkpt><trkpt lat="43.8772362" lon="12.3874485"><ele>501.5714285714286</ele><time>2026-04-30T15:43:29.062Z</time></trkpt><trkpt lat="43.8771678" lon="12.3874111"><ele>502.28571428571433</ele><time>2026-04-30T15:43:31.084Z</time></trkpt><trkpt lat="43.8770969" lon="12.3873799"><ele>503.0</ele><time>2026-04-30T15:43:33.045Z</time></trkpt><trkpt lat="43.8770198" lon="12.3873414"><ele>502.99999999999994</ele><time>2026-04-30T15:43:35.062Z</time></trkpt><trkpt lat="43.8769383" lon="12.3872942"><ele>503.0</ele><time>2026-04-30T15:43:37.072Z</time></trkpt><trkpt lat="43.8768554" lon="12.3872591"><ele>503.0</ele><time>2026-04-30T15:43:39.111Z</time></trkpt><trkpt lat="43.8767809" lon="12.3872128"><ele>503.0</ele><time>2026-04-30T15:43:41.101Z</time></trkpt><trkpt lat="43.8767111" lon="12.3871702"><ele>502.99999999999994</ele><time>2026-04-30T15:43:43.1Z</time></trkpt><trkpt lat="43.8766365" lon="12.387124"><ele>503.0</ele><time>2026-04-30T15:43:45.059Z</time></trkpt><trkpt lat="43.8765731" lon="12.3870858"><ele>503.42857142857144</ele><time>2026-04-30T15:43:47.112Z</time></trkpt><trkpt lat="43.8765125" lon="12.3870446"><ele>503.8571428571429</ele><time>2026-04-30T15:43:49.108Z</time></trkpt><trkpt lat="43.8764506" lon="12.3870038"><ele>504.28571428571433</ele><time>2026-04-30T15:43:51.123Z</time></trkpt><trkpt lat="43.8763893" lon="12.3869613"><ele>504.7142857142858</ele><time>2026-04-30T15:43:53.095Z</time></trkpt><trkpt lat="43.8763276" lon="12.3869186"><ele>505.14285714285717</ele><time>2026-04-30T15:43:55.086Z</time></trkpt><trkpt lat="43.8762477" lon="12.3868826"><ele>505.57142857142867</ele><time>2026-04-30T15:43:58.104Z</time></trkpt><trkpt lat="43.8761765" lon="12.3868514"><ele>506.00000000000006</ele><time>2026-04-30T15:44:01.096Z</time></trkpt><trkpt lat="43.8760935" lon="12.386824"><ele>505.99999999999994</ele><time>2026-04-30T15:44:04.104Z</time></trkpt><trkpt lat="43.876025" lon="12.3868074"><ele>506.0</ele><time>2026-04-30T15:44:07.122Z</time></trkpt><trkpt lat="43.875943" lon="12.3867811"><ele>506.0</ele><time>2026-04-30T15:44:10.085Z</time></trkpt><trkpt lat="43.8758685" lon="12.3867657"><ele>506.0</ele><time>2026-04-30T15:44:13.06Z</time></trkpt><trkpt lat="43.8757848" lon="12.3867452"><ele>505.99999999999994</ele><time>2026-04-30T15:44:16.099Z</time></trkpt><trkpt lat="43.8757144" lon="12.3867222"><ele>506.0</ele><time>2026-04-30T15:44:19.115Z</time></trkpt><trkpt lat="43.8756524" lon="12.3867053"><ele>507.00000000000006</ele><time>2026-04-30T15:44:22.127Z</time></trkpt><trkpt lat="43.875579" lon="12.3866889"><ele>508.0</ele><time>2026-04-30T15:44:25.127Z</time></trkpt><trkpt lat="43.8755044" lon="12.3866584"><ele>509.00000000000006</ele><time>2026-04-30T15:44:28.117Z</time></trkpt><trkpt lat="43.8754386" lon="12.3866468"><ele>510.00000000000006</ele><time>2026-04-30T15:44:31.11Z</time></trkpt><trkpt lat="43.8753678" lon="12.3866307"><ele>511.0</ele><time>2026-04-30T15:44:34.081Z</time></trkpt><trkpt lat="43.8753033" lon="12.3866149"><ele>512.0000000000001</ele><time>2026-04-30T15:44:37.122Z</time></trkpt><trkpt lat="43.8752176" lon="12.3866096"><ele>513.0</ele><time>2026-04-30T15:44:41.124Z</time></trkpt><trkpt lat="43.8751411" lon="12.3865551"><ele>513.7142857142858</ele><time>2026-04-30T15:44:44.124Z</time></trkpt><trkpt lat="43.8750795" lon="12.3865092"><ele>514.4285714285714</ele><time>2026-04-30T15:44:47.11Z</time></trkpt><trkpt lat="43.8750174" lon="12.3864558"><ele>515.1428571428571</ele><time>2026-04-30T15:44:50.123Z</time></trkpt><trkpt lat="43.8749655" lon="12.3863926"><ele>515.8571428571429</ele><time>2026-04-30T15:44:52.137Z</time></trkpt><trkpt lat="43.8749292" lon="12.3863198"><ele>516.5714285714286</ele><time>2026-04-30T15:44:54.13Z</time></trkpt><trkpt lat="43.8748808" lon="12.3862093"><ele>517.2857142857143</ele><time>2026-04-30T15:44:57.129Z</time></trkpt><trkpt lat="43.8748465" lon="12.3861127"><ele>518.0</ele><time>2026-04-30T15:45:00.111Z</time></trkpt><trkpt lat="43.8748367" lon="12.3860029"><ele>518.8333333333333</ele><time>2026-04-30T15:45:03.125Z</time></trkpt><trkpt lat="43.8748297" lon="12.3858975"><ele>519.6666666666666</ele><time>2026-04-30T15:45:07.082Z</time></trkpt><trkpt lat="43.8748141" lon="12.3857848"><ele>520.5</ele><time>2026-04-30T15:45:11.125Z</time></trkpt><trkpt lat="43.8748059" lon="12.3856706"><ele>521.3333333333334</ele><time>2026-04-30T15:45:15.076Z</time></trkpt><trkpt lat="43.8747821" lon="12.3855545"><ele>522.1666666666667</ele><time>2026-04-30T15:45:19.114Z</time></trkpt><trkpt lat="43.8747549" lon="12.3854553"><ele>523.0</ele><time>2026-04-30T15:45:23.122Z</time></trkpt><trkpt lat="43.8747287" lon="12.3853489"><ele>524.1666666666667</ele><time>2026-04-30T15:45:27.14Z</time></trkpt><trkpt lat="43.8746863" lon="12.3852524"><ele>525.3333333333334</ele><time>2026-04-30T15:45:31.092Z</time></trkpt><trkpt lat="43.8746492" lon="12.3851633"><ele>526.5</ele><time>2026-04-30T15:45:34.119Z</time></trkpt><trkpt lat="43.8746126" lon="12.3850618"><ele>527.6666666666666</ele><time>2026-04-30T15:45:37.125Z</time></trkpt><trkpt lat="43.8745606" lon="12.3849499"><ele>528.8333333333333</ele><time>2026-04-30T15:45:40.056Z</time></trkpt><trkpt lat="43.8745103" lon="12.3848422"><ele>530.0</ele><time>2026-04-30T15:45:42.123Z</time></trkpt><trkpt lat="43.8744507" lon="12.3847222"><ele>530.3333333333333</ele><time>2026-04-30T15:45:44.083Z</time></trkpt><trkpt lat="43.8744061" lon="12.3846551"><ele>530.6666666666666</ele><time>2026-04-30T15:45:45.088Z</time></trkpt><trkpt lat="43.8743458" lon="12.3845708"><ele>531.0</ele><time>2026-04-30T15:45:46.117Z</time></trkpt><trkpt lat="43.8742889" lon="12.3845101"><ele>531.3333333333334</ele><time>2026-04-30T15:45:47.118Z</time></trkpt><trkpt lat="43.8742283" lon="12.3844416"><ele>531.6666666666667</ele><time>2026-04-30T15:45:48.095Z</time></trkpt><trkpt lat="43.8741639" lon="12.3843768"><ele>532.0</ele><time>2026-04-30T15:45:49.114Z</time></trkpt><trkpt lat="43.8740999" lon="12.384311"><ele>532.0</ele><time>2026-04-30T15:45:50.119Z</time></trkpt><trkpt lat="43.8740261" lon="12.3843066"><ele>532.0</ele><time>2026-04-30T15:45:51.133Z</time></trkpt><trkpt lat="43.8739452" lon="12.3843408"><ele>532.0</ele><time>2026-04-30T15:45:52.127Z</time></trkpt><trkpt lat="43.8738893" lon="12.3843882"><ele>532.0</ele><time>2026-04-30T15:45:53.129Z</time></trkpt><trkpt lat="43.8738074" lon="12.3844912"><ele>532.0</ele><time>2026-04-30T15:45:55.137Z</time></trkpt><trkpt lat="43.8737493" lon="12.3845763"><ele>532.0</ele><time>2026-04-30T15:45:57.14Z</time></trkpt><trkpt lat="43.873698" lon="12.3846417"><ele>531.8333333333334</ele><time>2026-04-30T15:45:59.133Z</time></trkpt><trkpt lat="43.8736453" lon="12.3846969"><ele>531.6666666666667</ele><time>2026-04-30T15:46:02.126Z</time></trkpt><trkpt lat="43.873577" lon="12.384749"><ele>531.5</ele><time>2026-04-30T15:46:06.113Z</time></trkpt><trkpt lat="43.8735004" lon="12.3847787"><ele>531.3333333333334</ele><time>2026-04-30T15:46:11.114Z</time></trkpt><trkpt lat="43.8734175" lon="12.3847816"><ele>531.1666666666666</ele><time>2026-04-30T15:46:15.117Z</time></trkpt><trkpt lat="43.8733489" lon="12.3847919"><ele>531.0</ele><time>2026-04-30T15:46:19.09Z</time></trkpt><trkpt lat="43.8732675" lon="12.3847894"><ele>531.0</ele><time>2026-04-30T15:46:23.115Z</time></trkpt><trkpt lat="43.8731804" lon="12.3847715"><ele>531.0</ele><time>2026-04-30T15:46:27.127Z</time></trkpt><trkpt lat="43.8731104" lon="12.3847452"><ele>531.0</ele><time>2026-04-30T15:46:30.088Z</time></trkpt><trkpt lat="43.8730349" lon="12.3847063"><ele>531.0</ele><time>2026-04-30T15:46:33.122Z</time></trkpt><trkpt lat="43.8729711" lon="12.3846735"><ele>531.0</ele><time>2026-04-30T15:46:36.114Z</time></trkpt><trkpt lat="43.8729031" lon="12.3846526"><ele>531.0</ele><time>2026-04-30T15:46:39.127Z</time></trkpt><trkpt lat="43.8728351" lon="12.3846483"><ele>531.0</ele><time>2026-04-30T15:46:42.109Z</time></trkpt><trkpt lat="43.8727681" lon="12.384645"><ele>532.3333333333334</ele><time>2026-04-30T15:46:45.088Z</time></trkpt><trkpt lat="43.8727006" lon="12.3846191"><ele>533.6666666666666</ele><time>2026-04-30T15:46:48.117Z</time></trkpt><trkpt lat="43.8726411" lon="12.3845669"><ele>535.0</ele><time>2026-04-30T15:46:51.135Z</time></trkpt><trkpt lat="43.872588" lon="12.384482"><ele>536.3333333333333</ele><time>2026-04-30T15:46:54.122Z</time></trkpt><trkpt lat="43.8725521" lon="12.3843857"><ele>537.6666666666666</ele><time>2026-04-30T15:46:57.109Z</time></trkpt><trkpt lat="43.8725291" lon="12.3842675"><ele>539.0</ele><time>2026-04-30T15:47:00.094Z</time></trkpt><trkpt lat="43.8725411" lon="12.3841691"><ele>539.0</ele><time>2026-04-30T15:47:03.121Z</time></trkpt><trkpt lat="43.87259" lon="12.3840959"><ele>539.0</ele><time>2026-04-30T15:47:06.103Z</time></trkpt><trkpt lat="43.8726234" lon="12.3840215"><ele>539.0</ele><time>2026-04-30T15:47:09.152Z</time></trkpt><trkpt lat="43.8726649" lon="12.3839428"><ele>539.0</ele><time>2026-04-30T15:47:13.092Z</time></trkpt><trkpt lat="43.8727029" lon="12.3838705"><ele>539.0</ele><time>2026-04-30T15:47:17.095Z</time></trkpt><trkpt lat="43.8727454" lon="12.3837801"><ele>539.0</ele><time>2026-04-30T15:47:22.084Z</time></trkpt><trkpt lat="43.8727714" lon="12.3836819"><ele>539.0</ele><time>2026-04-30T15:47:27.102Z</time></trkpt><trkpt lat="43.872802" lon="12.3835883"><ele>539.8571428571429</ele><time>2026-04-30T15:47:32.122Z</time></trkpt><trkpt lat="43.8728203" lon="12.3834834"><ele>540.7142857142858</ele><time>2026-04-30T15:47:37.123Z</time></trkpt><trkpt lat="43.8728481" lon="12.3833952"><ele>541.5714285714286</ele><time>2026-04-30T15:47:42.131Z</time></trkpt><trkpt lat="43.87286" lon="12.3832923"><ele>542.4285714285714</ele><time>2026-04-30T15:47:47.109Z</time></trkpt><trkpt lat="43.8728647" lon="12.3831976"><ele>543.2857142857143</ele><time>2026-04-30T15:47:52.074Z</time></trkpt><trkpt lat="43.8728709" lon="12.383107"><ele>544.1428571428571</ele><time>2026-04-30T15:47:57.14Z</time></trkpt><trkpt lat="43.8728691" lon="12.3830116"><ele>545.0</ele><time>2026-04-30T15:48:02.11Z</time></trkpt><trkpt lat="43.872856" lon="12.382915"><ele>546.1428571428571</ele><time>2026-04-30T15:48:07.127Z</time></trkpt><trkpt lat="43.8728226" lon="12.3828399"><ele>547.2857142857143</ele><time>2026-04-30T15:48:11.107Z</time></trkpt><trkpt lat="43.8727876" lon="12.3827635"><ele>548.4285714285714</ele><time>2026-04-30T15:48:15.125Z</time></trkpt><trkpt lat="43.8727539" lon="12.3826853"><ele>549.5714285714286</ele><time>2026-04-30T15:48:19.118Z</time></trkpt><trkpt lat="43.8727227" lon="12.3825953"><ele>550.7142857142858</ele><time>2026-04-30T15:48:24.104Z</time></trkpt><trkpt lat="43.8726897" lon="12.3825124"><ele>551.8571428571429</ele><time>2026-04-30T15:48:29.114Z</time></trkpt><trkpt lat="43.8726488" lon="12.382439"><ele>553.0</ele><time>2026-04-30T15:48:33.078Z</time></trkpt><trkpt lat="43.8726165" lon="12.3823511"><ele>554.4285714285714</ele><time>2026-04-30T15:48:38.125Z</time></trkpt><trkpt lat="43.8725857" lon="12.3822633"><ele>555.8571428571429</ele><time>2026-04-30T15:48:43.122Z</time></trkpt><trkpt lat="43.8725599" lon="12.3821781"><ele>557.2857142857142</ele><time>2026-04-30T15:48:48.119Z</time></trkpt><trkpt lat="43.8725324" lon="12.3820805"><ele>558.7142857142858</ele><time>2026-04-30T15:48:54.141Z</time></trkpt><trkpt lat="43.8725009" lon="12.3819926"><ele>560.1428571428571</ele><time>2026-04-30T15:48:59.075Z</time></trkpt><trkpt lat="43.8724658" lon="12.3819126"><ele>561.5714285714286</ele><time>2026-04-30T15:49:04.125Z</time></trkpt><trkpt lat="43.8724293" lon="12.381839"><ele>563.0</ele><time>2026-04-30T15:49:08.094Z</time></trkpt><trkpt lat="43.8724019" lon="12.3817583"><ele>564.5714285714286</ele><time>2026-04-30T15:49:12.124Z</time></trkpt><trkpt lat="43.8723693" lon="12.3816636"><ele>566.1428571428571</ele><time>2026-04-30T15:49:17.116Z</time></trkpt><trkpt lat="43.8723347" lon="12.3815874"><ele>567.7142857142858</ele><time>2026-04-30T15:49:21.123Z</time></trkpt><trkpt lat="43.8722973" lon="12.3814971"><ele>569.2857142857142</ele><time>2026-04-30T15:49:26.12Z</time></trkpt><trkpt lat="43.8722675" lon="12.3814041"><ele>570.8571428571429</ele><time>2026-04-30T15:49:31.137Z</time></trkpt><trkpt lat="43.8722309" lon="12.3813112"><ele>572.4285714285714</ele><time>2026-04-30T15:49:36.114Z</time></trkpt><trkpt lat="43.8722011" lon="12.3812217"><ele>574.0</ele><time>2026-04-30T15:49:41.112Z</time></trkpt><trkpt lat="43.8721805" lon="12.3811384"><ele>575.5714285714286</ele><time>2026-04-30T15:49:45.131Z</time></trkpt><trkpt lat="43.872142" lon="12.3810499"><ele>577.1428571428571</ele><time>2026-04-30T15:49:50.051Z</time></trkpt><trkpt lat="43.8720985" lon="12.3809787"><ele>578.7142857142858</ele><time>2026-04-30T15:49:55.056Z</time></trkpt><trkpt lat="43.8720742" lon="12.3808809"><ele>580.2857142857142</ele><time>2026-04-30T15:50:00.094Z</time></trkpt><trkpt lat="43.8720422" lon="12.3808023"><ele>581.8571428571429</ele><time>2026-04-30T15:50:06.092Z</time></trkpt><trkpt lat="43.8720193" lon="12.3807059"><ele>583.4285714285714</ele><time>2026-04-30T15:50:12.073Z</time></trkpt><trkpt lat="43.871997" lon="12.3806181"><ele>585.0</ele><time>2026-04-30T15:50:17.116Z</time></trkpt><trkpt lat="43.8719747" lon="12.3805341"><ele>586.5714285714286</ele><time>2026-04-30T15:50:21.101Z</time></trkpt><trkpt lat="43.8719488" lon="12.380429"><ele>588.1428571428571</ele><time>2026-04-30T15:50:25.117Z</time></trkpt><trkpt lat="43.8719375" lon="12.3803207"><ele>589.7142857142857</ele><time>2026-04-30T15:50:29.089Z</time></trkpt><trkpt lat="43.8719297" lon="12.3802274"><ele>591.2857142857142</ele><time>2026-04-30T15:50:33.142Z</time></trkpt><trkpt lat="43.8719238" lon="12.3801252"><ele>592.8571428571428</ele><time>2026-04-30T15:50:39.122Z</time></trkpt><trkpt lat="43.8719252" lon="12.3800332"><ele>594.4285714285714</ele><time>2026-04-30T15:50:44.115Z</time></trkpt><trkpt lat="43.8719173" lon="12.3799375"><ele>596.0</ele><time>2026-04-30T15:50:49.113Z</time></trkpt><trkpt lat="43.8719076" lon="12.3798363"><ele>596.0</ele><time>2026-04-30T15:50:55.106Z</time></trkpt><trkpt lat="43.8718827" lon="12.3797499"><ele>596.0</ele><time>2026-04-30T15:51:01.117Z</time></trkpt><trkpt lat="43.8718701" lon="12.3796564"><ele>596.0</ele><time>2026-04-30T15:51:06.074Z</time></trkpt><trkpt lat="43.8718441" lon="12.3795692"><ele>596.0</ele><time>2026-04-30T15:51:12.116Z</time></trkpt><trkpt lat="43.8718255" lon="12.3794798"><ele>596.0</ele><time>2026-04-30T15:51:17.104Z</time></trkpt><trkpt lat="43.8718007" lon="12.3793937"><ele>596.0</ele><time>2026-04-30T15:51:21.117Z</time></trkpt><trkpt lat="43.8717783" lon="12.3793107"><ele>596.0</ele><time>2026-04-30T15:51:26.12Z</time></trkpt><trkpt lat="43.8717524" lon="12.3792253"><ele>597.8571428571429</ele><time>2026-04-30T15:51:30.125Z</time></trkpt><trkpt lat="43.8717272" lon="12.3791233"><ele>599.7142857142857</ele><time>2026-04-30T15:51:35.123Z</time></trkpt><trkpt lat="43.871726" lon="12.3790217"><ele>601.5714285714286</ele><time>2026-04-30T15:51:41.121Z</time></trkpt><trkpt lat="43.8717099" lon="12.3789194"><ele>603.4285714285714</ele><time>2026-04-30T15:51:46.13Z</time></trkpt><trkpt lat="43.8716915" lon="12.3788319"><ele>605.2857142857142</ele><time>2026-04-30T15:51:50.126Z</time></trkpt><trkpt lat="43.8716674" lon="12.37874"><ele>607.1428571428571</ele><time>2026-04-30T15:51:55.095Z</time></trkpt><trkpt lat="43.8716552" lon="12.3786539"><ele>609.0</ele><time>2026-04-30T15:51:59.111Z</time></trkpt><trkpt lat="43.8716425" lon="12.37855"><ele>610.1428571428571</ele><time>2026-04-30T15:52:04.126Z</time></trkpt><trkpt lat="43.8716317" lon="12.3784482"><ele>611.2857142857142</ele><time>2026-04-30T15:52:09.131Z</time></trkpt><trkpt lat="43.8716166" lon="12.3783594"><ele>612.4285714285714</ele><time>2026-04-30T15:52:14.125Z</time></trkpt><trkpt lat="43.8716056" lon="12.3782706"><ele>613.5714285714286</ele><time>2026-04-30T15:52:19.1Z</time></trkpt><trkpt lat="43.871578" lon="12.3781766"><ele>614.7142857142857</ele><time>2026-04-30T15:52:25.114Z</time></trkpt><trkpt lat="43.8715535" lon="12.378096"><ele>615.8571428571429</ele><time>2026-04-30T15:52:30.109Z</time></trkpt><trkpt lat="43.8715173" lon="12.3780218"><ele>617.0</ele><time>2026-04-30T15:52:35.113Z</time></trkpt><trkpt lat="43.8714868" lon="12.3779371"><ele>618.7142857142858</ele><time>2026-04-30T15:52:41.118Z</time></trkpt><trkpt lat="43.8714438" lon="12.3778515"><ele>620.4285714285713</ele><time>2026-04-30T15:52:47.082Z</time></trkpt><trkpt lat="43.8714241" lon="12.3777556"><ele>622.1428571428571</ele><time>2026-04-30T15:52:53.118Z</time></trkpt><trkpt lat="43.8713935" lon="12.3776616"><ele>623.8571428571429</ele><time>2026-04-30T15:52:59.101Z</time></trkpt><trkpt lat="43.8713749" lon="12.3775614"><ele>625.5714285714287</ele><time>2026-04-30T15:53:04.063Z</time></trkpt><trkpt lat="43.8713442" lon="12.37746"><ele>627.2857142857142</ele><time>2026-04-30T15:53:10.116Z</time></trkpt><trkpt lat="43.8713135" lon="12.3773777"><ele>629.0</ele><time>2026-04-30T15:53:15.121Z</time></trkpt><trkpt lat="43.8712787" lon="12.3772852"><ele>629.0</ele><time>2026-04-30T15:53:21.069Z</time></trkpt><trkpt lat="43.8712482" lon="12.3771976"><ele>629.0</ele><time>2026-04-30T15:53:26.088Z</time></trkpt><trkpt lat="43.8712297" lon="12.3770981"><ele>629.0</ele><time>2026-04-30T15:53:32.123Z</time></trkpt><trkpt lat="43.8712367" lon="12.3769982"><ele>629.0</ele><time>2026-04-30T15:53:37.126Z</time></trkpt><trkpt lat="43.8712591" lon="12.3769048"><ele>629.0</ele><time>2026-04-30T15:53:42.118Z</time></trkpt><trkpt lat="43.8713005" lon="12.3768217"><ele>629.0</ele><time>2026-04-30T15:53:47.119Z</time></trkpt><trkpt lat="43.8713313" lon="12.3767393"><ele>629.0</ele><time>2026-04-30T15:53:52.106Z</time></trkpt><trkpt lat="43.8713654" lon="12.3766507"><ele>631.0</ele><time>2026-04-30T15:53:56.103Z</time></trkpt><trkpt lat="43.8714055" lon="12.3765656"><ele>633.0</ele><time>2026-04-30T15:54:00.091Z</time></trkpt><trkpt lat="43.871438" lon="12.3764698"><ele>635.0</ele><time>2026-04-30T15:54:05.12Z</time></trkpt><trkpt lat="43.8714397" lon="12.3763726"><ele>637.0</ele><time>2026-04-30T15:54:09.082Z</time></trkpt><trkpt lat="43.8714245" lon="12.3762647"><ele>639.0</ele><time>2026-04-30T15:54:13.124Z</time></trkpt><trkpt lat="43.8714073" lon="12.3761603"><ele>641.0</ele><time>2026-04-30T15:54:17.099Z</time></trkpt><trkpt lat="43.8713681" lon="12.3760618"><ele>642.1666666666666</ele><time>2026-04-30T15:54:21.117Z</time></trkpt><trkpt lat="43.8713104" lon="12.3759758"><ele>643.3333333333333</ele><time>2026-04-30T15:54:24.079Z</time></trkpt><trkpt lat="43.8712523" lon="12.3759364"><ele>644.5</ele><time>2026-04-30T15:54:26.091Z</time></trkpt><trkpt lat="43.8711622" lon="12.3758993"><ele>645.6666666666666</ele><time>2026-04-30T15:54:28.092Z</time></trkpt><trkpt lat="43.8710711" lon="12.3758584"><ele>646.8333333333334</ele><time>2026-04-30T15:54:30.085Z</time></trkpt><trkpt lat="43.8709931" lon="12.3758265"><ele>648.0</ele><time>2026-04-30T15:54:32.132Z</time></trkpt><trkpt lat="43.8709189" lon="12.3757882"><ele>648.2857142857143</ele><time>2026-04-30T15:54:34.136Z</time></trkpt><trkpt lat="43.870853" lon="12.3757514"><ele>648.5714285714286</ele><time>2026-04-30T15:54:36.101Z</time></trkpt><trkpt lat="43.8708043" lon="12.3756773"><ele>648.8571428571429</ele><time>2026-04-30T15:54:39.118Z</time></trkpt><trkpt lat="43.8707908" lon="12.37559"><ele>649.1428571428571</ele><time>2026-04-30T15:54:43.13Z</time></trkpt><trkpt lat="43.870801" lon="12.3754829"><ele>649.4285714285714</ele><time>2026-04-30T15:54:48.104Z</time></trkpt><trkpt lat="43.8708276" lon="12.3753835"><ele>649.7142857142857</ele><time>2026-04-30T15:54:53.106Z</time></trkpt><trkpt lat="43.8708427" lon="12.3752812"><ele>650.0</ele><time>2026-04-30T15:54:58.107Z</time></trkpt><trkpt lat="43.8708633" lon="12.3751867"><ele>651.1428571428571</ele><time>2026-04-30T15:55:03.114Z</time></trkpt><trkpt lat="43.8708904" lon="12.3750907"><ele>652.2857142857143</ele><time>2026-04-30T15:55:09.064Z</time></trkpt><trkpt lat="43.870925" lon="12.3749998"><ele>653.4285714285714</ele><time>2026-04-30T15:55:14.092Z</time></trkpt><trkpt lat="43.8709514" lon="12.3749031"><ele>654.5714285714286</ele><time>2026-04-30T15:55:19.109Z</time></trkpt><trkpt lat="43.8709711" lon="12.3748183"><ele>655.7142857142858</ele><time>2026-04-30T15:55:23.119Z</time></trkpt><trkpt lat="43.8710019" lon="12.3747245"><ele>656.8571428571429</ele><time>2026-04-30T15:55:28.099Z</time></trkpt><trkpt lat="43.8710301" lon="12.3746338"><ele>658.0</ele><time>2026-04-30T15:55:33.128Z</time></trkpt><trkpt lat="43.8710524" lon="12.3745493"><ele>658.5714285714286</ele><time>2026-04-30T15:55:37.108Z</time></trkpt><trkpt lat="43.8710754" lon="12.374464"><ele>659.1428571428571</ele><time>2026-04-30T15:55:41.128Z</time></trkpt><trkpt lat="43.8710962" lon="12.374372"><ele>659.7142857142858</ele><time>2026-04-30T15:55:45.134Z</time></trkpt><trkpt lat="43.8711314" lon="12.3742755"><ele>660.2857142857142</ele><time>2026-04-30T15:55:49.105Z</time></trkpt><trkpt lat="43.8711465" lon="12.3741773"><ele>660.8571428571429</ele><time>2026-04-30T15:55:53.114Z</time></trkpt><trkpt lat="43.8711472" lon="12.3740774"><ele>661.4285714285714</ele><time>2026-04-30T15:55:57.114Z</time></trkpt><trkpt lat="43.8711296" lon="12.3739686"><ele>662.0</ele><time>2026-04-30T15:56:01.105Z</time></trkpt><trkpt lat="43.8711017" lon="12.3738882"><ele>661.4285714285714</ele><time>2026-04-30T15:56:05.109Z</time></trkpt><trkpt lat="43.8710641" lon="12.3738065"><ele>660.8571428571429</ele><time>2026-04-30T15:56:09.063Z</time></trkpt><trkpt lat="43.8710254" lon="12.3737374"><ele>660.2857142857142</ele><time>2026-04-30T15:56:13.094Z</time></trkpt><trkpt lat="43.8709785" lon="12.3736635"><ele>659.7142857142858</ele><time>2026-04-30T15:56:17.121Z</time></trkpt><trkpt lat="43.870934" lon="12.3735866"><ele>659.1428571428571</ele><time>2026-04-30T15:56:22.142Z</time></trkpt><trkpt lat="43.870903" lon="12.3734927"><ele>658.5714285714286</ele><time>2026-04-30T15:56:28.144Z</time></trkpt><trkpt lat="43.8708677" lon="12.3734034"><ele>658.0</ele><time>2026-04-30T15:56:33.114Z</time></trkpt><trkpt lat="43.8708288" lon="12.3733215"><ele>659.7142857142857</ele><time>2026-04-30T15:56:38.133Z</time></trkpt><trkpt lat="43.870776" lon="12.3732501"><ele>661.4285714285714</ele><time>2026-04-30T15:56:43.152Z</time></trkpt><trkpt lat="43.8707358" lon="12.3731686"><ele>663.1428571428571</ele><time>2026-04-30T15:56:47.128Z</time></trkpt><trkpt lat="43.8706983" lon="12.3730933"><ele>664.8571428571429</ele><time>2026-04-30T15:56:50.134Z</time></trkpt><trkpt lat="43.8706545" lon="12.3729949"><ele>666.5714285714286</ele><time>2026-04-30T15:56:54.134Z</time></trkpt><trkpt lat="43.8706115" lon="12.3728998"><ele>668.2857142857142</ele><time>2026-04-30T15:56:58.119Z</time></trkpt><trkpt lat="43.8705825" lon="12.3728206"><ele>670.0</ele><time>2026-04-30T15:57:01.131Z</time></trkpt><trkpt lat="43.8705467" lon="12.3727465"><ele>671.2857142857142</ele><time>2026-04-30T15:57:05.115Z</time></trkpt><trkpt lat="43.8705144" lon="12.3726532"><ele>672.5714285714286</ele><time>2026-04-30T15:57:10.116Z</time></trkpt><trkpt lat="43.8704999" lon="12.3725647"><ele>673.8571428571429</ele><time>2026-04-30T15:57:16.103Z</time></trkpt><trkpt lat="43.8704757" lon="12.3724598"><ele>675.1428571428571</ele><time>2026-04-30T15:57:21.13Z</time></trkpt><trkpt lat="43.8704649" lon="12.3723715"><ele>676.4285714285714</ele><time>2026-04-30T15:57:26.133Z</time></trkpt><trkpt lat="43.870443" lon="12.3722746"><ele>677.7142857142857</ele><time>2026-04-30T15:57:31.137Z</time></trkpt><trkpt lat="43.8704179" lon="12.3721865"><ele>679.0</ele><time>2026-04-30T15:57:36.119Z</time></trkpt><trkpt lat="43.8704054" lon="12.3721006"><ele>680.0</ele><time>2026-04-30T15:57:41.07Z</time></trkpt><trkpt lat="43.8703886" lon="12.3719975"><ele>681.0</ele><time>2026-04-30T15:57:47.109Z</time></trkpt><trkpt lat="43.8703661" lon="12.3719095"><ele>682.0</ele><time>2026-04-30T15:57:53.128Z</time></trkpt><trkpt lat="43.8703404" lon="12.3718278"><ele>683.0</ele><time>2026-04-30T15:57:56.12Z</time></trkpt><trkpt lat="43.8703066" lon="12.3717495"><ele>684.0</ele><time>2026-04-30T15:57:59.115Z</time></trkpt><trkpt lat="43.8702695" lon="12.3716576"><ele>685.0</ele><time>2026-04-30T15:58:02.111Z</time></trkpt><trkpt lat="43.8702211" lon="12.3715617"><ele>686.0</ele><time>2026-04-30T15:58:05.131Z</time></trkpt><trkpt lat="43.8701757" lon="12.3714644"><ele>686.0</ele><time>2026-04-30T15:58:08.103Z</time></trkpt><trkpt lat="43.8701346" lon="12.3713712"><ele>686.0</ele><time>2026-04-30T15:58:11.108Z</time></trkpt><trkpt lat="43.8701019" lon="12.3712847"><ele>686.0</ele><time>2026-04-30T15:58:14.111Z</time></trkpt><trkpt lat="43.8700653" lon="12.3711852"><ele>686.0</ele><time>2026-04-30T15:58:18.104Z</time></trkpt><trkpt lat="43.8700337" lon="12.3710884"><ele>686.0</ele><time>2026-04-30T15:58:21.129Z</time></trkpt><trkpt lat="43.8700014" lon="12.3709928"><ele>686.0</ele><time>2026-04-30T15:58:24.089Z</time></trkpt><trkpt lat="43.869968" lon="12.370877"><ele>687.0</ele><time>2026-04-30T15:58:27.096Z</time></trkpt><trkpt lat="43.8699398" lon="12.3707576"><ele>688.0</ele><time>2026-04-30T15:58:30.091Z</time></trkpt><trkpt lat="43.8699017" lon="12.370639"><ele>689.0</ele><time>2026-04-30T15:58:33.098Z</time></trkpt><trkpt lat="43.8698758" lon="12.3705393"><ele>690.0</ele><time>2026-04-30T15:58:36.123Z</time></trkpt><trkpt lat="43.8698561" lon="12.3704322"><ele>691.0</ele><time>2026-04-30T15:58:40.071Z</time></trkpt><trkpt lat="43.8698388" lon="12.3703347"><ele>692.0</ele><time>2026-04-30T15:58:44.106Z</time></trkpt><trkpt lat="43.8698204" lon="12.3702486"><ele>692.1428571428571</ele><time>2026-04-30T15:58:49.108Z</time></trkpt><trkpt lat="43.8698028" lon="12.3701609"><ele>692.2857142857143</ele><time>2026-04-30T15:58:54.085Z</time></trkpt><trkpt lat="43.8697872" lon="12.3700713"><ele>692.4285714285714</ele><time>2026-04-30T15:58:59.105Z</time></trkpt><trkpt lat="43.8697677" lon="12.3699828"><ele>692.5714285714286</ele><time>2026-04-30T15:59:03.105Z</time></trkpt><trkpt lat="43.8697404" lon="12.3698892"><ele>692.7142857142858</ele><time>2026-04-30T15:59:09.107Z</time></trkpt><trkpt lat="43.8697159" lon="12.3697884"><ele>692.8571428571429</ele><time>2026-04-30T15:59:15.116Z</time></trkpt><trkpt lat="43.8696871" lon="12.3696895"><ele>693.0</ele><time>2026-04-30T15:59:20.103Z</time></trkpt><trkpt lat="43.8696599" lon="12.3695971"><ele>694.1428571428571</ele><time>2026-04-30T15:59:24.123Z</time></trkpt><trkpt lat="43.8696198" lon="12.3695175"><ele>695.2857142857142</ele><time>2026-04-30T15:59:29.103Z</time></trkpt><trkpt lat="43.8695808" lon="12.3694402"><ele>696.4285714285714</ele><time>2026-04-30T15:59:34.124Z</time></trkpt><trkpt lat="43.8695332" lon="12.3693756"><ele>697.5714285714286</ele><time>2026-04-30T15:59:38.089Z</time></trkpt><trkpt lat="43.8694777" lon="12.3692968"><ele>698.7142857142857</ele><time>2026-04-30T15:59:43.112Z</time></trkpt><trkpt lat="43.8694203" lon="12.3692343"><ele>699.8571428571429</ele><time>2026-04-30T15:59:47.108Z</time></trkpt><trkpt lat="43.8693527" lon="12.3691987"><ele>701.0</ele><time>2026-04-30T15:59:51.073Z</time></trkpt><trkpt lat="43.8692888" lon="12.3691703"><ele>702.8571428571429</ele><time>2026-04-30T15:59:55.123Z</time></trkpt><trkpt lat="43.869221" lon="12.369152"><ele>704.7142857142857</ele><time>2026-04-30T15:59:59.13Z</time></trkpt><trkpt lat="43.8691571" lon="12.3691454"><ele>706.5714285714286</ele><time>2026-04-30T16:00:03.127Z</time></trkpt><trkpt lat="43.869083" lon="12.3691197"><ele>708.4285714285714</ele><time>2026-04-30T16:00:07.132Z</time></trkpt><trkpt lat="43.8690206" lon="12.3690861"><ele>710.2857142857142</ele><time>2026-04-30T16:00:11.121Z</time></trkpt><trkpt lat="43.8689555" lon="12.3690353"><ele>712.1428571428571</ele><time>2026-04-30T16:00:15.115Z</time></trkpt><trkpt lat="43.8689122" lon="12.368956"><ele>714.0</ele><time>2026-04-30T16:00:20.11Z</time></trkpt><trkpt lat="43.8688851" lon="12.368863"><ele>714.5714285714286</ele><time>2026-04-30T16:00:24.144Z</time></trkpt><trkpt lat="43.8688614" lon="12.368774"><ele>715.1428571428571</ele><time>2026-04-30T16:00:28.12Z</time></trkpt><trkpt lat="43.868854" lon="12.3686692"><ele>715.7142857142858</ele><time>2026-04-30T16:00:32.087Z</time></trkpt><trkpt lat="43.8688552" lon="12.3685764"><ele>716.2857142857142</ele><time>2026-04-30T16:00:36.126Z</time></trkpt><trkpt lat="43.8688676" lon="12.368462"><ele>716.8571428571429</ele><time>2026-04-30T16:00:40.12Z</time></trkpt><trkpt lat="43.8688765" lon="12.3683564"><ele>717.4285714285714</ele><time>2026-04-30T16:00:43.06Z</time></trkpt><trkpt lat="43.8688777" lon="12.3682529"><ele>718.0</ele><time>2026-04-30T16:00:45.077Z</time></trkpt><trkpt lat="43.8688768" lon="12.3681389"><ele>717.5999999999999</ele><time>2026-04-30T16:00:47.099Z</time></trkpt><trkpt lat="43.8688552" lon="12.3679986"><ele>717.1999999999999</ele><time>2026-04-30T16:00:49.086Z</time></trkpt><trkpt lat="43.8688086" lon="12.3678741"><ele>716.8</ele><time>2026-04-30T16:00:51.098Z</time></trkpt><trkpt lat="43.8687317" lon="12.3677765"><ele>716.4</ele><time>2026-04-30T16:00:53.08Z</time></trkpt><trkpt lat="43.8686577" lon="12.3676758"><ele>716.0</ele><time>2026-04-30T16:00:55.137Z</time></trkpt><trkpt lat="43.8685714" lon="12.3675879"><ele>716.0</ele><time>2026-04-30T16:00:57.145Z</time></trkpt><trkpt lat="43.8684987" lon="12.3675213"><ele>716.0</ele><time>2026-04-30T16:00:59.076Z</time></trkpt><trkpt lat="43.8684445" lon="12.3674598"><ele>716.0</ele><time>2026-04-30T16:01:01.054Z</time></trkpt><trkpt lat="43.8683875" lon="12.3673842"><ele>716.0</ele><time>2026-04-30T16:01:04.121Z</time></trkpt><trkpt lat="43.8683383" lon="12.3673136"><ele>716.0</ele><time>2026-04-30T16:01:07.12Z</time></trkpt><trkpt lat="43.8682946" lon="12.3672204"><ele>716.0</ele><time>2026-04-30T16:01:11.069Z</time></trkpt><trkpt lat="43.8682676" lon="12.3671415"><ele>718.0000000000001</ele><time>2026-04-30T16:01:14.115Z</time></trkpt><trkpt lat="43.8682248" lon="12.3670635"><ele>720.0</ele><time>2026-04-30T16:01:17.127Z</time></trkpt><trkpt lat="43.8681932" lon="12.3669858"><ele>722.0</ele><time>2026-04-30T16:01:20.134Z</time></trkpt><trkpt lat="43.8681586" lon="12.3669054"><ele>724.0</ele><time>2026-04-30T16:01:23.134Z</time></trkpt><trkpt lat="43.8681257" lon="12.3668163"><ele>726.0</ele><time>2026-04-30T16:01:26.105Z</time></trkpt><trkpt lat="43.8680916" lon="12.3667091"><ele>728.0000000000001</ele><time>2026-04-30T16:01:30.117Z</time></trkpt><trkpt lat="43.8680724" lon="12.3666117"><ele>730.0</ele><time>2026-04-30T16:01:34.105Z</time></trkpt><trkpt lat="43.8680663" lon="12.3665247"><ele>730.0000000000001</ele><time>2026-04-30T16:01:38.121Z</time></trkpt><trkpt lat="43.8680583" lon="12.3664132"><ele>730.0</ele><time>2026-04-30T16:01:43.065Z</time></trkpt><trkpt lat="43.8680394" lon="12.3663236"><ele>730.0</ele><time>2026-04-30T16:01:47.097Z</time></trkpt><trkpt lat="43.8680125" lon="12.3662386"><ele>730.0</ele><time>2026-04-30T16:01:51.112Z</time></trkpt><trkpt lat="43.8679788" lon="12.3661527"><ele>730.0</ele><time>2026-04-30T16:01:55.11Z</time></trkpt><trkpt lat="43.8679441" lon="12.3660679"><ele>730.0000000000001</ele><time>2026-04-30T16:02:00.127Z</time></trkpt><trkpt lat="43.8679161" lon="12.3659862"><ele>730.0</ele><time>2026-04-30T16:02:05.11Z</time></trkpt><trkpt lat="43.8678805" lon="12.3659017"><ele>731.0000000000001</ele><time>2026-04-30T16:02:10.123Z</time></trkpt><trkpt lat="43.867833" lon="12.3658207"><ele>732.0</ele><time>2026-04-30T16:02:16.068Z</time></trkpt><trkpt lat="43.8677764" lon="12.3657498"><ele>733.0</ele><time>2026-04-30T16:02:20.1Z</time></trkpt><trkpt lat="43.8677224" lon="12.3656984"><ele>734.0</ele><time>2026-04-30T16:02:24.122Z</time></trkpt><trkpt lat="43.8676623" lon="12.3656633"><ele>735.0</ele><time>2026-04-30T16:02:28.073Z</time></trkpt><trkpt lat="43.8675929" lon="12.3656502"><ele>736.0000000000001</ele><time>2026-04-30T16:02:31.095Z</time></trkpt><trkpt lat="43.8675233" lon="12.3656417"><ele>737.0</ele><time>2026-04-30T16:02:35.09Z</time></trkpt><trkpt lat="43.8674527" lon="12.365641"><ele>737.8571428571429</ele><time>2026-04-30T16:02:39.093Z</time></trkpt><trkpt lat="43.8673863" lon="12.3656167"><ele>738.7142857142858</ele><time>2026-04-30T16:02:43.049Z</time></trkpt><trkpt lat="43.8673183" lon="12.3655712"><ele>739.5714285714287</ele><time>2026-04-30T16:02:47.085Z</time></trkpt><trkpt lat="43.8672528" lon="12.3655161"><ele>740.4285714285714</ele><time>2026-04-30T16:02:51.107Z</time></trkpt><trkpt lat="43.8672177" lon="12.3654386"><ele>741.2857142857142</ele><time>2026-04-30T16:02:54.1Z</time></trkpt><trkpt lat="43.8672011" lon="12.3653541"><ele>742.1428571428572</ele><time>2026-04-30T16:02:57.117Z</time></trkpt><trkpt lat="43.8671853" lon="12.3652664"><ele>743.0</ele><time>2026-04-30T16:03:00.126Z</time></trkpt><trkpt lat="43.8671932" lon="12.3651709"><ele>744.2857142857143</ele><time>2026-04-30T16:03:04.074Z</time></trkpt><trkpt lat="43.8672075" lon="12.3650849"><ele>745.5714285714286</ele><time>2026-04-30T16:03:08.118Z</time></trkpt><trkpt lat="43.867229" lon="12.3649966"><ele>746.8571428571429</ele><time>2026-04-30T16:03:12.13Z</time></trkpt><trkpt lat="43.8672395" lon="12.3648919"><ele>748.1428571428571</ele><time>2026-04-30T16:03:16.066Z</time></trkpt><trkpt lat="43.8672551" lon="12.3647852"><ele>749.4285714285713</ele><time>2026-04-30T16:03:20.11Z</time></trkpt><trkpt lat="43.8672757" lon="12.3646904"><ele>750.7142857142857</ele><time>2026-04-30T16:03:23.103Z</time></trkpt><trkpt lat="43.8672819" lon="12.3646011"><ele>752.0</ele><time>2026-04-30T16:03:26.132Z</time></trkpt><trkpt lat="43.8672909" lon="12.3645144"><ele>752.8571428571429</ele><time>2026-04-30T16:03:29.119Z</time></trkpt><trkpt lat="43.8673082" lon="12.3644303"><ele>753.7142857142857</ele><time>2026-04-30T16:03:32.097Z</time></trkpt><trkpt lat="43.8673324" lon="12.3643428"><ele>754.5714285714287</ele><time>2026-04-30T16:03:35.105Z</time></trkpt><trkpt lat="43.8673438" lon="12.364247"><ele>755.4285714285714</ele><time>2026-04-30T16:03:39.053Z</time></trkpt><trkpt lat="43.8673719" lon="12.3641524"><ele>756.2857142857143</ele><time>2026-04-30T16:03:43.125Z</time></trkpt><trkpt lat="43.8674034" lon="12.364066"><ele>757.1428571428572</ele><time>2026-04-30T16:03:47.114Z</time></trkpt><trkpt lat="43.8674419" lon="12.3639838"><ele>758.0</ele><time>2026-04-30T16:03:51.117Z</time></trkpt><trkpt lat="43.8674807" lon="12.3639059"><ele>758.0</ele><time>2026-04-30T16:03:56.107Z</time></trkpt><trkpt lat="43.8675397" lon="12.3638305"><ele>758.0</ele><time>2026-04-30T16:04:01.092Z</time></trkpt><trkpt lat="43.8675817" lon="12.3637652"><ele>758.0</ele><time>2026-04-30T16:04:04.13Z</time></trkpt><trkpt lat="43.8676414" lon="12.3636781"><ele>758.0</ele><time>2026-04-30T16:04:08.112Z</time></trkpt><trkpt lat="43.867719" lon="12.3636012"><ele>758.0</ele><time>2026-04-30T16:04:11.131Z</time></trkpt><trkpt lat="43.8677814" lon="12.3635406"><ele>758.0</ele><time>2026-04-30T16:04:13.113Z</time></trkpt><trkpt lat="43.8678567" lon="12.3634767"><ele>758.0</ele><time>2026-04-30T16:04:15.109Z</time></trkpt><trkpt lat="43.8679596" lon="12.3633889"><ele>758.0</ele><time>2026-04-30T16:04:17.077Z</time></trkpt><trkpt lat="43.8680546" lon="12.3632969"><ele>758.0</ele><time>2026-04-30T16:04:19.109Z</time></trkpt><trkpt lat="43.8681386" lon="12.3631942"><ele>758.0</ele><time>2026-04-30T16:04:21.084Z</time></trkpt><trkpt lat="43.8682215" lon="12.3630911"><ele>758.0</ele><time>2026-04-30T16:04:23.13Z</time></trkpt><trkpt lat="43.8682936" lon="12.3629861"><ele>758.0</ele><time>2026-04-30T16:04:25.113Z</time></trkpt><trkpt lat="43.8683691" lon="12.3628772"><ele>758.0</ele><time>2026-04-30T16:04:27.082Z</time></trkpt><trkpt lat="43.8684494" lon="12.3627634"><ele>758.0</ele><time>2026-04-30T16:04:29.105Z</time></trkpt><trkpt lat="43.8685189" lon="12.3626636"><ele>758.0</ele><time>2026-04-30T16:04:31.072Z</time></trkpt><trkpt lat="43.8685724" lon="12.3625661"><ele>758.0</ele><time>2026-04-30T16:04:33.131Z</time></trkpt><trkpt lat="43.8686199" lon="12.3624868"><ele>758.0</ele><time>2026-04-30T16:04:35.118Z</time></trkpt><trkpt lat="43.86867" lon="12.3623912"><ele>758.0</ele><time>2026-04-30T16:04:37.109Z</time></trkpt><trkpt lat="43.8687102" lon="12.3623106"><ele>758.0</ele><time>2026-04-30T16:04:39.083Z</time></trkpt><trkpt lat="43.868752" lon="12.3622256"><ele>758.0</ele><time>2026-04-30T16:04:41.082Z</time></trkpt><trkpt lat="43.8687944" lon="12.3621401"><ele>758.0</ele><time>2026-04-30T16:04:43.082Z</time></trkpt><trkpt lat="43.8688495" lon="12.3620597"><ele>759.1666666666666</ele><time>2026-04-30T16:04:45.077Z</time></trkpt><trkpt lat="43.8688947" lon="12.3619834"><ele>760.3333333333333</ele><time>2026-04-30T16:04:47.13Z</time></trkpt><trkpt lat="43.8689368" lon="12.3619055"><ele>761.5</ele><time>2026-04-30T16:04:49.063Z</time></trkpt><trkpt lat="43.8689735" lon="12.3618203"><ele>762.6666666666666</ele><time>2026-04-30T16:04:51.085Z</time></trkpt><trkpt lat="43.8690207" lon="12.3617402"><ele>763.8333333333334</ele><time>2026-04-30T16:04:53.122Z</time></trkpt><trkpt lat="43.8690646" lon="12.3616489"><ele>765.0</ele><time>2026-04-30T16:04:55.119Z</time></trkpt><trkpt lat="43.8691142" lon="12.3615339"><ele>765.0</ele><time>2026-04-30T16:04:57.093Z</time></trkpt><trkpt lat="43.8691728" lon="12.3614254"><ele>765.0</ele><time>2026-04-30T16:04:59.118Z</time></trkpt><trkpt lat="43.8692559" lon="12.3613122"><ele>765.0</ele><time>2026-04-30T16:05:01.081Z</time></trkpt><trkpt lat="43.8693323" lon="12.3612037"><ele>765.0</ele><time>2026-04-30T16:05:03.082Z</time></trkpt><trkpt lat="43.8694016" lon="12.3610965"><ele>765.0</ele><time>2026-04-30T16:05:05.108Z</time></trkpt><trkpt lat="43.8694776" lon="12.3610087"><ele>764.4</ele><time>2026-04-30T16:05:07.095Z</time></trkpt><trkpt lat="43.8695499" lon="12.3609066"><ele>763.8</ele><time>2026-04-30T16:05:09.122Z</time></trkpt><trkpt lat="43.86962" lon="12.3608121"><ele>763.2</ele><time>2026-04-30T16:05:11.113Z</time></trkpt><trkpt lat="43.869681" lon="12.3607081"><ele>762.6</ele><time>2026-04-30T16:05:13.12Z</time></trkpt><trkpt lat="43.8697348" lon="12.3606305"><ele>762.0</ele><time>2026-04-30T16:05:15.112Z</time></trkpt><trkpt lat="43.8697874" lon="12.3605273"><ele>763.7142857142857</ele><time>2026-04-30T16:05:18.11Z</time></trkpt><trkpt lat="43.8698327" lon="12.360436"><ele>765.4285714285714</ele><time>2026-04-30T16:05:21.07Z</time></trkpt><trkpt lat="43.8698734" lon="12.3603619"><ele>767.1428571428571</ele><time>2026-04-30T16:05:24.123Z</time></trkpt><trkpt lat="43.8699216" lon="12.3602757"><ele>768.8571428571429</ele><time>2026-04-30T16:05:28.108Z</time></trkpt><trkpt lat="43.8699601" lon="12.3602022"><ele>770.5714285714287</ele><time>2026-04-30T16:05:33.077Z</time></trkpt><trkpt lat="43.8700055" lon="12.3601407"><ele>772.2857142857143</ele><time>2026-04-30T16:05:38.061Z</time></trkpt><trkpt lat="43.870049" lon="12.3600592"><ele>774.0</ele><time>2026-04-30T16:05:42.121Z</time></trkpt><trkpt lat="43.8700814" lon="12.359981"><ele>774.0</ele><time>2026-04-30T16:05:46.053Z</time></trkpt><trkpt lat="43.87012" lon="12.3599035"><ele>774.0</ele><time>2026-04-30T16:05:51.117Z</time></trkpt><trkpt lat="43.8701561" lon="12.3598201"><ele>774.0</ele><time>2026-04-30T16:05:56.057Z</time></trkpt><trkpt lat="43.8701973" lon="12.3597436"><ele>774.0</ele><time>2026-04-30T16:06:00.067Z</time></trkpt><trkpt lat="43.8702498" lon="12.3596678"><ele>774.0</ele><time>2026-04-30T16:06:04.109Z</time></trkpt><trkpt lat="43.8702958" lon="12.3596016"><ele>774.0</ele><time>2026-04-30T16:06:08.121Z</time></trkpt><trkpt lat="43.8703564" lon="12.3595615"><ele>774.0</ele><time>2026-04-30T16:06:12.11Z</time></trkpt><trkpt lat="43.8704282" lon="12.3595133"><ele>776.0</ele><time>2026-04-30T16:06:17.086Z</time></trkpt><trkpt lat="43.8704925" lon="12.3594856"><ele>778.0</ele><time>2026-04-30T16:06:21.073Z</time></trkpt><trkpt lat="43.8705685" lon="12.359456"><ele>780.0</ele><time>2026-04-30T16:06:26.107Z</time></trkpt><trkpt lat="43.8706421" lon="12.359425"><ele>782.0</ele><time>2026-04-30T16:06:30.074Z</time></trkpt><trkpt lat="43.870711" lon="12.3594127"><ele>784.0</ele><time>2026-04-30T16:06:34.123Z</time></trkpt><trkpt lat="43.8707829" lon="12.359374"><ele>786.0</ele><time>2026-04-30T16:06:39.057Z</time></trkpt><trkpt lat="43.8708595" lon="12.3593445"><ele>788.0</ele><time>2026-04-30T16:06:44.101Z</time></trkpt><trkpt lat="43.87093" lon="12.3593103"><ele>788.1428571428571</ele><time>2026-04-30T16:06:48.087Z</time></trkpt><trkpt lat="43.8709968" lon="12.3592549"><ele>788.2857142857143</ele><time>2026-04-30T16:06:52.13Z</time></trkpt><trkpt lat="43.8710655" lon="12.3592172"><ele>788.4285714285713</ele><time>2026-04-30T16:06:55.103Z</time></trkpt><trkpt lat="43.8711248" lon="12.3591553"><ele>788.5714285714286</ele><time>2026-04-30T16:06:58.073Z</time></trkpt><trkpt lat="43.8711743" lon="12.3590938"><ele>788.7142857142857</ele><time>2026-04-30T16:07:01.084Z</time></trkpt><trkpt lat="43.8712145" lon="12.3590246"><ele>788.8571428571428</ele><time>2026-04-30T16:07:04.074Z</time></trkpt><trkpt lat="43.8712513" lon="12.3589246"><ele>789.0</ele><time>2026-04-30T16:07:07.061Z</time></trkpt><trkpt lat="43.8712816" lon="12.3588461"><ele>789.0</ele><time>2026-04-30T16:07:09.046Z</time></trkpt><trkpt lat="43.8713145" lon="12.3587623"><ele>789.0</ele><time>2026-04-30T16:07:11.072Z</time></trkpt><trkpt lat="43.8713491" lon="12.3586569"><ele>789.0</ele><time>2026-04-30T16:07:14.096Z</time></trkpt><trkpt lat="43.8713777" lon="12.3585424"><ele>789.0</ele><time>2026-04-30T16:07:17.106Z</time></trkpt><trkpt lat="43.8713972" lon="12.358417"><ele>789.0</ele><time>2026-04-30T16:07:20.081Z</time></trkpt><trkpt lat="43.8714207" lon="12.3583223"><ele>789.0</ele><time>2026-04-30T16:07:22.089Z</time></trkpt><trkpt lat="43.8714541" lon="12.3582245"><ele>789.0</ele><time>2026-04-30T16:07:24.101Z</time></trkpt><trkpt lat="43.8714777" lon="12.3581309"><ele>789.0</ele><time>2026-04-30T16:07:26.11Z</time></trkpt><trkpt lat="43.8715139" lon="12.3580289"><ele>789.0</ele><time>2026-04-30T16:07:28.106Z</time></trkpt><trkpt lat="43.8715374" lon="12.3579268"><ele>789.0</ele><time>2026-04-30T16:07:30.058Z</time></trkpt><trkpt lat="43.8715621" lon="12.357804"><ele>789.0</ele><time>2026-04-30T16:07:33.093Z</time></trkpt><trkpt lat="43.8715843" lon="12.357696"><ele>789.0</ele><time>2026-04-30T16:07:36.128Z</time></trkpt><trkpt lat="43.8716118" lon="12.3575994"><ele>789.1666666666666</ele><time>2026-04-30T16:07:39.132Z</time></trkpt><trkpt lat="43.8716344" lon="12.3575026"><ele>789.3333333333333</ele><time>2026-04-30T16:07:42.103Z</time></trkpt><trkpt lat="43.8716754" lon="12.357404"><ele>789.5</ele><time>2026-04-30T16:07:45.119Z</time></trkpt><trkpt lat="43.8717305" lon="12.3573027"><ele>789.6666666666666</ele><time>2026-04-30T16:07:48.111Z</time></trkpt><trkpt lat="43.8717846" lon="12.3572219"><ele>789.8333333333333</ele><time>2026-04-30T16:07:51.082Z</time></trkpt><trkpt lat="43.8718485" lon="12.3571452"><ele>790.0</ele><time>2026-04-30T16:07:54.101Z</time></trkpt><trkpt lat="43.8718989" lon="12.3570791"><ele>790.0</ele><time>2026-04-30T16:07:57.111Z</time></trkpt><trkpt lat="43.8719523" lon="12.3570055"><ele>790.0</ele><time>2026-04-30T16:08:01.114Z</time></trkpt><trkpt lat="43.8720171" lon="12.3569592"><ele>790.0</ele><time>2026-04-30T16:09:21.108Z</time></trkpt><trkpt lat="43.8720933" lon="12.3569526"><ele>790.0</ele><time>2026-04-30T16:09:24.114Z</time></trkpt><trkpt lat="43.87216" lon="12.3569856"><ele>790.0</ele><time>2026-04-30T16:09:26.118Z</time></trkpt><trkpt lat="43.8722199" lon="12.357026"><ele>790.0</ele><time>2026-04-30T16:09:28.124Z</time></trkpt><trkpt lat="43.8722987" lon="12.3570665"><ele>790.0</ele><time>2026-04-30T16:09:30.076Z</time></trkpt><trkpt lat="43.8723713" lon="12.3570964"><ele>790.0</ele><time>2026-04-30T16:09:32.113Z</time></trkpt><trkpt lat="43.8724321" lon="12.3571345"><ele>790.0</ele><time>2026-04-30T16:09:34.082Z</time></trkpt><trkpt lat="43.8724979" lon="12.3571822"><ele>790.0</ele><time>2026-04-30T16:09:36.099Z</time></trkpt><trkpt lat="43.8725993" lon="12.3572335"><ele>790.0</ele><time>2026-04-30T16:09:38.084Z</time></trkpt><trkpt lat="43.8726963" lon="12.3572868"><ele>790.0</ele><time>2026-04-30T16:09:40.118Z</time></trkpt><trkpt lat="43.8728099" lon="12.357346"><ele>790.2</ele><time>2026-04-30T16:09:42.121Z</time></trkpt><trkpt lat="43.8729221" lon="12.357417"><ele>790.4</ele><time>2026-04-30T16:09:44.137Z</time></trkpt><trkpt lat="43.87303" lon="12.3574784"><ele>790.5999999999999</ele><time>2026-04-30T16:09:46.118Z</time></trkpt><trkpt lat="43.8730884" lon="12.3575138"><ele>790.8</ele><time>2026-04-30T16:09:47.108Z</time></trkpt><trkpt lat="43.8732031" lon="12.3575818"><ele>791.0</ele><time>2026-04-30T16:09:49.098Z</time></trkpt><trkpt lat="43.8732625" lon="12.3576215"><ele>791.0</ele><time>2026-04-30T16:09:50.093Z</time></trkpt><trkpt lat="43.8733198" lon="12.3576714"><ele>791.0</ele><time>2026-04-30T16:09:51.118Z</time></trkpt><trkpt lat="43.8733763" lon="12.3577303"><ele>791.0</ele><time>2026-04-30T16:09:52.11Z</time></trkpt><trkpt lat="43.8734285" lon="12.3578054"><ele>791.0</ele><time>2026-04-30T16:09:53.061Z</time></trkpt><trkpt lat="43.8734762" lon="12.35789"><ele>791.0</ele><time>2026-04-30T16:09:54.094Z</time></trkpt><trkpt lat="43.8735137" lon="12.3579813"><ele>791.0</ele><time>2026-04-30T16:09:55.119Z</time></trkpt><trkpt lat="43.8735485" lon="12.3580759"><ele>791.0</ele><time>2026-04-30T16:09:56.09Z</time></trkpt><trkpt lat="43.8735744" lon="12.3581723"><ele>790.3333333333334</ele><time>2026-04-30T16:09:57.121Z</time></trkpt><trkpt lat="43.8736033" lon="12.358278"><ele>789.6666666666667</ele><time>2026-04-30T16:09:58.109Z</time></trkpt><trkpt lat="43.8736326" lon="12.3583842"><ele>789.0</ele><time>2026-04-30T16:09:59.125Z</time></trkpt><trkpt lat="43.8736638" lon="12.3584894"><ele>788.3333333333333</ele><time>2026-04-30T16:10:00.118Z</time></trkpt><trkpt lat="43.8736876" lon="12.3586022"><ele>787.6666666666666</ele><time>2026-04-30T16:10:01.098Z</time></trkpt><trkpt lat="43.8737036" lon="12.3587264"><ele>787.0</ele><time>2026-04-30T16:10:02.066Z</time></trkpt><trkpt lat="43.8737126" lon="12.3588482"><ele>786.8</ele><time>2026-04-30T16:10:03.095Z</time></trkpt><trkpt lat="43.8737248" lon="12.3589652"><ele>786.6</ele><time>2026-04-30T16:10:04.121Z</time></trkpt><trkpt lat="43.8737287" lon="12.3590923"><ele>786.4</ele><time>2026-04-30T16:10:05.112Z</time></trkpt><trkpt lat="43.8737328" lon="12.3592216"><ele>786.1999999999999</ele><time>2026-04-30T16:10:06.122Z</time></trkpt><trkpt lat="43.873744" lon="12.3593488"><ele>786.0</ele><time>2026-04-30T16:10:07.122Z</time></trkpt><trkpt lat="43.8737603" lon="12.3594886"><ele>786.0</ele><time>2026-04-30T16:10:08.111Z</time></trkpt><trkpt lat="43.8738021" lon="12.3596253"><ele>786.0</ele><time>2026-04-30T16:10:09.099Z</time></trkpt><trkpt lat="43.8738647" lon="12.359752"><ele>786.0</ele><time>2026-04-30T16:10:10.115Z</time></trkpt><trkpt lat="43.8739496" lon="12.3598688"><ele>786.0</ele><time>2026-04-30T16:10:11.063Z</time></trkpt><trkpt lat="43.8740429" lon="12.3599655"><ele>784.0</ele><time>2026-04-30T16:10:12.129Z</time></trkpt><trkpt lat="43.8741403" lon="12.3600469"><ele>782.0</ele><time>2026-04-30T16:10:13.105Z</time></trkpt><trkpt lat="43.8742455" lon="12.3601182"><ele>780.0</ele><time>2026-04-30T16:10:14.116Z</time></trkpt><trkpt lat="43.8743467" lon="12.3601856"><ele>778.0</ele><time>2026-04-30T16:10:15.067Z</time></trkpt><trkpt lat="43.8744481" lon="12.360255"><ele>778.0</ele><time>2026-04-30T16:10:16.105Z</time></trkpt><trkpt lat="43.874555" lon="12.3603255"><ele>778.0</ele><time>2026-04-30T16:10:17.115Z</time></trkpt><trkpt lat="43.8746645" lon="12.3603914"><ele>778.0</ele><time>2026-04-30T16:10:18.112Z</time></trkpt><trkpt lat="43.8747744" lon="12.3604593"><ele>778.0</ele><time>2026-04-30T16:10:19.114Z</time></trkpt><trkpt lat="43.8748804" lon="12.3605178"><ele>774.25</ele><time>2026-04-30T16:10:20.119Z</time></trkpt><trkpt lat="43.8749938" lon="12.3605593"><ele>770.5</ele><time>2026-04-30T16:10:21.049Z</time></trkpt><trkpt lat="43.8751057" lon="12.3605633"><ele>766.75</ele><time>2026-04-30T16:10:22.125Z</time></trkpt><trkpt lat="43.8752213" lon="12.360546"><ele>763.0</ele><time>2026-04-30T16:10:23.109Z</time></trkpt><trkpt lat="43.8753406" lon="12.3605152"><ele>762.75</ele><time>2026-04-30T16:10:24.126Z</time></trkpt><trkpt lat="43.8754531" lon="12.3604688"><ele>762.5</ele><time>2026-04-30T16:10:25.109Z</time></trkpt><trkpt lat="43.8755656" lon="12.360425"><ele>762.25</ele><time>2026-04-30T16:10:26.095Z</time></trkpt><trkpt lat="43.8756769" lon="12.3603834"><ele>762.0</ele><time>2026-04-30T16:10:27.121Z</time></trkpt><trkpt lat="43.8757929" lon="12.3603301"><ele>762.0</ele><time>2026-04-30T16:10:28.126Z</time></trkpt><trkpt lat="43.8759048" lon="12.3602746"><ele>762.0</ele><time>2026-04-30T16:10:29.117Z</time></trkpt><trkpt lat="43.8760177" lon="12.3602291"><ele>762.0</ele><time>2026-04-30T16:10:30.129Z</time></trkpt><trkpt lat="43.8761343" lon="12.360198"><ele>762.0</ele><time>2026-04-30T16:10:31.123Z</time></trkpt><trkpt lat="43.8762507" lon="12.3601542"><ele>761.0</ele><time>2026-04-30T16:10:32.122Z</time></trkpt><trkpt lat="43.876361" lon="12.3600872"><ele>760.0</ele><time>2026-04-30T16:10:33.114Z</time></trkpt><trkpt lat="43.8764601" lon="12.3599937"><ele>759.0</ele><time>2026-04-30T16:10:34.122Z</time></trkpt><trkpt lat="43.8765378" lon="12.3598627"><ele>758.0</ele><time>2026-04-30T16:10:35.124Z</time></trkpt><trkpt lat="43.8766094" lon="12.359708"><ele>756.0</ele><time>2026-04-30T16:10:36.129Z</time></trkpt><trkpt lat="43.8766487" lon="12.359559"><ele>754.0</ele><time>2026-04-30T16:10:37.122Z</time></trkpt><trkpt lat="43.8766666" lon="12.3593922"><ele>752.0</ele><time>2026-04-30T16:10:38.087Z</time></trkpt><trkpt lat="43.8766769" lon="12.3592218"><ele>750.0</ele><time>2026-04-30T16:10:39.082Z</time></trkpt><trkpt lat="43.8766818" lon="12.3590572"><ele>750.0</ele><time>2026-04-30T16:10:40.14Z</time></trkpt><trkpt lat="43.8766845" lon="12.3588873"><ele>750.0</ele><time>2026-04-30T16:10:41.078Z</time></trkpt><trkpt lat="43.8766873" lon="12.3587132"><ele>750.0</ele><time>2026-04-30T16:10:42.109Z</time></trkpt><trkpt lat="43.8766885" lon="12.3585467"><ele>750.0</ele><time>2026-04-30T16:10:43.103Z</time></trkpt><trkpt lat="43.8766824" lon="12.3583805"><ele>748.75</ele><time>2026-04-30T16:10:44.061Z</time></trkpt><trkpt lat="43.876677" lon="12.3582098"><ele>747.5</ele><time>2026-04-30T16:10:45.118Z</time></trkpt><trkpt lat="43.8766768" lon="12.3580405"><ele>746.25</ele><time>2026-04-30T16:10:46.125Z</time></trkpt><trkpt lat="43.8766899" lon="12.3578633"><ele>745.0</ele><time>2026-04-30T16:10:47.105Z</time></trkpt><trkpt lat="43.8767208" lon="12.3576975"><ele>743.75</ele><time>2026-04-30T16:10:48.114Z</time></trkpt><trkpt lat="43.8767622" lon="12.3575323"><ele>742.5</ele><time>2026-04-30T16:10:49.118Z</time></trkpt><trkpt lat="43.8768171" lon="12.3573771"><ele>741.25</ele><time>2026-04-30T16:10:50.121Z</time></trkpt><trkpt lat="43.876894" lon="12.3572455"><ele>740.0</ele><time>2026-04-30T16:10:51.113Z</time></trkpt><trkpt lat="43.8769852" lon="12.3571242"><ele>737.75</ele><time>2026-04-30T16:10:52.106Z</time></trkpt><trkpt lat="43.8770756" lon="12.3570121"><ele>735.5</ele><time>2026-04-30T16:10:53.096Z</time></trkpt><trkpt lat="43.8771787" lon="12.3569225"><ele>733.25</ele><time>2026-04-30T16:10:54.091Z</time></trkpt><trkpt lat="43.8772838" lon="12.3568232"><ele>731.0</ele><time>2026-04-30T16:10:55.092Z</time></trkpt><trkpt lat="43.8773866" lon="12.3567222"><ele>731.0</ele><time>2026-04-30T16:10:56.106Z</time></trkpt><trkpt lat="43.8774905" lon="12.3566283"><ele>731.0</ele><time>2026-04-30T16:10:57.113Z</time></trkpt><trkpt lat="43.877584" lon="12.3565267"><ele>731.0</ele><time>2026-04-30T16:10:58.113Z</time></trkpt><trkpt lat="43.8776804" lon="12.3564256"><ele>731.0</ele><time>2026-04-30T16:10:59.116Z</time></trkpt><trkpt lat="43.8777784" lon="12.3563322"><ele>729.25</ele><time>2026-04-30T16:11:00.096Z</time></trkpt><trkpt lat="43.8778805" lon="12.3562398"><ele>727.5</ele><time>2026-04-30T16:11:01.113Z</time></trkpt><trkpt lat="43.8779807" lon="12.3561443"><ele>725.75</ele><time>2026-04-30T16:11:02.098Z</time></trkpt><trkpt lat="43.8780819" lon="12.3560508"><ele>724.0</ele><time>2026-04-30T16:11:03.1Z</time></trkpt><trkpt lat="43.8781893" lon="12.3559559"><ele>724.0</ele><time>2026-04-30T16:11:04.087Z</time></trkpt><trkpt lat="43.8783012" lon="12.3558693"><ele>724.0</ele><time>2026-04-30T16:11:05.103Z</time></trkpt><trkpt lat="43.8784161" lon="12.3557937"><ele>724.0</ele><time>2026-04-30T16:11:06.123Z</time></trkpt><trkpt lat="43.8785372" lon="12.3557306"><ele>724.0</ele><time>2026-04-30T16:11:07.099Z</time></trkpt><trkpt lat="43.8786501" lon="12.3556698"><ele>722.25</ele><time>2026-04-30T16:11:08.061Z</time></trkpt><trkpt lat="43.8787614" lon="12.3556273"><ele>720.5</ele><time>2026-04-30T16:11:09.115Z</time></trkpt><trkpt lat="43.8788743" lon="12.3555942"><ele>718.75</ele><time>2026-04-30T16:11:10.109Z</time></trkpt><trkpt lat="43.8789848" lon="12.3555664"><ele>717.0</ele><time>2026-04-30T16:11:11.083Z</time></trkpt><trkpt lat="43.8790958" lon="12.3555465"><ele>717.0</ele><time>2026-04-30T16:11:12.102Z</time></trkpt><trkpt lat="43.8792046" lon="12.3555447"><ele>717.0</ele><time>2026-04-30T16:11:13.096Z</time></trkpt><trkpt lat="43.879316" lon="12.3555856"><ele>717.0</ele><time>2026-04-30T16:11:14.121Z</time></trkpt><trkpt lat="43.8794137" lon="12.355662"><ele>717.0</ele><time>2026-04-30T16:11:15.058Z</time></trkpt><trkpt lat="43.879512" lon="12.3557467"><ele>717.8</ele><time>2026-04-30T16:11:16.093Z</time></trkpt><trkpt lat="43.8795965" lon="12.3558434"><ele>718.6</ele><time>2026-04-30T16:11:17.122Z</time></trkpt><trkpt lat="43.8796787" lon="12.3559561"><ele>719.4</ele><time>2026-04-30T16:11:18.115Z</time></trkpt><trkpt lat="43.8797537" lon="12.3560612"><ele>720.1999999999999</ele><time>2026-04-30T16:11:19.126Z</time></trkpt><trkpt lat="43.8798283" lon="12.3561664"><ele>721.0</ele><time>2026-04-30T16:11:20.06Z</time></trkpt><trkpt lat="43.8799089" lon="12.3562624"><ele>721.0</ele><time>2026-04-30T16:11:21.112Z</time></trkpt><trkpt lat="43.8799932" lon="12.3563505"><ele>721.0</ele><time>2026-04-30T16:11:22.058Z</time></trkpt><trkpt lat="43.8800872" lon="12.3564142"><ele>721.0</ele><time>2026-04-30T16:11:23.082Z</time></trkpt><trkpt lat="43.880191" lon="12.3564389"><ele>721.0</ele><time>2026-04-30T16:11:24.114Z</time></trkpt><trkpt lat="43.8802914" lon="12.3564565"><ele>721.0</ele><time>2026-04-30T16:11:25.103Z</time></trkpt><trkpt lat="43.8803983" lon="12.3564542"><ele>717.4</ele><time>2026-04-30T16:11:26.077Z</time></trkpt><trkpt lat="43.8804918" lon="12.3564515"><ele>713.8</ele><time>2026-04-30T16:11:27.079Z</time></trkpt><trkpt lat="43.8805956" lon="12.3564554"><ele>710.1999999999999</ele><time>2026-04-30T16:11:28.133Z</time></trkpt><trkpt lat="43.8807004" lon="12.3564603"><ele>706.5999999999999</ele><time>2026-04-30T16:11:29.123Z</time></trkpt><trkpt lat="43.8808005" lon="12.356492"><ele>703.0</ele><time>2026-04-30T16:11:30.117Z</time></trkpt><trkpt lat="43.8808932" lon="12.356544"><ele>703.0</ele><time>2026-04-30T16:11:31.082Z</time></trkpt><trkpt lat="43.8809873" lon="12.3566082"><ele>703.0</ele><time>2026-04-30T16:11:32.118Z</time></trkpt><trkpt lat="43.8810791" lon="12.3566742"><ele>703.0</ele><time>2026-04-30T16:11:33.107Z</time></trkpt><trkpt lat="43.881172" lon="12.3567467"><ele>703.0</ele><time>2026-04-30T16:11:34.113Z</time></trkpt><trkpt lat="43.8812593" lon="12.3568083"><ele>703.0</ele><time>2026-04-30T16:11:35.119Z</time></trkpt><trkpt lat="43.8813615" lon="12.3568662"><ele>703.0</ele><time>2026-04-30T16:11:36.122Z</time></trkpt><trkpt lat="43.8814641" lon="12.3569176"><ele>703.0</ele><time>2026-04-30T16:11:37.126Z</time></trkpt><trkpt lat="43.8815741" lon="12.3569442"><ele>703.0</ele><time>2026-04-30T16:11:38.093Z</time></trkpt><trkpt lat="43.8816791" lon="12.3569529"><ele>703.0</ele><time>2026-04-30T16:11:39.109Z</time></trkpt><trkpt lat="43.8817858" lon="12.3569399"><ele>703.0</ele><time>2026-04-30T16:11:40.119Z</time></trkpt><trkpt lat="43.8818972" lon="12.3569199"><ele>701.0</ele><time>2026-04-30T16:11:41.099Z</time></trkpt><trkpt lat="43.8820083" lon="12.3568931"><ele>699.0</ele><time>2026-04-30T16:11:42.125Z</time></trkpt><trkpt lat="43.8821199" lon="12.3568682"><ele>697.0</ele><time>2026-04-30T16:11:43.112Z</time></trkpt><trkpt lat="43.8822333" lon="12.3568572"><ele>695.0</ele><time>2026-04-30T16:11:44.058Z</time></trkpt><trkpt lat="43.8823357" lon="12.3568433"><ele>693.0</ele><time>2026-04-30T16:11:45.086Z</time></trkpt><trkpt lat="43.8824468" lon="12.3568167"><ele>693.0</ele><time>2026-04-30T16:11:46.128Z</time></trkpt><trkpt lat="43.8825551" lon="12.3567788"><ele>693.0</ele><time>2026-04-30T16:11:47.125Z</time></trkpt><trkpt lat="43.8826507" lon="12.356712"><ele>693.0</ele><time>2026-04-30T16:11:48.123Z</time></trkpt><trkpt lat="43.8827462" lon="12.356623"><ele>693.0</ele><time>2026-04-30T16:11:49.116Z</time></trkpt><trkpt lat="43.8828384" lon="12.3565152"><ele>690.25</ele><time>2026-04-30T16:11:50.116Z</time></trkpt><trkpt lat="43.8829279" lon="12.3564093"><ele>687.5</ele><time>2026-04-30T16:11:51.107Z</time></trkpt><trkpt lat="43.8830173" lon="12.3563035"><ele>684.75</ele><time>2026-04-30T16:11:52.105Z</time></trkpt><trkpt lat="43.8830978" lon="12.3561909"><ele>682.0</ele><time>2026-04-30T16:11:53.124Z</time></trkpt><trkpt lat="43.8831856" lon="12.3560795"><ele>682.0</ele><time>2026-04-30T16:11:54.072Z</time></trkpt><trkpt lat="43.8832634" lon="12.3559398"><ele>682.0</ele><time>2026-04-30T16:11:55.111Z</time></trkpt><trkpt lat="43.8833189" lon="12.3557781"><ele>682.0</ele><time>2026-04-30T16:11:56.094Z</time></trkpt><trkpt lat="43.8833388" lon="12.3556099"><ele>682.0</ele><time>2026-04-30T16:11:57.079Z</time></trkpt><trkpt lat="43.8833454" lon="12.355443"><ele>682.25</ele><time>2026-04-30T16:11:58.113Z</time></trkpt><trkpt lat="43.8833521" lon="12.3552745"><ele>682.5</ele><time>2026-04-30T16:11:59.117Z</time></trkpt><trkpt lat="43.8833663" lon="12.3551026"><ele>682.75</ele><time>2026-04-30T16:12:00.132Z</time></trkpt><trkpt lat="43.8834098" lon="12.354943"><ele>683.0</ele><time>2026-04-30T16:12:01.11Z</time></trkpt><trkpt lat="43.8834879" lon="12.35482"><ele>678.75</ele><time>2026-04-30T16:12:02.109Z</time></trkpt><trkpt lat="43.8835833" lon="12.3546946"><ele>674.5</ele><time>2026-04-30T16:12:03.109Z</time></trkpt><trkpt lat="43.8836797" lon="12.3545871"><ele>670.25</ele><time>2026-04-30T16:12:04.112Z</time></trkpt><trkpt lat="43.8837855" lon="12.3545006"><ele>666.0</ele><time>2026-04-30T16:12:05.108Z</time></trkpt><trkpt lat="43.883889" lon="12.3544"><ele>666.0</ele><time>2026-04-30T16:12:06.121Z</time></trkpt><trkpt lat="43.8839855" lon="12.3543021"><ele>666.0</ele><time>2026-04-30T16:12:07.117Z</time></trkpt><trkpt lat="43.8840673" lon="12.3541748"><ele>666.0</ele><time>2026-04-30T16:12:08.081Z</time></trkpt><trkpt lat="43.8841215" lon="12.3540356"><ele>666.0</ele><time>2026-04-30T16:12:09.123Z</time></trkpt><trkpt lat="43.8841251" lon="12.3538675"><ele>665.5</ele><time>2026-04-30T16:12:10.101Z</time></trkpt><trkpt lat="43.8841011" lon="12.3536979"><ele>665.0</ele><time>2026-04-30T16:12:11.102Z</time></trkpt><trkpt lat="43.8840807" lon="12.3535406"><ele>664.5</ele><time>2026-04-30T16:12:12.119Z</time></trkpt><trkpt lat="43.8840657" lon="12.3533719"><ele>664.0</ele><time>2026-04-30T16:12:13.108Z</time></trkpt><trkpt lat="43.88405" lon="12.3532024"><ele>663.5</ele><time>2026-04-30T16:12:14.098Z</time></trkpt><trkpt lat="43.8840426" lon="12.3530337"><ele>663.0</ele><time>2026-04-30T16:12:15.119Z</time></trkpt><trkpt lat="43.8840557" lon="12.3528697"><ele>662.5</ele><time>2026-04-30T16:12:16.12Z</time></trkpt><trkpt lat="43.8840961" lon="12.3527017"><ele>662.0</ele><time>2026-04-30T16:12:17.118Z</time></trkpt><trkpt lat="43.8841562" lon="12.3525441"><ele>662.0</ele><time>2026-04-30T16:12:18.101Z</time></trkpt><trkpt lat="43.8842292" lon="12.3523991"><ele>662.0</ele><time>2026-04-30T16:12:19.086Z</time></trkpt><trkpt lat="43.8843162" lon="12.3522734"><ele>662.0</ele><time>2026-04-30T16:12:20.101Z</time></trkpt><trkpt lat="43.8844178" lon="12.3521705"><ele>662.0</ele><time>2026-04-30T16:12:21.096Z</time></trkpt><trkpt lat="43.8845303" lon="12.3520786"><ele>659.75</ele><time>2026-04-30T16:12:22.11Z</time></trkpt><trkpt lat="43.8846493" lon="12.3520092"><ele>657.5</ele><time>2026-04-30T16:12:23.086Z</time></trkpt><trkpt lat="43.884772" lon="12.3519551"><ele>655.25</ele><time>2026-04-30T16:12:24.121Z</time></trkpt><trkpt lat="43.884896" lon="12.3519089"><ele>653.0</ele><time>2026-04-30T16:12:25.108Z</time></trkpt><trkpt lat="43.8850163" lon="12.3518604"><ele>650.75</ele><time>2026-04-30T16:12:26.126Z</time></trkpt><trkpt lat="43.8851435" lon="12.3518137"><ele>648.5</ele><time>2026-04-30T16:12:27.115Z</time></trkpt><trkpt lat="43.8852636" lon="12.3517604"><ele>646.25</ele><time>2026-04-30T16:12:28.114Z</time></trkpt><trkpt lat="43.8853919" lon="12.3517112"><ele>644.0</ele><time>2026-04-30T16:12:29.13Z</time></trkpt><trkpt lat="43.8855171" lon="12.3516804"><ele>644.0</ele><time>2026-04-30T16:12:30.103Z</time></trkpt><trkpt lat="43.8856511" lon="12.3516832"><ele>644.0</ele><time>2026-04-30T16:12:31.115Z</time></trkpt><trkpt lat="43.8857843" lon="12.351708"><ele>644.0</ele><time>2026-04-30T16:12:32.123Z</time></trkpt><trkpt lat="43.8859028" lon="12.3517409"><ele>644.0</ele><time>2026-04-30T16:12:33.123Z</time></trkpt><trkpt lat="43.886018" lon="12.3518059"><ele>641.0</ele><time>2026-04-30T16:12:34.12Z</time></trkpt><trkpt lat="43.8861316" lon="12.351894"><ele>638.0</ele><time>2026-04-30T16:12:35.136Z</time></trkpt><trkpt lat="43.8862399" lon="12.3519868"><ele>635.0</ele><time>2026-04-30T16:12:36.115Z</time></trkpt><trkpt lat="43.8863442" lon="12.3520748"><ele>632.0</ele><time>2026-04-30T16:12:37.072Z</time></trkpt><trkpt lat="43.886461" lon="12.3521623"><ele>632.25</ele><time>2026-04-30T16:12:38.066Z</time></trkpt><trkpt lat="43.88658" lon="12.3522504"><ele>632.5</ele><time>2026-04-30T16:12:39.108Z</time></trkpt><trkpt lat="43.8866959" lon="12.3523416"><ele>632.75</ele><time>2026-04-30T16:12:40.109Z</time></trkpt><trkpt lat="43.8868066" lon="12.3524349"><ele>633.0</ele><time>2026-04-30T16:12:41.113Z</time></trkpt><trkpt lat="43.8869204" lon="12.3525306"><ele>632.0</ele><time>2026-04-30T16:12:42.113Z</time></trkpt><trkpt lat="43.8870388" lon="12.3526247"><ele>631.0</ele><time>2026-04-30T16:12:43.116Z</time></trkpt><trkpt lat="43.8871563" lon="12.3527219"><ele>630.0</ele><time>2026-04-30T16:12:44.109Z</time></trkpt><trkpt lat="43.8872684" lon="12.3528212"><ele>629.0</ele><time>2026-04-30T16:12:45.109Z</time></trkpt><trkpt lat="43.8873803" lon="12.3529158"><ele>629.0</ele><time>2026-04-30T16:12:46.117Z</time></trkpt><trkpt lat="43.887497" lon="12.3530011"><ele>629.0</ele><time>2026-04-30T16:12:47.099Z</time></trkpt><trkpt lat="43.8876142" lon="12.3530615"><ele>629.0</ele><time>2026-04-30T16:12:48.114Z</time></trkpt><trkpt lat="43.8877418" lon="12.3530963"><ele>629.0</ele><time>2026-04-30T16:12:49.099Z</time></trkpt><trkpt lat="43.8878748" lon="12.353122"><ele>625.75</ele><time>2026-04-30T16:12:50.125Z</time></trkpt><trkpt lat="43.8880052" lon="12.3531104"><ele>622.5</ele><time>2026-04-30T16:12:51.09Z</time></trkpt><trkpt lat="43.8881274" lon="12.3530685"><ele>619.25</ele><time>2026-04-30T16:12:52.109Z</time></trkpt><trkpt lat="43.8882402" lon="12.3529942"><ele>616.0</ele><time>2026-04-30T16:12:53.08Z</time></trkpt><trkpt lat="43.8883526" lon="12.3528969"><ele>612.75</ele><time>2026-04-30T16:12:54.082Z</time></trkpt><trkpt lat="43.8884661" lon="12.3527988"><ele>609.5</ele><time>2026-04-30T16:12:55.117Z</time></trkpt><trkpt lat="43.8885713" lon="12.3526904"><ele>606.25</ele><time>2026-04-30T16:12:56.096Z</time></trkpt><trkpt lat="43.8886895" lon="12.3526013"><ele>603.0</ele><time>2026-04-30T16:12:57.107Z</time></trkpt><trkpt lat="43.8888159" lon="12.3525063"><ele>603.0</ele><time>2026-04-30T16:12:58.106Z</time></trkpt><trkpt lat="43.8889414" lon="12.3524096"><ele>603.0</ele><time>2026-04-30T16:12:59.114Z</time></trkpt><trkpt lat="43.8890736" lon="12.352338"><ele>603.0</ele><time>2026-04-30T16:13:00.108Z</time></trkpt><trkpt lat="43.8892083" lon="12.3522816"><ele>603.0</ele><time>2026-04-30T16:13:01.096Z</time></trkpt><trkpt lat="43.8893431" lon="12.3522332"><ele>600.25</ele><time>2026-04-30T16:13:02.127Z</time></trkpt><trkpt lat="43.8894827" lon="12.3522113"><ele>597.5</ele><time>2026-04-30T16:13:03.113Z</time></trkpt><trkpt lat="43.8896271" lon="12.3522068"><ele>594.75</ele><time>2026-04-30T16:13:04.107Z</time></trkpt><trkpt lat="43.8897717" lon="12.3522089"><ele>592.0</ele><time>2026-04-30T16:13:05.122Z</time></trkpt><trkpt lat="43.8899141" lon="12.3522038"><ele>592.0</ele><time>2026-04-30T16:13:06.119Z</time></trkpt><trkpt lat="43.8900444" lon="12.3521923"><ele>592.0</ele><time>2026-04-30T16:13:07.117Z</time></trkpt><trkpt lat="43.8901745" lon="12.352182"><ele>592.0</ele><time>2026-04-30T16:13:08.09Z</time></trkpt><trkpt lat="43.8902978" lon="12.3521643"><ele>592.0</ele><time>2026-04-30T16:13:09.07Z</time></trkpt><trkpt lat="43.8904204" lon="12.352147"><ele>592.5</ele><time>2026-04-30T16:13:10.09Z</time></trkpt><trkpt lat="43.8905415" lon="12.3521289"><ele>593.0</ele><time>2026-04-30T16:13:11.104Z</time></trkpt><trkpt lat="43.8906495" lon="12.3521155"><ele>593.5</ele><time>2026-04-30T16:13:12.113Z</time></trkpt><trkpt lat="43.8907611" lon="12.3521013"><ele>594.0</ele><time>2026-04-30T16:13:13.077Z</time></trkpt><trkpt lat="43.8908736" lon="12.3520872"><ele>593.4</ele><time>2026-04-30T16:13:14.105Z</time></trkpt><trkpt lat="43.8909872" lon="12.3520731"><ele>592.8</ele><time>2026-04-30T16:13:15.118Z</time></trkpt><trkpt lat="43.8910967" lon="12.3520636"><ele>592.2</ele><time>2026-04-30T16:13:16.093Z</time></trkpt><trkpt lat="43.8911981" lon="12.3520583"><ele>591.6</ele><time>2026-04-30T16:13:17.117Z</time></trkpt><trkpt lat="43.8912986" lon="12.3520492"><ele>591.0</ele><time>2026-04-30T16:13:18.095Z</time></trkpt><trkpt lat="43.891398" lon="12.3520373"><ele>591.0</ele><time>2026-04-30T16:13:19.102Z</time></trkpt><trkpt lat="43.8915004" lon="12.3520308"><ele>591.0</ele><time>2026-04-30T16:13:20.089Z</time></trkpt><trkpt lat="43.8915973" lon="12.3520226"><ele>591.0</ele><time>2026-04-30T16:13:21.101Z</time></trkpt><trkpt lat="43.8916942" lon="12.3520143"><ele>591.0</ele><time>2026-04-30T16:13:22.117Z</time></trkpt><trkpt lat="43.8917893" lon="12.3519993"><ele>591.0</ele><time>2026-04-30T16:13:23.098Z</time></trkpt><trkpt lat="43.8918859" lon="12.3519834"><ele>590.2</ele><time>2026-04-30T16:13:24.123Z</time></trkpt><trkpt lat="43.8919826" lon="12.3519818"><ele>589.4000000000001</ele><time>2026-04-30T16:13:25.123Z</time></trkpt><trkpt lat="43.892074" lon="12.3519738"><ele>588.6</ele><time>2026-04-30T16:13:26.11Z</time></trkpt><trkpt lat="43.8921683" lon="12.3519644"><ele>587.8000000000001</ele><time>2026-04-30T16:13:27.109Z</time></trkpt><trkpt lat="43.8922608" lon="12.3519484"><ele>587.0</ele><time>2026-04-30T16:13:28.08Z</time></trkpt><trkpt lat="43.8923528" lon="12.3519364"><ele>587.0</ele><time>2026-04-30T16:13:29.11Z</time></trkpt><trkpt lat="43.8924452" lon="12.3519213"><ele>587.0</ele><time>2026-04-30T16:13:30.102Z</time></trkpt><trkpt lat="43.8925354" lon="12.3519131"><ele>587.0</ele><time>2026-04-30T16:13:31.097Z</time></trkpt><trkpt lat="43.8926272" lon="12.3519099"><ele>587.0</ele><time>2026-04-30T16:13:32.102Z</time></trkpt><trkpt lat="43.8927227" lon="12.3518995"><ele>587.0</ele><time>2026-04-30T16:13:33.122Z</time></trkpt><trkpt lat="43.8928213" lon="12.3518881"><ele>587.2</ele><time>2026-04-30T16:13:34.113Z</time></trkpt><trkpt lat="43.8929172" lon="12.3518616"><ele>587.4000000000001</ele><time>2026-04-30T16:13:35.102Z</time></trkpt><trkpt lat="43.8930166" lon="12.3518318"><ele>587.5999999999999</ele><time>2026-04-30T16:13:36.104Z</time></trkpt><trkpt lat="43.8931112" lon="12.3517986"><ele>587.8</ele><time>2026-04-30T16:13:37.065Z</time></trkpt><trkpt lat="43.8932098" lon="12.3517583"><ele>588.0</ele><time>2026-04-30T16:13:38.105Z</time></trkpt><trkpt lat="43.8933" lon="12.3517163"><ele>588.0</ele><time>2026-04-30T16:13:39.121Z</time></trkpt><trkpt lat="43.8933919" lon="12.3516728"><ele>588.0</ele><time>2026-04-30T16:13:40.093Z</time></trkpt><trkpt lat="43.893487" lon="12.351632"><ele>588.0</ele><time>2026-04-30T16:13:41.123Z</time></trkpt><trkpt lat="43.893577" lon="12.3515817"><ele>588.0</ele><time>2026-04-30T16:13:42.104Z</time></trkpt><trkpt lat="43.8936697" lon="12.3515454"><ele>588.0</ele><time>2026-04-30T16:13:43.121Z</time></trkpt><trkpt lat="43.8937584" lon="12.3514929"><ele>588.1666666666666</ele><time>2026-04-30T16:13:44.133Z</time></trkpt><trkpt lat="43.8938498" lon="12.3514528"><ele>588.3333333333334</ele><time>2026-04-30T16:13:45.095Z</time></trkpt><trkpt lat="43.893933" lon="12.351417"><ele>588.5</ele><time>2026-04-30T16:13:46.07Z</time></trkpt><trkpt lat="43.8940206" lon="12.351384"><ele>588.6666666666667</ele><time>2026-04-30T16:13:47.107Z</time></trkpt><trkpt lat="43.8940999" lon="12.3513436"><ele>588.8333333333334</ele><time>2026-04-30T16:13:48.103Z</time></trkpt><trkpt lat="43.8941821" lon="12.3513047"><ele>589.0</ele><time>2026-04-30T16:13:49.112Z</time></trkpt><trkpt lat="43.8942548" lon="12.3512621"><ele>589.0</ele><time>2026-04-30T16:13:50.085Z</time></trkpt><trkpt lat="43.8943267" lon="12.3512184"><ele>589.0</ele><time>2026-04-30T16:13:51.1Z</time></trkpt><trkpt lat="43.8944022" lon="12.3511692"><ele>589.0</ele><time>2026-04-30T16:13:52.11Z</time></trkpt><trkpt lat="43.8944742" lon="12.3511175"><ele>589.0</ele><time>2026-04-30T16:13:53.086Z</time></trkpt><trkpt lat="43.8945374" lon="12.3510524"><ele>589.0</ele><time>2026-04-30T16:13:54.103Z</time></trkpt><trkpt lat="43.8945957" lon="12.3509795"><ele>589.0</ele><time>2026-04-30T16:13:55.119Z</time></trkpt><trkpt lat="43.8946488" lon="12.3508966"><ele>589.0</ele><time>2026-04-30T16:13:56.131Z</time></trkpt><trkpt lat="43.8946952" lon="12.3508088"><ele>589.0</ele><time>2026-04-30T16:13:57.107Z</time></trkpt><trkpt lat="43.8947423" lon="12.3507104"><ele>589.0</ele><time>2026-04-30T16:13:58.112Z</time></trkpt><trkpt lat="43.8947822" lon="12.3506145"><ele>589.0</ele><time>2026-04-30T16:13:59.117Z</time></trkpt><trkpt lat="43.8948153" lon="12.3505174"><ele>589.0</ele><time>2026-04-30T16:14:00.096Z</time></trkpt><trkpt lat="43.8948477" lon="12.3504149"><ele>589.0</ele><time>2026-04-30T16:14:01.097Z</time></trkpt><trkpt lat="43.8948771" lon="12.3503163"><ele>589.2857142857142</ele><time>2026-04-30T16:14:02.117Z</time></trkpt><trkpt lat="43.8948993" lon="12.3502309"><ele>589.5714285714286</ele><time>2026-04-30T16:14:03.107Z</time></trkpt><trkpt lat="43.8949229" lon="12.3501341"><ele>589.8571428571429</ele><time>2026-04-30T16:14:04.112Z</time></trkpt><trkpt lat="43.894947" lon="12.3500354"><ele>590.1428571428571</ele><time>2026-04-30T16:14:05.116Z</time></trkpt><trkpt lat="43.8949677" lon="12.3499341"><ele>590.4285714285714</ele><time>2026-04-30T16:14:06.132Z</time></trkpt><trkpt lat="43.8949594" lon="12.3498209"><ele>590.7142857142857</ele><time>2026-04-30T16:14:07.116Z</time></trkpt><trkpt lat="43.8949549" lon="12.3497225"><ele>591.0</ele><time>2026-04-30T16:14:08.107Z</time></trkpt><trkpt lat="43.8949512" lon="12.3496235"><ele>591.7142857142857</ele><time>2026-04-30T16:14:09.113Z</time></trkpt><trkpt lat="43.8949435" lon="12.3495218"><ele>592.4285714285714</ele><time>2026-04-30T16:14:10.116Z</time></trkpt><trkpt lat="43.8949233" lon="12.3494302"><ele>593.1428571428571</ele><time>2026-04-30T16:14:11.072Z</time></trkpt><trkpt lat="43.8949" lon="12.3493389"><ele>593.8571428571429</ele><time>2026-04-30T16:14:12.116Z</time></trkpt><trkpt lat="43.8948651" lon="12.3492443"><ele>594.5714285714286</ele><time>2026-04-30T16:14:13.11Z</time></trkpt><trkpt lat="43.894828" lon="12.3491486"><ele>595.2857142857142</ele><time>2026-04-30T16:14:14.118Z</time></trkpt><trkpt lat="43.894793" lon="12.3490568"><ele>596.0</ele><time>2026-04-30T16:14:15.119Z</time></trkpt><trkpt lat="43.8947603" lon="12.348954"><ele>595.5</ele><time>2026-04-30T16:14:16.117Z</time></trkpt><trkpt lat="43.894738" lon="12.3488459"><ele>595.0</ele><time>2026-04-30T16:14:17.093Z</time></trkpt><trkpt lat="43.894727" lon="12.3487404"><ele>594.5</ele><time>2026-04-30T16:14:18.108Z</time></trkpt><trkpt lat="43.8947176" lon="12.3486351"><ele>594.0</ele><time>2026-04-30T16:14:19.114Z</time></trkpt><trkpt lat="43.8947184" lon="12.3485285"><ele>593.5</ele><time>2026-04-30T16:14:20.111Z</time></trkpt><trkpt lat="43.8947191" lon="12.3484172"><ele>593.0</ele><time>2026-04-30T16:14:21.092Z</time></trkpt><trkpt lat="43.8947178" lon="12.3483026"><ele>593.0</ele><time>2026-04-30T16:14:22.121Z</time></trkpt><trkpt lat="43.8947177" lon="12.348196"><ele>593.0</ele><time>2026-04-30T16:14:23.057Z</time></trkpt><trkpt lat="43.8947244" lon="12.3480911"><ele>593.0</ele><time>2026-04-30T16:14:24.05Z</time></trkpt><trkpt lat="43.8947289" lon="12.3479819"><ele>593.0</ele><time>2026-04-30T16:14:25.114Z</time></trkpt><trkpt lat="43.8947372" lon="12.3478673"><ele>593.0</ele><time>2026-04-30T16:14:26.08Z</time></trkpt><trkpt lat="43.8947551" lon="12.3477564"><ele>593.0</ele><time>2026-04-30T16:14:27.096Z</time></trkpt><trkpt lat="43.8947987" lon="12.3476706"><ele>589.6</ele><time>2026-04-30T16:14:28.119Z</time></trkpt><trkpt lat="43.8948656" lon="12.3475973"><ele>586.1999999999999</ele><time>2026-04-30T16:14:29.101Z</time></trkpt><trkpt lat="43.8949353" lon="12.3475515"><ele>582.8</ele><time>2026-04-30T16:14:30.107Z</time></trkpt><trkpt lat="43.895069" lon="12.3475629"><ele>579.4</ele><time>2026-04-30T16:14:32.111Z</time></trkpt><trkpt lat="43.8951434" lon="12.3475945"><ele>576.0</ele><time>2026-04-30T16:14:33.064Z</time></trkpt><trkpt lat="43.8952178" lon="12.347634"><ele>576.0</ele><time>2026-04-30T16:14:34.114Z</time></trkpt><trkpt lat="43.8952905" lon="12.347672"><ele>576.0</ele><time>2026-04-30T16:14:35.121Z</time></trkpt><trkpt lat="43.8953637" lon="12.3477066"><ele>576.0</ele><time>2026-04-30T16:14:36.104Z</time></trkpt><trkpt lat="43.895435" lon="12.3477476"><ele>576.0</ele><time>2026-04-30T16:14:37.11Z</time></trkpt><trkpt lat="43.8954989" lon="12.3477826"><ele>576.0</ele><time>2026-04-30T16:14:38.1Z</time></trkpt><trkpt lat="43.8955702" lon="12.3478198"><ele>576.0</ele><time>2026-04-30T16:14:39.075Z</time></trkpt><trkpt lat="43.8956464" lon="12.3478472"><ele>576.0000000000001</ele><time>2026-04-30T16:14:40.077Z</time></trkpt><trkpt lat="43.8957183" lon="12.347871"><ele>576.0</ele><time>2026-04-30T16:14:41.063Z</time></trkpt><trkpt lat="43.8957909" lon="12.3478886"><ele>576.0</ele><time>2026-04-30T16:14:42.104Z</time></trkpt><trkpt lat="43.8958623" lon="12.3478964"><ele>576.0</ele><time>2026-04-30T16:14:43.12Z</time></trkpt><trkpt lat="43.8959316" lon="12.347905"><ele>576.0</ele><time>2026-04-30T16:14:44.087Z</time></trkpt><trkpt lat="43.8959964" lon="12.3479011"><ele>576.0000000000001</ele><time>2026-04-30T16:14:45.094Z</time></trkpt><trkpt lat="43.8960679" lon="12.3479115"><ele>576.0</ele><time>2026-04-30T16:14:46.098Z</time></trkpt><trkpt lat="43.8961425" lon="12.3479252"><ele>575.5</ele><time>2026-04-30T16:14:47.1Z</time></trkpt><trkpt lat="43.8962068" lon="12.3479491"><ele>575.0</ele><time>2026-04-30T16:14:48.108Z</time></trkpt><trkpt lat="43.8962634" lon="12.348004"><ele>574.5</ele><time>2026-04-30T16:14:49.118Z</time></trkpt><trkpt lat="43.8963159" lon="12.3480571"><ele>574.0</ele><time>2026-04-30T16:14:50.099Z</time></trkpt><trkpt lat="43.8964041" lon="12.3481352"><ele>573.5</ele><time>2026-04-30T16:14:52.115Z</time></trkpt><trkpt lat="43.8964983" lon="12.3481809"><ele>573.0</ele><time>2026-04-30T16:14:54.113Z</time></trkpt><trkpt lat="43.8965598" lon="12.3482203"><ele>573.0</ele><time>2026-04-30T16:14:55.123Z</time></trkpt><trkpt lat="43.8966278" lon="12.3482687"><ele>573.0</ele><time>2026-04-30T16:14:56.056Z</time></trkpt><trkpt lat="43.8966874" lon="12.3483297"><ele>573.0</ele><time>2026-04-30T16:14:57.108Z</time></trkpt><trkpt lat="43.8967353" lon="12.3484183"><ele>573.0</ele><time>2026-04-30T16:14:58.102Z</time></trkpt><trkpt lat="43.8967562" lon="12.3485388"><ele>573.0</ele><time>2026-04-30T16:14:59.102Z</time></trkpt><trkpt lat="43.8967524" lon="12.3486684"><ele>573.0</ele><time>2026-04-30T16:15:00.105Z</time></trkpt><trkpt lat="43.8967308" lon="12.34879"><ele>573.4</ele><time>2026-04-30T16:15:01.093Z</time></trkpt><trkpt lat="43.8967074" lon="12.3489186"><ele>573.8</ele><time>2026-04-30T16:15:02.087Z</time></trkpt><trkpt lat="43.8966966" lon="12.3490537"><ele>574.2</ele><time>2026-04-30T16:15:03.108Z</time></trkpt><trkpt lat="43.8967181" lon="12.34918"><ele>574.6</ele><time>2026-04-30T16:15:04.108Z</time></trkpt><trkpt lat="43.8967868" lon="12.3493129"><ele>575.0</ele><time>2026-04-30T16:15:05.1Z</time></trkpt><trkpt lat="43.8968654" lon="12.3494075"><ele>572.0</ele><time>2026-04-30T16:15:06.109Z</time></trkpt><trkpt lat="43.8969511" lon="12.3495074"><ele>569.0</ele><time>2026-04-30T16:15:07.082Z</time></trkpt><trkpt lat="43.8970341" lon="12.3496089"><ele>566.0</ele><time>2026-04-30T16:15:08.097Z</time></trkpt><trkpt lat="43.8971151" lon="12.3497077"><ele>563.0</ele><time>2026-04-30T16:15:09.111Z</time></trkpt><trkpt lat="43.8971977" lon="12.3497977"><ele>560.0</ele><time>2026-04-30T16:15:10.092Z</time></trkpt><trkpt lat="43.8972876" lon="12.3498572"><ele>560.0</ele><time>2026-04-30T16:15:11.071Z</time></trkpt><trkpt lat="43.897387" lon="12.3498815"><ele>560.0</ele><time>2026-04-30T16:15:12.121Z</time></trkpt><trkpt lat="43.8974793" lon="12.3498845"><ele>560.0</ele><time>2026-04-30T16:15:13.08Z</time></trkpt><trkpt lat="43.8975761" lon="12.3498904"><ele>560.0</ele><time>2026-04-30T16:15:14.089Z</time></trkpt><trkpt lat="43.8976716" lon="12.3498892"><ele>560.0</ele><time>2026-04-30T16:15:15.102Z</time></trkpt><trkpt lat="43.8977703" lon="12.3498811"><ele>558.2</ele><time>2026-04-30T16:15:16.075Z</time></trkpt><trkpt lat="43.8978715" lon="12.349876"><ele>556.4</ele><time>2026-04-30T16:15:17.124Z</time></trkpt><trkpt lat="43.897977" lon="12.3498681"><ele>554.6</ele><time>2026-04-30T16:15:18.095Z</time></trkpt><trkpt lat="43.8980889" lon="12.349855"><ele>552.8</ele><time>2026-04-30T16:15:19.105Z</time></trkpt><trkpt lat="43.898202" lon="12.3498364"><ele>551.0</ele><time>2026-04-30T16:15:20.108Z</time></trkpt><trkpt lat="43.8983076" lon="12.3497871"><ele>548.8</ele><time>2026-04-30T16:15:21.109Z</time></trkpt><trkpt lat="43.898389" lon="12.3496899"><ele>546.6</ele><time>2026-04-30T16:15:22.113Z</time></trkpt><trkpt lat="43.8984593" lon="12.3495713"><ele>544.4</ele><time>2026-04-30T16:15:23.11Z</time></trkpt><trkpt lat="43.8985083" lon="12.3494293"><ele>542.2</ele><time>2026-04-30T16:15:24.11Z</time></trkpt><trkpt lat="43.8985422" lon="12.349275"><ele>540.0</ele><time>2026-04-30T16:15:25.108Z</time></trkpt><trkpt lat="43.898576" lon="12.3491313"><ele>539.4</ele><time>2026-04-30T16:15:26.113Z</time></trkpt><trkpt lat="43.8986232" lon="12.3490061"><ele>538.8</ele><time>2026-04-30T16:15:27.101Z</time></trkpt><trkpt lat="43.8986898" lon="12.3489321"><ele>538.2</ele><time>2026-04-30T16:15:28.107Z</time></trkpt><trkpt lat="43.898776" lon="12.3489213"><ele>537.6</ele><time>2026-04-30T16:15:29.077Z</time></trkpt><trkpt lat="43.8988794" lon="12.3489745"><ele>537.0</ele><time>2026-04-30T16:15:30.102Z</time></trkpt><trkpt lat="43.8989646" lon="12.3490748"><ele>537.0</ele><time>2026-04-30T16:15:31.103Z</time></trkpt><trkpt lat="43.899027" lon="12.3491861"><ele>537.0</ele><time>2026-04-30T16:15:32.084Z</time></trkpt><trkpt lat="43.8990937" lon="12.3493004"><ele>537.0</ele><time>2026-04-30T16:15:33.107Z</time></trkpt><trkpt lat="43.8991623" lon="12.3494094"><ele>537.0</ele><time>2026-04-30T16:15:34.108Z</time></trkpt><trkpt lat="43.8992294" lon="12.3495098"><ele>537.0</ele><time>2026-04-30T16:15:35.113Z</time></trkpt><trkpt lat="43.8993054" lon="12.3495987"><ele>536.0</ele><time>2026-04-30T16:15:36.103Z</time></trkpt><trkpt lat="43.8993934" lon="12.3496878"><ele>535.0</ele><time>2026-04-30T16:15:37.093Z</time></trkpt><trkpt lat="43.8994798" lon="12.3497781"><ele>534.0</ele><time>2026-04-30T16:15:38.068Z</time></trkpt><trkpt lat="43.8995764" lon="12.3498659"><ele>533.0</ele><time>2026-04-30T16:15:39.095Z</time></trkpt><trkpt lat="43.8996634" lon="12.3499515"><ele>532.0</ele><time>2026-04-30T16:15:40.11Z</time></trkpt><trkpt lat="43.8997535" lon="12.3500349"><ele>532.0</ele><time>2026-04-30T16:15:41.093Z</time></trkpt><trkpt lat="43.8998584" lon="12.3501002"><ele>532.0</ele><time>2026-04-30T16:15:42.117Z</time></trkpt><trkpt lat="43.8999575" lon="12.3501493"><ele>532.0</ele><time>2026-04-30T16:15:43.109Z</time></trkpt><trkpt lat="43.9000654" lon="12.3501889"><ele>532.0</ele><time>2026-04-30T16:15:44.109Z</time></trkpt><trkpt lat="43.9001718" lon="12.3501582"><ele>532.0</ele><time>2026-04-30T16:15:45.098Z</time></trkpt><trkpt lat="43.900248" lon="12.3500385"><ele>531.75</ele><time>2026-04-30T16:15:46.106Z</time></trkpt><trkpt lat="43.9003224" lon="12.3499116"><ele>531.5</ele><time>2026-04-30T16:15:47.086Z</time></trkpt><trkpt lat="43.9003719" lon="12.3497737"><ele>531.25</ele><time>2026-04-30T16:15:48.108Z</time></trkpt><trkpt lat="43.9004186" lon="12.3496308"><ele>531.0</ele><time>2026-04-30T16:15:49.126Z</time></trkpt><trkpt lat="43.9004632" lon="12.3494913"><ele>531.0</ele><time>2026-04-30T16:15:50.1Z</time></trkpt><trkpt lat="43.9005141" lon="12.3493531"><ele>531.0</ele><time>2026-04-30T16:15:51.083Z</time></trkpt><trkpt lat="43.9005779" lon="12.3492143"><ele>531.0</ele><time>2026-04-30T16:15:52.11Z</time></trkpt><trkpt lat="43.9006424" lon="12.3490791"><ele>531.0</ele><time>2026-04-30T16:15:53.068Z</time></trkpt><trkpt lat="43.9007066" lon="12.3489446"><ele>533.75</ele><time>2026-04-30T16:15:54.071Z</time></trkpt><trkpt lat="43.9007718" lon="12.3487983"><ele>536.5</ele><time>2026-04-30T16:15:55.079Z</time></trkpt><trkpt lat="43.9008393" lon="12.3486598"><ele>539.25</ele><time>2026-04-30T16:15:56.101Z</time></trkpt><trkpt lat="43.9009051" lon="12.3485177"><ele>542.0</ele><time>2026-04-30T16:15:57.107Z</time></trkpt><trkpt lat="43.9009767" lon="12.348374"><ele>542.0</ele><time>2026-04-30T16:15:58.104Z</time></trkpt><trkpt lat="43.9010522" lon="12.3482301"><ele>542.0</ele><time>2026-04-30T16:15:59.103Z</time></trkpt><trkpt lat="43.9011302" lon="12.3480887"><ele>542.0</ele><time>2026-04-30T16:16:00.107Z</time></trkpt><trkpt lat="43.9012034" lon="12.3479385"><ele>542.0</ele><time>2026-04-30T16:16:01.089Z</time></trkpt><trkpt lat="43.9012817" lon="12.3477985"><ele>537.25</ele><time>2026-04-30T16:16:02.108Z</time></trkpt><trkpt lat="43.9013629" lon="12.3476553"><ele>532.5</ele><time>2026-04-30T16:16:03.089Z</time></trkpt><trkpt lat="43.9014499" lon="12.3475237"><ele>527.75</ele><time>2026-04-30T16:16:04.099Z</time></trkpt><trkpt lat="43.9015399" lon="12.3474012"><ele>523.0</ele><time>2026-04-30T16:16:05.091Z</time></trkpt><trkpt lat="43.9016336" lon="12.3472898"><ele>525.1999999999999</ele><time>2026-04-30T16:16:06.086Z</time></trkpt><trkpt lat="43.9017209" lon="12.3471827"><ele>527.4</ele><time>2026-04-30T16:16:07.113Z</time></trkpt><trkpt lat="43.9017891" lon="12.3470729"><ele>529.5999999999999</ele><time>2026-04-30T16:16:08.092Z</time></trkpt><trkpt lat="43.9018503" lon="12.3469642"><ele>531.8</ele><time>2026-04-30T16:16:09.089Z</time></trkpt><trkpt lat="43.9019093" lon="12.346863"><ele>534.0</ele><time>2026-04-30T16:16:10.093Z</time></trkpt><trkpt lat="43.9019569" lon="12.3467625"><ele>534.0</ele><time>2026-04-30T16:16:11.091Z</time></trkpt><trkpt lat="43.9020098" lon="12.346675"><ele>534.0</ele><time>2026-04-30T16:16:12.098Z</time></trkpt><trkpt lat="43.9020536" lon="12.3465937"><ele>534.0</ele><time>2026-04-30T16:16:13.106Z</time></trkpt><trkpt lat="43.9020885" lon="12.3465207"><ele>534.0</ele><time>2026-04-30T16:16:14.093Z</time></trkpt><trkpt lat="43.9021564" lon="12.3463787"><ele>534.0</ele><time>2026-04-30T16:16:16.1Z</time></trkpt><trkpt lat="43.9022133" lon="12.3462628"><ele>534.0</ele><time>2026-04-30T16:16:18.104Z</time></trkpt><trkpt lat="43.902259" lon="12.3461621"><ele>531.6666666666666</ele><time>2026-04-30T16:16:20.109Z</time></trkpt><trkpt lat="43.9023087" lon="12.3460602"><ele>529.3333333333334</ele><time>2026-04-30T16:16:22.102Z</time></trkpt><trkpt lat="43.9023637" lon="12.3459736"><ele>527.0</ele><time>2026-04-30T16:16:24.039Z</time></trkpt><trkpt lat="43.9024216" lon="12.345876"><ele>524.6666666666667</ele><time>2026-04-30T16:16:27.042Z</time></trkpt><trkpt lat="43.9024808" lon="12.3457756"><ele>522.3333333333334</ele><time>2026-04-30T16:16:30.049Z</time></trkpt><trkpt lat="43.9025295" lon="12.3457028"><ele>520.0</ele><time>2026-04-30T16:16:32.069Z</time></trkpt><trkpt lat="43.9025754" lon="12.3456363"><ele>519.8333333333334</ele><time>2026-04-30T16:16:34.059Z</time></trkpt><trkpt lat="43.9026336" lon="12.3455575"><ele>519.6666666666667</ele><time>2026-04-30T16:16:37.087Z</time></trkpt><trkpt lat="43.9026801" lon="12.3454896"><ele>519.5</ele><time>2026-04-30T16:16:40.092Z</time></trkpt><trkpt lat="43.9027409" lon="12.3454321"><ele>519.3333333333334</ele><time>2026-04-30T16:16:44.118Z</time></trkpt><trkpt lat="43.9028177" lon="12.3454134"><ele>519.1666666666666</ele><time>2026-04-30T16:16:48.088Z</time></trkpt><trkpt lat="43.9028926" lon="12.3454255"><ele>519.0</ele><time>2026-04-30T16:16:52.109Z</time></trkpt><trkpt lat="43.9029693" lon="12.3454438"><ele>519.0</ele><time>2026-04-30T16:16:56.119Z</time></trkpt><trkpt lat="43.9030452" lon="12.3454725"><ele>519.0</ele><time>2026-04-30T16:17:00.105Z</time></trkpt><trkpt lat="43.9031514" lon="12.3455531"><ele>519.0</ele><time>2026-04-30T16:17:03.114Z</time></trkpt><trkpt lat="43.9032711" lon="12.3456131"><ele>519.0</ele><time>2026-04-30T16:17:05.109Z</time></trkpt><trkpt lat="43.903327" lon="12.345689"><ele>519.0</ele><time>2026-04-30T16:17:06.087Z</time></trkpt><trkpt lat="43.9033802" lon="12.3457756"><ele>514.8</ele><time>2026-04-30T16:17:07.112Z</time></trkpt><trkpt lat="43.9034214" lon="12.3458951"><ele>510.59999999999997</ele><time>2026-04-30T16:17:08.106Z</time></trkpt><trkpt lat="43.9034528" lon="12.3460187"><ele>506.4</ele><time>2026-04-30T16:17:09.087Z</time></trkpt><trkpt lat="43.9034752" lon="12.3461486"><ele>502.2</ele><time>2026-04-30T16:17:10.103Z</time></trkpt><trkpt lat="43.9035047" lon="12.3462693"><ele>498.0</ele><time>2026-04-30T16:17:11.091Z</time></trkpt><trkpt lat="43.9035328" lon="12.3463919"><ele>498.0</ele><time>2026-04-30T16:17:12.095Z</time></trkpt><trkpt lat="43.9035687" lon="12.3465133"><ele>497.99999999999994</ele><time>2026-04-30T16:17:13.092Z</time></trkpt><trkpt lat="43.9036108" lon="12.3466321"><ele>497.99999999999994</ele><time>2026-04-30T16:17:14.1Z</time></trkpt><trkpt lat="43.9036517" lon="12.3467407"><ele>498.0</ele><time>2026-04-30T16:17:15.125Z</time></trkpt><trkpt lat="43.9036919" lon="12.3468476"><ele>498.0</ele><time>2026-04-30T16:17:16.09Z</time></trkpt><trkpt lat="43.9037284" lon="12.3469563"><ele>498.0</ele><time>2026-04-30T16:17:17.054Z</time></trkpt><trkpt lat="43.9037533" lon="12.3470736"><ele>497.99999999999994</ele><time>2026-04-30T16:17:18.102Z</time></trkpt><trkpt lat="43.9037709" lon="12.3472086"><ele>497.99999999999994</ele><time>2026-04-30T16:17:19.109Z</time></trkpt><trkpt lat="43.9037786" lon="12.3473417"><ele>498.0</ele><time>2026-04-30T16:17:20.111Z</time></trkpt><trkpt lat="43.9037634" lon="12.347472"><ele>498.0</ele><time>2026-04-30T16:17:21.095Z</time></trkpt><trkpt lat="43.9037385" lon="12.3475962"><ele>498.6666666666667</ele><time>2026-04-30T16:17:22.114Z</time></trkpt><trkpt lat="43.9036834" lon="12.34771"><ele>499.33333333333337</ele><time>2026-04-30T16:17:23.097Z</time></trkpt><trkpt lat="43.9036275" lon="12.3477986"><ele>500.0</ele><time>2026-04-30T16:17:24.099Z</time></trkpt><trkpt lat="43.9035724" lon="12.3479016"><ele>500.6666666666667</ele><time>2026-04-30T16:17:25.086Z</time></trkpt><trkpt lat="43.903546" lon="12.348007"><ele>501.33333333333337</ele><time>2026-04-30T16:17:26.101Z</time></trkpt><trkpt lat="43.9035428" lon="12.348126"><ele>502.0</ele><time>2026-04-30T16:17:27.098Z</time></trkpt><trkpt lat="43.9035466" lon="12.3482316"><ele>503.00000000000006</ele><time>2026-04-30T16:17:28.091Z</time></trkpt><trkpt lat="43.9035588" lon="12.3483254"><ele>504.0</ele><time>2026-04-30T16:17:29.107Z</time></trkpt><trkpt lat="43.903585" lon="12.3484279"><ele>505.0</ele><time>2026-04-30T16:17:31.062Z</time></trkpt><trkpt lat="43.9036084" lon="12.3485302"><ele>506.0</ele><time>2026-04-30T16:17:35.109Z</time></trkpt><trkpt lat="43.9036272" lon="12.3486252"><ele>507.00000000000006</ele><time>2026-04-30T16:17:40.108Z</time></trkpt><trkpt lat="43.9036536" lon="12.3487302"><ele>508.0</ele><time>2026-04-30T16:17:44.104Z</time></trkpt><trkpt lat="43.9036591" lon="12.3488327"><ele>509.7142857142857</ele><time>2026-04-30T16:17:48.082Z</time></trkpt><trkpt lat="43.9036849" lon="12.3489228"><ele>511.42857142857144</ele><time>2026-04-30T16:17:51.088Z</time></trkpt><trkpt lat="43.9037205" lon="12.3490288"><ele>513.1428571428571</ele><time>2026-04-30T16:17:54.098Z</time></trkpt><trkpt lat="43.9037492" lon="12.3491085"><ele>514.8571428571429</ele><time>2026-04-30T16:17:56.09Z</time></trkpt><trkpt lat="43.9037891" lon="12.3492052"><ele>516.5714285714286</ele><time>2026-04-30T16:17:59.072Z</time></trkpt><trkpt lat="43.9038434" lon="12.3492745"><ele>518.2857142857143</ele><time>2026-04-30T16:18:02.078Z</time></trkpt><trkpt lat="43.9038934" lon="12.3493553"><ele>520.0</ele><time>2026-04-30T16:18:05.091Z</time></trkpt><trkpt lat="43.9039351" lon="12.3494366"><ele>520.0000000000001</ele><time>2026-04-30T16:18:08.062Z</time></trkpt><trkpt lat="43.9039741" lon="12.3495217"><ele>520.0</ele><time>2026-04-30T16:18:12.101Z</time></trkpt><trkpt lat="43.9040096" lon="12.3496029"><ele>520.0</ele><time>2026-04-30T16:18:16.098Z</time></trkpt><trkpt lat="43.9040455" lon="12.3496872"><ele>520.0</ele><time>2026-04-30T16:18:21.105Z</time></trkpt><trkpt lat="43.9040774" lon="12.3497698"><ele>520.0</ele><time>2026-04-30T16:18:25.099Z</time></trkpt><trkpt lat="43.9041166" lon="12.3498692"><ele>520.0000000000001</ele><time>2026-04-30T16:18:30.087Z</time></trkpt><trkpt lat="43.9041621" lon="12.3499557"><ele>520.0</ele><time>2026-04-30T16:18:35.102Z</time></trkpt><trkpt lat="43.9042025" lon="12.3500302"><ele>520.7142857142858</ele><time>2026-04-30T16:18:39.106Z</time></trkpt><trkpt lat="43.9042406" lon="12.3501095"><ele>521.4285714285714</ele><time>2026-04-30T16:18:43.1Z</time></trkpt><trkpt lat="43.9042823" lon="12.3501755"><ele>522.1428571428571</ele><time>2026-04-30T16:18:46.109Z</time></trkpt><trkpt lat="43.9043406" lon="12.3502483"><ele>522.8571428571429</ele><time>2026-04-30T16:18:50.088Z</time></trkpt><trkpt lat="43.9043996" lon="12.3503"><ele>523.5714285714286</ele><time>2026-04-30T16:18:53.077Z</time></trkpt><trkpt lat="43.9044851" lon="12.3503489"><ele>524.2857142857143</ele><time>2026-04-30T16:18:56.091Z</time></trkpt><trkpt lat="43.9045523" lon="12.3503884"><ele>525.0</ele><time>2026-04-30T16:18:58.103Z</time></trkpt><trkpt lat="43.9046327" lon="12.3504351"><ele>525.0</ele><time>2026-04-30T16:19:01.051Z</time></trkpt><trkpt lat="43.9047127" lon="12.3504741"><ele>525.0</ele><time>2026-04-30T16:19:04.081Z</time></trkpt><trkpt lat="43.9047832" lon="12.3505127"><ele>525.0</ele><time>2026-04-30T16:19:07.107Z</time></trkpt><trkpt lat="43.9048503" lon="12.3505411"><ele>525.0</ele><time>2026-04-30T16:19:10.069Z</time></trkpt><trkpt lat="43.9049255" lon="12.3505586"><ele>525.0</ele><time>2026-04-30T16:19:13.104Z</time></trkpt><trkpt lat="43.9049916" lon="12.3505938"><ele>525.0</ele><time>2026-04-30T16:19:16.079Z</time></trkpt><trkpt lat="43.9050686" lon="12.35062"><ele>524.0</ele><time>2026-04-30T16:19:19.098Z</time></trkpt><trkpt lat="43.9051453" lon="12.3506363"><ele>523.0</ele><time>2026-04-30T16:19:22.121Z</time></trkpt><trkpt lat="43.9052113" lon="12.3506668"><ele>522.0</ele><time>2026-04-30T16:19:25.118Z</time></trkpt><trkpt lat="43.9052932" lon="12.3506932"><ele>521.0</ele><time>2026-04-30T16:19:29.12Z</time></trkpt><trkpt lat="43.9053507" lon="12.3507519"><ele>520.0</ele><time>2026-04-30T16:19:32.065Z</time></trkpt><trkpt lat="43.9054151" lon="12.3508445"><ele>519.0</ele><time>2026-04-30T16:19:35.092Z</time></trkpt><trkpt lat="43.9054577" lon="12.3509279"><ele>519.0</ele><time>2026-04-30T16:19:37.093Z</time></trkpt><trkpt lat="43.9055036" lon="12.3510162"><ele>519.0</ele><time>2026-04-30T16:19:39.1Z</time></trkpt><trkpt lat="43.9055773" lon="12.3511407"><ele>519.0</ele><time>2026-04-30T16:19:41.1Z</time></trkpt><trkpt lat="43.9056169" lon="12.3512223"><ele>519.0</ele><time>2026-04-30T16:19:42.114Z</time></trkpt><trkpt lat="43.9056475" lon="12.3513025"><ele>519.0</ele><time>2026-04-30T16:19:43.079Z</time></trkpt><trkpt lat="43.9056843" lon="12.3513853"><ele>519.0</ele><time>2026-04-30T16:19:44.092Z</time></trkpt><trkpt lat="43.9057294" lon="12.3514676"><ele>517.0</ele><time>2026-04-30T16:19:45.089Z</time></trkpt><trkpt lat="43.9057672" lon="12.3515438"><ele>515.0</ele><time>2026-04-30T16:19:46.104Z</time></trkpt><trkpt lat="43.9057959" lon="12.3516231"><ele>513.0</ele><time>2026-04-30T16:19:47.089Z</time></trkpt><trkpt lat="43.9058373" lon="12.3517844"><ele>511.0</ele><time>2026-04-30T16:19:49.12Z</time></trkpt><trkpt lat="43.9058606" lon="12.3518685"><ele>509.0</ele><time>2026-04-30T16:19:50.073Z</time></trkpt><trkpt lat="43.9058972" lon="12.3519461"><ele>507.0</ele><time>2026-04-30T16:19:51.128Z</time></trkpt><trkpt lat="43.9059455" lon="12.3520181"><ele>507.0</ele><time>2026-04-30T16:19:52.087Z</time></trkpt><trkpt lat="43.9059961" lon="12.3520967"><ele>507.0</ele><time>2026-04-30T16:19:53.117Z</time></trkpt><trkpt lat="43.9060509" lon="12.3521711"><ele>507.0</ele><time>2026-04-30T16:19:54.109Z</time></trkpt><trkpt lat="43.9061054" lon="12.3522492"><ele>507.0</ele><time>2026-04-30T16:19:55.054Z</time></trkpt><trkpt lat="43.9061531" lon="12.3523383"><ele>507.0</ele><time>2026-04-30T16:19:56.073Z</time></trkpt><trkpt lat="43.9062095" lon="12.3524344"><ele>507.0</ele><time>2026-04-30T16:19:57.076Z</time></trkpt><trkpt lat="43.906272" lon="12.3525327"><ele>509.40000000000003</ele><time>2026-04-30T16:19:58.094Z</time></trkpt><trkpt lat="43.9063456" lon="12.352627"><ele>511.80000000000007</ele><time>2026-04-30T16:19:59.1Z</time></trkpt><trkpt lat="43.9064238" lon="12.3527165"><ele>514.2</ele><time>2026-04-30T16:20:00.078Z</time></trkpt><trkpt lat="43.9064969" lon="12.3528151"><ele>516.6</ele><time>2026-04-30T16:20:01.115Z</time></trkpt><trkpt lat="43.9065646" lon="12.3528896"><ele>519.0</ele><time>2026-04-30T16:20:02.103Z</time></trkpt><trkpt lat="43.9066222" lon="12.352932"><ele>519.0</ele><time>2026-04-30T16:20:03.111Z</time></trkpt><trkpt lat="43.9067166" lon="12.3529249"><ele>519.0</ele><time>2026-04-30T16:20:05.098Z</time></trkpt><trkpt lat="43.9068124" lon="12.3529355"><ele>519.0</ele><time>2026-04-30T16:20:07.116Z</time></trkpt><trkpt lat="43.9068865" lon="12.3529787"><ele>519.0</ele><time>2026-04-30T16:20:09.099Z</time></trkpt><trkpt lat="43.9069643" lon="12.3530005"><ele>519.0</ele><time>2026-04-30T16:20:11.103Z</time></trkpt><trkpt lat="43.9070385" lon="12.3530141"><ele>519.0</ele><time>2026-04-30T16:20:13.11Z</time></trkpt><trkpt lat="43.907124" lon="12.3530147"><ele>516.75</ele><time>2026-04-30T16:20:15.095Z</time></trkpt><trkpt lat="43.9072447" lon="12.3530222"><ele>514.5</ele><time>2026-04-30T16:20:17.124Z</time></trkpt><trkpt lat="43.9073655" lon="12.3530251"><ele>512.25</ele><time>2026-04-30T16:20:19.096Z</time></trkpt><trkpt lat="43.9074936" lon="12.3530145"><ele>510.0</ele><time>2026-04-30T16:20:21.101Z</time></trkpt><trkpt lat="43.9076186" lon="12.3529998"><ele>508.28571428571433</ele><time>2026-04-30T16:20:23.101Z</time></trkpt><trkpt lat="43.9076905" lon="12.3529753"><ele>506.5714285714286</ele><time>2026-04-30T16:20:24.074Z</time></trkpt><trkpt lat="43.9077615" lon="12.3529606"><ele>504.8571428571429</ele><time>2026-04-30T16:20:25.114Z</time></trkpt><trkpt lat="43.9078324" lon="12.3529456"><ele>503.1428571428571</ele><time>2026-04-30T16:20:26.098Z</time></trkpt><trkpt lat="43.9079006" lon="12.3529251"><ele>501.4285714285714</ele><time>2026-04-30T16:20:27.105Z</time></trkpt><trkpt lat="43.9079671" lon="12.3529041"><ele>499.71428571428567</ele><time>2026-04-30T16:20:28.116Z</time></trkpt><trkpt lat="43.9080387" lon="12.352888"><ele>498.0</ele><time>2026-04-30T16:20:29.126Z</time></trkpt><trkpt lat="43.9081203" lon="12.3528765"><ele>498.0</ele><time>2026-04-30T16:20:30.111Z</time></trkpt><trkpt lat="43.9082039" lon="12.3528824"><ele>498.0</ele><time>2026-04-30T16:20:31.13Z</time></trkpt><trkpt lat="43.9082914" lon="12.3528818"><ele>498.0</ele><time>2026-04-30T16:20:32.099Z</time></trkpt><trkpt lat="43.9083785" lon="12.3528886"><ele>498.0</ele><time>2026-04-30T16:20:33.118Z</time></trkpt><trkpt lat="43.908466" lon="12.3529092"><ele>498.0</ele><time>2026-04-30T16:20:34.073Z</time></trkpt><trkpt lat="43.9085572" lon="12.3529441"><ele>498.0</ele><time>2026-04-30T16:20:35.096Z</time></trkpt><trkpt lat="43.9086447" lon="12.3529771"><ele>496.0</ele><time>2026-04-30T16:20:36.105Z</time></trkpt><trkpt lat="43.9087366" lon="12.3529986"><ele>494.0</ele><time>2026-04-30T16:20:37.077Z</time></trkpt><trkpt lat="43.9088267" lon="12.3530041"><ele>492.0</ele><time>2026-04-30T16:20:38.106Z</time></trkpt><trkpt lat="43.9089116" lon="12.3530057"><ele>490.0</ele><time>2026-04-30T16:20:39.099Z</time></trkpt><trkpt lat="43.9089869" lon="12.3530158"><ele>488.0</ele><time>2026-04-30T16:20:40.048Z</time></trkpt><trkpt lat="43.9090613" lon="12.3530506"><ele>486.0</ele><time>2026-04-30T16:20:41.073Z</time></trkpt><trkpt lat="43.909126" lon="12.3531072"><ele>487.42857142857144</ele><time>2026-04-30T16:20:42.107Z</time></trkpt><trkpt lat="43.9091812" lon="12.3531639"><ele>488.8571428571429</ele><time>2026-04-30T16:20:43.1Z</time></trkpt><trkpt lat="43.9092301" lon="12.3532402"><ele>490.28571428571433</ele><time>2026-04-30T16:20:44.098Z</time></trkpt><trkpt lat="43.9092729" lon="12.3533107"><ele>491.7142857142857</ele><time>2026-04-30T16:20:45.076Z</time></trkpt><trkpt lat="43.9093173" lon="12.3533813"><ele>493.1428571428572</ele><time>2026-04-30T16:20:46.076Z</time></trkpt><trkpt lat="43.9093607" lon="12.353447"><ele>494.5714285714286</ele><time>2026-04-30T16:20:47.072Z</time></trkpt><trkpt lat="43.909404" lon="12.3535242"><ele>496.0</ele><time>2026-04-30T16:20:48.048Z</time></trkpt><trkpt lat="43.9094789" lon="12.3536626"><ele>496.00000000000006</ele><time>2026-04-30T16:20:50.073Z</time></trkpt><trkpt lat="43.9095356" lon="12.3537639"><ele>496.0</ele><time>2026-04-30T16:20:52.073Z</time></trkpt><trkpt lat="43.9095948" lon="12.3538438"><ele>496.0</ele><time>2026-04-30T16:20:54.074Z</time></trkpt><trkpt lat="43.9096508" lon="12.3538899"><ele>496.0</ele><time>2026-04-30T16:20:56.087Z</time></trkpt><trkpt lat="43.9097252" lon="12.353954"><ele>496.00000000000006</ele><time>2026-04-30T16:21:00.109Z</time></trkpt><trkpt lat="43.909783" lon="12.3540283"><ele>496.0</ele><time>2026-04-30T16:21:03.096Z</time></trkpt><trkpt lat="43.9098513" lon="12.3540921"><ele>498.1666666666667</ele><time>2026-04-30T16:21:07.111Z</time></trkpt><trkpt lat="43.9099158" lon="12.3541607"><ele>500.33333333333337</ele><time>2026-04-30T16:21:11.082Z</time></trkpt><trkpt lat="43.9099665" lon="12.3542351"><ele>502.5</ele><time>2026-04-30T16:21:15.08Z</time></trkpt><trkpt lat="43.9100134" lon="12.3542957"><ele>504.66666666666663</ele><time>2026-04-30T16:21:18.072Z</time></trkpt><trkpt lat="43.9100896" lon="12.3543207"><ele>506.8333333333333</ele><time>2026-04-30T16:21:23.112Z</time></trkpt><trkpt lat="43.9101684" lon="12.3543385"><ele>509.0</ele><time>2026-04-30T16:21:28.11Z</time></trkpt><trkpt lat="43.9102499" lon="12.3543731"><ele>508.99999999999994</ele><time>2026-04-30T16:21:32.056Z</time></trkpt><trkpt lat="43.9103202" lon="12.354397"><ele>509.0</ele><time>2026-04-30T16:21:35.097Z</time></trkpt><trkpt lat="43.9103956" lon="12.3544053"><ele>509.0</ele><time>2026-04-30T16:21:38.103Z</time></trkpt><trkpt lat="43.910465" lon="12.3544069"><ele>509.0</ele><time>2026-04-30T16:21:41.088Z</time></trkpt><trkpt lat="43.9105375" lon="12.3544016"><ele>508.99999999999994</ele><time>2026-04-30T16:21:44.09Z</time></trkpt><trkpt lat="43.910615" lon="12.3543901"><ele>509.0</ele><time>2026-04-30T16:21:47.091Z</time></trkpt><trkpt lat="43.9106982" lon="12.3543553"><ele>508.99999999999994</ele><time>2026-04-30T16:21:50.085Z</time></trkpt><trkpt lat="43.9107827" lon="12.3543443"><ele>509.0</ele><time>2026-04-30T16:21:53.1Z</time></trkpt><trkpt lat="43.9108551" lon="12.3543398"><ele>509.0</ele><time>2026-04-30T16:21:56.081Z</time></trkpt><trkpt lat="43.9109281" lon="12.3543633"><ele>509.0</ele><time>2026-04-30T16:21:59.082Z</time></trkpt><trkpt lat="43.911003" lon="12.3543946"><ele>508.99999999999994</ele><time>2026-04-30T16:22:02.103Z</time></trkpt><trkpt lat="43.9110712" lon="12.3544466"><ele>509.0</ele><time>2026-04-30T16:22:05.069Z</time></trkpt><trkpt lat="43.9111453" lon="12.3545233"><ele>507.99999999999994</ele><time>2026-04-30T16:22:08.072Z</time></trkpt><trkpt lat="43.9111901" lon="12.3545983"><ele>507.0</ele><time>2026-04-30T16:22:10.087Z</time></trkpt><trkpt lat="43.9112386" lon="12.3546878"><ele>506.0</ele><time>2026-04-30T16:22:12.046Z</time></trkpt><trkpt lat="43.9112781" lon="12.3547762"><ele>505.0</ele><time>2026-04-30T16:22:14.06Z</time></trkpt><trkpt lat="43.911307" lon="12.3548544"><ele>503.99999999999994</ele><time>2026-04-30T16:22:16.099Z</time></trkpt><trkpt lat="43.9113464" lon="12.3549425"><ele>503.0</ele><time>2026-04-30T16:22:18.105Z</time></trkpt><trkpt lat="43.9114063" lon="12.3550638"><ele>502.99999999999994</ele><time>2026-04-30T16:22:20.058Z</time></trkpt><trkpt lat="43.9114783" lon="12.3552041"><ele>503.0</ele><time>2026-04-30T16:22:22.112Z</time></trkpt><trkpt lat="43.9115231" lon="12.3552732"><ele>503.0</ele><time>2026-04-30T16:22:23.058Z</time></trkpt><trkpt lat="43.9115718" lon="12.3553513"><ele>503.0</ele><time>2026-04-30T16:22:24.104Z</time></trkpt><trkpt lat="43.9116191" lon="12.3554332"><ele>502.99999999999994</ele><time>2026-04-30T16:22:25.099Z</time></trkpt><trkpt lat="43.9116681" lon="12.3555209"><ele>503.0</ele><time>2026-04-30T16:22:26.095Z</time></trkpt><trkpt lat="43.9117112" lon="12.3556079"><ele>503.66666666666663</ele><time>2026-04-30T16:22:27.076Z</time></trkpt><trkpt lat="43.9117522" lon="12.3556956"><ele>504.3333333333333</ele><time>2026-04-30T16:22:28.096Z</time></trkpt><trkpt lat="43.9117967" lon="12.355776"><ele>505.0</ele><time>2026-04-30T16:22:29.115Z</time></trkpt><trkpt lat="43.9118383" lon="12.3558416"><ele>505.66666666666663</ele><time>2026-04-30T16:22:30.09Z</time></trkpt><trkpt lat="43.9118972" lon="12.3559514"><ele>506.3333333333333</ele><time>2026-04-30T16:22:32.128Z</time></trkpt><trkpt lat="43.9119174" lon="12.3560689"><ele>507.0</ele><time>2026-04-30T16:22:34.109Z</time></trkpt><trkpt lat="43.9119411" lon="12.3561655"><ele>507.0</ele><time>2026-04-30T16:22:36.068Z</time></trkpt><trkpt lat="43.9119905" lon="12.3562707"><ele>507.0</ele><time>2026-04-30T16:22:38.109Z</time></trkpt><trkpt lat="43.9120517" lon="12.3563805"><ele>507.0</ele><time>2026-04-30T16:22:40.114Z</time></trkpt><trkpt lat="43.9121244" lon="12.3564864"><ele>507.0</ele><time>2026-04-30T16:22:42.096Z</time></trkpt><trkpt lat="43.9121727" lon="12.3565465"><ele>507.0</ele><time>2026-04-30T16:22:44.115Z</time></trkpt><trkpt lat="43.9122505" lon="12.3565571"><ele>507.0</ele><time>2026-04-30T16:22:47.108Z</time></trkpt><trkpt lat="43.9123136" lon="12.3565156"><ele>507.0</ele><time>2026-04-30T16:22:49.058Z</time></trkpt><trkpt lat="43.9124094" lon="12.3564569"><ele>507.00000000000006</ele><time>2026-04-30T16:22:51.053Z</time></trkpt><trkpt lat="43.9124911" lon="12.3564114"><ele>507.00000000000006</ele><time>2026-04-30T16:22:53.059Z</time></trkpt><trkpt lat="43.9125829" lon="12.3563568"><ele>507.0</ele><time>2026-04-30T16:22:55.121Z</time></trkpt><trkpt lat="43.9126862" lon="12.3563055"><ele>507.0</ele><time>2026-04-30T16:22:57.082Z</time></trkpt><trkpt lat="43.912797" lon="12.3562545"><ele>507.0</ele><time>2026-04-30T16:22:59.081Z</time></trkpt><trkpt lat="43.912856" lon="12.3562209"><ele>507.0</ele><time>2026-04-30T16:23:00.06Z</time></trkpt><trkpt lat="43.9129169" lon="12.3561845"><ele>507.0</ele><time>2026-04-30T16:23:01.075Z</time></trkpt><trkpt lat="43.9129755" lon="12.3561414"><ele>507.0</ele><time>2026-04-30T16:23:02.119Z</time></trkpt><trkpt lat="43.9130312" lon="12.3560987"><ele>507.0</ele><time>2026-04-30T16:23:03.08Z</time></trkpt><trkpt lat="43.9130835" lon="12.3560472"><ele>507.0</ele><time>2026-04-30T16:23:04.119Z</time></trkpt><trkpt lat="43.9131938" lon="12.3559678"><ele>507.0</ele><time>2026-04-30T16:23:06.083Z</time></trkpt><trkpt lat="43.913252" lon="12.355921"><ele>507.0</ele><time>2026-04-30T16:23:07.081Z</time></trkpt><trkpt lat="43.9133632" lon="12.3558548"><ele>507.0</ele><time>2026-04-30T16:23:09.107Z</time></trkpt><trkpt lat="43.9134331" lon="12.35587"><ele>507.0</ele><time>2026-04-30T16:23:10.065Z</time></trkpt><trkpt lat="43.9135016" lon="12.3559002"><ele>507.0</ele><time>2026-04-30T16:23:11.083Z</time></trkpt><trkpt lat="43.9135712" lon="12.355942"><ele>507.0</ele><time>2026-04-30T16:23:12.11Z</time></trkpt><trkpt lat="43.9136423" lon="12.355993"><ele>507.0</ele><time>2026-04-30T16:23:13.112Z</time></trkpt><trkpt lat="43.9137116" lon="12.356048"><ele>507.3333333333333</ele><time>2026-04-30T16:23:14.101Z</time></trkpt><trkpt lat="43.9137788" lon="12.356111"><ele>507.66666666666663</ele><time>2026-04-30T16:23:15.106Z</time></trkpt><trkpt lat="43.9138421" lon="12.3561777"><ele>508.0</ele><time>2026-04-30T16:23:16.1Z</time></trkpt><trkpt lat="43.913917" lon="12.356256"><ele>508.3333333333333</ele><time>2026-04-30T16:23:17.113Z</time></trkpt><trkpt lat="43.9139978" lon="12.3563194"><ele>508.66666666666663</ele><time>2026-04-30T16:23:18.098Z</time></trkpt><trkpt lat="43.9140771" lon="12.3563722"><ele>509.0</ele><time>2026-04-30T16:23:19.125Z</time></trkpt><trkpt lat="43.9141625" lon="12.3564374"><ele>503.2</ele><time>2026-04-30T16:23:20.089Z</time></trkpt><trkpt lat="43.9142467" lon="12.3565136"><ele>497.4</ele><time>2026-04-30T16:23:21.081Z</time></trkpt><trkpt lat="43.914323" lon="12.3565893"><ele>491.6</ele><time>2026-04-30T16:23:22.112Z</time></trkpt><trkpt lat="43.9143999" lon="12.3566553"><ele>485.8</ele><time>2026-04-30T16:23:23.061Z</time></trkpt><trkpt lat="43.9144761" lon="12.3567401"><ele>480.0</ele><time>2026-04-30T16:23:24.113Z</time></trkpt><trkpt lat="43.9145528" lon="12.356822"><ele>480.0</ele><time>2026-04-30T16:23:25.12Z</time></trkpt><trkpt lat="43.9146293" lon="12.3568911"><ele>480.0</ele><time>2026-04-30T16:23:26.086Z</time></trkpt><trkpt lat="43.9147037" lon="12.3569581"><ele>480.0</ele><time>2026-04-30T16:23:27.122Z</time></trkpt><trkpt lat="43.9147804" lon="12.3570222"><ele>480.0</ele><time>2026-04-30T16:23:28.106Z</time></trkpt><trkpt lat="43.9148626" lon="12.3570917"><ele>480.0</ele><time>2026-04-30T16:23:29.108Z</time></trkpt><trkpt lat="43.914944" lon="12.3571535"><ele>483.2</ele><time>2026-04-30T16:23:30.089Z</time></trkpt><trkpt lat="43.9150265" lon="12.357216"><ele>486.4</ele><time>2026-04-30T16:23:31.082Z</time></trkpt><trkpt lat="43.9151118" lon="12.3572795"><ele>489.6</ele><time>2026-04-30T16:23:32.082Z</time></trkpt><trkpt lat="43.9151886" lon="12.3573383"><ele>492.8</ele><time>2026-04-30T16:23:33.105Z</time></trkpt><trkpt lat="43.9152676" lon="12.3573912"><ele>496.0</ele><time>2026-04-30T16:23:34.097Z</time></trkpt><trkpt lat="43.9153573" lon="12.3574217"><ele>496.0</ele><time>2026-04-30T16:23:35.105Z</time></trkpt><trkpt lat="43.9154504" lon="12.3574477"><ele>496.0</ele><time>2026-04-30T16:23:36.063Z</time></trkpt><trkpt lat="43.9155431" lon="12.3574512"><ele>496.0</ele><time>2026-04-30T16:23:37.091Z</time></trkpt><trkpt lat="43.9156368" lon="12.3574559"><ele>496.0</ele><time>2026-04-30T16:23:38.104Z</time></trkpt><trkpt lat="43.9157382" lon="12.3574399"><ele>496.0</ele><time>2026-04-30T16:23:39.078Z</time></trkpt><trkpt lat="43.9158385" lon="12.3574078"><ele>493.20000000000005</ele><time>2026-04-30T16:23:40.078Z</time></trkpt><trkpt lat="43.9159387" lon="12.3573719"><ele>490.40000000000003</ele><time>2026-04-30T16:23:41.053Z</time></trkpt><trkpt lat="43.916046" lon="12.3573202"><ele>487.6</ele><time>2026-04-30T16:23:42.1Z</time></trkpt><trkpt lat="43.9161508" lon="12.3572776"><ele>484.8</ele><time>2026-04-30T16:23:43.052Z</time></trkpt><trkpt lat="43.916248" lon="12.3572511"><ele>482.0</ele><time>2026-04-30T16:23:44.066Z</time></trkpt><trkpt lat="43.9163486" lon="12.3572651"><ele>482.0</ele><time>2026-04-30T16:23:45.091Z</time></trkpt><trkpt lat="43.9164375" lon="12.3572876"><ele>482.00000000000006</ele><time>2026-04-30T16:23:46.039Z</time></trkpt><trkpt lat="43.9165312" lon="12.3573378"><ele>482.00000000000006</ele><time>2026-04-30T16:23:47.063Z</time></trkpt><trkpt lat="43.9166078" lon="12.357416"><ele>482.0</ele><time>2026-04-30T16:23:48.069Z</time></trkpt><trkpt lat="43.9166785" lon="12.357495"><ele>482.0</ele><time>2026-04-30T16:23:49.065Z</time></trkpt><trkpt lat="43.9167421" lon="12.3575634"><ele>483.3333333333333</ele><time>2026-04-30T16:23:50.059Z</time></trkpt><trkpt lat="43.9168046" lon="12.3576362"><ele>484.66666666666663</ele><time>2026-04-30T16:23:51.051Z</time></trkpt><trkpt lat="43.9168564" lon="12.3577054"><ele>486.0</ele><time>2026-04-30T16:23:52.093Z</time></trkpt><trkpt lat="43.916893" lon="12.3578022"><ele>487.33333333333337</ele><time>2026-04-30T16:23:53.063Z</time></trkpt><trkpt lat="43.9169318" lon="12.3579061"><ele>488.6666666666667</ele><time>2026-04-30T16:23:54.053Z</time></trkpt><trkpt lat="43.9169559" lon="12.3580076"><ele>490.0</ele><time>2026-04-30T16:23:55.099Z</time></trkpt><trkpt lat="43.9169904" lon="12.3580963"><ele>490.00000000000006</ele><time>2026-04-30T16:23:56.1Z</time></trkpt><trkpt lat="43.9170303" lon="12.3581752"><ele>490.0</ele><time>2026-04-30T16:23:57.081Z</time></trkpt><trkpt lat="43.9170858" lon="12.3582496"><ele>490.0</ele><time>2026-04-30T16:23:58.093Z</time></trkpt><trkpt lat="43.9171402" lon="12.3583057"><ele>490.0</ele><time>2026-04-30T16:23:59.091Z</time></trkpt><trkpt lat="43.9172607" lon="12.3583334"><ele>490.00000000000006</ele><time>2026-04-30T16:24:01.07Z</time></trkpt><trkpt lat="43.9173264" lon="12.3583363"><ele>490.0</ele><time>2026-04-30T16:24:02.106Z</time></trkpt><trkpt lat="43.9173924" lon="12.3583213"><ele>490.00000000000006</ele><time>2026-04-30T16:24:03.083Z</time></trkpt><trkpt lat="43.9174574" lon="12.3582995"><ele>490.0</ele><time>2026-04-30T16:24:04.11Z</time></trkpt><trkpt lat="43.9175666" lon="12.3582223"><ele>490.0</ele><time>2026-04-30T16:24:06.108Z</time></trkpt><trkpt lat="43.917625" lon="12.3581857"><ele>490.0</ele><time>2026-04-30T16:24:07.123Z</time></trkpt><trkpt lat="43.9177279" lon="12.3581063"><ele>490.00000000000006</ele><time>2026-04-30T16:24:09.098Z</time></trkpt><trkpt lat="43.9177931" lon="12.3580789"><ele>490.0</ele><time>2026-04-30T16:24:10.119Z</time></trkpt><trkpt lat="43.9179071" lon="12.3580689"><ele>488.83333333333337</ele><time>2026-04-30T16:24:12.114Z</time></trkpt><trkpt lat="43.9180218" lon="12.3580841"><ele>487.6666666666667</ele><time>2026-04-30T16:24:14.108Z</time></trkpt><trkpt lat="43.9181208" lon="12.3581414"><ele>486.5</ele><time>2026-04-30T16:24:16.054Z</time></trkpt><trkpt lat="43.918177" lon="12.3581823"><ele>485.33333333333337</ele><time>2026-04-30T16:24:17.075Z</time></trkpt><trkpt lat="43.9182277" lon="12.358237"><ele>484.1666666666667</ele><time>2026-04-30T16:24:18.082Z</time></trkpt><trkpt lat="43.9182812" lon="12.358294"><ele>483.0</ele><time>2026-04-30T16:24:19.056Z</time></trkpt><trkpt lat="43.9183369" lon="12.3583523"><ele>483.0</ele><time>2026-04-30T16:24:20.076Z</time></trkpt><trkpt lat="43.9183941" lon="12.3584126"><ele>483.0</ele><time>2026-04-30T16:24:21.077Z</time></trkpt><trkpt lat="43.9184585" lon="12.3584799"><ele>483.0</ele><time>2026-04-30T16:24:22.079Z</time></trkpt><trkpt lat="43.9185213" lon="12.3585464"><ele>483.0</ele><time>2026-04-30T16:24:23.118Z</time></trkpt><trkpt lat="43.918591" lon="12.3586147"><ele>483.0</ele><time>2026-04-30T16:24:24.122Z</time></trkpt><trkpt lat="43.9186604" lon="12.3586865"><ele>483.0</ele><time>2026-04-30T16:24:25.1Z</time></trkpt><trkpt lat="43.9187322" lon="12.3587631"><ele>482.79999999999995</ele><time>2026-04-30T16:24:26.11Z</time></trkpt><trkpt lat="43.9188044" lon="12.3588392"><ele>482.59999999999997</ele><time>2026-04-30T16:24:27.121Z</time></trkpt><trkpt lat="43.9188817" lon="12.3589025"><ele>482.40000000000003</ele><time>2026-04-30T16:24:28.122Z</time></trkpt><trkpt lat="43.9189688" lon="12.3589203"><ele>482.20000000000005</ele><time>2026-04-30T16:24:29.116Z</time></trkpt><trkpt lat="43.9190579" lon="12.3589256"><ele>482.0</ele><time>2026-04-30T16:24:30.099Z</time></trkpt><trkpt lat="43.9191541" lon="12.3589332"><ele>478.40000000000003</ele><time>2026-04-30T16:24:31.057Z</time></trkpt><trkpt lat="43.919255" lon="12.3589336"><ele>474.80000000000007</ele><time>2026-04-30T16:24:32.058Z</time></trkpt><trkpt lat="43.919356" lon="12.3589202"><ele>471.2</ele><time>2026-04-30T16:24:33.062Z</time></trkpt><trkpt lat="43.9194529" lon="12.3589133"><ele>467.6</ele><time>2026-04-30T16:24:34.126Z</time></trkpt><trkpt lat="43.9195491" lon="12.3589022"><ele>464.0</ele><time>2026-04-30T16:24:35.114Z</time></trkpt><trkpt lat="43.9196487" lon="12.3588971"><ele>464.0</ele><time>2026-04-30T16:24:36.119Z</time></trkpt><trkpt lat="43.9197502" lon="12.3588697"><ele>464.0</ele><time>2026-04-30T16:24:37.099Z</time></trkpt><trkpt lat="43.9198497" lon="12.3588277"><ele>464.0</ele><time>2026-04-30T16:24:38.102Z</time></trkpt><trkpt lat="43.9199525" lon="12.3587849"><ele>464.0</ele><time>2026-04-30T16:24:39.101Z</time></trkpt><trkpt lat="43.9200595" lon="12.3587286"><ele>464.0</ele><time>2026-04-30T16:24:40.116Z</time></trkpt><trkpt lat="43.9201662" lon="12.358679"><ele>460.79999999999995</ele><time>2026-04-30T16:24:41.055Z</time></trkpt><trkpt lat="43.9202686" lon="12.3586029"><ele>457.59999999999997</ele><time>2026-04-30T16:24:42.08Z</time></trkpt><trkpt lat="43.9203553" lon="12.3585161"><ele>454.4</ele><time>2026-04-30T16:24:43.102Z</time></trkpt><trkpt lat="43.9204277" lon="12.3584603"><ele>451.2</ele><time>2026-04-30T16:24:44.1Z</time></trkpt><trkpt lat="43.9204993" lon="12.3584304"><ele>448.0</ele><time>2026-04-30T16:24:45.12Z</time></trkpt><trkpt lat="43.9205919" lon="12.3584837"><ele>448.00000000000006</ele><time>2026-04-30T16:24:47.056Z</time></trkpt><trkpt lat="43.9205473" lon="12.3586539"><ele>448.0</ele><time>2026-04-30T16:24:49.1Z</time></trkpt><trkpt lat="43.9205025" lon="12.3587381"><ele>448.0</ele><time>2026-04-30T16:24:50.099Z</time></trkpt><trkpt lat="43.9204724" lon="12.3588318"><ele>448.0</ele><time>2026-04-30T16:24:51.101Z</time></trkpt><trkpt lat="43.9204491" lon="12.3589393"><ele>448.00000000000006</ele><time>2026-04-30T16:24:52.1Z</time></trkpt><trkpt lat="43.9204205" lon="12.3590484"><ele>448.0</ele><time>2026-04-30T16:24:53.102Z</time></trkpt><trkpt lat="43.9203897" lon="12.3591581"><ele>447.1666666666667</ele><time>2026-04-30T16:24:54.083Z</time></trkpt><trkpt lat="43.9203623" lon="12.3592711"><ele>446.33333333333337</ele><time>2026-04-30T16:24:55.077Z</time></trkpt><trkpt lat="43.9203315" lon="12.3593865"><ele>445.5</ele><time>2026-04-30T16:24:56.082Z</time></trkpt><trkpt lat="43.9203" lon="12.3595069"><ele>444.66666666666663</ele><time>2026-04-30T16:24:57.114Z</time></trkpt><trkpt lat="43.9202887" lon="12.3596327"><ele>443.8333333333333</ele><time>2026-04-30T16:24:58.106Z</time></trkpt><trkpt lat="43.9203188" lon="12.3597467"><ele>443.0</ele><time>2026-04-30T16:24:59.08Z</time></trkpt><trkpt lat="43.9203909" lon="12.3598417"><ele>444.8333333333333</ele><time>2026-04-30T16:25:00.073Z</time></trkpt><trkpt lat="43.9204637" lon="12.359895"><ele>446.66666666666663</ele><time>2026-04-30T16:25:01.075Z</time></trkpt><trkpt lat="43.9205442" lon="12.3599292"><ele>448.5</ele><time>2026-04-30T16:25:02.079Z</time></trkpt><trkpt lat="43.920626" lon="12.359965"><ele>450.33333333333337</ele><time>2026-04-30T16:25:03.073Z</time></trkpt><trkpt lat="43.9206934" lon="12.3599954"><ele>452.1666666666667</ele><time>2026-04-30T16:25:04.048Z</time></trkpt><trkpt lat="43.9207652" lon="12.3600287"><ele>454.0</ele><time>2026-04-30T16:25:05.049Z</time></trkpt><trkpt lat="43.9208377" lon="12.3600551"><ele>451.0</ele><time>2026-04-30T16:25:06.054Z</time></trkpt><trkpt lat="43.9209106" lon="12.3600844"><ele>448.00000000000006</ele><time>2026-04-30T16:25:07.07Z</time></trkpt><trkpt lat="43.9209841" lon="12.3600998"><ele>445.0</ele><time>2026-04-30T16:25:08.064Z</time></trkpt><trkpt lat="43.9210581" lon="12.3601167"><ele>442.0</ele><time>2026-04-30T16:25:09.049Z</time></trkpt><trkpt lat="43.9211321" lon="12.3601253"><ele>439.0</ele><time>2026-04-30T16:25:10.074Z</time></trkpt><trkpt lat="43.9212049" lon="12.3601329"><ele>436.0</ele><time>2026-04-30T16:25:11.067Z</time></trkpt><trkpt lat="43.9212766" lon="12.3601612"><ele>433.0</ele><time>2026-04-30T16:25:12.082Z</time></trkpt><trkpt lat="43.9213438" lon="12.3602061"><ele>433.0</ele><time>2026-04-30T16:25:13.061Z</time></trkpt><trkpt lat="43.9213908" lon="12.3602729"><ele>432.99999999999994</ele><time>2026-04-30T16:25:14.077Z</time></trkpt><trkpt lat="43.921433" lon="12.3603417"><ele>432.99999999999994</ele><time>2026-04-30T16:25:15.076Z</time></trkpt><trkpt lat="43.9215167" lon="12.3604798"><ele>433.0</ele><time>2026-04-30T16:25:17.1Z</time></trkpt><trkpt lat="43.9215941" lon="12.3606051"><ele>433.0</ele><time>2026-04-30T16:25:19.053Z</time></trkpt><trkpt lat="43.9216802" lon="12.3607188"><ele>434.85714285714283</ele><time>2026-04-30T16:25:21.099Z</time></trkpt><trkpt lat="43.9217259" lon="12.3607795"><ele>436.7142857142857</ele><time>2026-04-30T16:25:22.075Z</time></trkpt><trkpt lat="43.921779" lon="12.3608407"><ele>438.57142857142856</ele><time>2026-04-30T16:25:23.114Z</time></trkpt><trkpt lat="43.9218363" lon="12.3609143"><ele>440.42857142857144</ele><time>2026-04-30T16:25:24.1Z</time></trkpt><trkpt lat="43.9219037" lon="12.3609723"><ele>442.2857142857143</ele><time>2026-04-30T16:25:25.114Z</time></trkpt><trkpt lat="43.9219683" lon="12.3610021"><ele>444.1428571428571</ele><time>2026-04-30T16:25:26.107Z</time></trkpt><trkpt lat="43.9220459" lon="12.3609792"><ele>446.0</ele><time>2026-04-30T16:25:27.077Z</time></trkpt><trkpt lat="43.9221296" lon="12.3609336"><ele>446.0</ele><time>2026-04-30T16:25:28.056Z</time></trkpt><trkpt lat="43.9222097" lon="12.3608955"><ele>446.0</ele><time>2026-04-30T16:25:29.055Z</time></trkpt><trkpt lat="43.9222932" lon="12.3608622"><ele>446.0</ele><time>2026-04-30T16:25:30.119Z</time></trkpt><trkpt lat="43.9223778" lon="12.3608665"><ele>446.0</ele><time>2026-04-30T16:25:31.102Z</time></trkpt><trkpt lat="43.9224722" lon="12.3609021"><ele>446.0</ele><time>2026-04-30T16:25:32.102Z</time></trkpt><trkpt lat="43.9225668" lon="12.360952"><ele>443.0</ele><time>2026-04-30T16:25:33.054Z</time></trkpt><trkpt lat="43.9226666" lon="12.3609881"><ele>440.0</ele><time>2026-04-30T16:25:34.069Z</time></trkpt><trkpt lat="43.9227765" lon="12.3609977"><ele>437.0</ele><time>2026-04-30T16:25:35.106Z</time></trkpt><trkpt lat="43.9228745" lon="12.3610221"><ele>434.0</ele><time>2026-04-30T16:25:36.132Z</time></trkpt><trkpt lat="43.9229746" lon="12.361082"><ele>431.0</ele><time>2026-04-30T16:25:37.12Z</time></trkpt><trkpt lat="43.9230681" lon="12.3611469"><ele>431.0</ele><time>2026-04-30T16:25:38.106Z</time></trkpt><trkpt lat="43.9231603" lon="12.3612091"><ele>431.0</ele><time>2026-04-30T16:25:39.103Z</time></trkpt><trkpt lat="43.9232625" lon="12.3612596"><ele>431.0</ele><time>2026-04-30T16:25:40.103Z</time></trkpt><trkpt lat="43.9233703" lon="12.3612861"><ele>431.0</ele><time>2026-04-30T16:25:41.065Z</time></trkpt><trkpt lat="43.9234843" lon="12.3613057"><ele>431.0</ele><time>2026-04-30T16:25:42.078Z</time></trkpt><trkpt lat="43.9235886" lon="12.3613162"><ele>427.6</ele><time>2026-04-30T16:25:43.097Z</time></trkpt><trkpt lat="43.9237006" lon="12.3613189"><ele>424.20000000000005</ele><time>2026-04-30T16:25:44.105Z</time></trkpt><trkpt lat="43.9238047" lon="12.3613057"><ele>420.79999999999995</ele><time>2026-04-30T16:25:45.098Z</time></trkpt><trkpt lat="43.9239119" lon="12.3613001"><ele>417.4</ele><time>2026-04-30T16:25:46.085Z</time></trkpt><trkpt lat="43.9240182" lon="12.3613059"><ele>414.0</ele><time>2026-04-30T16:25:47.104Z</time></trkpt><trkpt lat="43.9241225" lon="12.3613211"><ele>414.0</ele><time>2026-04-30T16:25:48.088Z</time></trkpt><trkpt lat="43.9242222" lon="12.3613583"><ele>414.0</ele><time>2026-04-30T16:25:49.113Z</time></trkpt><trkpt lat="43.9243235" lon="12.3614028"><ele>414.0</ele><time>2026-04-30T16:25:50.094Z</time></trkpt><trkpt lat="43.924437" lon="12.3614376"><ele>414.0</ele><time>2026-04-30T16:25:51.072Z</time></trkpt><trkpt lat="43.9245349" lon="12.3614381"><ele>414.0</ele><time>2026-04-30T16:25:52.074Z</time></trkpt><trkpt lat="43.9246413" lon="12.3614381"><ele>418.6</ele><time>2026-04-30T16:25:53.098Z</time></trkpt><trkpt lat="43.9247394" lon="12.3614354"><ele>423.2</ele><time>2026-04-30T16:25:54.113Z</time></trkpt><trkpt lat="43.9248286" lon="12.3614573"><ele>427.80000000000007</ele><time>2026-04-30T16:25:55.09Z</time></trkpt><trkpt lat="43.9249244" lon="12.3614974"><ele>432.40000000000003</ele><time>2026-04-30T16:25:56.098Z</time></trkpt><trkpt lat="43.9250134" lon="12.3615469"><ele>437.0</ele><time>2026-04-30T16:25:57.049Z</time></trkpt><trkpt lat="43.925097" lon="12.361593"><ele>438.16666666666663</ele><time>2026-04-30T16:25:58.07Z</time></trkpt><trkpt lat="43.925173" lon="12.3616448"><ele>439.3333333333333</ele><time>2026-04-30T16:25:59.061Z</time></trkpt><trkpt lat="43.9252469" lon="12.3616754"><ele>440.5</ele><time>2026-04-30T16:26:00.094Z</time></trkpt><trkpt lat="43.9253322" lon="12.3616735"><ele>441.66666666666663</ele><time>2026-04-30T16:26:01.075Z</time></trkpt><trkpt lat="43.9254064" lon="12.3616595"><ele>442.8333333333333</ele><time>2026-04-30T16:26:02.066Z</time></trkpt><trkpt lat="43.9254685" lon="12.3616202"><ele>444.0</ele><time>2026-04-30T16:26:03.069Z</time></trkpt><trkpt lat="43.9255221" lon="12.3615647"><ele>444.0</ele><time>2026-04-30T16:26:04.101Z</time></trkpt><trkpt lat="43.9255598" lon="12.3614886"><ele>444.0</ele><time>2026-04-30T16:26:05.087Z</time></trkpt><trkpt lat="43.9256123" lon="12.3613565"><ele>444.0</ele><time>2026-04-30T16:26:07.049Z</time></trkpt><trkpt lat="43.9256519" lon="12.3612291"><ele>444.0</ele><time>2026-04-30T16:26:09.075Z</time></trkpt><trkpt lat="43.9256667" lon="12.3611417"><ele>444.0</ele><time>2026-04-30T16:26:11.106Z</time></trkpt><trkpt lat="43.9257211" lon="12.3610686"><ele>444.0</ele><time>2026-04-30T16:26:14.115Z</time></trkpt><trkpt lat="43.9258089" lon="12.3610901"><ele>439.3333333333333</ele><time>2026-04-30T16:26:17.104Z</time></trkpt><trkpt lat="43.9259006" lon="12.361132"><ele>434.66666666666663</ele><time>2026-04-30T16:26:20.1Z</time></trkpt><trkpt lat="43.9259854" lon="12.3611887"><ele>430.0</ele><time>2026-04-30T16:26:23.103Z</time></trkpt><trkpt lat="43.9260452" lon="12.3612235"><ele>425.3333333333333</ele><time>2026-04-30T16:26:25.113Z</time></trkpt><trkpt lat="43.9261107" lon="12.3612665"><ele>420.66666666666663</ele><time>2026-04-30T16:26:27.115Z</time></trkpt><trkpt lat="43.9261775" lon="12.3613167"><ele>416.0</ele><time>2026-04-30T16:26:29.103Z</time></trkpt><trkpt lat="43.9262559" lon="12.3613532"><ele>419.99999999999994</ele><time>2026-04-30T16:26:31.082Z</time></trkpt><trkpt lat="43.9263356" lon="12.3613944"><ele>424.0</ele><time>2026-04-30T16:26:33.056Z</time></trkpt><trkpt lat="43.9264082" lon="12.3614395"><ele>428.0</ele><time>2026-04-30T16:26:35.103Z</time></trkpt><trkpt lat="43.9264836" lon="12.3614845"><ele>432.0</ele><time>2026-04-30T16:26:37.117Z</time></trkpt><trkpt lat="43.9265564" lon="12.3615143"><ele>435.99999999999994</ele><time>2026-04-30T16:26:39.098Z</time></trkpt><trkpt lat="43.9266285" lon="12.361543"><ele>440.0</ele><time>2026-04-30T16:26:41.084Z</time></trkpt><trkpt lat="43.9267142" lon="12.3615755"><ele>437.66666666666663</ele><time>2026-04-30T16:26:43.062Z</time></trkpt><trkpt lat="43.9267779" lon="12.3616473"><ele>435.3333333333333</ele><time>2026-04-30T16:26:45.088Z</time></trkpt><trkpt lat="43.9268328" lon="12.3617187"><ele>433.0</ele><time>2026-04-30T16:26:47.101Z</time></trkpt><trkpt lat="43.9269054" lon="12.3617973"><ele>430.66666666666663</ele><time>2026-04-30T16:26:49.079Z</time></trkpt><trkpt lat="43.9269699" lon="12.3618488"><ele>428.3333333333333</ele><time>2026-04-30T16:26:51.119Z</time></trkpt><trkpt lat="43.9270397" lon="12.3619103"><ele>426.0</ele><time>2026-04-30T16:26:53.074Z</time></trkpt><trkpt lat="43.9271255" lon="12.361973"><ele>426.0</ele><time>2026-04-30T16:26:55.111Z</time></trkpt><trkpt lat="43.927245" lon="12.3620291"><ele>426.0</ele><time>2026-04-30T16:26:57.076Z</time></trkpt><trkpt lat="43.9273181" lon="12.3620661"><ele>426.0</ele><time>2026-04-30T16:26:58.078Z</time></trkpt><trkpt lat="43.927401" lon="12.3620813"><ele>426.0</ele><time>2026-04-30T16:26:59.102Z</time></trkpt><trkpt lat="43.9274845" lon="12.3620927"><ele>426.0</ele><time>2026-04-30T16:27:00.113Z</time></trkpt><trkpt lat="43.9275668" lon="12.3620895"><ele>426.8</ele><time>2026-04-30T16:27:01.115Z</time></trkpt><trkpt lat="43.9276598" lon="12.3620683"><ele>427.6</ele><time>2026-04-30T16:27:02.055Z</time></trkpt><trkpt lat="43.9277567" lon="12.3620033"><ele>428.4</ele><time>2026-04-30T16:27:03.117Z</time></trkpt><trkpt lat="43.9278517" lon="12.3619259"><ele>429.2</ele><time>2026-04-30T16:27:04.109Z</time></trkpt><trkpt lat="43.9279409" lon="12.3618313"><ele>430.0</ele><time>2026-04-30T16:27:05.115Z</time></trkpt><trkpt lat="43.9280154" lon="12.361721"><ele>430.0</ele><time>2026-04-30T16:27:06.094Z</time></trkpt><trkpt lat="43.9280848" lon="12.3616169"><ele>430.0</ele><time>2026-04-30T16:27:07.097Z</time></trkpt><trkpt lat="43.928155" lon="12.3615314"><ele>430.0</ele><time>2026-04-30T16:27:08.102Z</time></trkpt><trkpt lat="43.9282456" lon="12.3614852"><ele>430.0</ele><time>2026-04-30T16:27:09.115Z</time></trkpt><trkpt lat="43.9283369" lon="12.3614559"><ele>430.0</ele><time>2026-04-30T16:27:10.109Z</time></trkpt><trkpt lat="43.928428" lon="12.3614091"><ele>427.0</ele><time>2026-04-30T16:27:11.117Z</time></trkpt><trkpt lat="43.9285123" lon="12.3613308"><ele>424.0</ele><time>2026-04-30T16:27:12.118Z</time></trkpt><trkpt lat="43.9285795" lon="12.3612093"><ele>421.0</ele><time>2026-04-30T16:27:13.077Z</time></trkpt><trkpt lat="43.9286454" lon="12.3610704"><ele>418.0</ele><time>2026-04-30T16:27:14.095Z</time></trkpt><trkpt lat="43.9287096" lon="12.3609286"><ele>418.0</ele><time>2026-04-30T16:27:15.109Z</time></trkpt><trkpt lat="43.9287725" lon="12.3607843"><ele>418.0</ele><time>2026-04-30T16:27:16.102Z</time></trkpt><trkpt lat="43.9288354" lon="12.3606404"><ele>418.0</ele><time>2026-04-30T16:27:17.098Z</time></trkpt><trkpt lat="43.928921" lon="12.3605227"><ele>418.0</ele><time>2026-04-30T16:27:18.09Z</time></trkpt><trkpt lat="43.929006" lon="12.3604313"><ele>415.83333333333337</ele><time>2026-04-30T16:27:19.101Z</time></trkpt><trkpt lat="43.9290768" lon="12.3603573"><ele>413.6666666666667</ele><time>2026-04-30T16:27:20.078Z</time></trkpt><trkpt lat="43.9291467" lon="12.3602925"><ele>411.5</ele><time>2026-04-30T16:27:21.106Z</time></trkpt><trkpt lat="43.9292223" lon="12.360268"><ele>409.33333333333337</ele><time>2026-04-30T16:27:22.089Z</time></trkpt><trkpt lat="43.9293136" lon="12.3602574"><ele>407.1666666666667</ele><time>2026-04-30T16:27:23.095Z</time></trkpt><trkpt lat="43.9294052" lon="12.3602308"><ele>405.0</ele><time>2026-04-30T16:27:24.097Z</time></trkpt><trkpt lat="43.929496" lon="12.3601728"><ele>405.0</ele><time>2026-04-30T16:27:25.074Z</time></trkpt><trkpt lat="43.9295769" lon="12.3600834"><ele>405.0</ele><time>2026-04-30T16:27:26.1Z</time></trkpt><trkpt lat="43.9296502" lon="12.3599701"><ele>405.0</ele><time>2026-04-30T16:27:27.079Z</time></trkpt><trkpt lat="43.9297116" lon="12.3598323"><ele>405.0</ele><time>2026-04-30T16:27:28.111Z</time></trkpt><trkpt lat="43.9297775" lon="12.3596931"><ele>401.0</ele><time>2026-04-30T16:27:29.108Z</time></trkpt><trkpt lat="43.9298533" lon="12.3595596"><ele>397.0</ele><time>2026-04-30T16:27:30.11Z</time></trkpt><trkpt lat="43.9299357" lon="12.3594349"><ele>393.0</ele><time>2026-04-30T16:27:31.116Z</time></trkpt><trkpt lat="43.9300196" lon="12.3592983"><ele>389.0</ele><time>2026-04-30T16:27:32.108Z</time></trkpt><trkpt lat="43.9301005" lon="12.3591578"><ele>388.2</ele><time>2026-04-30T16:27:33.1Z</time></trkpt><trkpt lat="43.9301767" lon="12.3590171"><ele>387.4</ele><time>2026-04-30T16:27:34.115Z</time></trkpt><trkpt lat="43.9302469" lon="12.358898"><ele>386.6</ele><time>2026-04-30T16:27:35.111Z</time></trkpt><trkpt lat="43.9303073" lon="12.358818"><ele>385.8</ele><time>2026-04-30T16:27:36.111Z</time></trkpt><trkpt lat="43.9303924" lon="12.3587613"><ele>385.0</ele><time>2026-04-30T16:27:37.113Z</time></trkpt><trkpt lat="43.9304876" lon="12.3587185"><ele>385.0</ele><time>2026-04-30T16:27:38.127Z</time></trkpt><trkpt lat="43.9305839" lon="12.3586941"><ele>385.0</ele><time>2026-04-30T16:27:39.051Z</time></trkpt><trkpt lat="43.9306609" lon="12.3586437"><ele>385.0</ele><time>2026-04-30T16:27:40.113Z</time></trkpt><trkpt lat="43.9307309" lon="12.3585565"><ele>385.0</ele><time>2026-04-30T16:27:41.116Z</time></trkpt><trkpt lat="43.93081" lon="12.3584531"><ele>385.0</ele><time>2026-04-30T16:27:42.081Z</time></trkpt><trkpt lat="43.9308838" lon="12.3583322"><ele>379.00000000000006</ele><time>2026-04-30T16:27:43.092Z</time></trkpt><trkpt lat="43.9309476" lon="12.358214"><ele>373.0</ele><time>2026-04-30T16:27:44.105Z</time></trkpt><trkpt lat="43.9309999" lon="12.358116"><ele>367.0</ele><time>2026-04-30T16:27:45.093Z</time></trkpt><trkpt lat="43.9310795" lon="12.3581008"><ele>361.0</ele><time>2026-04-30T16:27:47.072Z</time></trkpt><trkpt lat="43.9310947" lon="12.3582349"><ele>355.0</ele><time>2026-04-30T16:27:49.064Z</time></trkpt><trkpt lat="43.9310608" lon="12.3583145"><ele>349.0</ele><time>2026-04-30T16:27:50.098Z</time></trkpt><trkpt lat="43.9310102" lon="12.3583905"><ele>349.0</ele><time>2026-04-30T16:27:51.116Z</time></trkpt><trkpt lat="43.9309661" lon="12.3584717"><ele>349.0</ele><time>2026-04-30T16:27:52.112Z</time></trkpt><trkpt lat="43.9309381" lon="12.3585825"><ele>349.0</ele><time>2026-04-30T16:27:53.109Z</time></trkpt><trkpt lat="43.930918" lon="12.3586981"><ele>349.0</ele><time>2026-04-30T16:27:54.107Z</time></trkpt><trkpt lat="43.9309204" lon="12.3588177"><ele>349.0</ele><time>2026-04-30T16:27:55.109Z</time></trkpt><trkpt lat="43.9309308" lon="12.3589437"><ele>349.0</ele><time>2026-04-30T16:27:56.093Z</time></trkpt><trkpt lat="43.9309512" lon="12.3590826"><ele>347.16666666666663</ele><time>2026-04-30T16:27:57.117Z</time></trkpt><trkpt lat="43.9309703" lon="12.3592247"><ele>345.3333333333333</ele><time>2026-04-30T16:27:58.105Z</time></trkpt><trkpt lat="43.9309947" lon="12.3593505"><ele>343.5</ele><time>2026-04-30T16:27:59.068Z</time></trkpt><trkpt lat="43.9310317" lon="12.3594569"><ele>341.6666666666667</ele><time>2026-04-30T16:28:00.12Z</time></trkpt><trkpt lat="43.9310834" lon="12.3595431"><ele>339.83333333333337</ele><time>2026-04-30T16:28:01.104Z</time></trkpt><trkpt lat="43.9311653" lon="12.3595541"><ele>338.0</ele><time>2026-04-30T16:28:03.087Z</time></trkpt><trkpt lat="43.9312049" lon="12.3594121"><ele>338.0</ele><time>2026-04-30T16:28:05.086Z</time></trkpt><trkpt lat="43.9311965" lon="12.3592471"><ele>338.0</ele><time>2026-04-30T16:28:07.07Z</time></trkpt><trkpt lat="43.9311915" lon="12.359148"><ele>338.0</ele><time>2026-04-30T16:28:08.127Z</time></trkpt><trkpt lat="43.931191" lon="12.3590448"><ele>338.0</ele><time>2026-04-30T16:28:09.1Z</time></trkpt><trkpt lat="43.9311923" lon="12.3589297"><ele>338.0</ele><time>2026-04-30T16:28:10.12Z</time></trkpt><trkpt lat="43.931204" lon="12.3588052"><ele>338.0</ele><time>2026-04-30T16:28:11.108Z</time></trkpt><trkpt lat="43.9312268" lon="12.3586767"><ele>340.2</ele><time>2026-04-30T16:28:12.107Z</time></trkpt><trkpt lat="43.9312659" lon="12.3585421"><ele>342.4</ele><time>2026-04-30T16:28:13.105Z</time></trkpt><trkpt lat="43.9313081" lon="12.3584155"><ele>344.59999999999997</ele><time>2026-04-30T16:28:14.105Z</time></trkpt><trkpt lat="43.9313633" lon="12.3583069"><ele>346.79999999999995</ele><time>2026-04-30T16:28:15.102Z</time></trkpt><trkpt lat="43.9314311" lon="12.3582194"><ele>349.0</ele><time>2026-04-30T16:28:16.1Z</time></trkpt><trkpt lat="43.9315013" lon="12.3581473"><ele>349.0</ele><time>2026-04-30T16:28:17.11Z</time></trkpt><trkpt lat="43.9315757" lon="12.3580974"><ele>349.0</ele><time>2026-04-30T16:28:18.058Z</time></trkpt><trkpt lat="43.9316448" lon="12.3580647"><ele>349.0</ele><time>2026-04-30T16:28:19.074Z</time></trkpt><trkpt lat="43.9317126" lon="12.3580384"><ele>349.0</ele><time>2026-04-30T16:28:20.098Z</time></trkpt><trkpt lat="43.931775" lon="12.3580756"><ele>349.0</ele><time>2026-04-30T16:28:22.103Z</time></trkpt><trkpt lat="43.9317277" lon="12.3581774"><ele>349.0</ele><time>2026-04-30T16:28:24.077Z</time></trkpt><trkpt lat="43.931657" lon="12.3582104"><ele>349.0</ele><time>2026-04-30T16:28:25.113Z</time></trkpt><trkpt lat="43.9315846" lon="12.3582363"><ele>349.0</ele><time>2026-04-30T16:28:26.105Z</time></trkpt><trkpt lat="43.9315264" lon="12.3582903"><ele>349.0</ele><time>2026-04-30T16:28:27.098Z</time></trkpt><trkpt lat="43.9314867" lon="12.3583836"><ele>349.0</ele><time>2026-04-30T16:28:28.097Z</time></trkpt><trkpt lat="43.9314648" lon="12.35851"><ele>349.0</ele><time>2026-04-30T16:28:29.096Z</time></trkpt><trkpt lat="43.9314547" lon="12.3586399"><ele>349.0</ele><time>2026-04-30T16:28:30.105Z</time></trkpt><trkpt lat="43.9314516" lon="12.3587825"><ele>346.79999999999995</ele><time>2026-04-30T16:28:31.098Z</time></trkpt><trkpt lat="43.9314593" lon="12.3589357"><ele>344.59999999999997</ele><time>2026-04-30T16:28:32.097Z</time></trkpt><trkpt lat="43.9314566" lon="12.3590878"><ele>342.4</ele><time>2026-04-30T16:28:33.05Z</time></trkpt><trkpt lat="43.9314558" lon="12.359243"><ele>340.2</ele><time>2026-04-30T16:28:34.106Z</time></trkpt><trkpt lat="43.9314495" lon="12.3594042"><ele>338.0</ele><time>2026-04-30T16:28:35.105Z</time></trkpt><trkpt lat="43.9314373" lon="12.3595523"><ele>338.0</ele><time>2026-04-30T16:28:36.108Z</time></trkpt><trkpt lat="43.9314493" lon="12.35967"><ele>338.0</ele><time>2026-04-30T16:28:37.088Z</time></trkpt><trkpt lat="43.9315023" lon="12.3597652"><ele>338.0</ele><time>2026-04-30T16:28:38.095Z</time></trkpt><trkpt lat="43.9315855" lon="12.3598223"><ele>338.0</ele><time>2026-04-30T16:28:39.096Z</time></trkpt><trkpt lat="43.9316664" lon="12.3598535"><ele>338.0</ele><time>2026-04-30T16:28:40.086Z</time></trkpt><trkpt lat="43.9317499" lon="12.3598865"><ele>338.0</ele><time>2026-04-30T16:28:41.091Z</time></trkpt><trkpt lat="43.9318416" lon="12.3599264"><ele>334.59999999999997</ele><time>2026-04-30T16:28:42.047Z</time></trkpt><trkpt lat="43.9319284" lon="12.3599634"><ele>331.2</ele><time>2026-04-30T16:28:43.056Z</time></trkpt><trkpt lat="43.9320336" lon="12.3599907"><ele>327.8</ele><time>2026-04-30T16:28:44.041Z</time></trkpt><trkpt lat="43.9321315" lon="12.3600212"><ele>324.4</ele><time>2026-04-30T16:28:45.074Z</time></trkpt><trkpt lat="43.9322334" lon="12.3600538"><ele>321.0</ele><time>2026-04-30T16:28:46.055Z</time></trkpt><trkpt lat="43.9323575" lon="12.3600889"><ele>321.0</ele><time>2026-04-30T16:28:47.055Z</time></trkpt><trkpt lat="43.9324763" lon="12.3601504"><ele>321.0</ele><time>2026-04-30T16:28:48.074Z</time></trkpt><trkpt lat="43.9325852" lon="12.3602101"><ele>321.0</ele><time>2026-04-30T16:28:49.076Z</time></trkpt><trkpt lat="43.9327021" lon="12.3602773"><ele>321.0</ele><time>2026-04-30T16:28:50.08Z</time></trkpt><trkpt lat="43.9328174" lon="12.3603529"><ele>318.75</ele><time>2026-04-30T16:28:51.078Z</time></trkpt><trkpt lat="43.9329243" lon="12.3604205"><ele>316.5</ele><time>2026-04-30T16:28:52.065Z</time></trkpt><trkpt lat="43.9330356" lon="12.3604805"><ele>314.25</ele><time>2026-04-30T16:28:53.053Z</time></trkpt><trkpt lat="43.9331519" lon="12.3605429"><ele>312.0</ele><time>2026-04-30T16:28:54.047Z</time></trkpt><trkpt lat="43.9332632" lon="12.3606095"><ele>312.0</ele><time>2026-04-30T16:28:55.053Z</time></trkpt><trkpt lat="43.9333756" lon="12.360677"><ele>312.0</ele><time>2026-04-30T16:28:56.056Z</time></trkpt><trkpt lat="43.9334861" lon="12.3607411"><ele>312.0</ele><time>2026-04-30T16:28:57.077Z</time></trkpt><trkpt lat="43.9335993" lon="12.3608154"><ele>312.0</ele><time>2026-04-30T16:28:58.053Z</time></trkpt><trkpt lat="43.9337132" lon="12.3608796"><ele>309.75</ele><time>2026-04-30T16:28:59.102Z</time></trkpt><trkpt lat="43.9338259" lon="12.36094"><ele>307.5</ele><time>2026-04-30T16:29:00.134Z</time></trkpt><trkpt lat="43.9339352" lon="12.3610027"><ele>305.25</ele><time>2026-04-30T16:29:01.142Z</time></trkpt><trkpt lat="43.9340528" lon="12.3610592"><ele>303.0</ele><time>2026-04-30T16:29:02.098Z</time></trkpt><trkpt lat="43.9341771" lon="12.3610951"><ele>301.75</ele><time>2026-04-30T16:29:03.085Z</time></trkpt><trkpt lat="43.9342994" lon="12.3611086"><ele>300.5</ele><time>2026-04-30T16:29:04.113Z</time></trkpt><trkpt lat="43.9344176" lon="12.3611194"><ele>299.25</ele><time>2026-04-30T16:29:05.106Z</time></trkpt><trkpt lat="43.934529" lon="12.3611315"><ele>298.0</ele><time>2026-04-30T16:29:06.107Z</time></trkpt><trkpt lat="43.9346346" lon="12.3611483"><ele>298.0</ele><time>2026-04-30T16:29:07.134Z</time></trkpt><trkpt lat="43.9347444" lon="12.3611749"><ele>298.0</ele><time>2026-04-30T16:29:08.082Z</time></trkpt><trkpt lat="43.9348456" lon="12.3612173"><ele>298.0</ele><time>2026-04-30T16:29:09.062Z</time></trkpt><trkpt lat="43.9349157" lon="12.3612848"><ele>298.0</ele><time>2026-04-30T16:29:10.103Z</time></trkpt><trkpt lat="43.9349725" lon="12.3613577"><ele>298.0</ele><time>2026-04-30T16:29:11.121Z</time></trkpt><trkpt lat="43.9350606" lon="12.3614617"><ele>297.6</ele><time>2026-04-30T16:29:13.121Z</time></trkpt><trkpt lat="43.9351787" lon="12.3614827"><ele>297.20000000000005</ele><time>2026-04-30T16:29:15.126Z</time></trkpt><trkpt lat="43.9353009" lon="12.3614463"><ele>296.8</ele><time>2026-04-30T16:29:17.113Z</time></trkpt><trkpt lat="43.9353685" lon="12.3614759"><ele>296.40000000000003</ele><time>2026-04-30T16:29:18.094Z</time></trkpt><trkpt lat="43.9354298" lon="12.3615362"><ele>296.0</ele><time>2026-04-30T16:29:19.1Z</time></trkpt><trkpt lat="43.9354796" lon="12.3616359"><ele>296.0</ele><time>2026-04-30T16:29:20.108Z</time></trkpt><trkpt lat="43.9355248" lon="12.3617517"><ele>296.0</ele><time>2026-04-30T16:29:21.094Z</time></trkpt><trkpt lat="43.9355592" lon="12.3618623"><ele>296.0</ele><time>2026-04-30T16:29:22.103Z</time></trkpt><trkpt lat="43.9356138" lon="12.3619496"><ele>296.0</ele><time>2026-04-30T16:29:23.111Z</time></trkpt><trkpt lat="43.9356928" lon="12.362022"><ele>296.0</ele><time>2026-04-30T16:29:24.076Z</time></trkpt><trkpt lat="43.9357964" lon="12.3620555"><ele>296.0</ele><time>2026-04-30T16:29:25.076Z</time></trkpt><trkpt lat="43.9358988" lon="12.3620983"><ele>296.0</ele><time>2026-04-30T16:29:26.107Z</time></trkpt><trkpt lat="43.935985" lon="12.3621655"><ele>296.0</ele><time>2026-04-30T16:29:27.095Z</time></trkpt><trkpt lat="43.9360417" lon="12.3622576"><ele>296.0</ele><time>2026-04-30T16:29:28.097Z</time></trkpt><trkpt lat="43.9360763" lon="12.3623731"><ele>296.0</ele><time>2026-04-30T16:29:29.107Z</time></trkpt><trkpt lat="43.9360999" lon="12.3624718"><ele>296.0</ele><time>2026-04-30T16:29:30.113Z</time></trkpt><trkpt lat="43.9361492" lon="12.3625816"><ele>296.0</ele><time>2026-04-30T16:29:32.091Z</time></trkpt><trkpt lat="43.936215" lon="12.3626372"><ele>296.0</ele><time>2026-04-30T16:29:34.1Z</time></trkpt><trkpt lat="43.936281" lon="12.3626668"><ele>296.0</ele><time>2026-04-30T16:29:36.092Z</time></trkpt><trkpt lat="43.9363514" lon="12.3626789"><ele>296.0</ele><time>2026-04-30T16:29:38.083Z</time></trkpt><trkpt lat="43.9364165" lon="12.3626748"><ele>296.0</ele><time>2026-04-30T16:29:40.118Z</time></trkpt><trkpt lat="43.9364951" lon="12.362664"><ele>296.0</ele><time>2026-04-30T16:29:42.115Z</time></trkpt><trkpt lat="43.9365843" lon="12.3626556"><ele>296.0</ele><time>2026-04-30T16:29:45.104Z</time></trkpt><trkpt lat="43.9366646" lon="12.3626621"><ele>296.0</ele><time>2026-04-30T16:29:48.086Z</time></trkpt><trkpt lat="43.9367468" lon="12.3626806"><ele>296.0</ele><time>2026-04-30T16:29:51.101Z</time></trkpt><trkpt lat="43.9368262" lon="12.3626871"><ele>296.0</ele><time>2026-04-30T16:29:54.085Z</time></trkpt><trkpt lat="43.9368986" lon="12.3626868"><ele>296.0</ele><time>2026-04-30T16:29:58.103Z</time></trkpt><trkpt lat="43.9369746" lon="12.3626938"><ele>296.33333333333337</ele><time>2026-04-30T16:30:03.055Z</time></trkpt><trkpt lat="43.9370466" lon="12.3627027"><ele>296.6666666666667</ele><time>2026-04-30T16:30:07.117Z</time></trkpt><trkpt lat="43.937122" lon="12.3627113"><ele>297.0</ele><time>2026-04-30T16:30:11.101Z</time></trkpt><trkpt lat="43.9371819" lon="12.3627422"><ele>297.3333333333333</ele><time>2026-04-30T16:30:14.135Z</time></trkpt><trkpt lat="43.9372556" lon="12.3627873"><ele>297.66666666666663</ele><time>2026-04-30T16:30:17.118Z</time></trkpt><trkpt lat="43.937329" lon="12.3628534"><ele>298.0</ele><time>2026-04-30T16:30:20.116Z</time></trkpt><trkpt lat="43.9374008" lon="12.362938"><ele>298.0</ele><time>2026-04-30T16:30:23.114Z</time></trkpt><trkpt lat="43.9374574" lon="12.363014"><ele>298.0</ele><time>2026-04-30T16:30:25.121Z</time></trkpt><trkpt lat="43.9375181" lon="12.3631113"><ele>298.0</ele><time>2026-04-30T16:30:27.097Z</time></trkpt><trkpt lat="43.9375915" lon="12.3632339"><ele>298.0</ele><time>2026-04-30T16:30:29.111Z</time></trkpt><trkpt lat="43.9376649" lon="12.3633583"><ele>298.0</ele><time>2026-04-30T16:30:31.107Z</time></trkpt><trkpt lat="43.9377373" lon="12.3634777"><ele>297.5</ele><time>2026-04-30T16:30:33.061Z</time></trkpt><trkpt lat="43.9378249" lon="12.3636007"><ele>297.0</ele><time>2026-04-30T16:30:35.058Z</time></trkpt><trkpt lat="43.9379037" lon="12.3637144"><ele>296.5</ele><time>2026-04-30T16:30:37.082Z</time></trkpt><trkpt lat="43.9379984" lon="12.3638186"><ele>296.0</ele><time>2026-04-30T16:30:39.101Z</time></trkpt><trkpt lat="43.9380961" lon="12.3639039"><ele>296.8</ele><time>2026-04-30T16:30:41.109Z</time></trkpt><trkpt lat="43.9381506" lon="12.363949"><ele>297.6</ele><time>2026-04-30T16:30:42.132Z</time></trkpt><trkpt lat="43.9382658" lon="12.3640026"><ele>298.4</ele><time>2026-04-30T16:30:44.105Z</time></trkpt><trkpt lat="43.9383871" lon="12.3640123"><ele>299.2</ele><time>2026-04-30T16:30:46.136Z</time></trkpt><trkpt lat="43.9384987" lon="12.3639398"><ele>300.0</ele><time>2026-04-30T16:30:48.097Z</time></trkpt><trkpt lat="43.93862" lon="12.3639036"><ele>298.3333333333333</ele><time>2026-04-30T16:30:50.102Z</time></trkpt><trkpt lat="43.9387433" lon="12.3639532"><ele>296.6666666666667</ele><time>2026-04-30T16:30:52.116Z</time></trkpt><trkpt lat="43.9388084" lon="12.3639921"><ele>295.0</ele><time>2026-04-30T16:30:53.106Z</time></trkpt><trkpt lat="43.9388834" lon="12.3640389"><ele>293.33333333333337</ele><time>2026-04-30T16:30:54.069Z</time></trkpt><trkpt lat="43.93896" lon="12.3640862"><ele>291.6666666666667</ele><time>2026-04-30T16:30:55.11Z</time></trkpt><trkpt lat="43.9390281" lon="12.3641472"><ele>290.0</ele><time>2026-04-30T16:30:56.094Z</time></trkpt><trkpt lat="43.9390904" lon="12.3642211"><ele>290.0</ele><time>2026-04-30T16:30:57.121Z</time></trkpt><trkpt lat="43.9391539" lon="12.3643014"><ele>290.0</ele><time>2026-04-30T16:30:58.106Z</time></trkpt><trkpt lat="43.9392148" lon="12.3643837"><ele>290.0</ele><time>2026-04-30T16:30:59.1Z</time></trkpt><trkpt lat="43.939283" lon="12.3644649"><ele>290.0</ele><time>2026-04-30T16:31:00.117Z</time></trkpt><trkpt lat="43.9393569" lon="12.3645361"><ele>290.0</ele><time>2026-04-30T16:31:01.102Z</time></trkpt><trkpt lat="43.9394407" lon="12.3646083"><ele>290.0</ele><time>2026-04-30T16:31:02.103Z</time></trkpt><trkpt lat="43.9395248" lon="12.3646805"><ele>287.2</ele><time>2026-04-30T16:31:03.097Z</time></trkpt><trkpt lat="43.939598" lon="12.3647764"><ele>284.4</ele><time>2026-04-30T16:31:04.123Z</time></trkpt><trkpt lat="43.9396549" lon="12.3648883"><ele>281.6</ele><time>2026-04-30T16:31:05.098Z</time></trkpt><trkpt lat="43.9396983" lon="12.3650211"><ele>278.8</ele><time>2026-04-30T16:31:06.094Z</time></trkpt><trkpt lat="43.9397406" lon="12.365146"><ele>276.0</ele><time>2026-04-30T16:31:07.086Z</time></trkpt><trkpt lat="43.9397644" lon="12.3652731"><ele>276.0</ele><time>2026-04-30T16:31:08.087Z</time></trkpt><trkpt lat="43.939794" lon="12.3653933"><ele>276.0</ele><time>2026-04-30T16:31:09.083Z</time></trkpt><trkpt lat="43.9398165" lon="12.3655159"><ele>276.0</ele><time>2026-04-30T16:31:10.111Z</time></trkpt><trkpt lat="43.9398225" lon="12.3656107"><ele>276.0</ele><time>2026-04-30T16:31:11.126Z</time></trkpt><trkpt lat="43.9398348" lon="12.3657076"><ele>276.0</ele><time>2026-04-30T16:31:12.127Z</time></trkpt><trkpt lat="43.9398588" lon="12.3658002"><ele>276.0</ele><time>2026-04-30T16:31:13.104Z</time></trkpt><trkpt lat="43.9399047" lon="12.3658826"><ele>275.5</ele><time>2026-04-30T16:31:14.057Z</time></trkpt><trkpt lat="43.9399569" lon="12.3659534"><ele>275.0</ele><time>2026-04-30T16:31:15.104Z</time></trkpt><trkpt lat="43.9400234" lon="12.366011"><ele>274.5</ele><time>2026-04-30T16:31:16.061Z</time></trkpt><trkpt lat="43.9400921" lon="12.3660709"><ele>274.0</ele><time>2026-04-30T16:31:17.083Z</time></trkpt><trkpt lat="43.9401724" lon="12.366121"><ele>273.5</ele><time>2026-04-30T16:31:18.094Z</time></trkpt><trkpt lat="43.9402666" lon="12.3661438"><ele>273.0</ele><time>2026-04-30T16:31:19.115Z</time></trkpt><trkpt lat="43.9403569" lon="12.3661497"><ele>272.0</ele><time>2026-04-30T16:31:20.098Z</time></trkpt><trkpt lat="43.9404461" lon="12.3661641"><ele>271.0</ele><time>2026-04-30T16:31:21.102Z</time></trkpt><trkpt lat="43.9405256" lon="12.3661807"><ele>270.0</ele><time>2026-04-30T16:31:22.107Z</time></trkpt><trkpt lat="43.9405942" lon="12.3662189"><ele>269.0</ele><time>2026-04-30T16:31:23.126Z</time></trkpt><trkpt lat="43.940662" lon="12.3662678"><ele>268.0</ele><time>2026-04-30T16:31:24.091Z</time></trkpt><trkpt lat="43.940729" lon="12.3662975"><ele>267.0</ele><time>2026-04-30T16:31:25.107Z</time></trkpt><trkpt lat="43.9407962" lon="12.3662967"><ele>267.0</ele><time>2026-04-30T16:31:26.125Z</time></trkpt><trkpt lat="43.940863" lon="12.3662847"><ele>267.0</ele><time>2026-04-30T16:31:27.065Z</time></trkpt><trkpt lat="43.940929" lon="12.3662624"><ele>267.0</ele><time>2026-04-30T16:31:28.123Z</time></trkpt><trkpt lat="43.9409976" lon="12.3662407"><ele>267.0</ele><time>2026-04-30T16:31:29.121Z</time></trkpt><trkpt lat="43.9410623" lon="12.3662218"><ele>267.0</ele><time>2026-04-30T16:31:30.092Z</time></trkpt><trkpt lat="43.9411734" lon="12.3662011"><ele>267.0</ele><time>2026-04-30T16:31:32.105Z</time></trkpt><trkpt lat="43.9412715" lon="12.3661571"><ele>263.8</ele><time>2026-04-30T16:31:34.107Z</time></trkpt><trkpt lat="43.9413703" lon="12.3661108"><ele>260.6</ele><time>2026-04-30T16:31:36.116Z</time></trkpt><trkpt lat="43.941463" lon="12.3660405"><ele>257.40000000000003</ele><time>2026-04-30T16:31:38.123Z</time></trkpt><trkpt lat="43.9415829" lon="12.3660068"><ele>254.20000000000002</ele><time>2026-04-30T16:31:40.087Z</time></trkpt><trkpt lat="43.9416961" lon="12.3660123"><ele>251.0</ele><time>2026-04-30T16:31:42.101Z</time></trkpt><trkpt lat="43.941777" lon="12.3659906"><ele>249.66666666666669</ele><time>2026-04-30T16:31:44.105Z</time></trkpt><trkpt lat="43.941835" lon="12.3659072"><ele>248.33333333333334</ele><time>2026-04-30T16:31:46.114Z</time></trkpt><trkpt lat="43.9419129" lon="12.3658271"><ele>247.0</ele><time>2026-04-30T16:31:48.105Z</time></trkpt><trkpt lat="43.9420401" lon="12.3658285"><ele>245.66666666666669</ele><time>2026-04-30T16:31:50.098Z</time></trkpt><trkpt lat="43.9421052" lon="12.3658201"><ele>244.33333333333334</ele><time>2026-04-30T16:31:51.111Z</time></trkpt><trkpt lat="43.942171" lon="12.3658034"><ele>243.0</ele><time>2026-04-30T16:31:52.11Z</time></trkpt><trkpt lat="43.9422408" lon="12.365796"><ele>243.0</ele><time>2026-04-30T16:31:53.106Z</time></trkpt><trkpt lat="43.9423044" lon="12.3657877"><ele>243.0</ele><time>2026-04-30T16:31:54.115Z</time></trkpt><trkpt lat="43.9423733" lon="12.3657655"><ele>243.0</ele><time>2026-04-30T16:31:55.109Z</time></trkpt><trkpt lat="43.9424424" lon="12.3657388"><ele>243.0</ele><time>2026-04-30T16:31:56.113Z</time></trkpt><trkpt lat="43.9425131" lon="12.3657098"><ele>243.0</ele><time>2026-04-30T16:31:57.12Z</time></trkpt><trkpt lat="43.9425817" lon="12.3656741"><ele>243.0</ele><time>2026-04-30T16:31:58.08Z</time></trkpt><trkpt lat="43.9426418" lon="12.3656381"><ele>243.0</ele><time>2026-04-30T16:31:59.105Z</time></trkpt><trkpt lat="43.9427013" lon="12.3656052"><ele>241.0</ele><time>2026-04-30T16:32:00.109Z</time></trkpt><trkpt lat="43.9427693" lon="12.3655986"><ele>239.0</ele><time>2026-04-30T16:32:01.11Z</time></trkpt><trkpt lat="43.9428437" lon="12.3656065"><ele>237.0</ele><time>2026-04-30T16:32:02.092Z</time></trkpt><trkpt lat="43.9429379" lon="12.3655931"><ele>235.0</ele><time>2026-04-30T16:32:04.099Z</time></trkpt><trkpt lat="43.9430366" lon="12.3654773"><ele>233.0</ele><time>2026-04-30T16:32:06.085Z</time></trkpt><trkpt lat="43.9431027" lon="12.3654311"><ele>231.0</ele><time>2026-04-30T16:32:07.109Z</time></trkpt><trkpt lat="43.9431795" lon="12.3654019"><ele>230.5</ele><time>2026-04-30T16:32:08.104Z</time></trkpt><trkpt lat="43.9432654" lon="12.3653944"><ele>230.0</ele><time>2026-04-30T16:32:09.093Z</time></trkpt><trkpt lat="43.9433457" lon="12.3653802"><ele>229.5</ele><time>2026-04-30T16:32:10.113Z</time></trkpt><trkpt lat="43.9434262" lon="12.3653498"><ele>229.0</ele><time>2026-04-30T16:32:11.105Z</time></trkpt><trkpt lat="43.9435103" lon="12.3652977"><ele>228.5</ele><time>2026-04-30T16:32:12.111Z</time></trkpt><trkpt lat="43.9436003" lon="12.365234"><ele>228.0</ele><time>2026-04-30T16:32:13.097Z</time></trkpt><trkpt lat="43.9436891" lon="12.3651768"><ele>225.66666666666666</ele><time>2026-04-30T16:32:14.112Z</time></trkpt><trkpt lat="43.9437774" lon="12.3651286"><ele>223.33333333333331</ele><time>2026-04-30T16:32:15.115Z</time></trkpt><trkpt lat="43.9438684" lon="12.3650976"><ele>221.0</ele><time>2026-04-30T16:32:16.111Z</time></trkpt><trkpt lat="43.9439693" lon="12.3650767"><ele>218.66666666666666</ele><time>2026-04-30T16:32:17.1Z</time></trkpt><trkpt lat="43.9440512" lon="12.3650458"><ele>216.33333333333331</ele><time>2026-04-30T16:32:18.11Z</time></trkpt><trkpt lat="43.9441156" lon="12.3650253"><ele>214.0</ele><time>2026-04-30T16:32:19.053Z</time></trkpt><trkpt lat="43.9441784" lon="12.3650003"><ele>210.79999999999998</ele><time>2026-04-30T16:32:20.105Z</time></trkpt><trkpt lat="43.9443009" lon="12.3650531"><ele>207.59999999999997</ele><time>2026-04-30T16:32:22.11Z</time></trkpt><trkpt lat="43.9443715" lon="12.3650984"><ele>204.4</ele><time>2026-04-30T16:32:23.07Z</time></trkpt><trkpt lat="43.9444476" lon="12.3651378"><ele>201.2</ele><time>2026-04-30T16:32:24.116Z</time></trkpt><trkpt lat="43.9445414" lon="12.3651705"><ele>198.0</ele><time>2026-04-30T16:32:25.112Z</time></trkpt><trkpt lat="43.9446361" lon="12.3651867"><ele>198.0</ele><time>2026-04-30T16:32:26.145Z</time></trkpt><trkpt lat="43.944736" lon="12.3651776"><ele>198.0</ele><time>2026-04-30T16:32:27.112Z</time></trkpt><trkpt lat="43.944822" lon="12.3651764"><ele>198.0</ele><time>2026-04-30T16:32:28.117Z</time></trkpt><trkpt lat="43.9449117" lon="12.3651621"><ele>198.0</ele><time>2026-04-30T16:32:29.115Z</time></trkpt><trkpt lat="43.945007" lon="12.3651377"><ele>198.0</ele><time>2026-04-30T16:32:30.109Z</time></trkpt><trkpt lat="43.945111" lon="12.3651147"><ele>196.0</ele><time>2026-04-30T16:32:31.104Z</time></trkpt><trkpt lat="43.9452176" lon="12.3650959"><ele>194.0</ele><time>2026-04-30T16:32:32.118Z</time></trkpt><trkpt lat="43.9453257" lon="12.3650854"><ele>192.0</ele><time>2026-04-30T16:32:33.109Z</time></trkpt><trkpt lat="43.9454365" lon="12.3650712"><ele>190.0</ele><time>2026-04-30T16:32:34.111Z</time></trkpt><trkpt lat="43.9455428" lon="12.3650565"><ele>188.0</ele><time>2026-04-30T16:32:35.136Z</time></trkpt><trkpt lat="43.9456543" lon="12.3650418"><ele>188.0</ele><time>2026-04-30T16:32:36.119Z</time></trkpt><trkpt lat="43.9457735" lon="12.3650215"><ele>188.0</ele><time>2026-04-30T16:32:37.09Z</time></trkpt><trkpt lat="43.9458914" lon="12.3650048"><ele>188.0</ele><time>2026-04-30T16:32:38.134Z</time></trkpt><trkpt lat="43.9460002" lon="12.364986"><ele>188.0</ele><time>2026-04-30T16:32:39.102Z</time></trkpt><trkpt lat="43.9461032" lon="12.3649729"><ele>186.5</ele><time>2026-04-30T16:32:40.122Z</time></trkpt><trkpt lat="43.9462021" lon="12.3649499"><ele>185.0</ele><time>2026-04-30T16:32:41.123Z</time></trkpt><trkpt lat="43.946288" lon="12.3649215"><ele>183.5</ele><time>2026-04-30T16:32:42.114Z</time></trkpt><trkpt lat="43.9463709" lon="12.3648954"><ele>182.0</ele><time>2026-04-30T16:32:43.133Z</time></trkpt><trkpt lat="43.9464581" lon="12.3648766"><ele>180.5</ele><time>2026-04-30T16:32:44.096Z</time></trkpt><trkpt lat="43.9465413" lon="12.3648645"><ele>179.0</ele><time>2026-04-30T16:32:45.118Z</time></trkpt><trkpt lat="43.9466163" lon="12.3648323"><ele>179.0</ele><time>2026-04-30T16:32:46.101Z</time></trkpt><trkpt lat="43.9466885" lon="12.3647823"><ele>179.0</ele><time>2026-04-30T16:32:47.068Z</time></trkpt><trkpt lat="43.946763" lon="12.3647177"><ele>179.0</ele><time>2026-04-30T16:32:48.1Z</time></trkpt><trkpt lat="43.946831" lon="12.3646613"><ele>179.0</ele><time>2026-04-30T16:32:49.12Z</time></trkpt><trkpt lat="43.9469223" lon="12.3645983"><ele>179.0</ele><time>2026-04-30T16:32:51.111Z</time></trkpt><trkpt lat="43.9469965" lon="12.3646017"><ele>179.0</ele><time>2026-04-30T16:32:54.088Z</time></trkpt><trkpt lat="43.9470571" lon="12.3646495"><ele>178.5</ele><time>2026-04-30T16:32:56.112Z</time></trkpt><trkpt lat="43.9471211" lon="12.3647027"><ele>178.0</ele><time>2026-04-30T16:32:58.111Z</time></trkpt><trkpt lat="43.9472038" lon="12.364765"><ele>177.5</ele><time>2026-04-30T16:33:00.087Z</time></trkpt><trkpt lat="43.9472901" lon="12.3648321"><ele>177.0</ele><time>2026-04-30T16:33:02.096Z</time></trkpt><trkpt lat="43.9473892" lon="12.3649152"><ele>176.5</ele><time>2026-04-30T16:33:04.111Z</time></trkpt><trkpt lat="43.9474479" lon="12.3649551"><ele>176.0</ele><time>2026-04-30T16:33:05.099Z</time></trkpt><trkpt lat="43.947506" lon="12.3649939"><ele>175.0</ele><time>2026-04-30T16:33:06.113Z</time></trkpt><trkpt lat="43.9475651" lon="12.3650342"><ele>174.0</ele><time>2026-04-30T16:33:07.092Z</time></trkpt><trkpt lat="43.9476738" lon="12.36511"><ele>173.0</ele><time>2026-04-30T16:33:09.093Z</time></trkpt><trkpt lat="43.9477298" lon="12.365152"><ele>172.0</ele><time>2026-04-30T16:33:10.109Z</time></trkpt><trkpt lat="43.9477882" lon="12.3651858"><ele>171.0</ele><time>2026-04-30T16:33:11.122Z</time></trkpt><trkpt lat="43.9478744" lon="12.3652312"><ele>170.0</ele><time>2026-04-30T16:33:13.129Z</time></trkpt><trkpt lat="43.9478513" lon="12.3653216"><ele>170.0</ele><time>2026-04-30T16:33:22.1Z</time></trkpt><trkpt lat="43.9478908" lon="12.3654115"><ele>170.0</ele><time>2026-04-30T16:33:25.103Z</time></trkpt><trkpt lat="43.9479516" lon="12.3655167"><ele>170.0</ele><time>2026-04-30T16:33:27.112Z</time></trkpt><trkpt lat="43.9480347" lon="12.3655821"><ele>170.0</ele><time>2026-04-30T16:33:29.104Z</time></trkpt><trkpt lat="43.9481073" lon="12.3656751"><ele>170.0</ele><time>2026-04-30T16:33:31.139Z</time></trkpt><trkpt lat="43.9481661" lon="12.3658102"><ele>170.0</ele><time>2026-04-30T16:33:33.108Z</time></trkpt><trkpt lat="43.9482396" lon="12.3659504"><ele>170.0</ele><time>2026-04-30T16:33:35.114Z</time></trkpt><trkpt lat="43.9482787" lon="12.3660239"><ele>170.0</ele><time>2026-04-30T16:33:36.117Z</time></trkpt><trkpt lat="43.9483098" lon="12.3661072"><ele>170.0</ele><time>2026-04-30T16:33:37.097Z</time></trkpt><trkpt lat="43.9483507" lon="12.3661973"><ele>170.0</ele><time>2026-04-30T16:33:38.108Z</time></trkpt><trkpt lat="43.9483879" lon="12.3662755"><ele>170.0</ele><time>2026-04-30T16:33:39.104Z</time></trkpt><trkpt lat="43.9484206" lon="12.3663601"><ele>169.42857142857144</ele><time>2026-04-30T16:33:40.09Z</time></trkpt><trkpt lat="43.9484596" lon="12.3664483"><ele>168.85714285714283</ele><time>2026-04-30T16:33:41.117Z</time></trkpt><trkpt lat="43.9484924" lon="12.366536"><ele>168.28571428571428</ele><time>2026-04-30T16:33:42.113Z</time></trkpt><trkpt lat="43.948532" lon="12.3666246"><ele>167.71428571428572</ele><time>2026-04-30T16:33:43.1Z</time></trkpt><trkpt lat="43.9485679" lon="12.3667059"><ele>167.14285714285717</ele><time>2026-04-30T16:33:44.111Z</time></trkpt><trkpt lat="43.9486095" lon="12.3667848"><ele>166.57142857142856</ele><time>2026-04-30T16:33:45.087Z</time></trkpt><trkpt lat="43.9486435" lon="12.3668658"><ele>166.0</ele><time>2026-04-30T16:33:46.106Z</time></trkpt><trkpt lat="43.9486777" lon="12.3669419"><ele>166.0</ele><time>2026-04-30T16:33:47.09Z</time></trkpt><trkpt lat="43.9487174" lon="12.3670199"><ele>166.0</ele><time>2026-04-30T16:33:48.106Z</time></trkpt><trkpt lat="43.9487541" lon="12.3670966"><ele>166.0</ele><time>2026-04-30T16:33:49.052Z</time></trkpt><trkpt lat="43.9487877" lon="12.3671738"><ele>166.0</ele><time>2026-04-30T16:33:50.106Z</time></trkpt><trkpt lat="43.9488212" lon="12.367253"><ele>166.0</ele><time>2026-04-30T16:33:51.103Z</time></trkpt><trkpt lat="43.948853" lon="12.3673308"><ele>166.0</ele><time>2026-04-30T16:33:52.071Z</time></trkpt><trkpt lat="43.9488902" lon="12.3674056"><ele>166.0</ele><time>2026-04-30T16:33:53.1Z</time></trkpt><trkpt lat="43.9489351" lon="12.3674813"><ele>166.16666666666669</ele><time>2026-04-30T16:33:54.101Z</time></trkpt><trkpt lat="43.9489712" lon="12.3675564"><ele>166.33333333333334</ele><time>2026-04-30T16:33:55.108Z</time></trkpt><trkpt lat="43.9490088" lon="12.3676354"><ele>166.5</ele><time>2026-04-30T16:33:56.051Z</time></trkpt><trkpt lat="43.9490692" lon="12.3677802"><ele>166.66666666666666</ele><time>2026-04-30T16:33:58.081Z</time></trkpt><trkpt lat="43.9491326" lon="12.3679232"><ele>166.83333333333331</ele><time>2026-04-30T16:34:00.109Z</time></trkpt><trkpt lat="43.9491628" lon="12.3680003"><ele>167.0</ele><time>2026-04-30T16:34:01.102Z</time></trkpt><trkpt lat="43.9491959" lon="12.3680771"><ele>168.0</ele><time>2026-04-30T16:34:02.103Z</time></trkpt><trkpt lat="43.9492597" lon="12.368217"><ele>169.0</ele><time>2026-04-30T16:34:04.12Z</time></trkpt><trkpt lat="43.9492954" lon="12.3682947"><ele>170.0</ele><time>2026-04-30T16:34:05.123Z</time></trkpt><trkpt lat="43.9493275" lon="12.3683701"><ele>171.0</ele><time>2026-04-30T16:34:06.097Z</time></trkpt><trkpt lat="43.9493979" lon="12.3685021"><ele>172.0</ele><time>2026-04-30T16:34:08.113Z</time></trkpt><trkpt lat="43.9494789" lon="12.3686273"><ele>172.0</ele><time>2026-04-30T16:34:10.053Z</time></trkpt><trkpt lat="43.9495801" lon="12.3687392"><ele>172.0</ele><time>2026-04-30T16:34:12.113Z</time></trkpt><trkpt lat="43.9496882" lon="12.3687874"><ele>172.0</ele><time>2026-04-30T16:34:14.112Z</time></trkpt><trkpt lat="43.9498057" lon="12.3687787"><ele>172.0</ele><time>2026-04-30T16:34:16.125Z</time></trkpt><trkpt lat="43.9498703" lon="12.3687625"><ele>172.0</ele><time>2026-04-30T16:34:17.1Z</time></trkpt><trkpt lat="43.9499978" lon="12.3687432"><ele>172.14285714285717</ele><time>2026-04-30T16:34:19.101Z</time></trkpt><trkpt lat="43.950074" lon="12.3687223"><ele>172.28571428571428</ele><time>2026-04-30T16:34:20.095Z</time></trkpt><trkpt lat="43.9501434" lon="12.368692"><ele>172.42857142857144</ele><time>2026-04-30T16:34:21.096Z</time></trkpt><trkpt lat="43.9502135" lon="12.3686709"><ele>172.57142857142858</ele><time>2026-04-30T16:34:22.077Z</time></trkpt><trkpt lat="43.9502844" lon="12.36866"><ele>172.71428571428572</ele><time>2026-04-30T16:34:23.104Z</time></trkpt><trkpt lat="43.9503512" lon="12.3686393"><ele>172.85714285714286</ele><time>2026-04-30T16:34:24.112Z</time></trkpt><trkpt lat="43.9504181" lon="12.3686132"><ele>173.0</ele><time>2026-04-30T16:34:25.1Z</time></trkpt><trkpt lat="43.9504817" lon="12.3685888"><ele>173.0</ele><time>2026-04-30T16:34:26.123Z</time></trkpt><trkpt lat="43.9505455" lon="12.3685645"><ele>173.0</ele><time>2026-04-30T16:34:27.103Z</time></trkpt><trkpt lat="43.9506103" lon="12.368546"><ele>173.0</ele><time>2026-04-30T16:34:28.088Z</time></trkpt><trkpt lat="43.9506749" lon="12.3685257"><ele>173.0</ele><time>2026-04-30T16:34:29.106Z</time></trkpt><trkpt lat="43.9507381" lon="12.3685097"><ele>173.0</ele><time>2026-04-30T16:34:30.105Z</time></trkpt><trkpt lat="43.9508647" lon="12.3684834"><ele>173.0</ele><time>2026-04-30T16:34:32.133Z</time></trkpt><trkpt lat="43.950994" lon="12.368478"><ele>172.16666666666666</ele><time>2026-04-30T16:34:34.118Z</time></trkpt><trkpt lat="43.9510625" lon="12.368477"><ele>171.33333333333331</ele><time>2026-04-30T16:34:35.104Z</time></trkpt><trkpt lat="43.9511317" lon="12.3684793"><ele>170.5</ele><time>2026-04-30T16:34:36.12Z</time></trkpt><trkpt lat="43.9512567" lon="12.3684919"><ele>169.66666666666666</ele><time>2026-04-30T16:34:38.109Z</time></trkpt><trkpt lat="43.9513214" lon="12.3684983"><ele>168.83333333333334</ele><time>2026-04-30T16:34:39.105Z</time></trkpt><trkpt lat="43.9513888" lon="12.3685069"><ele>168.0</ele><time>2026-04-30T16:34:40.113Z</time></trkpt><trkpt lat="43.9514522" lon="12.3685233"><ele>168.0</ele><time>2026-04-30T16:34:41.098Z</time></trkpt><trkpt lat="43.9515186" lon="12.3685417"><ele>168.0</ele><time>2026-04-30T16:34:42.12Z</time></trkpt><trkpt lat="43.95164" lon="12.3685788"><ele>168.0</ele><time>2026-04-30T16:34:44.108Z</time></trkpt><trkpt lat="43.9517556" lon="12.3686268"><ele>168.0</ele><time>2026-04-30T16:34:46.076Z</time></trkpt><trkpt lat="43.9518635" lon="12.3686761"><ele>168.0</ele><time>2026-04-30T16:34:48.131Z</time></trkpt><trkpt lat="43.9519223" lon="12.3687126"><ele>167.8</ele><time>2026-04-30T16:34:49.101Z</time></trkpt><trkpt lat="43.9520064" lon="12.3688181"><ele>167.60000000000002</ele><time>2026-04-30T16:34:51.11Z</time></trkpt><trkpt lat="43.9520845" lon="12.3689593"><ele>167.39999999999998</ele><time>2026-04-30T16:34:53.105Z</time></trkpt><trkpt lat="43.9521521" lon="12.3691085"><ele>167.2</ele><time>2026-04-30T16:34:55.111Z</time></trkpt><trkpt lat="43.9521902" lon="12.3691836"><ele>167.0</ele><time>2026-04-30T16:34:56.107Z</time></trkpt><trkpt lat="43.9522219" lon="12.369263"><ele>167.0</ele><time>2026-04-30T16:34:57.115Z</time></trkpt><trkpt lat="43.9522655" lon="12.3693432"><ele>167.0</ele><time>2026-04-30T16:34:58.11Z</time></trkpt><trkpt lat="43.9523071" lon="12.3694144"><ele>167.0</ele><time>2026-04-30T16:34:59.113Z</time></trkpt><trkpt lat="43.9523348" lon="12.3694944"><ele>167.0</ele><time>2026-04-30T16:35:00.105Z</time></trkpt><trkpt lat="43.9523716" lon="12.3695709"><ele>167.0</ele><time>2026-04-30T16:35:01.102Z</time></trkpt><trkpt lat="43.9524013" lon="12.3696567"><ele>167.0</ele><time>2026-04-30T16:35:02.106Z</time></trkpt><trkpt lat="43.952434" lon="12.3697459"><ele>167.0</ele><time>2026-04-30T16:35:03.114Z</time></trkpt><trkpt lat="43.9524553" lon="12.3698298"><ele>167.14285714285714</ele><time>2026-04-30T16:35:04.1Z</time></trkpt><trkpt lat="43.9524839" lon="12.3699169"><ele>167.28571428571428</ele><time>2026-04-30T16:35:05.1Z</time></trkpt><trkpt lat="43.9525068" lon="12.370004"><ele>167.42857142857144</ele><time>2026-04-30T16:35:06.11Z</time></trkpt><trkpt lat="43.9525227" lon="12.370092"><ele>167.57142857142856</ele><time>2026-04-30T16:35:07.122Z</time></trkpt><trkpt lat="43.9525257" lon="12.3701863"><ele>167.71428571428572</ele><time>2026-04-30T16:35:08.065Z</time></trkpt><trkpt lat="43.952545" lon="12.3702754"><ele>167.85714285714286</ele><time>2026-04-30T16:35:09.109Z</time></trkpt><trkpt lat="43.9525676" lon="12.3703603"><ele>168.0</ele><time>2026-04-30T16:35:10.106Z</time></trkpt><trkpt lat="43.9525924" lon="12.3704463"><ele>167.42857142857142</ele><time>2026-04-30T16:35:11.105Z</time></trkpt><trkpt lat="43.9526176" lon="12.3705315"><ele>166.85714285714286</ele><time>2026-04-30T16:35:12.116Z</time></trkpt><trkpt lat="43.9526467" lon="12.3706106"><ele>166.28571428571428</ele><time>2026-04-30T16:35:13.054Z</time></trkpt><trkpt lat="43.9526748" lon="12.3706898"><ele>165.71428571428572</ele><time>2026-04-30T16:35:14.083Z</time></trkpt><trkpt lat="43.9526999" lon="12.3707826"><ele>165.14285714285714</ele><time>2026-04-30T16:35:15.111Z</time></trkpt><trkpt lat="43.952722" lon="12.3708661"><ele>164.57142857142856</ele><time>2026-04-30T16:35:16.094Z</time></trkpt><trkpt lat="43.952753" lon="12.3709452"><ele>164.0</ele><time>2026-04-30T16:35:17.106Z</time></trkpt><trkpt lat="43.9527829" lon="12.3710303"><ele>164.0</ele><time>2026-04-30T16:35:18.116Z</time></trkpt><trkpt lat="43.9528066" lon="12.3711117"><ele>164.0</ele><time>2026-04-30T16:35:19.072Z</time></trkpt><trkpt lat="43.9528309" lon="12.3711973"><ele>164.0</ele><time>2026-04-30T16:35:20.117Z</time></trkpt><trkpt lat="43.9528769" lon="12.3713518"><ele>164.0</ele><time>2026-04-30T16:35:22.109Z</time></trkpt><trkpt lat="43.9528966" lon="12.3714404"><ele>164.0</ele><time>2026-04-30T16:35:23.117Z</time></trkpt><trkpt lat="43.9529216" lon="12.3715302"><ele>164.0</ele><time>2026-04-30T16:35:24.113Z</time></trkpt><trkpt lat="43.952946" lon="12.3716146"><ele>164.0</ele><time>2026-04-30T16:35:25.125Z</time></trkpt><trkpt lat="43.9530024" lon="12.371768"><ele>164.0</ele><time>2026-04-30T16:35:27.095Z</time></trkpt><trkpt lat="43.9530321" lon="12.371853"><ele>164.0</ele><time>2026-04-30T16:35:28.113Z</time></trkpt><trkpt lat="43.9530889" lon="12.3720187"><ele>164.0</ele><time>2026-04-30T16:35:30.123Z</time></trkpt><trkpt lat="43.9531107" lon="12.3721046"><ele>164.0</ele><time>2026-04-30T16:35:31.09Z</time></trkpt><trkpt lat="43.9531499" lon="12.372262"><ele>164.2</ele><time>2026-04-30T16:35:33.124Z</time></trkpt><trkpt lat="43.9531959" lon="12.3724198"><ele>164.39999999999998</ele><time>2026-04-30T16:35:35.114Z</time></trkpt><trkpt lat="43.9532453" lon="12.3725814"><ele>164.6</ele><time>2026-04-30T16:35:37.13Z</time></trkpt><trkpt lat="43.9532703" lon="12.3726667"><ele>164.8</ele><time>2026-04-30T16:35:38.135Z</time></trkpt><trkpt lat="43.9532704" lon="12.3728391"><ele>165.0</ele><time>2026-04-30T16:35:40.093Z</time></trkpt><trkpt lat="43.9532715" lon="12.3729934"><ele>165.25</ele><time>2026-04-30T16:35:42.128Z</time></trkpt><trkpt lat="43.9533333" lon="12.3731307"><ele>165.5</ele><time>2026-04-30T16:35:44.111Z</time></trkpt><trkpt lat="43.9534118" lon="12.3732552"><ele>165.75</ele><time>2026-04-30T16:35:46.127Z</time></trkpt><trkpt lat="43.9534864" lon="12.3733792"><ele>166.0</ele><time>2026-04-30T16:35:48.119Z</time></trkpt><trkpt lat="43.9535392" lon="12.3735359"><ele>165.33333333333334</ele><time>2026-04-30T16:35:50.111Z</time></trkpt><trkpt lat="43.9535606" lon="12.3736223"><ele>164.66666666666669</ele><time>2026-04-30T16:35:51.093Z</time></trkpt><trkpt lat="43.9535917" lon="12.3737155"><ele>164.0</ele><time>2026-04-30T16:35:52.12Z</time></trkpt><trkpt lat="43.9536118" lon="12.3737999"><ele>163.33333333333334</ele><time>2026-04-30T16:35:53.13Z</time></trkpt><trkpt lat="43.9536531" lon="12.3739592"><ele>162.66666666666666</ele><time>2026-04-30T16:35:55.117Z</time></trkpt><trkpt lat="43.9536751" lon="12.3740435"><ele>162.0</ele><time>2026-04-30T16:35:56.13Z</time></trkpt><trkpt lat="43.9537144" lon="12.3742049"><ele>162.0</ele><time>2026-04-30T16:35:58.115Z</time></trkpt><trkpt lat="43.9537453" lon="12.3742897"><ele>162.0</ele><time>2026-04-30T16:35:59.107Z</time></trkpt><trkpt lat="43.9537679" lon="12.3743726"><ele>162.0</ele><time>2026-04-30T16:36:00.119Z</time></trkpt><trkpt lat="43.9538143" lon="12.3745291"><ele>162.0</ele><time>2026-04-30T16:36:02.119Z</time></trkpt><trkpt lat="43.9538635" lon="12.3746915"><ele>162.0</ele><time>2026-04-30T16:36:04.113Z</time></trkpt><trkpt lat="43.9538931" lon="12.3747795"><ele>162.16666666666666</ele><time>2026-04-30T16:36:05.114Z</time></trkpt><trkpt lat="43.9539417" lon="12.3749402"><ele>162.33333333333334</ele><time>2026-04-30T16:36:07.103Z</time></trkpt><trkpt lat="43.953992" lon="12.3750886"><ele>162.5</ele><time>2026-04-30T16:36:09.121Z</time></trkpt><trkpt lat="43.9540172" lon="12.375176"><ele>162.66666666666669</ele><time>2026-04-30T16:36:10.108Z</time></trkpt><trkpt lat="43.9540394" lon="12.3752607"><ele>162.83333333333334</ele><time>2026-04-30T16:36:11.11Z</time></trkpt><trkpt lat="43.954063" lon="12.3753424"><ele>163.0</ele><time>2026-04-30T16:36:12.12Z</time></trkpt><trkpt lat="43.9540873" lon="12.3754236"><ele>163.0</ele><time>2026-04-30T16:36:13.112Z</time></trkpt><trkpt lat="43.9541099" lon="12.3755125"><ele>163.0</ele><time>2026-04-30T16:36:14.083Z</time></trkpt><trkpt lat="43.9541358" lon="12.3755966"><ele>163.0</ele><time>2026-04-30T16:36:15.106Z</time></trkpt><trkpt lat="43.9541669" lon="12.3756768"><ele>163.0</ele><time>2026-04-30T16:36:16.109Z</time></trkpt><trkpt lat="43.9541938" lon="12.3757621"><ele>163.0</ele><time>2026-04-30T16:36:17.104Z</time></trkpt><trkpt lat="43.9542145" lon="12.3758476"><ele>163.0</ele><time>2026-04-30T16:36:18.107Z</time></trkpt><trkpt lat="43.9542422" lon="12.3759374"><ele>163.0</ele><time>2026-04-30T16:36:19.115Z</time></trkpt><trkpt lat="43.9542644" lon="12.3760264"><ele>162.14285714285714</ele><time>2026-04-30T16:36:20.077Z</time></trkpt><trkpt lat="43.9542886" lon="12.3761101"><ele>161.28571428571428</ele><time>2026-04-30T16:36:21.107Z</time></trkpt><trkpt lat="43.954316" lon="12.3762094"><ele>160.42857142857142</ele><time>2026-04-30T16:36:22.118Z</time></trkpt><trkpt lat="43.9543462" lon="12.3762954"><ele>159.57142857142856</ele><time>2026-04-30T16:36:23.113Z</time></trkpt><trkpt lat="43.9543734" lon="12.3763824"><ele>158.71428571428572</ele><time>2026-04-30T16:36:24.116Z</time></trkpt><trkpt lat="43.9544059" lon="12.3764622"><ele>157.85714285714283</ele><time>2026-04-30T16:36:25.099Z</time></trkpt><trkpt lat="43.9544334" lon="12.3765454"><ele>157.0</ele><time>2026-04-30T16:36:26.124Z</time></trkpt><trkpt lat="43.9544651" lon="12.3766303"><ele>156.99999999999997</ele><time>2026-04-30T16:36:27.129Z</time></trkpt><trkpt lat="43.9545026" lon="12.3767139"><ele>157.0</ele><time>2026-04-30T16:36:28.109Z</time></trkpt><trkpt lat="43.9545255" lon="12.3768079"><ele>157.0</ele><time>2026-04-30T16:36:29.108Z</time></trkpt><trkpt lat="43.9545579" lon="12.3768911"><ele>157.0</ele><time>2026-04-30T16:36:30.109Z</time></trkpt><trkpt lat="43.9545916" lon="12.3769723"><ele>157.0</ele><time>2026-04-30T16:36:31.124Z</time></trkpt><trkpt lat="43.9546228" lon="12.3770599"><ele>156.99999999999997</ele><time>2026-04-30T16:36:32.115Z</time></trkpt><trkpt lat="43.9546533" lon="12.3771478"><ele>157.0</ele><time>2026-04-30T16:36:33.124Z</time></trkpt><trkpt lat="43.9546869" lon="12.377242"><ele>157.57142857142856</ele><time>2026-04-30T16:36:34.127Z</time></trkpt><trkpt lat="43.9547209" lon="12.3773376"><ele>158.14285714285714</ele><time>2026-04-30T16:36:35.107Z</time></trkpt><trkpt lat="43.9547531" lon="12.3774284"><ele>158.71428571428572</ele><time>2026-04-30T16:36:36.112Z</time></trkpt><trkpt lat="43.9547927" lon="12.3775198"><ele>159.28571428571428</ele><time>2026-04-30T16:36:37.077Z</time></trkpt><trkpt lat="43.9548249" lon="12.377602"><ele>159.85714285714286</ele><time>2026-04-30T16:36:38.123Z</time></trkpt><trkpt lat="43.954866" lon="12.3776937"><ele>160.42857142857142</ele><time>2026-04-30T16:36:39.119Z</time></trkpt><trkpt lat="43.9549009" lon="12.377782"><ele>161.0</ele><time>2026-04-30T16:36:40.083Z</time></trkpt><trkpt lat="43.9549376" lon="12.3778695"><ele>161.0</ele><time>2026-04-30T16:36:41.105Z</time></trkpt><trkpt lat="43.9549744" lon="12.3779635"><ele>161.0</ele><time>2026-04-30T16:36:42.106Z</time></trkpt><trkpt lat="43.9550112" lon="12.378056"><ele>161.0</ele><time>2026-04-30T16:36:43.122Z</time></trkpt><trkpt lat="43.9550483" lon="12.3781462"><ele>161.0</ele><time>2026-04-30T16:36:44.119Z</time></trkpt><trkpt lat="43.9550916" lon="12.3782391"><ele>161.0</ele><time>2026-04-30T16:36:45.112Z</time></trkpt><trkpt lat="43.9551287" lon="12.3783269"><ele>161.0</ele><time>2026-04-30T16:36:46.108Z</time></trkpt><trkpt lat="43.9551684" lon="12.3784165"><ele>159.66666666666666</ele><time>2026-04-30T16:36:47.105Z</time></trkpt><trkpt lat="43.9552042" lon="12.3785106"><ele>158.33333333333331</ele><time>2026-04-30T16:36:48.107Z</time></trkpt><trkpt lat="43.9552489" lon="12.37861"><ele>157.0</ele><time>2026-04-30T16:36:49.112Z</time></trkpt><trkpt lat="43.9552881" lon="12.3787055"><ele>155.66666666666666</ele><time>2026-04-30T16:36:50.113Z</time></trkpt><trkpt lat="43.9553295" lon="12.3787995"><ele>154.33333333333334</ele><time>2026-04-30T16:36:51.068Z</time></trkpt><trkpt lat="43.9553681" lon="12.3788963"><ele>153.0</ele><time>2026-04-30T16:36:52.106Z</time></trkpt><trkpt lat="43.9554023" lon="12.3789921"><ele>153.0</ele><time>2026-04-30T16:36:53.12Z</time></trkpt><trkpt lat="43.9554414" lon="12.3790862"><ele>153.0</ele><time>2026-04-30T16:36:54.117Z</time></trkpt><trkpt lat="43.9554796" lon="12.3791816"><ele>153.0</ele><time>2026-04-30T16:36:55.114Z</time></trkpt><trkpt lat="43.9555207" lon="12.3792724"><ele>153.0</ele><time>2026-04-30T16:36:56.109Z</time></trkpt><trkpt lat="43.9555577" lon="12.379365"><ele>153.0</ele><time>2026-04-30T16:36:57.114Z</time></trkpt><trkpt lat="43.9555994" lon="12.3794535"><ele>153.0</ele><time>2026-04-30T16:36:58.128Z</time></trkpt><trkpt lat="43.9556448" lon="12.3795478"><ele>153.0</ele><time>2026-04-30T16:36:59.122Z</time></trkpt><trkpt lat="43.9556831" lon="12.3796392"><ele>153.0</ele><time>2026-04-30T16:37:00.116Z</time></trkpt><trkpt lat="43.9557211" lon="12.3797405"><ele>153.0</ele><time>2026-04-30T16:37:01.113Z</time></trkpt><trkpt lat="43.955756" lon="12.3798349"><ele>153.0</ele><time>2026-04-30T16:37:02.111Z</time></trkpt><trkpt lat="43.9557913" lon="12.3799301"><ele>153.0</ele><time>2026-04-30T16:37:03.123Z</time></trkpt><trkpt lat="43.9558281" lon="12.3800323"><ele>153.0</ele><time>2026-04-30T16:37:04.111Z</time></trkpt><trkpt lat="43.9558548" lon="12.3801318"><ele>152.14285714285714</ele><time>2026-04-30T16:37:05.105Z</time></trkpt><trkpt lat="43.9558748" lon="12.3802307"><ele>151.28571428571428</ele><time>2026-04-30T16:37:06.108Z</time></trkpt><trkpt lat="43.955894" lon="12.3803254"><ele>150.42857142857144</ele><time>2026-04-30T16:37:07.096Z</time></trkpt><trkpt lat="43.9559149" lon="12.3804286"><ele>149.57142857142856</ele><time>2026-04-30T16:37:08.109Z</time></trkpt><trkpt lat="43.9559403" lon="12.3805265"><ele>148.71428571428572</ele><time>2026-04-30T16:37:09.108Z</time></trkpt><trkpt lat="43.9559673" lon="12.3806192"><ele>147.85714285714286</ele><time>2026-04-30T16:37:10.109Z</time></trkpt><trkpt lat="43.9559903" lon="12.3807136"><ele>147.0</ele><time>2026-04-30T16:37:11.087Z</time></trkpt><trkpt lat="43.9560133" lon="12.3808058"><ele>147.0</ele><time>2026-04-30T16:37:12.08Z</time></trkpt><trkpt lat="43.9560402" lon="12.3808973"><ele>147.0</ele><time>2026-04-30T16:37:13.118Z</time></trkpt><trkpt lat="43.9560657" lon="12.3809835"><ele>147.0</ele><time>2026-04-30T16:37:14.117Z</time></trkpt><trkpt lat="43.9560928" lon="12.381072"><ele>147.0</ele><time>2026-04-30T16:37:15.076Z</time></trkpt><trkpt lat="43.9561467" lon="12.3812274"><ele>147.0</ele><time>2026-04-30T16:37:17.115Z</time></trkpt><trkpt lat="43.9561713" lon="12.3813087"><ele>147.0</ele><time>2026-04-30T16:37:18.117Z</time></trkpt><trkpt lat="43.956199" lon="12.3813901"><ele>147.83333333333334</ele><time>2026-04-30T16:37:19.115Z</time></trkpt><trkpt lat="43.9562491" lon="12.3815496"><ele>148.66666666666666</ele><time>2026-04-30T16:37:21.102Z</time></trkpt><trkpt lat="43.9562808" lon="12.3816319"><ele>149.5</ele><time>2026-04-30T16:37:22.105Z</time></trkpt><trkpt lat="43.9563277" lon="12.3817939"><ele>150.33333333333331</ele><time>2026-04-30T16:37:24.085Z</time></trkpt><trkpt lat="43.9563535" lon="12.3818775"><ele>151.16666666666666</ele><time>2026-04-30T16:37:25.109Z</time></trkpt><trkpt lat="43.9563782" lon="12.3819603"><ele>152.0</ele><time>2026-04-30T16:37:26.111Z</time></trkpt><trkpt lat="43.9564335" lon="12.3821195"><ele>153.0</ele><time>2026-04-30T16:37:28.115Z</time></trkpt><trkpt lat="43.9564786" lon="12.3822728"><ele>154.0</ele><time>2026-04-30T16:37:30.049Z</time></trkpt><trkpt lat="43.9565377" lon="12.3824188"><ele>155.0</ele><time>2026-04-30T16:37:32.115Z</time></trkpt><trkpt lat="43.9565896" lon="12.3825675"><ele>156.0</ele><time>2026-04-30T16:37:34.116Z</time></trkpt><trkpt lat="43.9566172" lon="12.3826503"><ele>157.0</ele><time>2026-04-30T16:37:35.105Z</time></trkpt><trkpt lat="43.9566629" lon="12.3828087"><ele>156.99999999999997</ele><time>2026-04-30T16:37:37.111Z</time></trkpt><trkpt lat="43.9566917" lon="12.3828912"><ele>157.0</ele><time>2026-04-30T16:37:38.128Z</time></trkpt><trkpt lat="43.9567206" lon="12.3829721"><ele>157.0</ele><time>2026-04-30T16:37:39.108Z</time></trkpt><trkpt lat="43.9567501" lon="12.3830497"><ele>157.0</ele><time>2026-04-30T16:37:40.09Z</time></trkpt><trkpt lat="43.9568002" lon="12.3832064"><ele>157.0</ele><time>2026-04-30T16:37:42.124Z</time></trkpt><trkpt lat="43.9568304" lon="12.3832863"><ele>156.99999999999997</ele><time>2026-04-30T16:37:43.115Z</time></trkpt><trkpt lat="43.9568525" lon="12.3833694"><ele>157.0</ele><time>2026-04-30T16:37:44.11Z</time></trkpt><trkpt lat="43.9569078" lon="12.3835211"><ele>155.83333333333334</ele><time>2026-04-30T16:37:46.109Z</time></trkpt><trkpt lat="43.9569346" lon="12.383604"><ele>154.66666666666669</ele><time>2026-04-30T16:37:47.125Z</time></trkpt><trkpt lat="43.9569875" lon="12.3837555"><ele>153.5</ele><time>2026-04-30T16:37:49.1Z</time></trkpt><trkpt lat="43.9570126" lon="12.3838397"><ele>152.33333333333334</ele><time>2026-04-30T16:37:50.102Z</time></trkpt><trkpt lat="43.9570395" lon="12.3839287"><ele>151.16666666666666</ele><time>2026-04-30T16:37:51.113Z</time></trkpt><trkpt lat="43.9570606" lon="12.3840168"><ele>150.0</ele><time>2026-04-30T16:37:52.104Z</time></trkpt><trkpt lat="43.957077" lon="12.3841048"><ele>149.99999999999997</ele><time>2026-04-30T16:37:53.108Z</time></trkpt><trkpt lat="43.9570903" lon="12.3841971"><ele>150.0</ele><time>2026-04-30T16:37:54.068Z</time></trkpt><trkpt lat="43.9571014" lon="12.3842903"><ele>150.0</ele><time>2026-04-30T16:37:55.111Z</time></trkpt><trkpt lat="43.9571003" lon="12.3843883"><ele>150.0</ele><time>2026-04-30T16:37:56.108Z</time></trkpt><trkpt lat="43.957107" lon="12.3844857"><ele>150.0</ele><time>2026-04-30T16:37:57.109Z</time></trkpt><trkpt lat="43.9571068" lon="12.3845856"><ele>149.99999999999997</ele><time>2026-04-30T16:37:58.113Z</time></trkpt><trkpt lat="43.957113" lon="12.3846818"><ele>150.0</ele><time>2026-04-30T16:37:59.121Z</time></trkpt><trkpt lat="43.9571181" lon="12.384783"><ele>149.7142857142857</ele><time>2026-04-30T16:38:00.118Z</time></trkpt><trkpt lat="43.957127" lon="12.3848726"><ele>149.42857142857142</ele><time>2026-04-30T16:38:01.095Z</time></trkpt><trkpt lat="43.9571391" lon="12.3849664"><ele>149.14285714285714</ele><time>2026-04-30T16:38:02.108Z</time></trkpt><trkpt lat="43.9571523" lon="12.3850644"><ele>148.85714285714283</ele><time>2026-04-30T16:38:03.116Z</time></trkpt><trkpt lat="43.9571622" lon="12.3851609"><ele>148.57142857142856</ele><time>2026-04-30T16:38:04.098Z</time></trkpt><trkpt lat="43.95717" lon="12.3852481"><ele>148.28571428571428</ele><time>2026-04-30T16:38:05.117Z</time></trkpt><trkpt lat="43.9571846" lon="12.3853378"><ele>148.0</ele><time>2026-04-30T16:38:06.106Z</time></trkpt><trkpt lat="43.9571955" lon="12.385432"><ele>147.85714285714286</ele><time>2026-04-30T16:38:07.118Z</time></trkpt><trkpt lat="43.9572009" lon="12.3855247"><ele>147.71428571428572</ele><time>2026-04-30T16:38:08.123Z</time></trkpt><trkpt lat="43.9572075" lon="12.3856245"><ele>147.57142857142856</ele><time>2026-04-30T16:38:09.12Z</time></trkpt><trkpt lat="43.9572182" lon="12.385724"><ele>147.42857142857144</ele><time>2026-04-30T16:38:10.104Z</time></trkpt><trkpt lat="43.9572263" lon="12.3858175"><ele>147.28571428571428</ele><time>2026-04-30T16:38:11.135Z</time></trkpt><trkpt lat="43.9572324" lon="12.3859133"><ele>147.14285714285714</ele><time>2026-04-30T16:38:12.089Z</time></trkpt><trkpt lat="43.9572429" lon="12.38601"><ele>147.0</ele><time>2026-04-30T16:38:13.055Z</time></trkpt><trkpt lat="43.9572524" lon="12.3861097"><ele>147.0</ele><time>2026-04-30T16:38:14.114Z</time></trkpt><trkpt lat="43.9572559" lon="12.3862048"><ele>147.0</ele><time>2026-04-30T16:38:15.09Z</time></trkpt><trkpt lat="43.9572581" lon="12.3862996"><ele>147.0</ele><time>2026-04-30T16:38:16.111Z</time></trkpt><trkpt lat="43.9572581" lon="12.3863891"><ele>147.0</ele><time>2026-04-30T16:38:17.09Z</time></trkpt><trkpt lat="43.957249" lon="12.3864859"><ele>147.0</ele><time>2026-04-30T16:38:18.111Z</time></trkpt><trkpt lat="43.9572329" lon="12.3865831"><ele>147.0</ele><time>2026-04-30T16:38:19.118Z</time></trkpt><trkpt lat="43.9572123" lon="12.3866756"><ele>147.0</ele><time>2026-04-30T16:38:20.093Z</time></trkpt><trkpt lat="43.9571905" lon="12.3867672"><ele>146.57142857142858</ele><time>2026-04-30T16:38:21.099Z</time></trkpt><trkpt lat="43.9571647" lon="12.3868611"><ele>146.14285714285714</ele><time>2026-04-30T16:38:22.11Z</time></trkpt><trkpt lat="43.9571353" lon="12.3869532"><ele>145.71428571428572</ele><time>2026-04-30T16:38:23.104Z</time></trkpt><trkpt lat="43.9571065" lon="12.3870495"><ele>145.28571428571428</ele><time>2026-04-30T16:38:24.119Z</time></trkpt><trkpt lat="43.9570722" lon="12.3871453"><ele>144.85714285714286</ele><time>2026-04-30T16:38:25.098Z</time></trkpt><trkpt lat="43.9570379" lon="12.3872389"><ele>144.42857142857144</ele><time>2026-04-30T16:38:26.116Z</time></trkpt><trkpt lat="43.9569997" lon="12.38733"><ele>144.0</ele><time>2026-04-30T16:38:27.106Z</time></trkpt><trkpt lat="43.9569625" lon="12.3874248"><ele>144.5</ele><time>2026-04-30T16:38:28.12Z</time></trkpt><trkpt lat="43.9569119" lon="12.3875093"><ele>145.0</ele><time>2026-04-30T16:38:29.116Z</time></trkpt><trkpt lat="43.9568542" lon="12.3875803"><ele>145.5</ele><time>2026-04-30T16:38:30.117Z</time></trkpt><trkpt lat="43.9567903" lon="12.3876488"><ele>146.0</ele><time>2026-04-30T16:38:31.125Z</time></trkpt><trkpt lat="43.9567151" lon="12.3877166"><ele>146.5</ele><time>2026-04-30T16:38:32.112Z</time></trkpt><trkpt lat="43.9566302" lon="12.3877618"><ele>147.0</ele><time>2026-04-30T16:38:33.066Z</time></trkpt><trkpt lat="43.956543" lon="12.387789"><ele>147.0</ele><time>2026-04-30T16:38:34.101Z</time></trkpt><trkpt lat="43.9564567" lon="12.3877881"><ele>147.0</ele><time>2026-04-30T16:38:35.109Z</time></trkpt><trkpt lat="43.9563697" lon="12.3877896"><ele>147.0</ele><time>2026-04-30T16:38:36.102Z</time></trkpt><trkpt lat="43.9562831" lon="12.38778"><ele>147.0</ele><time>2026-04-30T16:38:37.078Z</time></trkpt><trkpt lat="43.9561884" lon="12.3877709"><ele>147.0</ele><time>2026-04-30T16:38:38.1Z</time></trkpt><trkpt lat="43.9561" lon="12.3877727"><ele>147.0</ele><time>2026-04-30T16:38:39.133Z</time></trkpt><trkpt lat="43.9560079" lon="12.387778"><ele>147.0</ele><time>2026-04-30T16:38:40.105Z</time></trkpt><trkpt lat="43.95592" lon="12.3877928"><ele>147.0</ele><time>2026-04-30T16:38:41.115Z</time></trkpt><trkpt lat="43.955832" lon="12.3878071"><ele>147.0</ele><time>2026-04-30T16:38:42.093Z</time></trkpt><trkpt lat="43.9557444" lon="12.3878475"><ele>147.0</ele><time>2026-04-30T16:38:43.095Z</time></trkpt><trkpt lat="43.9556603" lon="12.3879125"><ele>147.0</ele><time>2026-04-30T16:38:44.111Z</time></trkpt><trkpt lat="43.9555821" lon="12.3879946"><ele>145.83333333333334</ele><time>2026-04-30T16:38:45.115Z</time></trkpt><trkpt lat="43.9555177" lon="12.3881058"><ele>144.66666666666666</ele><time>2026-04-30T16:38:46.101Z</time></trkpt><trkpt lat="43.9554765" lon="12.3882083"><ele>143.5</ele><time>2026-04-30T16:38:47.111Z</time></trkpt><trkpt lat="43.9554413" lon="12.3883125"><ele>142.33333333333331</ele><time>2026-04-30T16:38:48.12Z</time></trkpt><trkpt lat="43.9554305" lon="12.38842"><ele>141.16666666666666</ele><time>2026-04-30T16:38:49.12Z</time></trkpt><trkpt lat="43.9554456" lon="12.388522"><ele>140.0</ele><time>2026-04-30T16:38:50.11Z</time></trkpt><trkpt lat="43.9554662" lon="12.3886141"><ele>140.0</ele><time>2026-04-30T16:38:51.124Z</time></trkpt><trkpt lat="43.9554978" lon="12.3887001"><ele>140.0</ele><time>2026-04-30T16:38:52.104Z</time></trkpt><trkpt lat="43.9555612" lon="12.3888411"><ele>140.0</ele><time>2026-04-30T16:38:54.124Z</time></trkpt><trkpt lat="43.9556204" lon="12.388969"><ele>140.0</ele><time>2026-04-30T16:38:56.051Z</time></trkpt><trkpt lat="43.9556634" lon="12.389069"><ele>140.0</ele><time>2026-04-30T16:38:58.11Z</time></trkpt><trkpt lat="43.9557137" lon="12.3891508"><ele>139.33333333333331</ele><time>2026-04-30T16:39:00.072Z</time></trkpt><trkpt lat="43.9557751" lon="12.3892153"><ele>138.66666666666666</ele><time>2026-04-30T16:39:02.047Z</time></trkpt><trkpt lat="43.9558323" lon="12.3893028"><ele>138.0</ele><time>2026-04-30T16:39:04.079Z</time></trkpt><trkpt lat="43.9558879" lon="12.3893762"><ele>137.33333333333334</ele><time>2026-04-30T16:39:06.109Z</time></trkpt><trkpt lat="43.9559649" lon="12.3894629"><ele>136.66666666666669</ele><time>2026-04-30T16:39:08.104Z</time></trkpt><trkpt lat="43.9560137" lon="12.3895264"><ele>136.0</ele><time>2026-04-30T16:39:10.126Z</time></trkpt><trkpt lat="43.9560904" lon="12.3896025"><ele>136.0</ele><time>2026-04-30T16:39:13.087Z</time></trkpt><trkpt lat="43.95615" lon="12.3896494"><ele>136.0</ele><time>2026-04-30T16:39:15.057Z</time></trkpt><trkpt lat="43.9562047" lon="12.3897077"><ele>136.0</ele><time>2026-04-30T16:39:17.11Z</time></trkpt><trkpt lat="43.9562547" lon="12.3897915"><ele>136.0</ele><time>2026-04-30T16:39:19.094Z</time></trkpt><trkpt lat="43.9563048" lon="12.3899015"><ele>136.0</ele><time>2026-04-30T16:39:22.099Z</time></trkpt><trkpt lat="43.9563293" lon="12.3899934"><ele>136.0</ele><time>2026-04-30T16:39:24.118Z</time></trkpt><trkpt lat="43.9563349" lon="12.390101"><ele>136.8</ele><time>2026-04-30T16:39:26.104Z</time></trkpt><trkpt lat="43.9563229" lon="12.3902213"><ele>137.6</ele><time>2026-04-30T16:39:28.084Z</time></trkpt><trkpt lat="43.9563058" lon="12.3903368"><ele>138.4</ele><time>2026-04-30T16:39:30.077Z</time></trkpt><trkpt lat="43.9562718" lon="12.3904551"><ele>139.2</ele><time>2026-04-30T16:39:32.117Z</time></trkpt><trkpt lat="43.9562406" lon="12.3905754"><ele>140.0</ele><time>2026-04-30T16:39:34.11Z</time></trkpt><trkpt lat="43.9562148" lon="12.3907442"><ele>140.0</ele><time>2026-04-30T16:39:36.114Z</time></trkpt><trkpt lat="43.9562107" lon="12.3909201"><ele>140.0</ele><time>2026-04-30T16:39:38.122Z</time></trkpt><trkpt lat="43.9562094" lon="12.3910117"><ele>140.0</ele><time>2026-04-30T16:39:39.116Z</time></trkpt><trkpt lat="43.9562114" lon="12.391107"><ele>140.0</ele><time>2026-04-30T16:39:40.115Z</time></trkpt><trkpt lat="43.9562129" lon="12.3912039"><ele>140.0</ele><time>2026-04-30T16:39:41.111Z</time></trkpt><trkpt lat="43.9562152" lon="12.3912967"><ele>140.0</ele><time>2026-04-30T16:39:42.116Z</time></trkpt><trkpt lat="43.9562053" lon="12.3913927"><ele>139.16666666666666</ele><time>2026-04-30T16:39:43.098Z</time></trkpt><trkpt lat="43.95619" lon="12.3914901"><ele>138.33333333333331</ele><time>2026-04-30T16:39:44.117Z</time></trkpt><trkpt lat="43.9561643" lon="12.391588"><ele>137.5</ele><time>2026-04-30T16:39:45.087Z</time></trkpt><trkpt lat="43.9561378" lon="12.3916895"><ele>136.66666666666666</ele><time>2026-04-30T16:39:46.093Z</time></trkpt><trkpt lat="43.9560967" lon="12.3917907"><ele>135.83333333333334</ele><time>2026-04-30T16:39:47.086Z</time></trkpt><trkpt lat="43.9560541" lon="12.3918916"><ele>135.0</ele><time>2026-04-30T16:39:48.114Z</time></trkpt><trkpt lat="43.9560049" lon="12.391988"><ele>135.0</ele><time>2026-04-30T16:39:49.124Z</time></trkpt><trkpt lat="43.9559492" lon="12.3920754"><ele>135.0</ele><time>2026-04-30T16:39:50.127Z</time></trkpt><trkpt lat="43.9558875" lon="12.3921497"><ele>135.0</ele><time>2026-04-30T16:39:51.129Z</time></trkpt><trkpt lat="43.955818" lon="12.3922206"><ele>135.0</ele><time>2026-04-30T16:39:52.119Z</time></trkpt><trkpt lat="43.9557513" lon="12.3922953"><ele>135.0</ele><time>2026-04-30T16:39:53.11Z</time></trkpt><trkpt lat="43.9556906" lon="12.3923837"><ele>135.0</ele><time>2026-04-30T16:39:54.108Z</time></trkpt><trkpt lat="43.9556403" lon="12.3924789"><ele>136.5</ele><time>2026-04-30T16:39:55.107Z</time></trkpt><trkpt lat="43.9556004" lon="12.3925743"><ele>138.0</ele><time>2026-04-30T16:39:56.121Z</time></trkpt><trkpt lat="43.9555788" lon="12.3926697"><ele>139.5</ele><time>2026-04-30T16:39:57.108Z</time></trkpt><trkpt lat="43.955589" lon="12.3927785"><ele>141.0</ele><time>2026-04-30T16:39:58.117Z</time></trkpt><trkpt lat="43.9556442" lon="12.3928906"><ele>142.5</ele><time>2026-04-30T16:39:59.106Z</time></trkpt><trkpt lat="43.9557186" lon="12.3929717"><ele>144.0</ele><time>2026-04-30T16:40:00.11Z</time></trkpt><trkpt lat="43.9557811" lon="12.3930142"><ele>144.6</ele><time>2026-04-30T16:40:01.097Z</time></trkpt><trkpt lat="43.9558504" lon="12.3930215"><ele>145.2</ele><time>2026-04-30T16:40:02.091Z</time></trkpt><trkpt lat="43.9559144" lon="12.3930353"><ele>145.79999999999998</ele><time>2026-04-30T16:40:03.082Z</time></trkpt><trkpt lat="43.9560332" lon="12.3930369"><ele>146.4</ele><time>2026-04-30T16:40:05.079Z</time></trkpt><trkpt lat="43.956143" lon="12.3930189"><ele>147.0</ele><time>2026-04-30T16:40:07.118Z</time></trkpt><trkpt lat="43.9562454" lon="12.3930159"><ele>145.66666666666666</ele><time>2026-04-30T16:40:09.066Z</time></trkpt><trkpt lat="43.9563333" lon="12.3929965"><ele>144.33333333333334</ele><time>2026-04-30T16:40:11.089Z</time></trkpt><trkpt lat="43.9564095" lon="12.3929978"><ele>143.0</ele><time>2026-04-30T16:40:13.082Z</time></trkpt><trkpt lat="43.9564889" lon="12.3929806"><ele>141.66666666666669</ele><time>2026-04-30T16:40:15.103Z</time></trkpt><trkpt lat="43.9565666" lon="12.3929812"><ele>140.33333333333334</ele><time>2026-04-30T16:40:17.069Z</time></trkpt><trkpt lat="43.9566444" lon="12.3929919"><ele>139.0</ele><time>2026-04-30T16:40:19.07Z</time></trkpt><trkpt lat="43.9567147" lon="12.3930264"><ele>138.85714285714286</ele><time>2026-04-30T16:40:21.095Z</time></trkpt><trkpt lat="43.9567775" lon="12.3930726"><ele>138.71428571428572</ele><time>2026-04-30T16:40:23.106Z</time></trkpt><trkpt lat="43.9568335" lon="12.3931138"><ele>138.57142857142858</ele><time>2026-04-30T16:40:25.115Z</time></trkpt><trkpt lat="43.9568772" lon="12.3931881"><ele>138.42857142857144</ele><time>2026-04-30T16:40:27.09Z</time></trkpt><trkpt lat="43.9569213" lon="12.3932839"><ele>138.2857142857143</ele><time>2026-04-30T16:40:29.072Z</time></trkpt><trkpt lat="43.9569486" lon="12.3933794"><ele>138.14285714285714</ele><time>2026-04-30T16:40:31.095Z</time></trkpt><trkpt lat="43.9569568" lon="12.3934766"><ele>138.0</ele><time>2026-04-30T16:40:33.071Z</time></trkpt><trkpt lat="43.9569579" lon="12.3935881"><ele>138.0</ele><time>2026-04-30T16:40:35.111Z</time></trkpt><trkpt lat="43.9569603" lon="12.3937189"><ele>138.0</ele><time>2026-04-30T16:40:37.093Z</time></trkpt><trkpt lat="43.9569571" lon="12.393844"><ele>138.0</ele><time>2026-04-30T16:40:39.092Z</time></trkpt><trkpt lat="43.9569617" lon="12.3939761"><ele>138.0</ele><time>2026-04-30T16:40:41.103Z</time></trkpt><trkpt lat="43.9569578" lon="12.3941106"><ele>138.0</ele><time>2026-04-30T16:40:43.114Z</time></trkpt><trkpt lat="43.9569777" lon="12.3942398"><ele>138.8</ele><time>2026-04-30T16:40:45.113Z</time></trkpt><trkpt lat="43.9570046" lon="12.394374"><ele>139.60000000000002</ele><time>2026-04-30T16:40:47.114Z</time></trkpt><trkpt lat="43.9570333" lon="12.3945126"><ele>140.39999999999998</ele><time>2026-04-30T16:40:49.109Z</time></trkpt><trkpt lat="43.9570736" lon="12.3946449"><ele>141.2</ele><time>2026-04-30T16:40:51.13Z</time></trkpt><trkpt lat="43.957104" lon="12.3947824"><ele>142.0</ele><time>2026-04-30T16:40:53.129Z</time></trkpt><trkpt lat="43.9571414" lon="12.3949244"><ele>142.5</ele><time>2026-04-30T16:40:55.112Z</time></trkpt><trkpt lat="43.957171" lon="12.3950699"><ele>143.0</ele><time>2026-04-30T16:40:57.131Z</time></trkpt><trkpt lat="43.9572103" lon="12.395211"><ele>143.5</ele><time>2026-04-30T16:40:59.118Z</time></trkpt><trkpt lat="43.9572549" lon="12.395357"><ele>144.0</ele><time>2026-04-30T16:41:01.056Z</time></trkpt><trkpt lat="43.9572985" lon="12.395517"><ele>144.2</ele><time>2026-04-30T16:41:03.087Z</time></trkpt><trkpt lat="43.9573231" lon="12.3956755"><ele>144.4</ele><time>2026-04-30T16:41:05.091Z</time></trkpt><trkpt lat="43.9573637" lon="12.3958301"><ele>144.6</ele><time>2026-04-30T16:41:07.116Z</time></trkpt><trkpt lat="43.9573995" lon="12.3959839"><ele>144.8</ele><time>2026-04-30T16:41:09.116Z</time></trkpt><trkpt lat="43.9574225" lon="12.396066"><ele>145.0</ele><time>2026-04-30T16:41:10.116Z</time></trkpt><trkpt lat="43.9574622" lon="12.3962292"><ele>145.0</ele><time>2026-04-30T16:41:12.128Z</time></trkpt><trkpt lat="43.9575088" lon="12.3963794"><ele>145.0</ele><time>2026-04-30T16:41:14.117Z</time></trkpt><trkpt lat="43.9575518" lon="12.3965396"><ele>145.0</ele><time>2026-04-30T16:41:16.1Z</time></trkpt><trkpt lat="43.9575937" lon="12.3966976"><ele>145.0</ele><time>2026-04-30T16:41:18.112Z</time></trkpt><trkpt lat="43.9576183" lon="12.3967794"><ele>145.0</ele><time>2026-04-30T16:41:19.089Z</time></trkpt><trkpt lat="43.9576448" lon="12.3968658"><ele>144.5</ele><time>2026-04-30T16:41:20.122Z</time></trkpt><trkpt lat="43.9576886" lon="12.3970375"><ele>144.0</ele><time>2026-04-30T16:41:22.125Z</time></trkpt><trkpt lat="43.9577072" lon="12.3971333"><ele>143.5</ele><time>2026-04-30T16:41:23.117Z</time></trkpt><trkpt lat="43.9577279" lon="12.3972358"><ele>143.0</ele><time>2026-04-30T16:41:24.107Z</time></trkpt><trkpt lat="43.9577489" lon="12.3973442"><ele>142.5</ele><time>2026-04-30T16:41:25.136Z</time></trkpt><trkpt lat="43.9577506" lon="12.3974633"><ele>142.0</ele><time>2026-04-30T16:41:26.124Z</time></trkpt><trkpt lat="43.9577541" lon="12.3975788"><ele>142.0</ele><time>2026-04-30T16:41:27.136Z</time></trkpt><trkpt lat="43.9577563" lon="12.3976939"><ele>142.0</ele><time>2026-04-30T16:41:28.11Z</time></trkpt><trkpt lat="43.9577546" lon="12.3978116"><ele>142.0</ele><time>2026-04-30T16:41:29.113Z</time></trkpt><trkpt lat="43.9577473" lon="12.3979281"><ele>142.0</ele><time>2026-04-30T16:41:30.096Z</time></trkpt><trkpt lat="43.9577363" lon="12.3980451"><ele>142.0</ele><time>2026-04-30T16:41:31.12Z</time></trkpt><trkpt lat="43.9577286" lon="12.3981511"><ele>142.0</ele><time>2026-04-30T16:41:32.09Z</time></trkpt><trkpt lat="43.9577137" lon="12.3982639"><ele>141.5</ele><time>2026-04-30T16:41:33.056Z</time></trkpt><trkpt lat="43.9576919" lon="12.3983787"><ele>141.0</ele><time>2026-04-30T16:41:34.087Z</time></trkpt><trkpt lat="43.9576743" lon="12.3984897"><ele>140.5</ele><time>2026-04-30T16:41:35.09Z</time></trkpt><trkpt lat="43.9576514" lon="12.3986008"><ele>140.0</ele><time>2026-04-30T16:41:36.107Z</time></trkpt><trkpt lat="43.9576278" lon="12.3987117"><ele>139.5</ele><time>2026-04-30T16:41:37.111Z</time></trkpt><trkpt lat="43.9575984" lon="12.3988216"><ele>139.0</ele><time>2026-04-30T16:41:38.084Z</time></trkpt><trkpt lat="43.9575658" lon="12.3989221"><ele>138.66666666666669</ele><time>2026-04-30T16:41:39.102Z</time></trkpt><trkpt lat="43.9575226" lon="12.3990244"><ele>138.33333333333334</ele><time>2026-04-30T16:41:40.097Z</time></trkpt><trkpt lat="43.9574817" lon="12.3991252"><ele>138.0</ele><time>2026-04-30T16:41:41.084Z</time></trkpt><trkpt lat="43.9574356" lon="12.3992182"><ele>137.66666666666666</ele><time>2026-04-30T16:41:42.107Z</time></trkpt><trkpt lat="43.9573802" lon="12.3993141"><ele>137.33333333333331</ele><time>2026-04-30T16:41:43.105Z</time></trkpt><trkpt lat="43.9573237" lon="12.3994187"><ele>137.0</ele><time>2026-04-30T16:41:44.083Z</time></trkpt><trkpt lat="43.9572786" lon="12.3995185"><ele>137.0</ele><time>2026-04-30T16:41:45.072Z</time></trkpt><trkpt lat="43.9572226" lon="12.3996158"><ele>137.0</ele><time>2026-04-30T16:41:46.116Z</time></trkpt><trkpt lat="43.9571762" lon="12.3997136"><ele>137.0</ele><time>2026-04-30T16:41:47.085Z</time></trkpt><trkpt lat="43.9571293" lon="12.3998038"><ele>137.0</ele><time>2026-04-30T16:41:48.083Z</time></trkpt><trkpt lat="43.9570866" lon="12.3998931"><ele>137.0</ele><time>2026-04-30T16:41:49.124Z</time></trkpt><trkpt lat="43.9570388" lon="12.3999778"><ele>137.0</ele><time>2026-04-30T16:41:50.121Z</time></trkpt><trkpt lat="43.9569946" lon="12.4000555"><ele>136.79999999999998</ele><time>2026-04-30T16:41:51.116Z</time></trkpt><trkpt lat="43.9569528" lon="12.4001368"><ele>136.6</ele><time>2026-04-30T16:41:52.128Z</time></trkpt><trkpt lat="43.9569112" lon="12.4002097"><ele>136.39999999999998</ele><time>2026-04-30T16:41:53.114Z</time></trkpt><trkpt lat="43.9568276" lon="12.4003383"><ele>136.2</ele><time>2026-04-30T16:41:55.118Z</time></trkpt><trkpt lat="43.9567581" lon="12.4004699"><ele>136.0</ele><time>2026-04-30T16:41:57.112Z</time></trkpt><trkpt lat="43.9566955" lon="12.4005966"><ele>136.0</ele><time>2026-04-30T16:41:59.105Z</time></trkpt><trkpt lat="43.9566536" lon="12.4007336"><ele>136.0</ele><time>2026-04-30T16:42:01.089Z</time></trkpt><trkpt lat="43.9566115" lon="12.4008629"><ele>136.0</ele><time>2026-04-30T16:42:03.11Z</time></trkpt><trkpt lat="43.9565596" lon="12.4009891"><ele>136.0</ele><time>2026-04-30T16:42:05.123Z</time></trkpt><trkpt lat="43.9565089" lon="12.401095"><ele>136.0</ele><time>2026-04-30T16:42:07.116Z</time></trkpt><trkpt lat="43.9564702" lon="12.4011874"><ele>136.0</ele><time>2026-04-30T16:42:09.114Z</time></trkpt><trkpt lat="43.9564234" lon="12.4012757"><ele>136.0</ele><time>2026-04-30T16:42:11.11Z</time></trkpt><trkpt lat="43.9563872" lon="12.4013679"><ele>136.0</ele><time>2026-04-30T16:42:13.101Z</time></trkpt><trkpt lat="43.9563502" lon="12.4014914"><ele>136.0</ele><time>2026-04-30T16:42:15.123Z</time></trkpt><trkpt lat="43.9563379" lon="12.401605"><ele>136.0</ele><time>2026-04-30T16:42:17.109Z</time></trkpt><trkpt lat="43.9563361" lon="12.4017358"><ele>136.0</ele><time>2026-04-30T16:42:19.116Z</time></trkpt><trkpt lat="43.9563311" lon="12.4018414"><ele>136.0</ele><time>2026-04-30T16:42:21.071Z</time></trkpt><trkpt lat="43.9563334" lon="12.4019453"><ele>136.0</ele><time>2026-04-30T16:42:23.097Z</time></trkpt><trkpt lat="43.956344" lon="12.4020966"><ele>136.0</ele><time>2026-04-30T16:42:25.11Z</time></trkpt><trkpt lat="43.9563412" lon="12.402241"><ele>136.0</ele><time>2026-04-30T16:42:27.106Z</time></trkpt><trkpt lat="43.9563386" lon="12.4023701"><ele>136.0</ele><time>2026-04-30T16:42:29.12Z</time></trkpt><trkpt lat="43.9563382" lon="12.4024883"><ele>136.0</ele><time>2026-04-30T16:42:31.117Z</time></trkpt><trkpt lat="43.9563289" lon="12.4026181"><ele>136.0</ele><time>2026-04-30T16:42:34.09Z</time></trkpt><trkpt lat="43.956308" lon="12.4027367"><ele>136.0</ele><time>2026-04-30T16:42:37.129Z</time></trkpt><trkpt lat="43.9562725" lon="12.402817"><ele>136.0</ele><time>2026-04-30T16:42:39.116Z</time></trkpt><trkpt lat="43.9562363" lon="12.4028977"><ele>136.0</ele><time>2026-04-30T16:42:41.113Z</time></trkpt><trkpt lat="43.9561757" lon="12.4029849"><ele>136.0</ele><time>2026-04-30T16:42:43.1Z</time></trkpt><trkpt lat="43.9561162" lon="12.4030698"><ele>136.16666666666669</ele><time>2026-04-30T16:42:45.096Z</time></trkpt><trkpt lat="43.9560438" lon="12.4031837"><ele>136.33333333333334</ele><time>2026-04-30T16:42:47.104Z</time></trkpt><trkpt lat="43.9559933" lon="12.4032578"><ele>136.5</ele><time>2026-04-30T16:42:48.115Z</time></trkpt><trkpt lat="43.9559437" lon="12.4033348"><ele>136.66666666666666</ele><time>2026-04-30T16:42:49.099Z</time></trkpt><trkpt lat="43.9558877" lon="12.4034221"><ele>136.83333333333331</ele><time>2026-04-30T16:42:50.116Z</time></trkpt><trkpt lat="43.9558341" lon="12.4034958"><ele>137.0</ele><time>2026-04-30T16:42:51.102Z</time></trkpt><trkpt lat="43.9557801" lon="12.4035438"><ele>137.5</ele><time>2026-04-30T16:42:52.116Z</time></trkpt><trkpt lat="43.9556779" lon="12.4035733"><ele>138.0</ele><time>2026-04-30T16:42:54.08Z</time></trkpt><trkpt lat="43.9556142" lon="12.4035941"><ele>138.5</ele><time>2026-04-30T16:42:56.096Z</time></trkpt><trkpt lat="43.9555622" lon="12.4036702"><ele>139.0</ele><time>2026-04-30T16:43:01.114Z</time></trkpt><trkpt lat="43.9555181" lon="12.4037744"><ele>139.5</ele><time>2026-04-30T16:43:04.092Z</time></trkpt><trkpt lat="43.9554634" lon="12.4038783"><ele>140.0</ele><time>2026-04-30T16:43:07.119Z</time></trkpt><trkpt lat="43.9554096" lon="12.4039543"><ele>138.6</ele><time>2026-04-30T16:43:09.056Z</time></trkpt><trkpt lat="43.9553641" lon="12.4040428"><ele>137.2</ele><time>2026-04-30T16:43:11.116Z</time></trkpt><trkpt lat="43.9553492" lon="12.40414"><ele>135.8</ele><time>2026-04-30T16:43:13.111Z</time></trkpt><trkpt lat="43.9554136" lon="12.4042644"><ele>134.4</ele><time>2026-04-30T16:43:15.084Z</time></trkpt><trkpt lat="43.9554814" lon="12.404376"><ele>133.0</ele><time>2026-04-30T16:43:17.09Z</time></trkpt><trkpt lat="43.9555398" lon="12.4044801"><ele>133.0</ele><time>2026-04-30T16:43:19.11Z</time></trkpt><trkpt lat="43.9555715" lon="12.4045747"><ele>133.0</ele><time>2026-04-30T16:43:21.105Z</time></trkpt><trkpt lat="43.9555998" lon="12.4046627"><ele>133.0</ele><time>2026-04-30T16:43:23.101Z</time></trkpt><trkpt lat="43.955657" lon="12.4047437"><ele>133.0</ele><time>2026-04-30T16:43:25.115Z</time></trkpt><trkpt lat="43.9557269" lon="12.4048242"><ele>133.0</ele><time>2026-04-30T16:43:27.098Z</time></trkpt><trkpt lat="43.9557688" lon="12.4049118"><ele>133.0</ele><time>2026-04-30T16:43:29.108Z</time></trkpt><trkpt lat="43.9557992" lon="12.405007"><ele>133.0</ele><time>2026-04-30T16:43:32.113Z</time></trkpt><trkpt lat="43.955858" lon="12.4050745"><ele>133.0</ele><time>2026-04-30T16:43:40.098Z</time></trkpt><trkpt lat="43.9559427" lon="12.405132"><ele>133.0</ele><time>2026-04-30T16:43:43.07Z</time></trkpt><trkpt lat="43.9560279" lon="12.4051314"><ele>133.0</ele><time>2026-04-30T16:43:45.102Z</time></trkpt><trkpt lat="43.9561267" lon="12.4051145"><ele>133.0</ele><time>2026-04-30T16:43:47.103Z</time></trkpt><trkpt lat="43.956227" lon="12.4050962"><ele>133.0</ele><time>2026-04-30T16:43:49.105Z</time></trkpt><trkpt lat="43.9563421" lon="12.4050803"><ele>133.0</ele><time>2026-04-30T16:43:51.14Z</time></trkpt><trkpt lat="43.9564603" lon="12.4050579"><ele>133.0</ele><time>2026-04-30T16:43:53.126Z</time></trkpt><trkpt lat="43.9565811" lon="12.4050373"><ele>133.0</ele><time>2026-04-30T16:43:55.114Z</time></trkpt><trkpt lat="43.956646" lon="12.4050305"><ele>133.0</ele><time>2026-04-30T16:43:56.122Z</time></trkpt><trkpt lat="43.95671" lon="12.40502"><ele>132.83333333333334</ele><time>2026-04-30T16:43:57.122Z</time></trkpt><trkpt lat="43.9568328" lon="12.4050151"><ele>132.66666666666669</ele><time>2026-04-30T16:43:59.121Z</time></trkpt><trkpt lat="43.9569548" lon="12.4049914"><ele>132.5</ele><time>2026-04-30T16:44:01.116Z</time></trkpt><trkpt lat="43.9570184" lon="12.4049787"><ele>132.33333333333334</ele><time>2026-04-30T16:44:02.09Z</time></trkpt><trkpt lat="43.9570836" lon="12.4049647"><ele>132.16666666666666</ele><time>2026-04-30T16:44:03.11Z</time></trkpt><trkpt lat="43.9571473" lon="12.4049475"><ele>132.0</ele><time>2026-04-30T16:44:04.056Z</time></trkpt><trkpt lat="43.9572697" lon="12.404918"><ele>132.0</ele><time>2026-04-30T16:44:06.109Z</time></trkpt><trkpt lat="43.9573337" lon="12.4049069"><ele>132.0</ele><time>2026-04-30T16:44:07.109Z</time></trkpt><trkpt lat="43.9574565" lon="12.4048823"><ele>132.0</ele><time>2026-04-30T16:44:09.118Z</time></trkpt><trkpt lat="43.9575223" lon="12.4048656"><ele>132.0</ele><time>2026-04-30T16:44:10.126Z</time></trkpt><trkpt lat="43.9575875" lon="12.4048375"><ele>132.0</ele><time>2026-04-30T16:44:11.111Z</time></trkpt><trkpt lat="43.9576502" lon="12.4048062"><ele>132.0</ele><time>2026-04-30T16:44:12.075Z</time></trkpt><trkpt lat="43.9577707" lon="12.4047579"><ele>132.0</ele><time>2026-04-30T16:44:14.1Z</time></trkpt><trkpt lat="43.9578851" lon="12.4047016"><ele>132.0</ele><time>2026-04-30T16:44:16.109Z</time></trkpt><trkpt lat="43.9580006" lon="12.4046283"><ele>132.0</ele><time>2026-04-30T16:44:18.137Z</time></trkpt><trkpt lat="43.9580573" lon="12.4045881"><ele>132.0</ele><time>2026-04-30T16:44:19.11Z</time></trkpt><trkpt lat="43.9581644" lon="12.4044953"><ele>132.0</ele><time>2026-04-30T16:44:21.118Z</time></trkpt><trkpt lat="43.9582768" lon="12.4043989"><ele>132.0</ele><time>2026-04-30T16:44:23.124Z</time></trkpt><trkpt lat="43.9583354" lon="12.4043348"><ele>132.0</ele><time>2026-04-30T16:44:24.089Z</time></trkpt><trkpt lat="43.9583917" lon="12.4042618"><ele>132.0</ele><time>2026-04-30T16:44:25.115Z</time></trkpt><trkpt lat="43.9584392" lon="12.4041914"><ele>132.0</ele><time>2026-04-30T16:44:26.107Z</time></trkpt><trkpt lat="43.9584919" lon="12.4041182"><ele>132.0</ele><time>2026-04-30T16:44:27.078Z</time></trkpt><trkpt lat="43.9585415" lon="12.4040477"><ele>132.0</ele><time>2026-04-30T16:44:28.106Z</time></trkpt><trkpt lat="43.9585861" lon="12.403977"><ele>132.0</ele><time>2026-04-30T16:44:29.099Z</time></trkpt><trkpt lat="43.9586346" lon="12.4039037"><ele>133.16666666666666</ele><time>2026-04-30T16:44:30.113Z</time></trkpt><trkpt lat="43.958681" lon="12.4038304"><ele>134.33333333333334</ele><time>2026-04-30T16:44:31.134Z</time></trkpt><trkpt lat="43.9587557" lon="12.4036963"><ele>135.5</ele><time>2026-04-30T16:44:33.077Z</time></trkpt><trkpt lat="43.9587912" lon="12.4036185"><ele>136.66666666666669</ele><time>2026-04-30T16:44:34.126Z</time></trkpt><trkpt lat="43.9588313" lon="12.4035425"><ele>137.83333333333334</ele><time>2026-04-30T16:44:35.106Z</time></trkpt><trkpt lat="43.9588611" lon="12.4034612"><ele>139.0</ele><time>2026-04-30T16:44:36.129Z</time></trkpt><trkpt lat="43.958895" lon="12.4033834"><ele>139.0</ele><time>2026-04-30T16:44:37.112Z</time></trkpt><trkpt lat="43.958925" lon="12.4032965"><ele>139.0</ele><time>2026-04-30T16:44:38.138Z</time></trkpt><trkpt lat="43.9589504" lon="12.4032153"><ele>139.0</ele><time>2026-04-30T16:44:39.128Z</time></trkpt><trkpt lat="43.959001" lon="12.403065"><ele>139.0</ele><time>2026-04-30T16:44:41.108Z</time></trkpt><trkpt lat="43.9590477" lon="12.4029193"><ele>139.0</ele><time>2026-04-30T16:44:43.129Z</time></trkpt><trkpt lat="43.9590936" lon="12.4027719"><ele>138.75</ele><time>2026-04-30T16:44:45.107Z</time></trkpt><trkpt lat="43.9591492" lon="12.4026176"><ele>138.5</ele><time>2026-04-30T16:44:47.102Z</time></trkpt><trkpt lat="43.9591946" lon="12.4024744"><ele>138.25</ele><time>2026-04-30T16:44:49.106Z</time></trkpt><trkpt lat="43.9592457" lon="12.4023343"><ele>138.0</ele><time>2026-04-30T16:44:51.11Z</time></trkpt><trkpt lat="43.9593016" lon="12.4022146"><ele>138.0</ele><time>2026-04-30T16:44:53.119Z</time></trkpt><trkpt lat="43.959392" lon="12.402137"><ele>138.0</ele><time>2026-04-30T16:44:55.106Z</time></trkpt><trkpt lat="43.9595002" lon="12.4021197"><ele>138.0</ele><time>2026-04-30T16:44:57.11Z</time></trkpt><trkpt lat="43.9596024" lon="12.40213"><ele>138.0</ele><time>2026-04-30T16:44:59.097Z</time></trkpt><trkpt lat="43.959704" lon="12.4021672"><ele>138.0</ele><time>2026-04-30T16:45:01.114Z</time></trkpt><trkpt lat="43.9597953" lon="12.4022041"><ele>138.0</ele><time>2026-04-30T16:45:03.105Z</time></trkpt><trkpt lat="43.959902" lon="12.4022415"><ele>138.0</ele><time>2026-04-30T16:45:05.098Z</time></trkpt><trkpt lat="43.9600015" lon="12.4022656"><ele>138.0</ele><time>2026-04-30T16:45:07.126Z</time></trkpt><trkpt lat="43.9601058" lon="12.4022766"><ele>138.0</ele><time>2026-04-30T16:45:09.108Z</time></trkpt><trkpt lat="43.9602161" lon="12.4022657"><ele>138.0</ele><time>2026-04-30T16:45:11.119Z</time></trkpt><trkpt lat="43.9603231" lon="12.4022551"><ele>138.4</ele><time>2026-04-30T16:45:13.134Z</time></trkpt><trkpt lat="43.9604386" lon="12.4022334"><ele>138.8</ele><time>2026-04-30T16:45:15.119Z</time></trkpt><trkpt lat="43.9605517" lon="12.4022071"><ele>139.2</ele><time>2026-04-30T16:45:17.092Z</time></trkpt><trkpt lat="43.96065" lon="12.4021651"><ele>139.6</ele><time>2026-04-30T16:45:19.141Z</time></trkpt><trkpt lat="43.9607449" lon="12.4021242"><ele>140.0</ele><time>2026-04-30T16:45:21.113Z</time></trkpt><trkpt lat="43.9608481" lon="12.4020738"><ele>139.71428571428572</ele><time>2026-04-30T16:45:23.122Z</time></trkpt><trkpt lat="43.9609352" lon="12.4020503"><ele>139.42857142857144</ele><time>2026-04-30T16:45:25.111Z</time></trkpt><trkpt lat="43.9609832" lon="12.4021289"><ele>139.14285714285714</ele><time>2026-04-30T16:45:28.107Z</time></trkpt><trkpt lat="43.9609899" lon="12.402237"><ele>138.85714285714286</ele><time>2026-04-30T16:45:33.11Z</time></trkpt><trkpt lat="43.9609836" lon="12.4023295"><ele>138.57142857142858</ele><time>2026-04-30T16:45:37.114Z</time></trkpt><trkpt lat="43.9609563" lon="12.4024176"><ele>138.28571428571428</ele><time>2026-04-30T16:45:42.128Z</time></trkpt><trkpt lat="43.9609488" lon="12.4025175"><ele>138.0</ele><time>2026-04-30T16:45:47.102Z</time></trkpt><trkpt lat="43.9609454" lon="12.4026084"><ele>138.0</ele><time>2026-04-30T16:45:51.093Z</time></trkpt><trkpt lat="43.9609518" lon="12.4027158"><ele>138.0</ele><time>2026-04-30T16:45:55.051Z</time></trkpt><trkpt lat="43.9609396" lon="12.4028169"><ele>138.0</ele><time>2026-04-30T16:45:59.058Z</time></trkpt><trkpt lat="43.9609434" lon="12.4029085"><ele>138.0</ele><time>2026-04-30T16:46:03.067Z</time></trkpt><trkpt lat="43.960953" lon="12.4030102"><ele>138.0</ele><time>2026-04-30T16:46:07.115Z</time></trkpt><trkpt lat="43.9609664" lon="12.4031149"><ele>138.0</ele><time>2026-04-30T16:46:12.127Z</time></trkpt><trkpt lat="43.9609657" lon="12.4032039"><ele>138.0</ele><time>2026-04-30T16:46:16.125Z</time></trkpt><trkpt lat="43.9609491" lon="12.403293"><ele>138.71428571428572</ele><time>2026-04-30T16:46:20.105Z</time></trkpt><trkpt lat="43.9609267" lon="12.4033814"><ele>139.42857142857144</ele><time>2026-04-30T16:46:24.141Z</time></trkpt><trkpt lat="43.9609001" lon="12.4034781"><ele>140.14285714285714</ele><time>2026-04-30T16:46:28.109Z</time></trkpt><trkpt lat="43.960891" lon="12.403565"><ele>140.85714285714286</ele><time>2026-04-30T16:46:32.095Z</time></trkpt><trkpt lat="43.9608979" lon="12.4036653"><ele>141.57142857142856</ele><time>2026-04-30T16:46:36.134Z</time></trkpt><trkpt lat="43.960893" lon="12.4037689"><ele>142.28571428571428</ele><time>2026-04-30T16:46:41.109Z</time></trkpt><trkpt lat="43.9608847" lon="12.4038817"><ele>143.0</ele><time>2026-04-30T16:46:46.119Z</time></trkpt><trkpt lat="43.9608931" lon="12.4039689"><ele>144.33333333333331</ele><time>2026-04-30T16:46:50.096Z</time></trkpt><trkpt lat="43.9608912" lon="12.4040791"><ele>145.66666666666666</ele><time>2026-04-30T16:46:55.11Z</time></trkpt><trkpt lat="43.9608763" lon="12.4041806"><ele>147.0</ele><time>2026-04-30T16:46:59.114Z</time></trkpt><trkpt lat="43.9608688" lon="12.4042896"><ele>148.33333333333334</ele><time>2026-04-30T16:47:04.111Z</time></trkpt><trkpt lat="43.9608895" lon="12.4044027"><ele>149.66666666666669</ele><time>2026-04-30T16:47:08.116Z</time></trkpt><trkpt lat="43.9609044" lon="12.4045062"><ele>151.0</ele><time>2026-04-30T16:47:11.124Z</time></trkpt><trkpt lat="43.9609092" lon="12.4046101"><ele>151.71428571428572</ele><time>2026-04-30T16:47:15.111Z</time></trkpt><trkpt lat="43.9609125" lon="12.404712"><ele>152.42857142857144</ele><time>2026-04-30T16:47:19.099Z</time></trkpt><trkpt lat="43.9609053" lon="12.4048075"><ele>153.14285714285717</ele><time>2026-04-30T16:47:23.095Z</time></trkpt><trkpt lat="43.9609071" lon="12.4049025"><ele>153.85714285714286</ele><time>2026-04-30T16:47:27.122Z</time></trkpt><trkpt lat="43.9609029" lon="12.4050066"><ele>154.57142857142856</ele><time>2026-04-30T16:47:31.105Z</time></trkpt><trkpt lat="43.9608951" lon="12.4051045"><ele>155.2857142857143</ele><time>2026-04-30T16:47:35.118Z</time></trkpt><trkpt lat="43.9608813" lon="12.4052078"><ele>156.0</ele><time>2026-04-30T16:47:39.106Z</time></trkpt><trkpt lat="43.9608746" lon="12.4053045"><ele>156.0</ele><time>2026-04-30T16:47:44.119Z</time></trkpt><trkpt lat="43.9608689" lon="12.4054034"><ele>156.0</ele><time>2026-04-30T16:47:48.106Z</time></trkpt><trkpt lat="43.9608537" lon="12.4055106"><ele>156.0</ele><time>2026-04-30T16:47:52.103Z</time></trkpt><trkpt lat="43.9608436" lon="12.4056156"><ele>156.0</ele><time>2026-04-30T16:47:56.088Z</time></trkpt><trkpt lat="43.9608315" lon="12.4057196"><ele>156.0</ele><time>2026-04-30T16:48:01.107Z</time></trkpt><trkpt lat="43.960825" lon="12.4058161"><ele>156.0</ele><time>2026-04-30T16:48:06.113Z</time></trkpt><trkpt lat="43.9608184" lon="12.4059204"><ele>156.0</ele><time>2026-04-30T16:48:11.104Z</time></trkpt><trkpt lat="43.9608023" lon="12.4060128"><ele>157.57142857142858</ele><time>2026-04-30T16:48:15.108Z</time></trkpt><trkpt lat="43.9607997" lon="12.4061163"><ele>159.14285714285714</ele><time>2026-04-30T16:48:19.108Z</time></trkpt><trkpt lat="43.9608059" lon="12.4062167"><ele>160.71428571428572</ele><time>2026-04-30T16:48:22.089Z</time></trkpt><trkpt lat="43.9607973" lon="12.4063106"><ele>162.28571428571428</ele><time>2026-04-30T16:48:25.075Z</time></trkpt><trkpt lat="43.9607681" lon="12.4064135"><ele>163.85714285714286</ele><time>2026-04-30T16:48:29.096Z</time></trkpt><trkpt lat="43.9607455" lon="12.406498"><ele>165.42857142857142</ele><time>2026-04-30T16:48:33.103Z</time></trkpt><trkpt lat="43.9607129" lon="12.4065735"><ele>167.0</ele><time>2026-04-30T16:48:37.102Z</time></trkpt><trkpt lat="43.9606682" lon="12.4066653"><ele>168.0</ele><time>2026-04-30T16:48:42.116Z</time></trkpt><trkpt lat="43.9606345" lon="12.406754"><ele>169.0</ele><time>2026-04-30T16:48:46.112Z</time></trkpt><trkpt lat="43.9606161" lon="12.4068446"><ele>170.0</ele><time>2026-04-30T16:48:50.095Z</time></trkpt><trkpt lat="43.9606149" lon="12.4069366"><ele>171.0</ele><time>2026-04-30T16:48:54.115Z</time></trkpt><trkpt lat="43.9606114" lon="12.4070306"><ele>172.0</ele><time>2026-04-30T16:48:58.105Z</time></trkpt><trkpt lat="43.9606149" lon="12.4071326"><ele>173.0</ele><time>2026-04-30T16:49:02.112Z</time></trkpt><trkpt lat="43.9606221" lon="12.4072227"><ele>174.0</ele><time>2026-04-30T16:49:06.115Z</time></trkpt><trkpt lat="43.9606388" lon="12.4073238"><ele>175.28571428571428</ele><time>2026-04-30T16:49:11.085Z</time></trkpt><trkpt lat="43.9606402" lon="12.4074262"><ele>176.57142857142858</ele><time>2026-04-30T16:49:16.093Z</time></trkpt><trkpt lat="43.960645" lon="12.4075139"><ele>177.85714285714286</ele><time>2026-04-30T16:49:21.108Z</time></trkpt><trkpt lat="43.9606441" lon="12.4076092"><ele>179.14285714285714</ele><time>2026-04-30T16:49:27.112Z</time></trkpt><trkpt lat="43.9606482" lon="12.4077062"><ele>180.42857142857144</ele><time>2026-04-30T16:49:33.087Z</time></trkpt><trkpt lat="43.960656" lon="12.4078081"><ele>181.71428571428572</ele><time>2026-04-30T16:49:38.119Z</time></trkpt><trkpt lat="43.9606674" lon="12.4078997"><ele>183.0</ele><time>2026-04-30T16:49:44.097Z</time></trkpt><trkpt lat="43.960681" lon="12.408001"><ele>184.0</ele><time>2026-04-30T16:49:50.086Z</time></trkpt><trkpt lat="43.9606962" lon="12.4080932"><ele>185.0</ele><time>2026-04-30T16:49:55.113Z</time></trkpt><trkpt lat="43.9607195" lon="12.4081918"><ele>186.0</ele><time>2026-04-30T16:50:01.112Z</time></trkpt><trkpt lat="43.9607383" lon="12.4082855"><ele>187.0</ele><time>2026-04-30T16:50:06.106Z</time></trkpt><trkpt lat="43.9607824" lon="12.4083612"><ele>188.0</ele><time>2026-04-30T16:50:11.105Z</time></trkpt><trkpt lat="43.9608261" lon="12.4084416"><ele>189.0</ele><time>2026-04-30T16:50:16.11Z</time></trkpt><trkpt lat="43.9608632" lon="12.408532"><ele>190.0</ele><time>2026-04-30T16:50:21.119Z</time></trkpt><trkpt lat="43.9609101" lon="12.4086144"><ele>190.0</ele><time>2026-04-30T16:50:26.108Z</time></trkpt><trkpt lat="43.960935" lon="12.4087038"><ele>190.0</ele><time>2026-04-30T16:50:31.094Z</time></trkpt><trkpt lat="43.9609588" lon="12.4087972"><ele>190.0</ele><time>2026-04-30T16:50:37.127Z</time></trkpt><trkpt lat="43.960967" lon="12.4088945"><ele>190.0</ele><time>2026-04-30T16:50:43.108Z</time></trkpt><trkpt lat="43.9609573" lon="12.408988"><ele>190.0</ele><time>2026-04-30T16:50:48.1Z</time></trkpt><trkpt lat="43.9609619" lon="12.4090779"><ele>190.0</ele><time>2026-04-30T16:50:53.108Z</time></trkpt><trkpt lat="43.9609888" lon="12.4091766"><ele>190.0</ele><time>2026-04-30T16:50:58.102Z</time></trkpt><trkpt lat="43.9610093" lon="12.409265"><ele>191.66666666666669</ele><time>2026-04-30T16:51:03.111Z</time></trkpt><trkpt lat="43.9610312" lon="12.4093651"><ele>193.33333333333334</ele><time>2026-04-30T16:51:09.073Z</time></trkpt><trkpt lat="43.9610409" lon="12.4094651"><ele>195.0</ele><time>2026-04-30T16:51:15.098Z</time></trkpt><trkpt lat="43.9610491" lon="12.4095612"><ele>196.66666666666669</ele><time>2026-04-30T16:51:21.057Z</time></trkpt><trkpt lat="43.9610521" lon="12.4096661"><ele>198.33333333333334</ele><time>2026-04-30T16:51:27.114Z</time></trkpt><trkpt lat="43.9610551" lon="12.4097818"><ele>200.0</ele><time>2026-04-30T16:51:32.114Z</time></trkpt><trkpt lat="43.9610579" lon="12.4098883"><ele>200.42857142857144</ele><time>2026-04-30T16:51:37.108Z</time></trkpt><trkpt lat="43.9610471" lon="12.4099912"><ele>200.85714285714286</ele><time>2026-04-30T16:51:42.108Z</time></trkpt><trkpt lat="43.9610263" lon="12.4100845"><ele>201.28571428571428</ele><time>2026-04-30T16:51:46.111Z</time></trkpt><trkpt lat="43.9609944" lon="12.410167"><ele>201.71428571428572</ele><time>2026-04-30T16:51:50.094Z</time></trkpt><trkpt lat="43.9609758" lon="12.4102525"><ele>202.14285714285714</ele><time>2026-04-30T16:51:54.112Z</time></trkpt><trkpt lat="43.960982" lon="12.4103427"><ele>202.57142857142858</ele><time>2026-04-30T16:51:59.093Z</time></trkpt><trkpt lat="43.960974" lon="12.4104328"><ele>203.0</ele><time>2026-04-30T16:52:04.088Z</time></trkpt><trkpt lat="43.9609648" lon="12.4105287"><ele>203.42857142857142</ele><time>2026-04-30T16:52:09.111Z</time></trkpt><trkpt lat="43.9609626" lon="12.4106191"><ele>203.85714285714286</ele><time>2026-04-30T16:52:14.052Z</time></trkpt><trkpt lat="43.9609688" lon="12.4107211"><ele>204.28571428571428</ele><time>2026-04-30T16:52:19.125Z</time></trkpt><trkpt lat="43.9609786" lon="12.4108232"><ele>204.71428571428572</ele><time>2026-04-30T16:52:23.104Z</time></trkpt><trkpt lat="43.9609799" lon="12.410923"><ele>205.14285714285714</ele><time>2026-04-30T16:52:27.11Z</time></trkpt><trkpt lat="43.9609892" lon="12.4110175"><ele>205.57142857142856</ele><time>2026-04-30T16:52:31.113Z</time></trkpt><trkpt lat="43.9609975" lon="12.4111076"><ele>206.0</ele><time>2026-04-30T16:52:35.107Z</time></trkpt><trkpt lat="43.960975" lon="12.4112016"><ele>206.00000000000003</ele><time>2026-04-30T16:52:40.091Z</time></trkpt><trkpt lat="43.9609447" lon="12.4112805"><ele>206.0</ele><time>2026-04-30T16:52:45.084Z</time></trkpt><trkpt lat="43.9609101" lon="12.4113847"><ele>206.0</ele><time>2026-04-30T16:52:49.115Z</time></trkpt><trkpt lat="43.9608649" lon="12.4114942"><ele>206.0</ele><time>2026-04-30T16:52:52.059Z</time></trkpt><trkpt lat="43.9608383" lon="12.4116102"><ele>206.00000000000003</ele><time>2026-04-30T16:52:55.111Z</time></trkpt><trkpt lat="43.9608045" lon="12.4117325"><ele>206.0</ele><time>2026-04-30T16:52:58.083Z</time></trkpt><trkpt lat="43.960784" lon="12.4118159"><ele>208.7142857142857</ele><time>2026-04-30T16:53:00.115Z</time></trkpt><trkpt lat="43.9607658" lon="12.4119196"><ele>211.42857142857144</ele><time>2026-04-30T16:53:03.112Z</time></trkpt><trkpt lat="43.9607549" lon="12.4120083"><ele>214.14285714285717</ele><time>2026-04-30T16:53:06.128Z</time></trkpt><trkpt lat="43.9607504" lon="12.4121047"><ele>216.85714285714286</ele><time>2026-04-30T16:53:09.113Z</time></trkpt><trkpt lat="43.9607539" lon="12.4122052"><ele>219.57142857142858</ele><time>2026-04-30T16:53:12.118Z</time></trkpt><trkpt lat="43.9607486" lon="12.4123085"><ele>222.2857142857143</ele><time>2026-04-30T16:53:15.111Z</time></trkpt><trkpt lat="43.9607505" lon="12.4124145"><ele>225.00000000000003</ele><time>2026-04-30T16:53:18.108Z</time></trkpt><trkpt lat="43.9607475" lon="12.4125384"><ele>225.33333333333334</ele><time>2026-04-30T16:53:21.093Z</time></trkpt><trkpt lat="43.9607383" lon="12.4126296"><ele>225.66666666666669</ele><time>2026-04-30T16:53:23.087Z</time></trkpt><trkpt lat="43.9607218" lon="12.4127492"><ele>226.0</ele><time>2026-04-30T16:53:26.11Z</time></trkpt><trkpt lat="43.9606876" lon="12.4128596"><ele>226.33333333333334</ele><time>2026-04-30T16:53:29.121Z</time></trkpt><trkpt lat="43.9606528" lon="12.4129482"><ele>226.66666666666669</ele><time>2026-04-30T16:53:32.117Z</time></trkpt><trkpt lat="43.9606135" lon="12.4130394"><ele>227.0</ele><time>2026-04-30T16:53:36.105Z</time></trkpt><trkpt lat="43.960578" lon="12.413138"><ele>227.42857142857144</ele><time>2026-04-30T16:53:41.102Z</time></trkpt><trkpt lat="43.9605564" lon="12.4132398"><ele>227.8571428571429</ele><time>2026-04-30T16:53:45.071Z</time></trkpt><trkpt lat="43.9605285" lon="12.4133359"><ele>228.28571428571428</ele><time>2026-04-30T16:53:49.119Z</time></trkpt><trkpt lat="43.9605135" lon="12.4134326"><ele>228.71428571428572</ele><time>2026-04-30T16:53:53.111Z</time></trkpt><trkpt lat="43.9604935" lon="12.413528"><ele>229.14285714285714</ele><time>2026-04-30T16:53:57.104Z</time></trkpt><trkpt lat="43.9604632" lon="12.4136118"><ele>229.57142857142856</ele><time>2026-04-30T16:54:01.118Z</time></trkpt><trkpt lat="43.9604446" lon="12.4137036"><ele>229.99999999999997</ele><time>2026-04-30T16:54:06.117Z</time></trkpt><trkpt lat="43.9604028" lon="12.4137756"><ele>230.85714285714283</ele><time>2026-04-30T16:54:11.125Z</time></trkpt><trkpt lat="43.9603648" lon="12.4138618"><ele>231.71428571428572</ele><time>2026-04-30T16:54:17.107Z</time></trkpt><trkpt lat="43.960343" lon="12.4139526"><ele>232.57142857142856</ele><time>2026-04-30T16:54:23.078Z</time></trkpt><trkpt lat="43.9603158" lon="12.414049"><ele>233.42857142857142</ele><time>2026-04-30T16:54:29.116Z</time></trkpt><trkpt lat="43.9603111" lon="12.4141412"><ele>234.28571428571428</ele><time>2026-04-30T16:54:34.116Z</time></trkpt><trkpt lat="43.9603072" lon="12.4142477"><ele>235.14285714285714</ele><time>2026-04-30T16:54:40.107Z</time></trkpt><trkpt lat="43.9602834" lon="12.4143507"><ele>236.0</ele><time>2026-04-30T16:54:44.112Z</time></trkpt><trkpt lat="43.9602505" lon="12.4144332"><ele>236.0</ele><time>2026-04-30T16:54:48.06Z</time></trkpt><trkpt lat="43.9602121" lon="12.4145216"><ele>236.0</ele><time>2026-04-30T16:54:52.108Z</time></trkpt><trkpt lat="43.9601687" lon="12.4146115"><ele>236.0</ele><time>2026-04-30T16:54:57.046Z</time></trkpt><trkpt lat="43.9601164" lon="12.4146705"><ele>236.0</ele><time>2026-04-30T16:55:03.089Z</time></trkpt><trkpt lat="43.9600589" lon="12.4147312"><ele>236.0</ele><time>2026-04-30T16:55:09.1Z</time></trkpt><trkpt lat="43.9600185" lon="12.4148161"><ele>236.0</ele><time>2026-04-30T16:55:14.099Z</time></trkpt><trkpt lat="43.9599898" lon="12.4149072"><ele>236.0</ele><time>2026-04-30T16:55:19.112Z</time></trkpt><trkpt lat="43.9599787" lon="12.4150063"><ele>239.0</ele><time>2026-04-30T16:55:24.117Z</time></trkpt><trkpt lat="43.9599669" lon="12.4151054"><ele>242.0</ele><time>2026-04-30T16:55:30.06Z</time></trkpt><trkpt lat="43.9599899" lon="12.4152034"><ele>245.0</ele><time>2026-04-30T16:55:36.107Z</time></trkpt><trkpt lat="43.9600115" lon="12.4152886"><ele>248.0</ele><time>2026-04-30T16:55:41.097Z</time></trkpt><trkpt lat="43.9600081" lon="12.4153886"><ele>251.0</ele><time>2026-04-30T16:55:47.127Z</time></trkpt><trkpt lat="43.9600255" lon="12.4154807"><ele>254.0</ele><time>2026-04-30T16:55:53.125Z</time></trkpt><trkpt lat="43.9600483" lon="12.4155702"><ele>257.0</ele><time>2026-04-30T16:55:59.102Z</time></trkpt><trkpt lat="43.960046" lon="12.4156634"><ele>257.2857142857143</ele><time>2026-04-30T16:56:04.123Z</time></trkpt><trkpt lat="43.9600659" lon="12.4157594"><ele>257.57142857142856</ele><time>2026-04-30T16:56:08.111Z</time></trkpt><trkpt lat="43.9600789" lon="12.4158487"><ele>257.8571428571429</ele><time>2026-04-30T16:56:12.129Z</time></trkpt><trkpt lat="43.960089" lon="12.4159431"><ele>258.1428571428571</ele><time>2026-04-30T16:56:17.13Z</time></trkpt><trkpt lat="43.9600979" lon="12.416036"><ele>258.42857142857144</ele><time>2026-04-30T16:56:22.115Z</time></trkpt><trkpt lat="43.9601182" lon="12.416121"><ele>258.7142857142857</ele><time>2026-04-30T16:56:26.119Z</time></trkpt><trkpt lat="43.9601508" lon="12.416207"><ele>259.0</ele><time>2026-04-30T16:56:31.109Z</time></trkpt><trkpt lat="43.9601821" lon="12.4163035"><ele>260.0</ele><time>2026-04-30T16:56:37.114Z</time></trkpt><trkpt lat="43.9602006" lon="12.4163939"><ele>261.0</ele><time>2026-04-30T16:56:42.13Z</time></trkpt><trkpt lat="43.9601959" lon="12.416493"><ele>262.0</ele><time>2026-04-30T16:56:48.103Z</time></trkpt><trkpt lat="43.9601977" lon="12.4165947"><ele>263.0</ele><time>2026-04-30T16:56:53.105Z</time></trkpt><trkpt lat="43.9601674" lon="12.4166762"><ele>264.0</ele><time>2026-04-30T16:56:59.108Z</time></trkpt><trkpt lat="43.9601319" lon="12.4167551"><ele>265.0</ele><time>2026-04-30T16:57:03.112Z</time></trkpt><trkpt lat="43.960101" lon="12.4168393"><ele>266.0</ele><time>2026-04-30T16:57:08.103Z</time></trkpt><trkpt lat="43.9600649" lon="12.416927"><ele>267.42857142857144</ele><time>2026-04-30T16:57:13.125Z</time></trkpt><trkpt lat="43.960022" lon="12.4170172"><ele>268.8571428571429</ele><time>2026-04-30T16:57:18.101Z</time></trkpt><trkpt lat="43.9599715" lon="12.4170957"><ele>270.2857142857143</ele><time>2026-04-30T16:57:23.105Z</time></trkpt><trkpt lat="43.9599283" lon="12.4171617"><ele>271.7142857142857</ele><time>2026-04-30T16:57:27.092Z</time></trkpt><trkpt lat="43.9598824" lon="12.4172313"><ele>273.14285714285717</ele><time>2026-04-30T16:57:31.084Z</time></trkpt><trkpt lat="43.9598307" lon="12.417313"><ele>274.57142857142856</ele><time>2026-04-30T16:57:36.118Z</time></trkpt><trkpt lat="43.959779" lon="12.4173725"><ele>276.0</ele><time>2026-04-30T16:57:41.096Z</time></trkpt><trkpt lat="43.9597141" lon="12.4174212"><ele>276.57142857142856</ele><time>2026-04-30T16:57:46.122Z</time></trkpt><trkpt lat="43.9596584" lon="12.4174777"><ele>277.14285714285717</ele><time>2026-04-30T16:57:51.136Z</time></trkpt><trkpt lat="43.9596106" lon="12.4175675"><ele>277.7142857142857</ele><time>2026-04-30T16:57:56.098Z</time></trkpt><trkpt lat="43.9595721" lon="12.4176521"><ele>278.2857142857143</ele><time>2026-04-30T16:58:00.072Z</time></trkpt><trkpt lat="43.9595375" lon="12.4177326"><ele>278.8571428571429</ele><time>2026-04-30T16:58:04.106Z</time></trkpt><trkpt lat="43.9595117" lon="12.4178153"><ele>279.42857142857144</ele><time>2026-04-30T16:58:08.095Z</time></trkpt><trkpt lat="43.9594866" lon="12.417902"><ele>280.0</ele><time>2026-04-30T16:58:12.104Z</time></trkpt><trkpt lat="43.9594676" lon="12.4179944"><ele>280.0</ele><time>2026-04-30T16:58:16.111Z</time></trkpt><trkpt lat="43.9594206" lon="12.4180859"><ele>280.0</ele><time>2026-04-30T16:58:20.087Z</time></trkpt><trkpt lat="43.9593692" lon="12.4181568"><ele>280.0</ele><time>2026-04-30T16:58:23.066Z</time></trkpt><trkpt lat="43.9593143" lon="12.4182243"><ele>280.0</ele><time>2026-04-30T16:58:26.059Z</time></trkpt><trkpt lat="43.9592579" lon="12.4182972"><ele>280.0</ele><time>2026-04-30T16:58:29.09Z</time></trkpt><trkpt lat="43.9591959" lon="12.418363"><ele>280.0</ele><time>2026-04-30T16:58:32.102Z</time></trkpt><trkpt lat="43.9591418" lon="12.4184161"><ele>280.0</ele><time>2026-04-30T16:58:35.119Z</time></trkpt><trkpt lat="43.9590785" lon="12.4184557"><ele>282.16666666666663</ele><time>2026-04-30T16:58:39.108Z</time></trkpt><trkpt lat="43.9590027" lon="12.4184735"><ele>284.3333333333333</ele><time>2026-04-30T16:58:43.134Z</time></trkpt><trkpt lat="43.9589266" lon="12.4184933"><ele>286.5</ele><time>2026-04-30T16:58:47.107Z</time></trkpt><trkpt lat="43.9588567" lon="12.4185101"><ele>288.6666666666667</ele><time>2026-04-30T16:58:51.105Z</time></trkpt><trkpt lat="43.9587858" lon="12.4185335"><ele>290.83333333333337</ele><time>2026-04-30T16:58:56.125Z</time></trkpt><trkpt lat="43.9587127" lon="12.4185733"><ele>293.0</ele><time>2026-04-30T16:59:01.12Z</time></trkpt><trkpt lat="43.9586397" lon="12.4186128"><ele>292.99999999999994</ele><time>2026-04-30T16:59:05.121Z</time></trkpt><trkpt lat="43.9585647" lon="12.4186361"><ele>293.0</ele><time>2026-04-30T16:59:09.092Z</time></trkpt><trkpt lat="43.9584867" lon="12.4186463"><ele>293.0</ele><time>2026-04-30T16:59:13.108Z</time></trkpt><trkpt lat="43.9584132" lon="12.4186541"><ele>293.0</ele><time>2026-04-30T16:59:17.111Z</time></trkpt><trkpt lat="43.958342" lon="12.4186589"><ele>293.0</ele><time>2026-04-30T16:59:21.101Z</time></trkpt><trkpt lat="43.9582848" lon="12.4187002"><ele>292.99999999999994</ele><time>2026-04-30T16:59:25.08Z</time></trkpt><trkpt lat="43.9582278" lon="12.4187639"><ele>293.0</ele><time>2026-04-30T16:59:29.104Z</time></trkpt><trkpt lat="43.958188" lon="12.4188455"><ele>294.1666666666667</ele><time>2026-04-30T16:59:32.124Z</time></trkpt><trkpt lat="43.9581489" lon="12.4189411"><ele>295.33333333333337</ele><time>2026-04-30T16:59:35.118Z</time></trkpt><trkpt lat="43.9581221" lon="12.4190469"><ele>296.5</ele><time>2026-04-30T16:59:38.122Z</time></trkpt><trkpt lat="43.9580893" lon="12.4191483"><ele>297.6666666666667</ele><time>2026-04-30T16:59:41.106Z</time></trkpt><trkpt lat="43.9580566" lon="12.4192545"><ele>298.8333333333333</ele><time>2026-04-30T16:59:44.134Z</time></trkpt><trkpt lat="43.9580279" lon="12.4193662"><ele>300.0</ele><time>2026-04-30T16:59:47.119Z</time></trkpt><trkpt lat="43.9579999" lon="12.4194777"><ele>300.0</ele><time>2026-04-30T16:59:50.107Z</time></trkpt><trkpt lat="43.9579628" lon="12.4195757"><ele>300.0</ele><time>2026-04-30T16:59:53.079Z</time></trkpt><trkpt lat="43.9579295" lon="12.4196704"><ele>300.0</ele><time>2026-04-30T16:59:56.088Z</time></trkpt><trkpt lat="43.9578809" lon="12.4197715"><ele>300.0</ele><time>2026-04-30T16:59:59.095Z</time></trkpt><trkpt lat="43.9578399" lon="12.4198795"><ele>300.0</ele><time>2026-04-30T17:00:02.083Z</time></trkpt><trkpt lat="43.9578113" lon="12.4199804"><ele>300.0</ele><time>2026-04-30T17:00:05.107Z</time></trkpt><trkpt lat="43.9577906" lon="12.4200999"><ele>299.99999999999994</ele><time>2026-04-30T17:00:08.111Z</time></trkpt><trkpt lat="43.957774" lon="12.4201914"><ele>300.0</ele><time>2026-04-30T17:00:10.111Z</time></trkpt><trkpt lat="43.9577689" lon="12.4202945"><ele>300.0</ele><time>2026-04-30T17:00:12.101Z</time></trkpt><trkpt lat="43.9577664" lon="12.4203898"><ele>300.0</ele><time>2026-04-30T17:00:14.088Z</time></trkpt><trkpt lat="43.95776" lon="12.4204854"><ele>300.0</ele><time>2026-04-30T17:00:16.128Z</time></trkpt><trkpt lat="43.957763" lon="12.4205831"><ele>299.99999999999994</ele><time>2026-04-30T17:00:18.13Z</time></trkpt><trkpt lat="43.9577683" lon="12.4206769"><ele>300.0</ele><time>2026-04-30T17:00:20.131Z</time></trkpt><trkpt lat="43.9577709" lon="12.4208005"><ele>300.5</ele><time>2026-04-30T17:00:23.106Z</time></trkpt><trkpt lat="43.95777" lon="12.4209238"><ele>301.0</ele><time>2026-04-30T17:00:26.111Z</time></trkpt><trkpt lat="43.9577681" lon="12.4210336"><ele>301.5</ele><time>2026-04-30T17:00:29.102Z</time></trkpt><trkpt lat="43.9577615" lon="12.4211463"><ele>302.0</ele><time>2026-04-30T17:00:32.093Z</time></trkpt><trkpt lat="43.9577442" lon="12.4212644"><ele>302.5</ele><time>2026-04-30T17:00:35.099Z</time></trkpt><trkpt lat="43.9577289" lon="12.4213768"><ele>303.0</ele><time>2026-04-30T17:00:38.11Z</time></trkpt><trkpt lat="43.9577106" lon="12.4215052"><ele>303.0</ele><time>2026-04-30T17:00:41.105Z</time></trkpt><trkpt lat="43.9576969" lon="12.4216323"><ele>303.0</ele><time>2026-04-30T17:00:44.081Z</time></trkpt><trkpt lat="43.9576853" lon="12.4217593"><ele>303.0</ele><time>2026-04-30T17:00:47.113Z</time></trkpt><trkpt lat="43.9576639" lon="12.4218792"><ele>303.0</ele><time>2026-04-30T17:00:50.105Z</time></trkpt><trkpt lat="43.9576529" lon="12.4219733"><ele>303.0</ele><time>2026-04-30T17:00:52.128Z</time></trkpt><trkpt lat="43.9576406" lon="12.4220672"><ele>303.0</ele><time>2026-04-30T17:00:54.128Z</time></trkpt><trkpt lat="43.9576273" lon="12.4221581"><ele>303.0</ele><time>2026-04-30T17:00:56.095Z</time></trkpt><trkpt lat="43.9576174" lon="12.4222754"><ele>303.0</ele><time>2026-04-30T17:00:58.118Z</time></trkpt><trkpt lat="43.9575985" lon="12.4223928"><ele>303.0</ele><time>2026-04-30T17:01:00.116Z</time></trkpt><trkpt lat="43.9575999" lon="12.4225373"><ele>303.0</ele><time>2026-04-30T17:01:02.125Z</time></trkpt><trkpt lat="43.9575919" lon="12.4226989"><ele>303.0</ele><time>2026-04-30T17:01:04.082Z</time></trkpt><trkpt lat="43.957583" lon="12.4228728"><ele>303.0</ele><time>2026-04-30T17:01:06.098Z</time></trkpt><trkpt lat="43.9575713" lon="12.4229732"><ele>303.0</ele><time>2026-04-30T17:01:07.115Z</time></trkpt><trkpt lat="43.9575612" lon="12.4230696"><ele>303.0</ele><time>2026-04-30T17:01:08.106Z</time></trkpt><trkpt lat="43.9575492" lon="12.4231728"><ele>303.0</ele><time>2026-04-30T17:01:09.115Z</time></trkpt><trkpt lat="43.9575354" lon="12.4232737"><ele>303.0</ele><time>2026-04-30T17:01:10.106Z</time></trkpt><trkpt lat="43.957516" lon="12.4233757"><ele>303.0</ele><time>2026-04-30T17:01:11.119Z</time></trkpt><trkpt lat="43.9574889" lon="12.4234795"><ele>303.0</ele><time>2026-04-30T17:01:12.11Z</time></trkpt><trkpt lat="43.9574653" lon="12.4235731"><ele>303.6666666666667</ele><time>2026-04-30T17:01:13.061Z</time></trkpt><trkpt lat="43.9574436" lon="12.4236654"><ele>304.3333333333333</ele><time>2026-04-30T17:01:14.107Z</time></trkpt><trkpt lat="43.9574224" lon="12.4237522"><ele>305.0</ele><time>2026-04-30T17:01:15.089Z</time></trkpt><trkpt lat="43.9573988" lon="12.4238446"><ele>305.66666666666663</ele><time>2026-04-30T17:01:16.107Z</time></trkpt><trkpt lat="43.9573692" lon="12.4239354"><ele>306.3333333333333</ele><time>2026-04-30T17:01:17.133Z</time></trkpt><trkpt lat="43.9573479" lon="12.4240238"><ele>307.0</ele><time>2026-04-30T17:01:18.108Z</time></trkpt><trkpt lat="43.9573124" lon="12.4241981"><ele>307.0</ele><time>2026-04-30T17:01:20.097Z</time></trkpt><trkpt lat="43.9572784" lon="12.4243539"><ele>307.0</ele><time>2026-04-30T17:01:22.105Z</time></trkpt><trkpt lat="43.9572471" lon="12.4245001"><ele>307.0</ele><time>2026-04-30T17:01:24.145Z</time></trkpt><trkpt lat="43.9572174" lon="12.4246454"><ele>307.0</ele><time>2026-04-30T17:01:26.108Z</time></trkpt><trkpt lat="43.9571942" lon="12.4247798"><ele>307.0</ele><time>2026-04-30T17:01:28.109Z</time></trkpt><trkpt lat="43.9571686" lon="12.42491"><ele>306.2</ele><time>2026-04-30T17:01:30.102Z</time></trkpt><trkpt lat="43.9571499" lon="12.4250404"><ele>305.4</ele><time>2026-04-30T17:01:32.127Z</time></trkpt><trkpt lat="43.9571292" lon="12.4251763"><ele>304.6</ele><time>2026-04-30T17:01:34.106Z</time></trkpt><trkpt lat="43.95711" lon="12.4253129"><ele>303.8</ele><time>2026-04-30T17:01:36.068Z</time></trkpt><trkpt lat="43.9570872" lon="12.4254552"><ele>303.0</ele><time>2026-04-30T17:01:38.122Z</time></trkpt><trkpt lat="43.9570731" lon="12.4255973"><ele>303.0</ele><time>2026-04-30T17:01:40.095Z</time></trkpt><trkpt lat="43.9570623" lon="12.4257359"><ele>303.0</ele><time>2026-04-30T17:01:42.11Z</time></trkpt><trkpt lat="43.957046" lon="12.4258788"><ele>303.0</ele><time>2026-04-30T17:01:44.111Z</time></trkpt><trkpt lat="43.9570424" lon="12.4260244"><ele>303.0</ele><time>2026-04-30T17:01:46.069Z</time></trkpt><trkpt lat="43.9570629" lon="12.4261909"><ele>303.0</ele><time>2026-04-30T17:01:48.135Z</time></trkpt><trkpt lat="43.957116" lon="12.4263259"><ele>304.1666666666667</ele><time>2026-04-30T17:01:50.126Z</time></trkpt><trkpt lat="43.9571672" lon="12.4264562"><ele>305.3333333333333</ele><time>2026-04-30T17:01:52.118Z</time></trkpt><trkpt lat="43.9572272" lon="12.4265688"><ele>306.5</ele><time>2026-04-30T17:01:54.122Z</time></trkpt><trkpt lat="43.9572728" lon="12.4266722"><ele>307.66666666666663</ele><time>2026-04-30T17:01:56.088Z</time></trkpt><trkpt lat="43.9573221" lon="12.4267546"><ele>308.8333333333333</ele><time>2026-04-30T17:01:58.115Z</time></trkpt><trkpt lat="43.957361" lon="12.426832"><ele>310.0</ele><time>2026-04-30T17:02:00.12Z</time></trkpt><trkpt lat="43.9574153" lon="12.4269278"><ele>310.0</ele><time>2026-04-30T17:02:03.12Z</time></trkpt><trkpt lat="43.9574767" lon="12.4270157"><ele>310.0</ele><time>2026-04-30T17:02:06.075Z</time></trkpt><trkpt lat="43.9575434" lon="12.4270754"><ele>310.0</ele><time>2026-04-30T17:02:09.103Z</time></trkpt><trkpt lat="43.9576123" lon="12.4271157"><ele>310.0</ele><time>2026-04-30T17:02:12.103Z</time></trkpt><trkpt lat="43.9576883" lon="12.4271151"><ele>310.0</ele><time>2026-04-30T17:02:15.109Z</time></trkpt><trkpt lat="43.9577591" lon="12.4271011"><ele>310.0</ele><time>2026-04-30T17:02:18.063Z</time></trkpt><trkpt lat="43.9578344" lon="12.4270769"><ele>311.16666666666663</ele><time>2026-04-30T17:02:21.11Z</time></trkpt><trkpt lat="43.9579102" lon="12.4270348"><ele>312.3333333333333</ele><time>2026-04-30T17:02:24.112Z</time></trkpt><trkpt lat="43.9579866" lon="12.4269869"><ele>313.5</ele><time>2026-04-30T17:02:27.108Z</time></trkpt><trkpt lat="43.9580653" lon="12.42694"><ele>314.6666666666667</ele><time>2026-04-30T17:02:30.115Z</time></trkpt><trkpt lat="43.9581415" lon="12.4268881"><ele>315.83333333333337</ele><time>2026-04-30T17:02:33.111Z</time></trkpt><trkpt lat="43.9582063" lon="12.4268512"><ele>317.0</ele><time>2026-04-30T17:02:36.097Z</time></trkpt><trkpt lat="43.9582827" lon="12.4267985"><ele>317.0</ele><time>2026-04-30T17:02:39.095Z</time></trkpt><trkpt lat="43.9583584" lon="12.4267688"><ele>317.0</ele><time>2026-04-30T17:02:42.124Z</time></trkpt><trkpt lat="43.9584306" lon="12.4267884"><ele>317.0</ele><time>2026-04-30T17:02:45.113Z</time></trkpt><trkpt lat="43.9584879" lon="12.42686"><ele>317.0</ele><time>2026-04-30T17:02:48.117Z</time></trkpt><trkpt lat="43.9584862" lon="12.4269657"><ele>317.0</ele><time>2026-04-30T17:02:51.099Z</time></trkpt><trkpt lat="43.9584294" lon="12.4270352"><ele>317.0</ele><time>2026-04-30T17:02:54.08Z</time></trkpt><trkpt lat="43.9583594" lon="12.4270759"><ele>317.0</ele><time>2026-04-30T17:02:57.074Z</time></trkpt><trkpt lat="43.9582775" lon="12.4271102"><ele>317.0</ele><time>2026-04-30T17:03:00.111Z</time></trkpt><trkpt lat="43.9582147" lon="12.4271781"><ele>317.0</ele><time>2026-04-30T17:03:03.106Z</time></trkpt><trkpt lat="43.9581862" lon="12.4272774"><ele>317.0</ele><time>2026-04-30T17:03:06.078Z</time></trkpt><trkpt lat="43.9581913" lon="12.4273764"><ele>317.0</ele><time>2026-04-30T17:03:09.123Z</time></trkpt><trkpt lat="43.9582289" lon="12.4274553"><ele>317.0</ele><time>2026-04-30T17:03:12.089Z</time></trkpt><trkpt lat="43.9582973" lon="12.4274857"><ele>319.0</ele><time>2026-04-30T17:03:15.108Z</time></trkpt><trkpt lat="43.9583797" lon="12.4274833"><ele>321.0</ele><time>2026-04-30T17:03:18.111Z</time></trkpt><trkpt lat="43.9584495" lon="12.4274566"><ele>323.0</ele><time>2026-04-30T17:03:21.111Z</time></trkpt><trkpt lat="43.9585302" lon="12.4274204"><ele>325.0</ele><time>2026-04-30T17:03:24.095Z</time></trkpt><trkpt lat="43.95861" lon="12.4273828"><ele>327.0</ele><time>2026-04-30T17:03:27.103Z</time></trkpt><trkpt lat="43.9586872" lon="12.427348"><ele>329.0</ele><time>2026-04-30T17:03:30.098Z</time></trkpt><trkpt lat="43.958764" lon="12.4273375"><ele>329.0</ele><time>2026-04-30T17:03:33.122Z</time></trkpt><trkpt lat="43.9588504" lon="12.4273388"><ele>329.0</ele><time>2026-04-30T17:03:36.123Z</time></trkpt><trkpt lat="43.9589153" lon="12.4273426"><ele>329.0</ele><time>2026-04-30T17:03:38.115Z</time></trkpt><trkpt lat="43.9590017" lon="12.4273551"><ele>329.0</ele><time>2026-04-30T17:03:41.124Z</time></trkpt><trkpt lat="43.9590882" lon="12.4273767"><ele>329.0</ele><time>2026-04-30T17:03:44.097Z</time></trkpt><trkpt lat="43.9591666" lon="12.4274204"><ele>329.0</ele><time>2026-04-30T17:03:47.102Z</time></trkpt><trkpt lat="43.9592378" lon="12.4274857"><ele>328.83333333333337</ele><time>2026-04-30T17:03:50.104Z</time></trkpt><trkpt lat="43.9593081" lon="12.4275453"><ele>328.6666666666667</ele><time>2026-04-30T17:03:53.077Z</time></trkpt><trkpt lat="43.9593597" lon="12.4276368"><ele>328.5</ele><time>2026-04-30T17:03:56.117Z</time></trkpt><trkpt lat="43.9594075" lon="12.4277374"><ele>328.3333333333333</ele><time>2026-04-30T17:03:59.123Z</time></trkpt><trkpt lat="43.9594503" lon="12.4278337"><ele>328.16666666666663</ele><time>2026-04-30T17:04:02.112Z</time></trkpt><trkpt lat="43.9594868" lon="12.4279301"><ele>328.0</ele><time>2026-04-30T17:04:05.133Z</time></trkpt><trkpt lat="43.9595111" lon="12.4280313"><ele>328.0</ele><time>2026-04-30T17:04:08.114Z</time></trkpt><trkpt lat="43.9595457" lon="12.4281347"><ele>328.0</ele><time>2026-04-30T17:04:11.101Z</time></trkpt><trkpt lat="43.9595732" lon="12.4282423"><ele>328.0</ele><time>2026-04-30T17:04:14.114Z</time></trkpt><trkpt lat="43.9595956" lon="12.4283548"><ele>328.0</ele><time>2026-04-30T17:04:17.095Z</time></trkpt><trkpt lat="43.9596285" lon="12.4284706"><ele>328.0</ele><time>2026-04-30T17:04:20.13Z</time></trkpt><trkpt lat="43.9596511" lon="12.4285875"><ele>328.0</ele><time>2026-04-30T17:04:23.09Z</time></trkpt><trkpt lat="43.959672" lon="12.4287008"><ele>329.5</ele><time>2026-04-30T17:04:26.101Z</time></trkpt><trkpt lat="43.9596925" lon="12.4288165"><ele>331.0</ele><time>2026-04-30T17:04:29.08Z</time></trkpt><trkpt lat="43.9597142" lon="12.4289003"><ele>332.5</ele><time>2026-04-30T17:04:31.107Z</time></trkpt><trkpt lat="43.9597401" lon="12.429016"><ele>334.0</ele><time>2026-04-30T17:04:34.099Z</time></trkpt><trkpt lat="43.9597574" lon="12.4291032"><ele>335.5</ele><time>2026-04-30T17:04:37.12Z</time></trkpt><trkpt lat="43.9597419" lon="12.4292127"><ele>337.0</ele><time>2026-04-30T17:04:41.094Z</time></trkpt><trkpt lat="43.9596882" lon="12.4292719"><ele>337.0</ele><time>2026-04-30T17:04:44.074Z</time></trkpt><trkpt lat="43.9596082" lon="12.429288"><ele>337.0</ele><time>2026-04-30T17:04:48.108Z</time></trkpt><trkpt lat="43.9595466" lon="12.4292692"><ele>337.0</ele><time>2026-04-30T17:04:51.107Z</time></trkpt><trkpt lat="43.9595026" lon="12.4291835"><ele>337.0</ele><time>2026-04-30T17:04:54.106Z</time></trkpt><trkpt lat="43.9594702" lon="12.429086"><ele>337.0</ele><time>2026-04-30T17:04:57.103Z</time></trkpt><trkpt lat="43.9594356" lon="12.4289925"><ele>337.0</ele><time>2026-04-30T17:05:00.109Z</time></trkpt><trkpt lat="43.9593988" lon="12.4288875"><ele>337.66666666666663</ele><time>2026-04-30T17:05:03.123Z</time></trkpt><trkpt lat="43.9593627" lon="12.4287812"><ele>338.3333333333333</ele><time>2026-04-30T17:05:06.087Z</time></trkpt><trkpt lat="43.9593272" lon="12.4286793"><ele>339.0</ele><time>2026-04-30T17:05:09.111Z</time></trkpt><trkpt lat="43.9592899" lon="12.4285988"><ele>339.6666666666667</ele><time>2026-04-30T17:05:11.129Z</time></trkpt><trkpt lat="43.9592578" lon="12.4285223"><ele>340.33333333333337</ele><time>2026-04-30T17:05:13.116Z</time></trkpt><trkpt lat="43.9592" lon="12.4284265"><ele>341.0</ele><time>2026-04-30T17:05:16.098Z</time></trkpt><trkpt lat="43.9591285" lon="12.4283556"><ele>341.0</ele><time>2026-04-30T17:05:19.123Z</time></trkpt><trkpt lat="43.9590677" lon="12.4283238"><ele>341.0</ele><time>2026-04-30T17:05:21.123Z</time></trkpt><trkpt lat="43.9589768" lon="12.4283011"><ele>341.0</ele><time>2026-04-30T17:05:24.124Z</time></trkpt><trkpt lat="43.9588933" lon="12.4283132"><ele>341.0</ele><time>2026-04-30T17:05:27.081Z</time></trkpt><trkpt lat="43.9588218" lon="12.4283683"><ele>341.0</ele><time>2026-04-30T17:05:30.107Z</time></trkpt><trkpt lat="43.9587592" lon="12.4284485"><ele>341.0</ele><time>2026-04-30T17:05:33.116Z</time></trkpt><trkpt lat="43.9587305" lon="12.4285406"><ele>341.0</ele><time>2026-04-30T17:05:36.088Z</time></trkpt><trkpt lat="43.9587405" lon="12.4286533"><ele>341.0</ele><time>2026-04-30T17:05:39.112Z</time></trkpt><trkpt lat="43.9587885" lon="12.4287476"><ele>341.0</ele><time>2026-04-30T17:05:42.123Z</time></trkpt><trkpt lat="43.9588457" lon="12.4288418"><ele>341.0</ele><time>2026-04-30T17:05:45.107Z</time></trkpt><trkpt lat="43.9589093" lon="12.4289353"><ele>341.0</ele><time>2026-04-30T17:05:48.054Z</time></trkpt><trkpt lat="43.9589542" lon="12.4289969"><ele>341.0</ele><time>2026-04-30T17:05:50.113Z</time></trkpt><trkpt lat="43.9589988" lon="12.429069"><ele>341.6666666666667</ele><time>2026-04-30T17:05:52.146Z</time></trkpt><trkpt lat="43.9590398" lon="12.4291821"><ele>342.33333333333337</ele><time>2026-04-30T17:05:55.109Z</time></trkpt><trkpt lat="43.9590676" lon="12.4293024"><ele>343.0</ele><time>2026-04-30T17:05:58.12Z</time></trkpt><trkpt lat="43.9590773" lon="12.4294243"><ele>343.6666666666667</ele><time>2026-04-30T17:06:01.115Z</time></trkpt><trkpt lat="43.9590713" lon="12.4295386"><ele>344.3333333333333</ele><time>2026-04-30T17:06:04.089Z</time></trkpt><trkpt lat="43.9590707" lon="12.4296432"><ele>345.0</ele><time>2026-04-30T17:06:07.104Z</time></trkpt><trkpt lat="43.9590567" lon="12.4297359"><ele>346.42857142857144</ele><time>2026-04-30T17:06:10.129Z</time></trkpt><trkpt lat="43.9590426" lon="12.4298229"><ele>347.85714285714283</ele><time>2026-04-30T17:06:13.108Z</time></trkpt><trkpt lat="43.959015" lon="12.4299222"><ele>349.2857142857143</ele><time>2026-04-30T17:06:17.101Z</time></trkpt><trkpt lat="43.9590113" lon="12.4300152"><ele>350.7142857142857</ele><time>2026-04-30T17:06:21.103Z</time></trkpt><trkpt lat="43.9590302" lon="12.4301164"><ele>352.14285714285717</ele><time>2026-04-30T17:06:26.11Z</time></trkpt><trkpt lat="43.9590714" lon="12.4301981"><ele>353.57142857142856</ele><time>2026-04-30T17:06:32.091Z</time></trkpt><trkpt lat="43.9591015" lon="12.4302915"><ele>355.0</ele><time>2026-04-30T17:06:37.102Z</time></trkpt><trkpt lat="43.9591375" lon="12.4303792"><ele>355.0</ele><time>2026-04-30T17:06:43.113Z</time></trkpt><trkpt lat="43.9591789" lon="12.4304648"><ele>355.0</ele><time>2026-04-30T17:06:47.081Z</time></trkpt><trkpt lat="43.9592265" lon="12.4305403"><ele>355.0</ele><time>2026-04-30T17:06:50.101Z</time></trkpt><trkpt lat="43.9592684" lon="12.4306136"><ele>355.0</ele><time>2026-04-30T17:06:53.111Z</time></trkpt><trkpt lat="43.9593235" lon="12.4307059"><ele>355.0</ele><time>2026-04-30T17:06:56.071Z</time></trkpt><trkpt lat="43.9593728" lon="12.4307843"><ele>355.0</ele><time>2026-04-30T17:06:59.098Z</time></trkpt><trkpt lat="43.9594221" lon="12.4308627"><ele>355.42857142857144</ele><time>2026-04-30T17:07:02.125Z</time></trkpt><trkpt lat="43.9594658" lon="12.4309397"><ele>355.8571428571429</ele><time>2026-04-30T17:07:06.112Z</time></trkpt><trkpt lat="43.9594858" lon="12.4310305"><ele>356.28571428571433</ele><time>2026-04-30T17:07:12.116Z</time></trkpt><trkpt lat="43.9594339" lon="12.4310892"><ele>356.7142857142857</ele><time>2026-04-30T17:07:17.054Z</time></trkpt><trkpt lat="43.9593653" lon="12.4311266"><ele>357.14285714285717</ele><time>2026-04-30T17:07:21.093Z</time></trkpt><trkpt lat="43.9593027" lon="12.4311703"><ele>357.5714285714286</ele><time>2026-04-30T17:07:25.117Z</time></trkpt><trkpt lat="43.9592323" lon="12.4311973"><ele>358.0</ele><time>2026-04-30T17:07:30.127Z</time></trkpt><trkpt lat="43.959163" lon="12.4312338"><ele>359.28571428571433</ele><time>2026-04-30T17:07:35.103Z</time></trkpt><trkpt lat="43.959104" lon="12.4312688"><ele>360.57142857142856</ele><time>2026-04-30T17:07:40.109Z</time></trkpt><trkpt lat="43.959036" lon="12.4312973"><ele>361.8571428571429</ele><time>2026-04-30T17:07:45.118Z</time></trkpt><trkpt lat="43.9589754" lon="12.4313258"><ele>363.14285714285717</ele><time>2026-04-30T17:07:50.104Z</time></trkpt><trkpt lat="43.9589131" lon="12.4313661"><ele>364.42857142857144</ele><time>2026-04-30T17:07:55.096Z</time></trkpt><trkpt lat="43.9588474" lon="12.4313838"><ele>365.7142857142857</ele><time>2026-04-30T17:08:00.108Z</time></trkpt><trkpt lat="43.958782" lon="12.4314517"><ele>367.0</ele><time>2026-04-30T17:08:05.112Z</time></trkpt><trkpt lat="43.9587161" lon="12.4315028"><ele>367.8333333333333</ele><time>2026-04-30T17:08:09.102Z</time></trkpt><trkpt lat="43.9586587" lon="12.4315794"><ele>368.66666666666663</ele><time>2026-04-30T17:08:13.123Z</time></trkpt><trkpt lat="43.9586044" lon="12.4316593"><ele>369.5</ele><time>2026-04-30T17:08:17.093Z</time></trkpt><trkpt lat="43.9585479" lon="12.4317416"><ele>370.3333333333333</ele><time>2026-04-30T17:08:21.098Z</time></trkpt><trkpt lat="43.9584978" lon="12.4318282"><ele>371.1666666666667</ele><time>2026-04-30T17:08:25.09Z</time></trkpt><trkpt lat="43.9584553" lon="12.4318947"><ele>372.0</ele><time>2026-04-30T17:08:28.086Z</time></trkpt><trkpt lat="43.9584061" lon="12.4319754"><ele>372.3333333333333</ele><time>2026-04-30T17:08:32.103Z</time></trkpt><trkpt lat="43.9583494" lon="12.4320632"><ele>372.6666666666667</ele><time>2026-04-30T17:08:36.108Z</time></trkpt><trkpt lat="43.9583029" lon="12.4321527"><ele>373.0</ele><time>2026-04-30T17:08:40.124Z</time></trkpt><trkpt lat="43.9582894" lon="12.4322545"><ele>373.33333333333337</ele><time>2026-04-30T17:08:44.112Z</time></trkpt><trkpt lat="43.9582933" lon="12.432363"><ele>373.6666666666667</ele><time>2026-04-30T17:08:48.129Z</time></trkpt><trkpt lat="43.9582935" lon="12.4324573"><ele>374.0</ele><time>2026-04-30T17:08:52.109Z</time></trkpt><trkpt lat="43.9582937" lon="12.4325524"><ele>374.85714285714283</ele><time>2026-04-30T17:08:56.115Z</time></trkpt><trkpt lat="43.9582992" lon="12.4326525"><ele>375.7142857142857</ele><time>2026-04-30T17:09:00.106Z</time></trkpt><trkpt lat="43.9583058" lon="12.4327544"><ele>376.57142857142856</ele><time>2026-04-30T17:09:05.112Z</time></trkpt><trkpt lat="43.9583209" lon="12.4328571"><ele>377.42857142857144</ele><time>2026-04-30T17:09:10.12Z</time></trkpt><trkpt lat="43.9583424" lon="12.4329562"><ele>378.28571428571433</ele><time>2026-04-30T17:09:16.112Z</time></trkpt><trkpt lat="43.9583723" lon="12.4330417"><ele>379.14285714285717</ele><time>2026-04-30T17:09:20.103Z</time></trkpt><trkpt lat="43.9584025" lon="12.4331266"><ele>380.0</ele><time>2026-04-30T17:09:25.108Z</time></trkpt><trkpt lat="43.95843" lon="12.4332076"><ele>380.8571428571429</ele><time>2026-04-30T17:09:30.11Z</time></trkpt><trkpt lat="43.9584565" lon="12.4332879"><ele>381.7142857142857</ele><time>2026-04-30T17:09:35.117Z</time></trkpt><trkpt lat="43.9584865" lon="12.4333739"><ele>382.57142857142856</ele><time>2026-04-30T17:09:40.097Z</time></trkpt><trkpt lat="43.9585209" lon="12.4334566"><ele>383.42857142857144</ele><time>2026-04-30T17:09:45.111Z</time></trkpt><trkpt lat="43.9585479" lon="12.4335515"><ele>384.2857142857143</ele><time>2026-04-30T17:09:50.108Z</time></trkpt><trkpt lat="43.9585757" lon="12.433643"><ele>385.14285714285717</ele><time>2026-04-30T17:09:55.114Z</time></trkpt><trkpt lat="43.9586032" lon="12.4337283"><ele>386.0</ele><time>2026-04-30T17:10:00.095Z</time></trkpt><trkpt lat="43.9586382" lon="12.4338222"><ele>386.14285714285717</ele><time>2026-04-30T17:10:05.103Z</time></trkpt><trkpt lat="43.9586559" lon="12.4339073"><ele>386.2857142857143</ele><time>2026-04-30T17:10:09.12Z</time></trkpt><trkpt lat="43.9586698" lon="12.4339966"><ele>386.42857142857144</ele><time>2026-04-30T17:10:13.109Z</time></trkpt><trkpt lat="43.9586625" lon="12.4340924"><ele>386.57142857142856</ele><time>2026-04-30T17:10:18.136Z</time></trkpt><trkpt lat="43.9586456" lon="12.434182"><ele>386.7142857142857</ele><time>2026-04-30T17:10:23.076Z</time></trkpt><trkpt lat="43.9586136" lon="12.4342743"><ele>386.8571428571429</ele><time>2026-04-30T17:10:28.078Z</time></trkpt><trkpt lat="43.9585769" lon="12.4343555"><ele>387.0</ele><time>2026-04-30T17:10:33.125Z</time></trkpt><trkpt lat="43.9585272" lon="12.4344281"><ele>387.0</ele><time>2026-04-30T17:10:37.063Z</time></trkpt><trkpt lat="43.9584701" lon="12.4344884"><ele>387.0</ele><time>2026-04-30T17:10:41.091Z</time></trkpt><trkpt lat="43.9584073" lon="12.4345601"><ele>387.0</ele><time>2026-04-30T17:10:45.093Z</time></trkpt><trkpt lat="43.9583544" lon="12.4346314"><ele>387.0</ele><time>2026-04-30T17:10:49.082Z</time></trkpt><trkpt lat="43.958299" lon="12.434703"><ele>387.0</ele><time>2026-04-30T17:10:53.111Z</time></trkpt><trkpt lat="43.9582455" lon="12.434775"><ele>387.0</ele><time>2026-04-30T17:10:57.118Z</time></trkpt><trkpt lat="43.9581908" lon="12.4348233"><ele>387.0</ele><time>2026-04-30T17:11:00.068Z</time></trkpt><trkpt lat="43.9581255" lon="12.4348863"><ele>389.1666666666667</ele><time>2026-04-30T17:11:03.12Z</time></trkpt><trkpt lat="43.9580588" lon="12.4349778"><ele>391.33333333333337</ele><time>2026-04-30T17:11:06.08Z</time></trkpt><trkpt lat="43.958005" lon="12.435033"><ele>393.5</ele><time>2026-04-30T17:11:08.128Z</time></trkpt><trkpt lat="43.9579474" lon="12.43511"><ele>395.6666666666667</ele><time>2026-04-30T17:11:10.08Z</time></trkpt><trkpt lat="43.9578859" lon="12.4352071"><ele>397.83333333333337</ele><time>2026-04-30T17:11:12.117Z</time></trkpt><trkpt lat="43.957795" lon="12.4352958"><ele>400.0</ele><time>2026-04-30T17:11:14.112Z</time></trkpt><trkpt lat="43.9577046" lon="12.4353742"><ele>400.00000000000006</ele><time>2026-04-30T17:11:16.098Z</time></trkpt><trkpt lat="43.9576396" lon="12.4354095"><ele>400.0</ele><time>2026-04-30T17:11:17.13Z</time></trkpt><trkpt lat="43.957584" lon="12.4354511"><ele>400.0</ele><time>2026-04-30T17:11:18.112Z</time></trkpt><trkpt lat="43.957531" lon="12.4354987"><ele>400.0</ele><time>2026-04-30T17:11:19.107Z</time></trkpt><trkpt lat="43.9574385" lon="12.435612"><ele>400.00000000000006</ele><time>2026-04-30T17:11:21.089Z</time></trkpt><trkpt lat="43.9573922" lon="12.4357579"><ele>400.0</ele><time>2026-04-30T17:11:23.121Z</time></trkpt><trkpt lat="43.9573858" lon="12.4358538"><ele>400.00000000000006</ele><time>2026-04-30T17:11:24.118Z</time></trkpt><trkpt lat="43.9573805" lon="12.435949"><ele>400.0</ele><time>2026-04-30T17:11:25.125Z</time></trkpt><trkpt lat="43.9573701" lon="12.4360636"><ele>400.0</ele><time>2026-04-30T17:11:26.091Z</time></trkpt><trkpt lat="43.9573546" lon="12.436175"><ele>400.0</ele><time>2026-04-30T17:11:27.104Z</time></trkpt><trkpt lat="43.9573429" lon="12.4362959"><ele>400.00000000000006</ele><time>2026-04-30T17:11:28.107Z</time></trkpt><trkpt lat="43.9573251" lon="12.4364128"><ele>400.0</ele><time>2026-04-30T17:11:29.104Z</time></trkpt><trkpt lat="43.9573057" lon="12.4365341"><ele>398.50000000000006</ele><time>2026-04-30T17:11:30.116Z</time></trkpt><trkpt lat="43.9572737" lon="12.4366451"><ele>397.0</ele><time>2026-04-30T17:11:31.108Z</time></trkpt><trkpt lat="43.9572358" lon="12.4367394"><ele>395.5</ele><time>2026-04-30T17:11:32.121Z</time></trkpt><trkpt lat="43.9572001" lon="12.4368225"><ele>394.0</ele><time>2026-04-30T17:11:33.108Z</time></trkpt><trkpt lat="43.9571477" lon="12.4369547"><ele>392.50000000000006</ele><time>2026-04-30T17:11:35.112Z</time></trkpt><trkpt lat="43.9571472" lon="12.4370435"><ele>391.0</ele><time>2026-04-30T17:11:39.054Z</time></trkpt><trkpt lat="43.9572091" lon="12.4370126"><ele>391.00000000000006</ele><time>2026-04-30T17:11:42.064Z</time></trkpt><trkpt lat="43.9572369" lon="12.4369195"><ele>391.0</ele><time>2026-04-30T17:11:44.071Z</time></trkpt><trkpt lat="43.9572976" lon="12.4367995"><ele>391.0</ele><time>2026-04-30T17:11:46.11Z</time></trkpt><trkpt lat="43.9573563" lon="12.4367029"><ele>391.0</ele><time>2026-04-30T17:11:48.072Z</time></trkpt><trkpt lat="43.9574017" lon="12.4366014"><ele>391.00000000000006</ele><time>2026-04-30T17:11:50.096Z</time></trkpt><trkpt lat="43.9574569" lon="12.43651"><ele>391.0</ele><time>2026-04-30T17:11:52.086Z</time></trkpt><trkpt lat="43.957541" lon="12.4364285"><ele>391.4</ele><time>2026-04-30T17:11:54.067Z</time></trkpt><trkpt lat="43.9576279" lon="12.4363509"><ele>391.8</ele><time>2026-04-30T17:11:56.1Z</time></trkpt><trkpt lat="43.9577407" lon="12.4362975"><ele>392.2</ele><time>2026-04-30T17:11:58.116Z</time></trkpt><trkpt lat="43.9578656" lon="12.4362728"><ele>392.59999999999997</ele><time>2026-04-30T17:12:00.102Z</time></trkpt><trkpt lat="43.957937" lon="12.4362701"><ele>393.0</ele><time>2026-04-30T17:12:01.117Z</time></trkpt><trkpt lat="43.9580029" lon="12.4362653"><ele>393.0</ele><time>2026-04-30T17:12:02.073Z</time></trkpt><trkpt lat="43.9580786" lon="12.4362574"><ele>393.0</ele><time>2026-04-30T17:12:03.097Z</time></trkpt><trkpt lat="43.9581546" lon="12.4362601"><ele>393.0</ele><time>2026-04-30T17:12:04.114Z</time></trkpt><trkpt lat="43.9582287" lon="12.4362551"><ele>393.0</ele><time>2026-04-30T17:12:05.108Z</time></trkpt><trkpt lat="43.958304" lon="12.4362444"><ele>393.0</ele><time>2026-04-30T17:12:06.102Z</time></trkpt><trkpt lat="43.9583781" lon="12.4362285"><ele>393.0</ele><time>2026-04-30T17:12:07.115Z</time></trkpt><trkpt lat="43.9584516" lon="12.4362021"><ele>391.1666666666667</ele><time>2026-04-30T17:12:08.095Z</time></trkpt><trkpt lat="43.958524" lon="12.4361587"><ele>389.3333333333333</ele><time>2026-04-30T17:12:09.099Z</time></trkpt><trkpt lat="43.9586056" lon="12.4361084"><ele>387.5</ele><time>2026-04-30T17:12:10.095Z</time></trkpt><trkpt lat="43.9586834" lon="12.4360469"><ele>385.66666666666663</ele><time>2026-04-30T17:12:11.108Z</time></trkpt><trkpt lat="43.95876" lon="12.4359805"><ele>383.8333333333333</ele><time>2026-04-30T17:12:12.108Z</time></trkpt><trkpt lat="43.9588338" lon="12.4359163"><ele>382.0</ele><time>2026-04-30T17:12:13.109Z</time></trkpt><trkpt lat="43.9589173" lon="12.435872"><ele>382.0</ele><time>2026-04-30T17:12:14.112Z</time></trkpt><trkpt lat="43.9589927" lon="12.4358666"><ele>382.0</ele><time>2026-04-30T17:12:15.118Z</time></trkpt><trkpt lat="43.9590618" lon="12.4359128"><ele>382.0</ele><time>2026-04-30T17:12:16.143Z</time></trkpt><trkpt lat="43.9590993" lon="12.4360099"><ele>382.0</ele><time>2026-04-30T17:12:17.135Z</time></trkpt><trkpt lat="43.9591198" lon="12.4361509"><ele>382.0</ele><time>2026-04-30T17:12:18.121Z</time></trkpt><trkpt lat="43.9591141" lon="12.4362812"><ele>382.0</ele><time>2026-04-30T17:12:19.103Z</time></trkpt><trkpt lat="43.9590869" lon="12.4364096"><ele>380.0</ele><time>2026-04-30T17:12:20.117Z</time></trkpt><trkpt lat="43.9590444" lon="12.4365297"><ele>378.0</ele><time>2026-04-30T17:12:21.111Z</time></trkpt><trkpt lat="43.9589955" lon="12.4366392"><ele>376.0</ele><time>2026-04-30T17:12:22.075Z</time></trkpt><trkpt lat="43.9589501" lon="12.4367559"><ele>374.0</ele><time>2026-04-30T17:12:23.119Z</time></trkpt><trkpt lat="43.9589097" lon="12.4368782"><ele>372.0</ele><time>2026-04-30T17:12:24.093Z</time></trkpt><trkpt lat="43.9588762" lon="12.4370119"><ele>369.75</ele><time>2026-04-30T17:12:25.108Z</time></trkpt><trkpt lat="43.9588587" lon="12.4371523"><ele>367.5</ele><time>2026-04-30T17:12:26.104Z</time></trkpt><trkpt lat="43.958863" lon="12.437316"><ele>365.25</ele><time>2026-04-30T17:12:27.106Z</time></trkpt><trkpt lat="43.958893" lon="12.4374696"><ele>363.0</ele><time>2026-04-30T17:12:28.115Z</time></trkpt><trkpt lat="43.9589412" lon="12.4376371"><ele>363.0</ele><time>2026-04-30T17:12:29.089Z</time></trkpt><trkpt lat="43.9590142" lon="12.4377697"><ele>363.0</ele><time>2026-04-30T17:12:30.096Z</time></trkpt><trkpt lat="43.9591091" lon="12.437893"><ele>363.0</ele><time>2026-04-30T17:12:31.074Z</time></trkpt><trkpt lat="43.9592082" lon="12.4380152"><ele>363.0</ele><time>2026-04-30T17:12:32.108Z</time></trkpt><trkpt lat="43.9593139" lon="12.4381263"><ele>359.75</ele><time>2026-04-30T17:12:33.073Z</time></trkpt><trkpt lat="43.9594313" lon="12.4382406"><ele>356.5</ele><time>2026-04-30T17:12:34.048Z</time></trkpt><trkpt lat="43.959549" lon="12.4383468"><ele>353.25</ele><time>2026-04-30T17:12:35.048Z</time></trkpt><trkpt lat="43.959672" lon="12.4384469"><ele>350.0</ele><time>2026-04-30T17:12:36.061Z</time></trkpt><trkpt lat="43.9598051" lon="12.4385307"><ele>350.0</ele><time>2026-04-30T17:12:37.069Z</time></trkpt><trkpt lat="43.9599465" lon="12.4386141"><ele>350.0</ele><time>2026-04-30T17:12:38.063Z</time></trkpt><trkpt lat="43.9600873" lon="12.4386757"><ele>350.0</ele><time>2026-04-30T17:12:39.046Z</time></trkpt><trkpt lat="43.9602283" lon="12.4387304"><ele>350.0</ele><time>2026-04-30T17:12:40.054Z</time></trkpt><trkpt lat="43.9603696" lon="12.4387917"><ele>344.0</ele><time>2026-04-30T17:12:41.048Z</time></trkpt><trkpt lat="43.9604998" lon="12.4388737"><ele>338.0</ele><time>2026-04-30T17:12:42.068Z</time></trkpt><trkpt lat="43.9606332" lon="12.4389728"><ele>332.0</ele><time>2026-04-30T17:12:43.047Z</time></trkpt><trkpt lat="43.9607723" lon="12.4390772"><ele>326.33333333333337</ele><time>2026-04-30T17:12:44.076Z</time></trkpt><trkpt lat="43.9609057" lon="12.4391668"><ele>320.6666666666667</ele><time>2026-04-30T17:12:45.077Z</time></trkpt><trkpt lat="43.9610496" lon="12.4392534"><ele>315.0</ele><time>2026-04-30T17:12:46.056Z</time></trkpt><trkpt lat="43.9611993" lon="12.4393277"><ele>315.0</ele><time>2026-04-30T17:12:47.052Z</time></trkpt><trkpt lat="43.9613482" lon="12.4393941"><ele>315.0</ele><time>2026-04-30T17:12:48.071Z</time></trkpt><trkpt lat="43.9614907" lon="12.4394743"><ele>315.0</ele><time>2026-04-30T17:12:49.043Z</time></trkpt><trkpt lat="43.9616228" lon="12.4395684"><ele>314.0</ele><time>2026-04-30T17:12:50.072Z</time></trkpt><trkpt lat="43.9617532" lon="12.4396689"><ele>313.0</ele><time>2026-04-30T17:12:51.071Z</time></trkpt><trkpt lat="43.9618779" lon="12.4397646"><ele>312.0</ele><time>2026-04-30T17:12:52.072Z</time></trkpt><trkpt lat="43.9619937" lon="12.4398665"><ele>311.0</ele><time>2026-04-30T17:12:53.064Z</time></trkpt><trkpt lat="43.9621127" lon="12.4399513"><ele>311.0</ele><time>2026-04-30T17:12:54.064Z</time></trkpt><trkpt lat="43.9622301" lon="12.4400443"><ele>311.0</ele><time>2026-04-30T17:12:55.067Z</time></trkpt><trkpt lat="43.9623473" lon="12.4401395"><ele>311.0</ele><time>2026-04-30T17:12:56.06Z</time></trkpt><trkpt lat="43.9624621" lon="12.4402184"><ele>311.0</ele><time>2026-04-30T17:12:57.074Z</time></trkpt><trkpt lat="43.9625827" lon="12.4402714"><ele>311.25</ele><time>2026-04-30T17:12:58.069Z</time></trkpt><trkpt lat="43.962708" lon="12.4402775"><ele>311.5</ele><time>2026-04-30T17:12:59.068Z</time></trkpt><trkpt lat="43.9628212" lon="12.4402541"><ele>311.75</ele><time>2026-04-30T17:13:00.069Z</time></trkpt><trkpt lat="43.9629305" lon="12.4402168"><ele>312.0</ele><time>2026-04-30T17:13:01.05Z</time></trkpt><trkpt lat="43.9630374" lon="12.4401893"><ele>312.0</ele><time>2026-04-30T17:13:02.061Z</time></trkpt><trkpt lat="43.9631474" lon="12.4401695"><ele>312.0</ele><time>2026-04-30T17:13:03.044Z</time></trkpt><trkpt lat="43.9632608" lon="12.4401662"><ele>312.0</ele><time>2026-04-30T17:13:04.06Z</time></trkpt><trkpt lat="43.9633657" lon="12.4401567"><ele>312.0</ele><time>2026-04-30T17:13:05.056Z</time></trkpt><trkpt lat="43.9634742" lon="12.4401367"><ele>312.0</ele><time>2026-04-30T17:13:06.102Z</time></trkpt><trkpt lat="43.9635827" lon="12.4401092"><ele>310.6</ele><time>2026-04-30T17:13:07.102Z</time></trkpt><trkpt lat="43.9636932" lon="12.4400688"><ele>309.2</ele><time>2026-04-30T17:13:08.114Z</time></trkpt><trkpt lat="43.9638003" lon="12.4400469"><ele>307.8</ele><time>2026-04-30T17:13:09.101Z</time></trkpt><trkpt lat="43.963911" lon="12.4400361"><ele>306.4</ele><time>2026-04-30T17:13:10.095Z</time></trkpt><trkpt lat="43.9640244" lon="12.4400569"><ele>305.0</ele><time>2026-04-30T17:13:11.079Z</time></trkpt><trkpt lat="43.964132" lon="12.440093"><ele>303.5</ele><time>2026-04-30T17:13:12.084Z</time></trkpt><trkpt lat="43.9642449" lon="12.4401368"><ele>302.0</ele><time>2026-04-30T17:13:13.109Z</time></trkpt><trkpt lat="43.9643488" lon="12.4401717"><ele>300.5</ele><time>2026-04-30T17:13:14.116Z</time></trkpt><trkpt lat="43.9644585" lon="12.4402185"><ele>299.0</ele><time>2026-04-30T17:13:15.103Z</time></trkpt><trkpt lat="43.9645716" lon="12.4402602"><ele>299.0</ele><time>2026-04-30T17:13:16.075Z</time></trkpt><trkpt lat="43.9646818" lon="12.4403057"><ele>299.0</ele><time>2026-04-30T17:13:17.108Z</time></trkpt><trkpt lat="43.9647925" lon="12.4403442"><ele>299.0</ele><time>2026-04-30T17:13:18.091Z</time></trkpt><trkpt lat="43.9648998" lon="12.4403942"><ele>299.0</ele><time>2026-04-30T17:13:19.064Z</time></trkpt><trkpt lat="43.9650112" lon="12.4404496"><ele>299.0</ele><time>2026-04-30T17:13:20.076Z</time></trkpt><trkpt lat="43.9651234" lon="12.440497"><ele>299.0</ele><time>2026-04-30T17:13:21.11Z</time></trkpt><trkpt lat="43.9652357" lon="12.4405411"><ele>299.0</ele><time>2026-04-30T17:13:22.119Z</time></trkpt><trkpt lat="43.9653474" lon="12.4405911"><ele>299.0</ele><time>2026-04-30T17:13:23.123Z</time></trkpt><trkpt lat="43.9654456" lon="12.4406689"><ele>299.0</ele><time>2026-04-30T17:13:24.1Z</time></trkpt><trkpt lat="43.9655419" lon="12.440771"><ele>299.0</ele><time>2026-04-30T17:13:25.12Z</time></trkpt><trkpt lat="43.9656294" lon="12.440871"><ele>299.0</ele><time>2026-04-30T17:13:26.108Z</time></trkpt><trkpt lat="43.9657137" lon="12.4409736"><ele>299.0</ele><time>2026-04-30T17:13:27.105Z</time></trkpt><trkpt lat="43.9657996" lon="12.441077"><ele>299.5</ele><time>2026-04-30T17:13:28.104Z</time></trkpt><trkpt lat="43.9658785" lon="12.4411756"><ele>300.0</ele><time>2026-04-30T17:13:29.099Z</time></trkpt><trkpt lat="43.9659521" lon="12.4412697"><ele>300.5</ele><time>2026-04-30T17:13:30.115Z</time></trkpt><trkpt lat="43.9660114" lon="12.4413645"><ele>301.0</ele><time>2026-04-30T17:13:31.109Z</time></trkpt><trkpt lat="43.9660455" lon="12.4414627"><ele>301.5</ele><time>2026-04-30T17:13:32.134Z</time></trkpt><trkpt lat="43.9660503" lon="12.4415631"><ele>302.0</ele><time>2026-04-30T17:13:33.11Z</time></trkpt><trkpt lat="43.9660079" lon="12.4416479"><ele>301.0</ele><time>2026-04-30T17:13:34.078Z</time></trkpt><trkpt lat="43.9659183" lon="12.4416649"><ele>300.0</ele><time>2026-04-30T17:13:35.104Z</time></trkpt><trkpt lat="43.9658355" lon="12.4416535"><ele>299.0</ele><time>2026-04-30T17:13:36.116Z</time></trkpt><trkpt lat="43.965753" lon="12.441612"><ele>298.0</ele><time>2026-04-30T17:13:37.112Z</time></trkpt><trkpt lat="43.9656754" lon="12.4415651"><ele>297.0</ele><time>2026-04-30T17:13:38.127Z</time></trkpt><trkpt lat="43.9656013" lon="12.4415083"><ele>296.0</ele><time>2026-04-30T17:13:39.108Z</time></trkpt><trkpt lat="43.9655281" lon="12.4414613"><ele>294.83333333333337</ele><time>2026-04-30T17:13:40.09Z</time></trkpt><trkpt lat="43.965454" lon="12.4414222"><ele>293.6666666666667</ele><time>2026-04-30T17:13:41.09Z</time></trkpt><trkpt lat="43.9653828" lon="12.441409"><ele>292.5</ele><time>2026-04-30T17:13:42.138Z</time></trkpt><trkpt lat="43.96532" lon="12.4414486"><ele>291.3333333333333</ele><time>2026-04-30T17:13:43.118Z</time></trkpt><trkpt lat="43.9652752" lon="12.4415443"><ele>290.16666666666663</ele><time>2026-04-30T17:13:44.063Z</time></trkpt><trkpt lat="43.9652935" lon="12.4416633"><ele>289.0</ele><time>2026-04-30T17:13:45.114Z</time></trkpt><trkpt lat="43.9653504" lon="12.4417484"><ele>289.0</ele><time>2026-04-30T17:13:46.137Z</time></trkpt><trkpt lat="43.9654081" lon="12.4418351"><ele>289.0</ele><time>2026-04-30T17:13:47.131Z</time></trkpt><trkpt lat="43.9654647" lon="12.4419139"><ele>289.0</ele><time>2026-04-30T17:13:48.115Z</time></trkpt><trkpt lat="43.965525" lon="12.4419936"><ele>289.0</ele><time>2026-04-30T17:13:49.096Z</time></trkpt><trkpt lat="43.9655911" lon="12.4420818"><ele>289.0</ele><time>2026-04-30T17:13:50.067Z</time></trkpt><trkpt lat="43.9656523" lon="12.4421661"><ele>289.0</ele><time>2026-04-30T17:13:51.12Z</time></trkpt><trkpt lat="43.9657202" lon="12.4422567"><ele>288.0</ele><time>2026-04-30T17:13:52.108Z</time></trkpt><trkpt lat="43.9657918" lon="12.4423396"><ele>287.0</ele><time>2026-04-30T17:13:53.12Z</time></trkpt><trkpt lat="43.9658542" lon="12.4424316"><ele>286.0</ele><time>2026-04-30T17:13:54.129Z</time></trkpt><trkpt lat="43.9659272" lon="12.4425188"><ele>285.0</ele><time>2026-04-30T17:13:55.117Z</time></trkpt><trkpt lat="43.9660005" lon="12.4426058"><ele>284.0</ele><time>2026-04-30T17:13:56.097Z</time></trkpt><trkpt lat="43.9660719" lon="12.4426986"><ele>284.0</ele><time>2026-04-30T17:13:57.086Z</time></trkpt><trkpt lat="43.9661424" lon="12.4427984"><ele>284.0</ele><time>2026-04-30T17:13:58.101Z</time></trkpt><trkpt lat="43.9662176" lon="12.4428965"><ele>284.0</ele><time>2026-04-30T17:13:59.094Z</time></trkpt><trkpt lat="43.9662899" lon="12.4429976"><ele>284.0</ele><time>2026-04-30T17:14:00.124Z</time></trkpt><trkpt lat="43.9663703" lon="12.4430974"><ele>284.0</ele><time>2026-04-30T17:14:01.117Z</time></trkpt><trkpt lat="43.966443" lon="12.4431999"><ele>282.2</ele><time>2026-04-30T17:14:02.11Z</time></trkpt><trkpt lat="43.9665142" lon="12.4433027"><ele>280.4</ele><time>2026-04-30T17:14:03.099Z</time></trkpt><trkpt lat="43.9665824" lon="12.4434247"><ele>278.6</ele><time>2026-04-30T17:14:04.115Z</time></trkpt><trkpt lat="43.9666338" lon="12.443565"><ele>276.8</ele><time>2026-04-30T17:14:05.124Z</time></trkpt><trkpt lat="43.9666731" lon="12.4437092"><ele>275.0</ele><time>2026-04-30T17:14:06.125Z</time></trkpt><trkpt lat="43.9666859" lon="12.4438758"><ele>273.0</ele><time>2026-04-30T17:14:07.065Z</time></trkpt><trkpt lat="43.9666843" lon="12.444034"><ele>271.0</ele><time>2026-04-30T17:14:08.121Z</time></trkpt><trkpt lat="43.9666702" lon="12.4442018"><ele>269.0</ele><time>2026-04-30T17:14:09.124Z</time></trkpt><trkpt lat="43.9666516" lon="12.4443648"><ele>267.0</ele><time>2026-04-30T17:14:10.122Z</time></trkpt><trkpt lat="43.9666358" lon="12.4445213"><ele>266.5</ele><time>2026-04-30T17:14:11.118Z</time></trkpt><trkpt lat="43.966613" lon="12.4446828"><ele>266.0</ele><time>2026-04-30T17:14:12.097Z</time></trkpt><trkpt lat="43.9665878" lon="12.4448354"><ele>265.5</ele><time>2026-04-30T17:14:13.111Z</time></trkpt><trkpt lat="43.9665616" lon="12.4449869"><ele>265.0</ele><time>2026-04-30T17:14:14.116Z</time></trkpt><trkpt lat="43.9665444" lon="12.4451484"><ele>265.0</ele><time>2026-04-30T17:14:15.122Z</time></trkpt><trkpt lat="43.9665245" lon="12.4453149"><ele>265.0</ele><time>2026-04-30T17:14:16.112Z</time></trkpt><trkpt lat="43.9665064" lon="12.4454737"><ele>265.0</ele><time>2026-04-30T17:14:17.111Z</time></trkpt><trkpt lat="43.966485" lon="12.4456324"><ele>265.0</ele><time>2026-04-30T17:14:18.119Z</time></trkpt><trkpt lat="43.9664673" lon="12.4457984"><ele>263.75</ele><time>2026-04-30T17:14:19.116Z</time></trkpt><trkpt lat="43.966454" lon="12.4459584"><ele>262.5</ele><time>2026-04-30T17:14:20.125Z</time></trkpt><trkpt lat="43.9664424" lon="12.4461225"><ele>261.25</ele><time>2026-04-30T17:14:21.108Z</time></trkpt><trkpt lat="43.9664294" lon="12.4462853"><ele>260.0</ele><time>2026-04-30T17:14:22.12Z</time></trkpt><trkpt lat="43.9664247" lon="12.4464414"><ele>258.8</ele><time>2026-04-30T17:14:23.114Z</time></trkpt><trkpt lat="43.966423" lon="12.4465921"><ele>257.6</ele><time>2026-04-30T17:14:24.133Z</time></trkpt><trkpt lat="43.9664227" lon="12.4467394"><ele>256.4</ele><time>2026-04-30T17:14:25.126Z</time></trkpt><trkpt lat="43.9664246" lon="12.4468955"><ele>255.2</ele><time>2026-04-30T17:14:26.122Z</time></trkpt><trkpt lat="43.966425" lon="12.4470492"><ele>254.0</ele><time>2026-04-30T17:14:27.126Z</time></trkpt><trkpt lat="43.966431" lon="12.4471969"><ele>253.39999999999998</ele><time>2026-04-30T17:14:28.123Z</time></trkpt><trkpt lat="43.9664409" lon="12.4473465"><ele>252.79999999999998</ele><time>2026-04-30T17:14:29.122Z</time></trkpt><trkpt lat="43.9664566" lon="12.4474873"><ele>252.20000000000002</ele><time>2026-04-30T17:14:30.111Z</time></trkpt><trkpt lat="43.9664793" lon="12.4476276"><ele>251.60000000000002</ele><time>2026-04-30T17:14:31.116Z</time></trkpt><trkpt lat="43.9665212" lon="12.4477598"><ele>251.0</ele><time>2026-04-30T17:14:32.115Z</time></trkpt><trkpt lat="43.9665714" lon="12.4478802"><ele>251.20000000000002</ele><time>2026-04-30T17:14:33.099Z</time></trkpt><trkpt lat="43.9666406" lon="12.447995"><ele>251.40000000000003</ele><time>2026-04-30T17:14:34.104Z</time></trkpt><trkpt lat="43.9667141" lon="12.4480894"><ele>251.6</ele><time>2026-04-30T17:14:35.116Z</time></trkpt><trkpt lat="43.9667915" lon="12.4481695"><ele>251.8</ele><time>2026-04-30T17:14:36.059Z</time></trkpt><trkpt lat="43.966868" lon="12.4482449"><ele>252.0</ele><time>2026-04-30T17:14:37.089Z</time></trkpt><trkpt lat="43.9669552" lon="12.4483111"><ele>250.8</ele><time>2026-04-30T17:14:38.115Z</time></trkpt><trkpt lat="43.9670415" lon="12.4483774"><ele>249.6</ele><time>2026-04-30T17:14:39.126Z</time></trkpt><trkpt lat="43.9671317" lon="12.4484333"><ele>248.40000000000003</ele><time>2026-04-30T17:14:40.111Z</time></trkpt><trkpt lat="43.9672216" lon="12.448486"><ele>247.20000000000002</ele><time>2026-04-30T17:14:41.125Z</time></trkpt><trkpt lat="43.9673131" lon="12.4485248"><ele>246.0</ele><time>2026-04-30T17:14:42.124Z</time></trkpt><trkpt lat="43.9674049" lon="12.4485691"><ele>246.0</ele><time>2026-04-30T17:14:43.11Z</time></trkpt><trkpt lat="43.9675001" lon="12.4486079"><ele>246.00000000000003</ele><time>2026-04-30T17:14:44.118Z</time></trkpt><trkpt lat="43.967596" lon="12.44865"><ele>246.00000000000003</ele><time>2026-04-30T17:14:45.1Z</time></trkpt><trkpt lat="43.9676912" lon="12.4486913"><ele>246.0</ele><time>2026-04-30T17:14:46.11Z</time></trkpt><trkpt lat="43.9677928" lon="12.4487345"><ele>246.0</ele><time>2026-04-30T17:14:47.11Z</time></trkpt><trkpt lat="43.9678892" lon="12.4487784"><ele>245.60000000000002</ele><time>2026-04-30T17:14:48.111Z</time></trkpt><trkpt lat="43.9679859" lon="12.4488209"><ele>245.20000000000002</ele><time>2026-04-30T17:14:49.12Z</time></trkpt><trkpt lat="43.9680808" lon="12.4488655"><ele>244.79999999999998</ele><time>2026-04-30T17:14:50.127Z</time></trkpt><trkpt lat="43.9681802" lon="12.4489161"><ele>244.39999999999998</ele><time>2026-04-30T17:14:51.119Z</time></trkpt><trkpt lat="43.9682779" lon="12.4489729"><ele>244.0</ele><time>2026-04-30T17:14:52.121Z</time></trkpt><trkpt lat="43.9683756" lon="12.4490291"><ele>242.79999999999998</ele><time>2026-04-30T17:14:53.113Z</time></trkpt><trkpt lat="43.9684735" lon="12.4490773"><ele>241.59999999999997</ele><time>2026-04-30T17:14:54.085Z</time></trkpt><trkpt lat="43.9685689" lon="12.4491177"><ele>240.4</ele><time>2026-04-30T17:14:55.13Z</time></trkpt><trkpt lat="43.968661" lon="12.4491642"><ele>239.2</ele><time>2026-04-30T17:14:56.116Z</time></trkpt><trkpt lat="43.9687494" lon="12.4492077"><ele>238.0</ele><time>2026-04-30T17:14:57.117Z</time></trkpt><trkpt lat="43.9688448" lon="12.4492481"><ele>238.0</ele><time>2026-04-30T17:14:58.115Z</time></trkpt><trkpt lat="43.9689399" lon="12.4492894"><ele>238.0</ele><time>2026-04-30T17:14:59.118Z</time></trkpt><trkpt lat="43.9690387" lon="12.4493306"><ele>238.0</ele><time>2026-04-30T17:15:00.074Z</time></trkpt><trkpt lat="43.9691281" lon="12.4493788"><ele>238.0</ele><time>2026-04-30T17:15:01.081Z</time></trkpt><trkpt lat="43.9692173" lon="12.4494264"><ele>238.0</ele><time>2026-04-30T17:15:02.125Z</time></trkpt><trkpt lat="43.9693047" lon="12.4494748"><ele>237.8</ele><time>2026-04-30T17:15:03.065Z</time></trkpt><trkpt lat="43.9693927" lon="12.4495224"><ele>237.60000000000002</ele><time>2026-04-30T17:15:04.098Z</time></trkpt><trkpt lat="43.9694769" lon="12.4495698"><ele>237.39999999999998</ele><time>2026-04-30T17:15:05.128Z</time></trkpt><trkpt lat="43.9695614" lon="12.4496144"><ele>237.2</ele><time>2026-04-30T17:15:06.126Z</time></trkpt><trkpt lat="43.9696463" lon="12.4496572"><ele>237.0</ele><time>2026-04-30T17:15:07.121Z</time></trkpt><trkpt lat="43.9697323" lon="12.4496963"><ele>237.0</ele><time>2026-04-30T17:15:08.119Z</time></trkpt><trkpt lat="43.9698197" lon="12.4497309"><ele>237.0</ele><time>2026-04-30T17:15:09.126Z</time></trkpt><trkpt lat="43.9699082" lon="12.4497692"><ele>237.0</ele><time>2026-04-30T17:15:10.115Z</time></trkpt><trkpt lat="43.9700018" lon="12.4498049"><ele>237.0</ele><time>2026-04-30T17:15:11.094Z</time></trkpt><trkpt lat="43.9700913" lon="12.4498401"><ele>237.0</ele><time>2026-04-30T17:15:12.084Z</time></trkpt><trkpt lat="43.970186" lon="12.4498862"><ele>235.39999999999998</ele><time>2026-04-30T17:15:13.114Z</time></trkpt><trkpt lat="43.9702698" lon="12.4499269"><ele>233.79999999999998</ele><time>2026-04-30T17:15:14.113Z</time></trkpt><trkpt lat="43.970358" lon="12.449967"><ele>232.2</ele><time>2026-04-30T17:15:15.135Z</time></trkpt><trkpt lat="43.9704439" lon="12.4500096"><ele>230.6</ele><time>2026-04-30T17:15:16.108Z</time></trkpt><trkpt lat="43.9705279" lon="12.4500485"><ele>229.0</ele><time>2026-04-30T17:15:17.114Z</time></trkpt><trkpt lat="43.9706134" lon="12.4500904"><ele>229.0</ele><time>2026-04-30T17:15:18.071Z</time></trkpt><trkpt lat="43.9707012" lon="12.4501377"><ele>228.99999999999997</ele><time>2026-04-30T17:15:19.122Z</time></trkpt><trkpt lat="43.9707854" lon="12.4501931"><ele>228.99999999999997</ele><time>2026-04-30T17:15:20.105Z</time></trkpt><trkpt lat="43.970868" lon="12.4502433"><ele>229.0</ele><time>2026-04-30T17:15:21.123Z</time></trkpt><trkpt lat="43.9709474" lon="12.4503081"><ele>229.0</ele><time>2026-04-30T17:15:22.124Z</time></trkpt><trkpt lat="43.9710258" lon="12.4503775"><ele>228.83333333333331</ele><time>2026-04-30T17:15:23.11Z</time></trkpt><trkpt lat="43.9711024" lon="12.4504428"><ele>228.66666666666666</ele><time>2026-04-30T17:15:24.112Z</time></trkpt><trkpt lat="43.9711749" lon="12.4505137"><ele>228.5</ele><time>2026-04-30T17:15:25.081Z</time></trkpt><trkpt lat="43.9712507" lon="12.4505761"><ele>228.33333333333331</ele><time>2026-04-30T17:15:26.085Z</time></trkpt><trkpt lat="43.9713166" lon="12.4506401"><ele>228.16666666666666</ele><time>2026-04-30T17:15:27.121Z</time></trkpt><trkpt lat="43.9713851" lon="12.4506989"><ele>228.0</ele><time>2026-04-30T17:15:28.076Z</time></trkpt><trkpt lat="43.9714564" lon="12.4507561"><ele>228.0</ele><time>2026-04-30T17:15:29.086Z</time></trkpt><trkpt lat="43.9715278" lon="12.4508184"><ele>228.0</ele><time>2026-04-30T17:15:30.091Z</time></trkpt><trkpt lat="43.9715912" lon="12.4508777"><ele>228.0</ele><time>2026-04-30T17:15:31.099Z</time></trkpt><trkpt lat="43.971656" lon="12.4509297"><ele>228.0</ele><time>2026-04-30T17:15:32.102Z</time></trkpt><trkpt lat="43.9717169" lon="12.450983"><ele>228.0</ele><time>2026-04-30T17:15:33.111Z</time></trkpt><trkpt lat="43.9717732" lon="12.4510366"><ele>228.0</ele><time>2026-04-30T17:15:34.098Z</time></trkpt><trkpt lat="43.9718349" lon="12.4510952"><ele>228.16666666666666</ele><time>2026-04-30T17:15:35.11Z</time></trkpt><trkpt lat="43.9718903" lon="12.4511553"><ele>228.33333333333331</ele><time>2026-04-30T17:15:36.118Z</time></trkpt><trkpt lat="43.9719457" lon="12.4512219"><ele>228.5</ele><time>2026-04-30T17:15:37.058Z</time></trkpt><trkpt lat="43.9719989" lon="12.4512826"><ele>228.66666666666666</ele><time>2026-04-30T17:15:38.099Z</time></trkpt><trkpt lat="43.9720475" lon="12.451348"><ele>228.83333333333331</ele><time>2026-04-30T17:15:39.099Z</time></trkpt><trkpt lat="43.9720957" lon="12.4514045"><ele>229.0</ele><time>2026-04-30T17:15:40.099Z</time></trkpt><trkpt lat="43.9721891" lon="12.4515275"><ele>229.0</ele><time>2026-04-30T17:15:42.124Z</time></trkpt><trkpt lat="43.9722739" lon="12.4516511"><ele>229.0</ele><time>2026-04-30T17:15:44.11Z</time></trkpt><trkpt lat="43.9723608" lon="12.4517741"><ele>229.0</ele><time>2026-04-30T17:15:46.104Z</time></trkpt><trkpt lat="43.9724433" lon="12.4519032"><ele>229.0</ele><time>2026-04-30T17:15:48.112Z</time></trkpt><trkpt lat="43.9724169" lon="12.4520179"><ele>228.99999999999997</ele><time>2026-04-30T17:15:50.109Z</time></trkpt><trkpt lat="43.972341" lon="12.4520634"><ele>229.0</ele><time>2026-04-30T17:15:53.082Z</time></trkpt><trkpt lat="43.9722611" lon="12.4520867"><ele>229.0</ele><time>2026-04-30T17:15:56.114Z</time></trkpt><trkpt lat="43.9721693" lon="12.4520868"><ele>229.0</ele><time>2026-04-30T17:15:59.091Z</time></trkpt><trkpt lat="43.9720855" lon="12.452076"><ele>228.99999999999997</ele><time>2026-04-30T17:16:02.095Z</time></trkpt><trkpt lat="43.9720117" lon="12.4520796"><ele>229.0</ele><time>2026-04-30T17:16:05.065Z</time></trkpt><trkpt lat="43.9719441" lon="12.4520971"><ele>230.14285714285714</ele><time>2026-04-30T17:16:08.054Z</time></trkpt><trkpt lat="43.9718787" lon="12.452145"><ele>231.28571428571428</ele><time>2026-04-30T17:16:11.048Z</time></trkpt><trkpt lat="43.9718595" lon="12.452248"><ele>232.42857142857142</ele><time>2026-04-30T17:16:14.051Z</time></trkpt><trkpt lat="43.9718786" lon="12.4523362"><ele>233.57142857142856</ele><time>2026-04-30T17:16:17.114Z</time></trkpt><trkpt lat="43.9719299" lon="12.4524089"><ele>234.71428571428572</ele><time>2026-04-30T17:16:20.101Z</time></trkpt><trkpt lat="43.9720053" lon="12.4524703"><ele>235.85714285714283</ele><time>2026-04-30T17:16:23.096Z</time></trkpt><trkpt lat="43.9720681" lon="12.4525073"><ele>236.99999999999997</ele><time>2026-04-30T17:16:25.093Z</time></trkpt><trkpt lat="43.9721401" lon="12.4525452"><ele>237.0</ele><time>2026-04-30T17:16:27.122Z</time></trkpt><trkpt lat="43.9722159" lon="12.4525888"><ele>237.0</ele><time>2026-04-30T17:16:29.115Z</time></trkpt><trkpt lat="43.9722987" lon="12.4526381"><ele>237.0</ele><time>2026-04-30T17:16:31.103Z</time></trkpt><trkpt lat="43.9723792" lon="12.4526836"><ele>237.0</ele><time>2026-04-30T17:16:33.108Z</time></trkpt><trkpt lat="43.9724682" lon="12.4527338"><ele>237.0</ele><time>2026-04-30T17:16:35.106Z</time></trkpt><trkpt lat="43.9725637" lon="12.4527992"><ele>235.0</ele><time>2026-04-30T17:16:37.123Z</time></trkpt><trkpt lat="43.9726178" lon="12.4528448"><ele>233.0</ele><time>2026-04-30T17:16:38.111Z</time></trkpt><trkpt lat="43.972701" lon="12.4529569"><ele>231.0</ele><time>2026-04-30T17:16:40.101Z</time></trkpt><trkpt lat="43.9727448" lon="12.4530911"><ele>229.0</ele><time>2026-04-30T17:16:42.088Z</time></trkpt><trkpt lat="43.9727538" lon="12.4532544"><ele>227.0</ele><time>2026-04-30T17:16:44.131Z</time></trkpt><trkpt lat="43.9727373" lon="12.4533964"><ele>226.6</ele><time>2026-04-30T17:16:46.123Z</time></trkpt><trkpt lat="43.9726997" lon="12.4535249"><ele>226.2</ele><time>2026-04-30T17:16:48.151Z</time></trkpt><trkpt lat="43.9726562" lon="12.4536462"><ele>225.8</ele><time>2026-04-30T17:16:50.132Z</time></trkpt><trkpt lat="43.9726142" lon="12.4537784"><ele>225.4</ele><time>2026-04-30T17:16:52.112Z</time></trkpt><trkpt lat="43.9725611" lon="12.4539309"><ele>225.0</ele><time>2026-04-30T17:16:54.136Z</time></trkpt><trkpt lat="43.9725012" lon="12.4540941"><ele>225.8571428571429</ele><time>2026-04-30T17:16:56.115Z</time></trkpt><trkpt lat="43.9724748" lon="12.4541797"><ele>226.71428571428572</ele><time>2026-04-30T17:16:57.107Z</time></trkpt><trkpt lat="43.9724495" lon="12.4542664"><ele>227.57142857142858</ele><time>2026-04-30T17:16:58.126Z</time></trkpt><trkpt lat="43.9724342" lon="12.4543679"><ele>228.42857142857144</ele><time>2026-04-30T17:16:59.112Z</time></trkpt><trkpt lat="43.9724303" lon="12.4544652"><ele>229.28571428571428</ele><time>2026-04-30T17:17:00.102Z</time></trkpt><trkpt lat="43.9724306" lon="12.4545612"><ele>230.14285714285714</ele><time>2026-04-30T17:17:01.114Z</time></trkpt><trkpt lat="43.9724371" lon="12.4546691"><ele>231.0</ele><time>2026-04-30T17:17:02.114Z</time></trkpt><trkpt lat="43.9724603" lon="12.4547713"><ele>231.0</ele><time>2026-04-30T17:17:03.117Z</time></trkpt><trkpt lat="43.9724878" lon="12.4548729"><ele>231.0</ele><time>2026-04-30T17:17:04.112Z</time></trkpt><trkpt lat="43.9725151" lon="12.4549719"><ele>231.0</ele><time>2026-04-30T17:17:05.118Z</time></trkpt><trkpt lat="43.9725487" lon="12.4550717"><ele>231.0</ele><time>2026-04-30T17:17:06.098Z</time></trkpt><trkpt lat="43.972586" lon="12.4551761"><ele>231.0</ele><time>2026-04-30T17:17:07.107Z</time></trkpt><trkpt lat="43.9726308" lon="12.4552737"><ele>231.0</ele><time>2026-04-30T17:17:08.077Z</time></trkpt><trkpt lat="43.9726699" lon="12.4553799"><ele>229.33333333333334</ele><time>2026-04-30T17:17:09.104Z</time></trkpt><trkpt lat="43.972709" lon="12.4554847"><ele>227.66666666666669</ele><time>2026-04-30T17:17:10.12Z</time></trkpt><trkpt lat="43.9727488" lon="12.4555792"><ele>226.0</ele><time>2026-04-30T17:17:11.13Z</time></trkpt><trkpt lat="43.9727836" lon="12.4556885"><ele>224.33333333333334</ele><time>2026-04-30T17:17:12.11Z</time></trkpt><trkpt lat="43.9728118" lon="12.4557908"><ele>222.66666666666669</ele><time>2026-04-30T17:17:13.062Z</time></trkpt><trkpt lat="43.9728376" lon="12.4558956"><ele>221.0</ele><time>2026-04-30T17:17:14.123Z</time></trkpt><trkpt lat="43.972849" lon="12.4560078"><ele>221.00000000000003</ele><time>2026-04-30T17:17:15.112Z</time></trkpt><trkpt lat="43.9728565" lon="12.4561254"><ele>221.0</ele><time>2026-04-30T17:17:16.1Z</time></trkpt><trkpt lat="43.9728573" lon="12.4562491"><ele>221.0</ele><time>2026-04-30T17:17:17.113Z</time></trkpt><trkpt lat="43.9728434" lon="12.456371"><ele>221.0</ele><time>2026-04-30T17:17:18.115Z</time></trkpt><trkpt lat="43.9728263" lon="12.4564925"><ele>221.00000000000003</ele><time>2026-04-30T17:17:19.09Z</time></trkpt><trkpt lat="43.9728061" lon="12.4566101"><ele>221.0</ele><time>2026-04-30T17:17:20.068Z</time></trkpt><trkpt lat="43.972785" lon="12.4567288"><ele>220.60000000000002</ele><time>2026-04-30T17:17:21.108Z</time></trkpt><trkpt lat="43.9727629" lon="12.4568526"><ele>220.20000000000002</ele><time>2026-04-30T17:17:22.108Z</time></trkpt><trkpt lat="43.9727379" lon="12.4569726"><ele>219.79999999999998</ele><time>2026-04-30T17:17:23.088Z</time></trkpt><trkpt lat="43.9727078" lon="12.4570956"><ele>219.39999999999998</ele><time>2026-04-30T17:17:24.12Z</time></trkpt><trkpt lat="43.9726853" lon="12.4572273"><ele>219.0</ele><time>2026-04-30T17:17:25.1Z</time></trkpt><trkpt lat="43.9726779" lon="12.4573537"><ele>217.6</ele><time>2026-04-30T17:17:26.088Z</time></trkpt><trkpt lat="43.9726769" lon="12.4574805"><ele>216.2</ele><time>2026-04-30T17:17:27.104Z</time></trkpt><trkpt lat="43.972685" lon="12.4576114"><ele>214.79999999999998</ele><time>2026-04-30T17:17:28.097Z</time></trkpt><trkpt lat="43.9727001" lon="12.4577368"><ele>213.39999999999998</ele><time>2026-04-30T17:17:29.126Z</time></trkpt><trkpt lat="43.9727204" lon="12.4578556"><ele>212.0</ele><time>2026-04-30T17:17:30.072Z</time></trkpt><trkpt lat="43.9727429" lon="12.457984"><ele>211.16666666666669</ele><time>2026-04-30T17:17:31.126Z</time></trkpt><trkpt lat="43.9727675" lon="12.4581053"><ele>210.33333333333334</ele><time>2026-04-30T17:17:32.124Z</time></trkpt><trkpt lat="43.9727922" lon="12.458226"><ele>209.5</ele><time>2026-04-30T17:17:33.085Z</time></trkpt><trkpt lat="43.9728175" lon="12.4583402"><ele>208.66666666666669</ele><time>2026-04-30T17:17:34.125Z</time></trkpt><trkpt lat="43.9728437" lon="12.4584538"><ele>207.83333333333334</ele><time>2026-04-30T17:17:35.104Z</time></trkpt><trkpt lat="43.9728666" lon="12.4585575"><ele>207.0</ele><time>2026-04-30T17:17:36.123Z</time></trkpt><trkpt lat="43.9728933" lon="12.4586667"><ele>207.0</ele><time>2026-04-30T17:17:37.078Z</time></trkpt><trkpt lat="43.9729219" lon="12.4587722"><ele>207.0</ele><time>2026-04-30T17:17:38.135Z</time></trkpt><trkpt lat="43.9729506" lon="12.4588744"><ele>207.0</ele><time>2026-04-30T17:17:39.129Z</time></trkpt><trkpt lat="43.9729748" lon="12.4589765"><ele>207.0</ele><time>2026-04-30T17:17:40.124Z</time></trkpt><trkpt lat="43.9730027" lon="12.4590734"><ele>207.0</ele><time>2026-04-30T17:17:41.118Z</time></trkpt><trkpt lat="43.9730357" lon="12.4591734"><ele>207.0</ele><time>2026-04-30T17:17:42.107Z</time></trkpt><trkpt lat="43.9730663" lon="12.4592682"><ele>207.66666666666666</ele><time>2026-04-30T17:17:43.077Z</time></trkpt><trkpt lat="43.9730949" lon="12.4593667"><ele>208.33333333333331</ele><time>2026-04-30T17:17:44.119Z</time></trkpt><trkpt lat="43.9731324" lon="12.4594617"><ele>209.0</ele><time>2026-04-30T17:17:45.123Z</time></trkpt><trkpt lat="43.9731654" lon="12.4595506"><ele>209.66666666666666</ele><time>2026-04-30T17:17:46.089Z</time></trkpt><trkpt lat="43.9732015" lon="12.4596396"><ele>210.33333333333331</ele><time>2026-04-30T17:17:47.127Z</time></trkpt><trkpt lat="43.9732375" lon="12.45973"><ele>211.0</ele><time>2026-04-30T17:17:48.121Z</time></trkpt><trkpt lat="43.9732748" lon="12.4598249"><ele>211.16666666666666</ele><time>2026-04-30T17:17:49.113Z</time></trkpt><trkpt lat="43.9733133" lon="12.4599155"><ele>211.33333333333331</ele><time>2026-04-30T17:17:50.129Z</time></trkpt><trkpt lat="43.9733516" lon="12.4600032"><ele>211.5</ele><time>2026-04-30T17:17:51.092Z</time></trkpt><trkpt lat="43.9733856" lon="12.4600974"><ele>211.66666666666669</ele><time>2026-04-30T17:17:52.115Z</time></trkpt><trkpt lat="43.9734224" lon="12.4601931"><ele>211.83333333333334</ele><time>2026-04-30T17:17:53.118Z</time></trkpt><trkpt lat="43.9734586" lon="12.4602881"><ele>212.0</ele><time>2026-04-30T17:17:54.118Z</time></trkpt><trkpt lat="43.9734989" lon="12.4603797"><ele>211.85714285714286</ele><time>2026-04-30T17:17:55.111Z</time></trkpt><trkpt lat="43.9735341" lon="12.4604653"><ele>211.7142857142857</ele><time>2026-04-30T17:17:56.109Z</time></trkpt><trkpt lat="43.9735712" lon="12.4605479"><ele>211.57142857142856</ele><time>2026-04-30T17:17:57.097Z</time></trkpt><trkpt lat="43.9736085" lon="12.4606336"><ele>211.42857142857144</ele><time>2026-04-30T17:17:58.114Z</time></trkpt><trkpt lat="43.973647" lon="12.4607145"><ele>211.28571428571428</ele><time>2026-04-30T17:17:59.128Z</time></trkpt><trkpt lat="43.9736822" lon="12.460794"><ele>211.14285714285714</ele><time>2026-04-30T17:18:00.122Z</time></trkpt><trkpt lat="43.9737184" lon="12.4608696"><ele>211.0</ele><time>2026-04-30T17:18:01.125Z</time></trkpt><trkpt lat="43.9737527" lon="12.4609457"><ele>211.0</ele><time>2026-04-30T17:18:02.126Z</time></trkpt><trkpt lat="43.9737881" lon="12.4610185"><ele>211.0</ele><time>2026-04-30T17:18:03.115Z</time></trkpt><trkpt lat="43.9738444" lon="12.461164"><ele>211.0</ele><time>2026-04-30T17:18:05.127Z</time></trkpt><trkpt lat="43.9738923" lon="12.4612893"><ele>211.0</ele><time>2026-04-30T17:18:07.092Z</time></trkpt><trkpt lat="43.9739532" lon="12.461406"><ele>211.0</ele><time>2026-04-30T17:18:09.122Z</time></trkpt><trkpt lat="43.9740029" lon="12.4615119"><ele>211.66666666666666</ele><time>2026-04-30T17:18:11.126Z</time></trkpt><trkpt lat="43.9740434" lon="12.4616101"><ele>212.33333333333331</ele><time>2026-04-30T17:18:13.109Z</time></trkpt><trkpt lat="43.974083" lon="12.46172"><ele>213.0</ele><time>2026-04-30T17:18:15.096Z</time></trkpt><trkpt lat="43.9741294" lon="12.461821"><ele>213.66666666666669</ele><time>2026-04-30T17:18:17.106Z</time></trkpt><trkpt lat="43.9741701" lon="12.4619224"><ele>214.33333333333334</ele><time>2026-04-30T17:18:19.121Z</time></trkpt><trkpt lat="43.9742045" lon="12.4620141"><ele>215.0</ele><time>2026-04-30T17:18:21.106Z</time></trkpt><trkpt lat="43.9742491" lon="12.4621161"><ele>215.57142857142856</ele><time>2026-04-30T17:18:23.077Z</time></trkpt><trkpt lat="43.974281" lon="12.462199"><ele>216.14285714285717</ele><time>2026-04-30T17:18:25.114Z</time></trkpt><trkpt lat="43.974316" lon="12.4622783"><ele>216.71428571428572</ele><time>2026-04-30T17:18:27.09Z</time></trkpt><trkpt lat="43.9743527" lon="12.4623596"><ele>217.28571428571428</ele><time>2026-04-30T17:18:29.124Z</time></trkpt><trkpt lat="43.9743896" lon="12.4624463"><ele>217.85714285714283</ele><time>2026-04-30T17:18:31.13Z</time></trkpt><trkpt lat="43.9744281" lon="12.4625282"><ele>218.42857142857144</ele><time>2026-04-30T17:18:33.091Z</time></trkpt><trkpt lat="43.9744777" lon="12.4626122"><ele>219.0</ele><time>2026-04-30T17:18:35.094Z</time></trkpt><trkpt lat="43.9745248" lon="12.4626834"><ele>219.0</ele><time>2026-04-30T17:18:37.108Z</time></trkpt><trkpt lat="43.9745795" lon="12.4627474"><ele>219.0</ele><time>2026-04-30T17:18:39.073Z</time></trkpt><trkpt lat="43.9746329" lon="12.4628062"><ele>219.0</ele><time>2026-04-30T17:18:41.115Z</time></trkpt><trkpt lat="43.974693" lon="12.4628505"><ele>219.0</ele><time>2026-04-30T17:18:43.123Z</time></trkpt><trkpt lat="43.9747549" lon="12.4628862"><ele>219.0</ele><time>2026-04-30T17:18:45.128Z</time></trkpt><trkpt lat="43.9748169" lon="12.4629054"><ele>219.0</ele><time>2026-04-30T17:18:47.098Z</time></trkpt><trkpt lat="43.9748828" lon="12.4629279"><ele>219.0</ele><time>2026-04-30T17:18:49.129Z</time></trkpt><trkpt lat="43.9749516" lon="12.4629508"><ele>219.2</ele><time>2026-04-30T17:18:51.084Z</time></trkpt><trkpt lat="43.9750201" lon="12.4629747"><ele>219.39999999999998</ele><time>2026-04-30T17:18:53.116Z</time></trkpt><trkpt lat="43.9750963" lon="12.4630111"><ele>219.6</ele><time>2026-04-30T17:18:55.102Z</time></trkpt><trkpt lat="43.9751789" lon="12.4630843"><ele>219.8</ele><time>2026-04-30T17:18:57.124Z</time></trkpt><trkpt lat="43.9752138" lon="12.4632365"><ele>220.0</ele><time>2026-04-30T17:18:59.102Z</time></trkpt><trkpt lat="43.9751753" lon="12.4633535"><ele>219.99999999999997</ele><time>2026-04-30T17:19:01.1Z</time></trkpt><trkpt lat="43.9751057" lon="12.4634225"><ele>220.0</ele><time>2026-04-30T17:19:03.124Z</time></trkpt><trkpt lat="43.9750362" lon="12.4634765"><ele>220.0</ele><time>2026-04-30T17:19:05.11Z</time></trkpt><trkpt lat="43.974988" lon="12.463538"><ele>220.0</ele><time>2026-04-30T17:19:07.099Z</time></trkpt><trkpt lat="43.9749289" lon="12.4635882"><ele>220.0</ele><time>2026-04-30T17:19:09.111Z</time></trkpt><trkpt lat="43.9748665" lon="12.463651"><ele>219.99999999999997</ele><time>2026-04-30T17:19:11.111Z</time></trkpt><trkpt lat="43.9748197" lon="12.4637185"><ele>220.0</ele><time>2026-04-30T17:19:13.108Z</time></trkpt><trkpt lat="43.974766" lon="12.4637825"><ele>220.99999999999997</ele><time>2026-04-30T17:19:15.112Z</time></trkpt><trkpt lat="43.9747156" lon="12.463837"><ele>222.0</ele><time>2026-04-30T17:19:17.105Z</time></trkpt><trkpt lat="43.9746614" lon="12.4639"><ele>223.0</ele><time>2026-04-30T17:19:19.082Z</time></trkpt><trkpt lat="43.9746048" lon="12.4639596"><ele>224.0</ele><time>2026-04-30T17:19:21.082Z</time></trkpt><trkpt lat="43.9745355" lon="12.4640248"><ele>224.99999999999997</ele><time>2026-04-30T17:19:23.126Z</time></trkpt><trkpt lat="43.974471" lon="12.4640887"><ele>226.0</ele><time>2026-04-30T17:19:25.116Z</time></trkpt><trkpt lat="43.9743982" lon="12.4641571"><ele>226.0</ele><time>2026-04-30T17:19:27.145Z</time></trkpt><trkpt lat="43.9743182" lon="12.4642325"><ele>226.00000000000003</ele><time>2026-04-30T17:19:29.118Z</time></trkpt><trkpt lat="43.9742352" lon="12.4643216"><ele>226.00000000000003</ele><time>2026-04-30T17:19:31.124Z</time></trkpt><trkpt lat="43.9741571" lon="12.464452"><ele>226.0</ele><time>2026-04-30T17:19:33.105Z</time></trkpt><trkpt lat="43.9741302" lon="12.4645415"><ele>226.0</ele><time>2026-04-30T17:19:34.109Z</time></trkpt><trkpt lat="43.9741103" lon="12.464633"><ele>225.8</ele><time>2026-04-30T17:19:35.096Z</time></trkpt><trkpt lat="43.974103" lon="12.4647332"><ele>225.60000000000002</ele><time>2026-04-30T17:19:36.131Z</time></trkpt><trkpt lat="43.9740981" lon="12.4648539"><ele>225.4</ele><time>2026-04-30T17:19:37.126Z</time></trkpt><trkpt lat="43.9741052" lon="12.4649809"><ele>225.2</ele><time>2026-04-30T17:19:38.131Z</time></trkpt><trkpt lat="43.9741136" lon="12.465116"><ele>225.0</ele><time>2026-04-30T17:19:39.142Z</time></trkpt><trkpt lat="43.9741232" lon="12.4652571"><ele>225.0</ele><time>2026-04-30T17:19:40.113Z</time></trkpt><trkpt lat="43.9741313" lon="12.4654081"><ele>225.0</ele><time>2026-04-30T17:19:41.121Z</time></trkpt><trkpt lat="43.9741434" lon="12.4655635"><ele>225.0</ele><time>2026-04-30T17:19:42.128Z</time></trkpt><trkpt lat="43.9741505" lon="12.4657139"><ele>225.0</ele><time>2026-04-30T17:19:43.112Z</time></trkpt><trkpt lat="43.9741629" lon="12.4658773"><ele>225.0</ele><time>2026-04-30T17:19:44.086Z</time></trkpt><trkpt lat="43.9741773" lon="12.4660417"><ele>223.25</ele><time>2026-04-30T17:19:45.106Z</time></trkpt><trkpt lat="43.9741914" lon="12.4662021"><ele>221.5</ele><time>2026-04-30T17:19:46.093Z</time></trkpt><trkpt lat="43.974205" lon="12.4663618"><ele>219.75</ele><time>2026-04-30T17:19:47.113Z</time></trkpt><trkpt lat="43.9742211" lon="12.4665326"><ele>218.0</ele><time>2026-04-30T17:19:48.119Z</time></trkpt><trkpt lat="43.9742345" lon="12.4667011"><ele>217.0</ele><time>2026-04-30T17:19:49.116Z</time></trkpt><trkpt lat="43.9742456" lon="12.4668694"><ele>216.0</ele><time>2026-04-30T17:19:50.119Z</time></trkpt><trkpt lat="43.9742519" lon="12.4670381"><ele>215.0</ele><time>2026-04-30T17:19:51.117Z</time></trkpt><trkpt lat="43.974255" lon="12.4672054"><ele>214.0</ele><time>2026-04-30T17:19:52.12Z</time></trkpt><trkpt lat="43.9742647" lon="12.4673702"><ele>211.5</ele><time>2026-04-30T17:19:53.12Z</time></trkpt><trkpt lat="43.974272" lon="12.4675351"><ele>209.0</ele><time>2026-04-30T17:19:54.124Z</time></trkpt><trkpt lat="43.9742809" lon="12.4676981"><ele>206.5</ele><time>2026-04-30T17:19:55.139Z</time></trkpt><trkpt lat="43.9742876" lon="12.4678578"><ele>204.0</ele><time>2026-04-30T17:19:56.107Z</time></trkpt><trkpt lat="43.9742943" lon="12.4680194"><ele>203.2</ele><time>2026-04-30T17:19:57.114Z</time></trkpt><trkpt lat="43.9743076" lon="12.4681762"><ele>202.39999999999998</ele><time>2026-04-30T17:19:58.136Z</time></trkpt><trkpt lat="43.9743185" lon="12.4683303"><ele>201.6</ele><time>2026-04-30T17:19:59.127Z</time></trkpt><trkpt lat="43.9743273" lon="12.4684818"><ele>200.8</ele><time>2026-04-30T17:20:00.131Z</time></trkpt><trkpt lat="43.9743417" lon="12.4686344"><ele>200.0</ele><time>2026-04-30T17:20:01.123Z</time></trkpt><trkpt lat="43.9743567" lon="12.4687848"><ele>199.0</ele><time>2026-04-30T17:20:02.099Z</time></trkpt><trkpt lat="43.9743664" lon="12.468942"><ele>198.0</ele><time>2026-04-30T17:20:03.126Z</time></trkpt><trkpt lat="43.9743738" lon="12.4690945"><ele>197.0</ele><time>2026-04-30T17:20:04.104Z</time></trkpt><trkpt lat="43.9743794" lon="12.4692448"><ele>196.0</ele><time>2026-04-30T17:20:05.111Z</time></trkpt><trkpt lat="43.9743855" lon="12.4694044"><ele>195.0</ele><time>2026-04-30T17:20:06.121Z</time></trkpt><trkpt lat="43.9743933" lon="12.4695566"><ele>194.4</ele><time>2026-04-30T17:20:07.132Z</time></trkpt><trkpt lat="43.9743985" lon="12.4697032"><ele>193.8</ele><time>2026-04-30T17:20:08.103Z</time></trkpt><trkpt lat="43.974406" lon="12.4698454"><ele>193.2</ele><time>2026-04-30T17:20:09.084Z</time></trkpt><trkpt lat="43.9744139" lon="12.4699929"><ele>192.6</ele><time>2026-04-30T17:20:10.114Z</time></trkpt><trkpt lat="43.9744227" lon="12.4701439"><ele>192.0</ele><time>2026-04-30T17:20:11.103Z</time></trkpt><trkpt lat="43.9744318" lon="12.4702939"><ele>192.0</ele><time>2026-04-30T17:20:12.126Z</time></trkpt><trkpt lat="43.9744425" lon="12.4704396"><ele>192.0</ele><time>2026-04-30T17:20:13.131Z</time></trkpt><trkpt lat="43.974452" lon="12.4705908"><ele>192.0</ele><time>2026-04-30T17:20:14.11Z</time></trkpt><trkpt lat="43.9744601" lon="12.470737"><ele>192.0</ele><time>2026-04-30T17:20:15.097Z</time></trkpt><trkpt lat="43.9744635" lon="12.4708836"><ele>192.0</ele><time>2026-04-30T17:20:16.122Z</time></trkpt><trkpt lat="43.9744679" lon="12.4710311"><ele>192.0</ele><time>2026-04-30T17:20:17.133Z</time></trkpt><trkpt lat="43.9744741" lon="12.4711767"><ele>192.0</ele><time>2026-04-30T17:20:18.111Z</time></trkpt><trkpt lat="43.9744868" lon="12.4713192"><ele>192.0</ele><time>2026-04-30T17:20:19.121Z</time></trkpt><trkpt lat="43.9745004" lon="12.4714693"><ele>192.0</ele><time>2026-04-30T17:20:20.107Z</time></trkpt><trkpt lat="43.9745227" lon="12.4716032"><ele>192.0</ele><time>2026-04-30T17:20:21.113Z</time></trkpt><trkpt lat="43.9745497" lon="12.4717349"><ele>191.8</ele><time>2026-04-30T17:20:22.128Z</time></trkpt><trkpt lat="43.9745819" lon="12.4718619"><ele>191.6</ele><time>2026-04-30T17:20:23.115Z</time></trkpt><trkpt lat="43.9746208" lon="12.4719836"><ele>191.4</ele><time>2026-04-30T17:20:24.125Z</time></trkpt><trkpt lat="43.9746674" lon="12.4720986"><ele>191.20000000000002</ele><time>2026-04-30T17:20:25.102Z</time></trkpt><trkpt lat="43.9747238" lon="12.4722174"><ele>191.0</ele><time>2026-04-30T17:20:26.122Z</time></trkpt><trkpt lat="43.9747879" lon="12.4723232"><ele>190.0</ele><time>2026-04-30T17:20:27.116Z</time></trkpt><trkpt lat="43.9748593" lon="12.4724242"><ele>189.0</ele><time>2026-04-30T17:20:28.114Z</time></trkpt><trkpt lat="43.9749286" lon="12.4725172"><ele>188.0</ele><time>2026-04-30T17:20:29.125Z</time></trkpt><trkpt lat="43.9750032" lon="12.4726054"><ele>187.0</ele><time>2026-04-30T17:20:30.104Z</time></trkpt><trkpt lat="43.9750813" lon="12.4726969"><ele>186.0</ele><time>2026-04-30T17:20:31.124Z</time></trkpt><trkpt lat="43.9751533" lon="12.4727856"><ele>185.4</ele><time>2026-04-30T17:20:32.088Z</time></trkpt><trkpt lat="43.9752328" lon="12.4728771"><ele>184.8</ele><time>2026-04-30T17:20:33.079Z</time></trkpt><trkpt lat="43.9753127" lon="12.4729538"><ele>184.20000000000002</ele><time>2026-04-30T17:20:34.128Z</time></trkpt><trkpt lat="43.975391" lon="12.473037"><ele>183.60000000000002</ele><time>2026-04-30T17:20:35.109Z</time></trkpt><trkpt lat="43.975473" lon="12.4731223"><ele>183.0</ele><time>2026-04-30T17:20:36.13Z</time></trkpt><trkpt lat="43.9755502" lon="12.4732057"><ele>183.0</ele><time>2026-04-30T17:20:37.129Z</time></trkpt><trkpt lat="43.9756251" lon="12.4732885"><ele>183.0</ele><time>2026-04-30T17:20:38.123Z</time></trkpt><trkpt lat="43.9757049" lon="12.4733749"><ele>183.0</ele><time>2026-04-30T17:20:39.123Z</time></trkpt><trkpt lat="43.975789" lon="12.4734643"><ele>183.0</ele><time>2026-04-30T17:20:40.116Z</time></trkpt><trkpt lat="43.975874" lon="12.4735618"><ele>183.0</ele><time>2026-04-30T17:20:41.104Z</time></trkpt><trkpt lat="43.9759516" lon="12.4736555"><ele>180.60000000000002</ele><time>2026-04-30T17:20:42.125Z</time></trkpt><trkpt lat="43.9760313" lon="12.4737511"><ele>178.20000000000002</ele><time>2026-04-30T17:20:43.125Z</time></trkpt><trkpt lat="43.9761089" lon="12.4738495"><ele>175.8</ele><time>2026-04-30T17:20:44.115Z</time></trkpt><trkpt lat="43.976189" lon="12.4739587"><ele>173.4</ele><time>2026-04-30T17:20:45.115Z</time></trkpt><trkpt lat="43.9762726" lon="12.4740759"><ele>171.0</ele><time>2026-04-30T17:20:46.102Z</time></trkpt><trkpt lat="43.9763563" lon="12.4741904"><ele>170.25</ele><time>2026-04-30T17:20:47.121Z</time></trkpt><trkpt lat="43.9764484" lon="12.4743075"><ele>169.5</ele><time>2026-04-30T17:20:48.132Z</time></trkpt><trkpt lat="43.9765357" lon="12.4744206"><ele>168.75</ele><time>2026-04-30T17:20:49.108Z</time></trkpt><trkpt lat="43.9766236" lon="12.4745409"><ele>168.0</ele><time>2026-04-30T17:20:50.13Z</time></trkpt><trkpt lat="43.9767113" lon="12.4746609"><ele>165.0</ele><time>2026-04-30T17:20:51.113Z</time></trkpt><trkpt lat="43.9767976" lon="12.4747864"><ele>162.0</ele><time>2026-04-30T17:20:52.116Z</time></trkpt><trkpt lat="43.9768824" lon="12.4749081"><ele>159.0</ele><time>2026-04-30T17:20:53.111Z</time></trkpt><trkpt lat="43.9769751" lon="12.4750344"><ele>156.0</ele><time>2026-04-30T17:20:54.092Z</time></trkpt><trkpt lat="43.9770689" lon="12.475154"><ele>156.0</ele><time>2026-04-30T17:20:55.114Z</time></trkpt><trkpt lat="43.9771581" lon="12.475282"><ele>156.0</ele><time>2026-04-30T17:20:56.099Z</time></trkpt><trkpt lat="43.9772524" lon="12.4754001"><ele>156.0</ele><time>2026-04-30T17:20:57.114Z</time></trkpt><trkpt lat="43.9773442" lon="12.475526"><ele>156.0</ele><time>2026-04-30T17:20:58.115Z</time></trkpt><trkpt lat="43.97743" lon="12.4756623"><ele>155.25</ele><time>2026-04-30T17:20:59.121Z</time></trkpt><trkpt lat="43.9775015" lon="12.4758157"><ele>154.5</ele><time>2026-04-30T17:21:00.077Z</time></trkpt><trkpt lat="43.9775476" lon="12.4759849"><ele>153.75</ele><time>2026-04-30T17:21:01.11Z</time></trkpt><trkpt lat="43.9775846" lon="12.4761582"><ele>153.0</ele><time>2026-04-30T17:21:02.125Z</time></trkpt><trkpt lat="43.9776122" lon="12.4763299"><ele>150.0</ele><time>2026-04-30T17:21:03.122Z</time></trkpt><trkpt lat="43.9776349" lon="12.4764976"><ele>147.0</ele><time>2026-04-30T17:21:04.08Z</time></trkpt><trkpt lat="43.9776645" lon="12.476667"><ele>144.0</ele><time>2026-04-30T17:21:05.129Z</time></trkpt><trkpt lat="43.9776899" lon="12.4768371"><ele>141.0</ele><time>2026-04-30T17:21:06.111Z</time></trkpt><trkpt lat="43.9777161" lon="12.4769938"><ele>140.66666666666666</ele><time>2026-04-30T17:21:07.127Z</time></trkpt><trkpt lat="43.9777422" lon="12.4771442"><ele>140.33333333333334</ele><time>2026-04-30T17:21:08.118Z</time></trkpt><trkpt lat="43.9777477" lon="12.4772775"><ele>140.0</ele><time>2026-04-30T17:21:09.113Z</time></trkpt><trkpt lat="43.9777384" lon="12.4773909"><ele>139.66666666666669</ele><time>2026-04-30T17:21:10.12Z</time></trkpt><trkpt lat="43.9777191" lon="12.4774842"><ele>139.33333333333334</ele><time>2026-04-30T17:21:11.125Z</time></trkpt><trkpt lat="43.9776939" lon="12.4775762"><ele>139.0</ele><time>2026-04-30T17:21:12.077Z</time></trkpt><trkpt lat="43.9776835" lon="12.4776824"><ele>139.0</ele><time>2026-04-30T17:21:13.091Z</time></trkpt><trkpt lat="43.9776925" lon="12.4777852"><ele>139.0</ele><time>2026-04-30T17:21:14.122Z</time></trkpt><trkpt lat="43.9777272" lon="12.4778912"><ele>139.0</ele><time>2026-04-30T17:21:15.112Z</time></trkpt><trkpt lat="43.9777958" lon="12.4779635"><ele>139.0</ele><time>2026-04-30T17:21:16.083Z</time></trkpt><trkpt lat="43.9778762" lon="12.4780393"><ele>139.0</ele><time>2026-04-30T17:21:17.101Z</time></trkpt><trkpt lat="43.9779249" lon="12.4781377"><ele>139.0</ele><time>2026-04-30T17:21:18.112Z</time></trkpt><trkpt lat="43.9779384" lon="12.478265"><ele>139.0</ele><time>2026-04-30T17:21:19.124Z</time></trkpt><trkpt lat="43.9779507" lon="12.4783919"><ele>139.0</ele><time>2026-04-30T17:21:20.122Z</time></trkpt><trkpt lat="43.9779631" lon="12.4785137"><ele>139.0</ele><time>2026-04-30T17:21:21.128Z</time></trkpt><trkpt lat="43.9779828" lon="12.4786438"><ele>139.0</ele><time>2026-04-30T17:21:22.121Z</time></trkpt><trkpt lat="43.9780045" lon="12.478772"><ele>139.0</ele><time>2026-04-30T17:21:23.119Z</time></trkpt><trkpt lat="43.9780222" lon="12.4789054"><ele>137.8</ele><time>2026-04-30T17:21:24.059Z</time></trkpt><trkpt lat="43.9780436" lon="12.4790481"><ele>136.60000000000002</ele><time>2026-04-30T17:21:25.062Z</time></trkpt><trkpt lat="43.9780592" lon="12.4791917"><ele>135.4</ele><time>2026-04-30T17:21:26.049Z</time></trkpt><trkpt lat="43.9780779" lon="12.4793296"><ele>134.20000000000002</ele><time>2026-04-30T17:21:27.081Z</time></trkpt><trkpt lat="43.9780914" lon="12.4794711"><ele>133.0</ele><time>2026-04-30T17:21:28.069Z</time></trkpt><trkpt lat="43.978109" lon="12.4796114"><ele>132.16666666666669</ele><time>2026-04-30T17:21:29.119Z</time></trkpt><trkpt lat="43.9781307" lon="12.4797394"><ele>131.33333333333334</ele><time>2026-04-30T17:21:30.053Z</time></trkpt><trkpt lat="43.9781574" lon="12.4798826"><ele>130.5</ele><time>2026-04-30T17:21:31.107Z</time></trkpt><trkpt lat="43.9781765" lon="12.4800134"><ele>129.66666666666666</ele><time>2026-04-30T17:21:32.109Z</time></trkpt><trkpt lat="43.9781903" lon="12.4801296"><ele>128.83333333333331</ele><time>2026-04-30T17:21:33.099Z</time></trkpt><trkpt lat="43.9782016" lon="12.4802181"><ele>128.0</ele><time>2026-04-30T17:21:34.109Z</time></trkpt><trkpt lat="43.9781943" lon="12.4803661"><ele>128.0</ele><time>2026-04-30T17:21:36.133Z</time></trkpt><trkpt lat="43.9781123" lon="12.4804568"><ele>128.0</ele><time>2026-04-30T17:21:38.115Z</time></trkpt><trkpt lat="43.9780267" lon="12.4805046"><ele>128.0</ele><time>2026-04-30T17:21:40.108Z</time></trkpt><trkpt lat="43.9779456" lon="12.4805676"><ele>128.0</ele><time>2026-04-30T17:21:42.106Z</time></trkpt><trkpt lat="43.9778461" lon="12.4806331"><ele>128.0</ele><time>2026-04-30T17:21:44.11Z</time></trkpt><trkpt lat="43.9777352" lon="12.4807111"><ele>127.99999999999999</ele><time>2026-04-30T17:21:46.092Z</time></trkpt><trkpt lat="43.9776811" lon="12.4807619"><ele>128.0</ele><time>2026-04-30T17:21:47.128Z</time></trkpt><trkpt lat="43.9776259" lon="12.4808089"><ele>128.0</ele><time>2026-04-30T17:21:48.109Z</time></trkpt><trkpt lat="43.9775647" lon="12.4808624"><ele>128.0</ele><time>2026-04-30T17:21:49.125Z</time></trkpt><trkpt lat="43.9774952" lon="12.4809313"><ele>127.99999999999999</ele><time>2026-04-30T17:21:50.1Z</time></trkpt><trkpt lat="43.9774226" lon="12.4809988"><ele>128.0</ele><time>2026-04-30T17:21:51.108Z</time></trkpt><trkpt lat="43.9773511" lon="12.4810615"><ele>127.60000000000001</ele><time>2026-04-30T17:21:52.116Z</time></trkpt><trkpt lat="43.9772791" lon="12.4811249"><ele>127.20000000000002</ele><time>2026-04-30T17:21:53.111Z</time></trkpt><trkpt lat="43.9772039" lon="12.4811709"><ele>126.8</ele><time>2026-04-30T17:21:54.111Z</time></trkpt><trkpt lat="43.9771149" lon="12.4811736"><ele>126.4</ele><time>2026-04-30T17:21:55.114Z</time></trkpt><trkpt lat="43.9770107" lon="12.4811308"><ele>126.0</ele><time>2026-04-30T17:21:56.09Z</time></trkpt><trkpt lat="43.9769082" lon="12.4810979"><ele>126.0</ele><time>2026-04-30T17:21:57.103Z</time></trkpt><trkpt lat="43.9768062" lon="12.4810841"><ele>126.0</ele><time>2026-04-30T17:21:58.11Z</time></trkpt><trkpt lat="43.9767012" lon="12.4810802"><ele>126.0</ele><time>2026-04-30T17:21:59.123Z</time></trkpt><trkpt lat="43.9766046" lon="12.4810924"><ele>126.0</ele><time>2026-04-30T17:22:00.109Z</time></trkpt><trkpt lat="43.9765166" lon="12.4811083"><ele>126.0</ele><time>2026-04-30T17:22:01.082Z</time></trkpt><trkpt lat="43.9764289" lon="12.4811137"><ele>125.0</ele><time>2026-04-30T17:22:02.09Z</time></trkpt><trkpt lat="43.9763547" lon="12.4811236"><ele>124.0</ele><time>2026-04-30T17:22:03.111Z</time></trkpt><trkpt lat="43.9762929" lon="12.4811513"><ele>123.0</ele><time>2026-04-30T17:22:04.112Z</time></trkpt><trkpt lat="43.9762449" lon="12.4812291"><ele>122.0</ele><time>2026-04-30T17:22:06.069Z</time></trkpt><trkpt lat="43.976308" lon="12.4813315"><ele>121.0</ele><time>2026-04-30T17:22:08.102Z</time></trkpt><trkpt lat="43.9763661" lon="12.4814251"><ele>120.0</ele><time>2026-04-30T17:22:10.127Z</time></trkpt><trkpt lat="43.9764234" lon="12.4815115"><ele>119.42857142857143</ele><time>2026-04-30T17:22:12.126Z</time></trkpt><trkpt lat="43.9764653" lon="12.4815808"><ele>118.85714285714286</ele><time>2026-04-30T17:22:15.107Z</time></trkpt><trkpt lat="43.9765086" lon="12.4816507"><ele>118.28571428571429</ele><time>2026-04-30T17:23:16.087Z</time></trkpt><trkpt lat="43.9764653" lon="12.4817223"><ele>117.71428571428572</ele><time>2026-04-30T17:23:28.1Z</time></trkpt><trkpt lat="43.9764093" lon="12.4816662"><ele>117.14285714285714</ele><time>2026-04-30T17:23:46.713Z</time></trkpt><trkpt lat="43.9764132" lon="12.4815782"><ele>116.57142857142858</ele><time>2026-04-30T17:23:58.25Z</time></trkpt><trkpt lat="43.9763392" lon="12.4815782"><ele>116.00000000000001</ele><time>2026-04-30T17:24:29.067Z</time></trkpt><trkpt lat="43.9762998" lon="12.481503"><ele>116.0</ele><time>2026-04-30T17:24:59.077Z</time></trkpt><trkpt lat="43.9762092" lon="12.4814211"><ele>116.0</ele><time>2026-04-30T17:25:04.78Z</time></trkpt><trkpt lat="43.9761236" lon="12.4814107"><ele>116.0</ele><time>2026-04-30T17:25:10.379Z</time></trkpt><trkpt lat="43.9761041" lon="12.4815202"><ele>116.0</ele><time>2026-04-30T17:25:16.23Z</time></trkpt><trkpt lat="43.9762719" lon="12.4815289"><ele>116.0</ele><time>2026-04-30T17:25:22.751Z</time></trkpt><trkpt lat="43.9763314" lon="12.4814835"><ele>116.0</ele><time>2026-04-30T17:25:28.632Z</time></trkpt><trkpt lat="43.9764743" lon="12.4816627"><ele>116.0</ele><time>2026-04-30T17:32:59.294Z</time></trkpt></trkseg></trk></gpx>